<?xml version="1.0" encoding="UTF-8" standalone="no" ?>
<gpx xmlns="http://www.topografix.com/GPX/1/1" xmlns:xsi="http://www.w3.org/2001/XMLSchema-instance" xsi:schemaLocation="http://www.topografix.com/GPX/1/1 http://www.topografix.com/GPX/1/1/gpx.xsd" version="1.1" creator="VisuGPX - https://www.visugpx.com">
  <metadata>
    <name>Lauvet d\'Ilonse</name>
    <desc><![CDATA[Au départ du Col de la Sinne, croché par \"Le Mont\" (1792m) à l\'aller.
Magnifique parcours.
]]></desc>
  </metadata>
  <trk>
    <name><![CDATA[Lauvet d'Ilonse]]></name>
    <cmt><![CDATA[Effectué avec Lise.
Toujours une très belle randonnée, un peu courte.

Portable : 90%
]]></cmt>
    <trkseg>
      <trkpt lat="44.02557" lon="7.06846">
        <ele>1443</ele>
        <time>2015-08-20T07:16:56Z</time>
      </trkpt>
      <trkpt lat="44.02583" lon="7.06838">
        <ele>1446</ele>
        <time>2015-08-20T07:17:27Z</time>
      </trkpt>
      <trkpt lat="44.02585" lon="7.06837">
        <ele>1446</ele>
        <time>2015-08-20T07:17:28Z</time>
      </trkpt>
      <trkpt lat="44.02587" lon="7.06837">
        <ele>1446</ele>
        <time>2015-08-20T07:17:30Z</time>
      </trkpt>
      <trkpt lat="44.02589" lon="7.06837">
        <ele>1446</ele>
        <time>2015-08-20T07:17:32Z</time>
      </trkpt>
      <trkpt lat="44.02592" lon="7.06835">
        <ele>1446</ele>
        <time>2015-08-20T07:17:36Z</time>
      </trkpt>
      <trkpt lat="44.02594" lon="7.06835">
        <ele>1446</ele>
        <time>2015-08-20T07:17:36Z</time>
      </trkpt>
      <trkpt lat="44.02595" lon="7.06834">
        <ele>1446</ele>
        <time>2015-08-20T07:17:37Z</time>
      </trkpt>
      <trkpt lat="44.02598" lon="7.06833">
        <ele>1446</ele>
        <time>2015-08-20T07:17:39Z</time>
      </trkpt>
      <trkpt lat="44.02599" lon="7.06833">
        <ele>1445</ele>
        <time>2015-08-20T07:17:41Z</time>
      </trkpt>
      <trkpt lat="44.026" lon="7.06833">
        <ele>1445</ele>
        <time>2015-08-20T07:17:41Z</time>
      </trkpt>
      <trkpt lat="44.02604" lon="7.06831">
        <ele>1445</ele>
        <time>2015-08-20T07:17:44Z</time>
      </trkpt>
      <trkpt lat="44.02606" lon="7.0683">
        <ele>1445</ele>
        <time>2015-08-20T07:17:45Z</time>
      </trkpt>
      <trkpt lat="44.02607" lon="7.06829">
        <ele>1445</ele>
        <time>2015-08-20T07:17:47Z</time>
      </trkpt>
      <trkpt lat="44.0261" lon="7.06828">
        <ele>1445</ele>
        <time>2015-08-20T07:17:49Z</time>
      </trkpt>
      <trkpt lat="44.02612" lon="7.06828">
        <ele>1445</ele>
        <time>2015-08-20T07:17:49Z</time>
      </trkpt>
      <trkpt lat="44.02614" lon="7.06827">
        <ele>1445</ele>
        <time>2015-08-20T07:17:50Z</time>
      </trkpt>
      <trkpt lat="44.02617" lon="7.06826">
        <ele>1445</ele>
        <time>2015-08-20T07:17:53Z</time>
      </trkpt>
      <trkpt lat="44.02618" lon="7.06826">
        <ele>1445</ele>
        <time>2015-08-20T07:17:53Z</time>
      </trkpt>
      <trkpt lat="44.0262" lon="7.06826">
        <ele>1445</ele>
        <time>2015-08-20T07:17:54Z</time>
      </trkpt>
      <trkpt lat="44.02624" lon="7.06825">
        <ele>1445</ele>
        <time>2015-08-20T07:17:57Z</time>
      </trkpt>
      <trkpt lat="44.02626" lon="7.06825">
        <ele>1445</ele>
        <time>2015-08-20T07:17:58Z</time>
      </trkpt>
      <trkpt lat="44.02628" lon="7.06825">
        <ele>1445</ele>
        <time>2015-08-20T07:18:01Z</time>
      </trkpt>
      <trkpt lat="44.02631" lon="7.06824">
        <ele>1445</ele>
        <time>2015-08-20T07:18:02Z</time>
      </trkpt>
      <trkpt lat="44.02633" lon="7.06824">
        <ele>1445</ele>
        <time>2015-08-20T07:18:03Z</time>
      </trkpt>
      <trkpt lat="44.02636" lon="7.06823">
        <ele>1445</ele>
        <time>2015-08-20T07:18:06Z</time>
      </trkpt>
      <trkpt lat="44.02637" lon="7.06823">
        <ele>1445</ele>
        <time>2015-08-20T07:18:06Z</time>
      </trkpt>
      <trkpt lat="44.02639" lon="7.06822">
        <ele>1445</ele>
        <time>2015-08-20T07:18:07Z</time>
      </trkpt>
      <trkpt lat="44.0264" lon="7.0682">
        <ele>1445</ele>
        <time>2015-08-20T07:18:09Z</time>
      </trkpt>
      <trkpt lat="44.02643" lon="7.06817">
        <ele>1445</ele>
        <time>2015-08-20T07:18:12Z</time>
      </trkpt>
      <trkpt lat="44.02646" lon="7.06815">
        <ele>1445</ele>
        <time>2015-08-20T07:18:12Z</time>
      </trkpt>
      <trkpt lat="44.02647" lon="7.06815">
        <ele>1445</ele>
        <time>2015-08-20T07:18:14Z</time>
      </trkpt>
      <trkpt lat="44.0265" lon="7.06812">
        <ele>1445</ele>
        <time>2015-08-20T07:18:16Z</time>
      </trkpt>
      <trkpt lat="44.02653" lon="7.06809">
        <ele>1445</ele>
        <time>2015-08-20T07:18:17Z</time>
      </trkpt>
      <trkpt lat="44.02654" lon="7.06808">
        <ele>1445</ele>
        <time>2015-08-20T07:18:18Z</time>
      </trkpt>
      <trkpt lat="44.02657" lon="7.06805">
        <ele>1445</ele>
        <time>2015-08-20T07:18:21Z</time>
      </trkpt>
      <trkpt lat="44.02658" lon="7.06804">
        <ele>1445</ele>
        <time>2015-08-20T07:18:21Z</time>
      </trkpt>
      <trkpt lat="44.0266" lon="7.06804">
        <ele>1445</ele>
        <time>2015-08-20T07:18:22Z</time>
      </trkpt>
      <trkpt lat="44.02661" lon="7.06804">
        <ele>1445</ele>
        <time>2015-08-20T07:18:24Z</time>
      </trkpt>
      <trkpt lat="44.02664" lon="7.06803">
        <ele>1445</ele>
        <time>2015-08-20T07:18:26Z</time>
      </trkpt>
      <trkpt lat="44.02667" lon="7.06801">
        <ele>1445</ele>
        <time>2015-08-20T07:18:27Z</time>
      </trkpt>
      <trkpt lat="44.02668" lon="7.06801">
        <ele>1445</ele>
        <time>2015-08-20T07:18:28Z</time>
      </trkpt>
      <trkpt lat="44.02672" lon="7.06799">
        <ele>1445</ele>
        <time>2015-08-20T07:18:31Z</time>
      </trkpt>
      <trkpt lat="44.02674" lon="7.06799">
        <ele>1445</ele>
        <time>2015-08-20T07:18:32Z</time>
      </trkpt>
      <trkpt lat="44.02677" lon="7.06799">
        <ele>1445</ele>
        <time>2015-08-20T07:18:36Z</time>
      </trkpt>
      <trkpt lat="44.02679" lon="7.06798">
        <ele>1445</ele>
        <time>2015-08-20T07:18:36Z</time>
      </trkpt>
      <trkpt lat="44.02681" lon="7.06798">
        <ele>1445</ele>
        <time>2015-08-20T07:18:37Z</time>
      </trkpt>
      <trkpt lat="44.02682" lon="7.06797">
        <ele>1445</ele>
        <time>2015-08-20T07:18:38Z</time>
      </trkpt>
      <trkpt lat="44.02685" lon="7.06797">
        <ele>1445</ele>
        <time>2015-08-20T07:18:41Z</time>
      </trkpt>
      <trkpt lat="44.02687" lon="7.06797">
        <ele>1445</ele>
        <time>2015-08-20T07:18:42Z</time>
      </trkpt>
      <trkpt lat="44.0269" lon="7.06797">
        <ele>1445</ele>
        <time>2015-08-20T07:18:45Z</time>
      </trkpt>
      <trkpt lat="44.02692" lon="7.06797">
        <ele>1445</ele>
        <time>2015-08-20T07:18:48Z</time>
      </trkpt>
      <trkpt lat="44.02695" lon="7.06797">
        <ele>1445</ele>
        <time>2015-08-20T07:18:48Z</time>
      </trkpt>
      <trkpt lat="44.02696" lon="7.06797">
        <ele>1445</ele>
        <time>2015-08-20T07:18:49Z</time>
      </trkpt>
      <trkpt lat="44.02699" lon="7.06795">
        <ele>1445</ele>
        <time>2015-08-20T07:18:53Z</time>
      </trkpt>
      <trkpt lat="44.02702" lon="7.06795">
        <ele>1445</ele>
        <time>2015-08-20T07:18:53Z</time>
      </trkpt>
      <trkpt lat="44.02703" lon="7.06795">
        <ele>1445</ele>
        <time>2015-08-20T07:18:54Z</time>
      </trkpt>
      <trkpt lat="44.02708" lon="7.06792">
        <ele>1445</ele>
        <time>2015-08-20T07:18:58Z</time>
      </trkpt>
      <trkpt lat="44.02709" lon="7.06792">
        <ele>1445</ele>
        <time>2015-08-20T07:18:59Z</time>
      </trkpt>
      <trkpt lat="44.0271" lon="7.06792">
        <ele>1445</ele>
        <time>2015-08-20T07:19:00Z</time>
      </trkpt>
      <trkpt lat="44.02713" lon="7.06791">
        <ele>1446</ele>
        <time>2015-08-20T07:19:04Z</time>
      </trkpt>
      <trkpt lat="44.02715" lon="7.06791">
        <ele>1446</ele>
        <time>2015-08-20T07:19:04Z</time>
      </trkpt>
      <trkpt lat="44.02717" lon="7.0679">
        <ele>1447</ele>
        <time>2015-08-20T07:19:05Z</time>
      </trkpt>
      <trkpt lat="44.02722" lon="7.06788">
        <ele>1447</ele>
        <time>2015-08-20T07:19:09Z</time>
      </trkpt>
      <trkpt lat="44.02724" lon="7.06787">
        <ele>1448</ele>
        <time>2015-08-20T07:19:10Z</time>
      </trkpt>
      <trkpt lat="44.02727" lon="7.06786">
        <ele>1448</ele>
        <time>2015-08-20T07:19:14Z</time>
      </trkpt>
      <trkpt lat="44.02731" lon="7.06785">
        <ele>1448</ele>
        <time>2015-08-20T07:19:15Z</time>
      </trkpt>
      <trkpt lat="44.02732" lon="7.06785">
        <ele>1449</ele>
        <time>2015-08-20T07:19:16Z</time>
      </trkpt>
      <trkpt lat="44.02735" lon="7.06786">
        <ele>1449</ele>
        <time>2015-08-20T07:19:20Z</time>
      </trkpt>
      <trkpt lat="44.02737" lon="7.06786">
        <ele>1449</ele>
        <time>2015-08-20T07:19:20Z</time>
      </trkpt>
      <trkpt lat="44.02739" lon="7.06785">
        <ele>1449</ele>
        <time>2015-08-20T07:19:21Z</time>
      </trkpt>
      <trkpt lat="44.02741" lon="7.06784">
        <ele>1449</ele>
        <time>2015-08-20T07:19:25Z</time>
      </trkpt>
      <trkpt lat="44.02745" lon="7.06786">
        <ele>1449</ele>
        <time>2015-08-20T07:19:26Z</time>
      </trkpt>
      <trkpt lat="44.02748" lon="7.06787">
        <ele>1450</ele>
        <time>2015-08-20T07:19:31Z</time>
      </trkpt>
      <trkpt lat="44.0275" lon="7.06788">
        <ele>1450</ele>
        <time>2015-08-20T07:19:31Z</time>
      </trkpt>
      <trkpt lat="44.02753" lon="7.06787">
        <ele>1450</ele>
        <time>2015-08-20T07:19:37Z</time>
      </trkpt>
      <trkpt lat="44.02758" lon="7.06785">
        <ele>1450</ele>
        <time>2015-08-20T07:19:37Z</time>
      </trkpt>
      <trkpt lat="44.0276" lon="7.06785">
        <ele>1450</ele>
        <time>2015-08-20T07:19:38Z</time>
      </trkpt>
      <trkpt lat="44.02763" lon="7.06784">
        <ele>1451</ele>
        <time>2015-08-20T07:19:42Z</time>
      </trkpt>
      <trkpt lat="44.02766" lon="7.06784">
        <ele>1453</ele>
        <time>2015-08-20T07:19:44Z</time>
      </trkpt>
      <trkpt lat="44.02771" lon="7.06783">
        <ele>1454</ele>
        <time>2015-08-20T07:19:48Z</time>
      </trkpt>
      <trkpt lat="44.02773" lon="7.06782">
        <ele>1455</ele>
        <time>2015-08-20T07:19:51Z</time>
      </trkpt>
      <trkpt lat="44.02775" lon="7.06781">
        <ele>1456</ele>
        <time>2015-08-20T07:19:55Z</time>
      </trkpt>
      <trkpt lat="44.02779" lon="7.0678">
        <ele>1457</ele>
        <time>2015-08-20T07:19:55Z</time>
      </trkpt>
      <trkpt lat="44.0278" lon="7.0678">
        <ele>1458</ele>
        <time>2015-08-20T07:19:56Z</time>
      </trkpt>
      <trkpt lat="44.02783" lon="7.0678">
        <ele>1459</ele>
        <time>2015-08-20T07:20:01Z</time>
      </trkpt>
      <trkpt lat="44.02786" lon="7.0678">
        <ele>1459</ele>
        <time>2015-08-20T07:20:01Z</time>
      </trkpt>
      <trkpt lat="44.02787" lon="7.0678">
        <ele>1459</ele>
        <time>2015-08-20T07:20:04Z</time>
      </trkpt>
      <trkpt lat="44.0279" lon="7.06779">
        <ele>1459</ele>
        <time>2015-08-20T07:20:08Z</time>
      </trkpt>
      <trkpt lat="44.02795" lon="7.06778">
        <ele>1459</ele>
        <time>2015-08-20T07:20:09Z</time>
      </trkpt>
      <trkpt lat="44.02797" lon="7.06777">
        <ele>1459</ele>
        <time>2015-08-20T07:20:10Z</time>
      </trkpt>
      <trkpt lat="44.02798" lon="7.06777">
        <ele>1459</ele>
        <time>2015-08-20T07:20:10Z</time>
      </trkpt>
      <trkpt lat="44.028" lon="7.06777">
        <ele>1459</ele>
        <time>2015-08-20T07:20:12Z</time>
      </trkpt>
      <trkpt lat="44.02803" lon="7.06776">
        <ele>1459</ele>
        <time>2015-08-20T07:20:17Z</time>
      </trkpt>
      <trkpt lat="44.02808" lon="7.06774">
        <ele>1459</ele>
        <time>2015-08-20T07:20:18Z</time>
      </trkpt>
      <trkpt lat="44.02815" lon="7.0677">
        <ele>1459</ele>
        <time>2015-08-20T07:20:22Z</time>
      </trkpt>
      <trkpt lat="44.02816" lon="7.06769">
        <ele>1459</ele>
        <time>2015-08-20T07:20:24Z</time>
      </trkpt>
      <trkpt lat="44.02818" lon="7.06768">
        <ele>1459</ele>
        <time>2015-08-20T07:20:24Z</time>
      </trkpt>
      <trkpt lat="44.02824" lon="7.06765">
        <ele>1459</ele>
        <time>2015-08-20T07:20:29Z</time>
      </trkpt>
      <trkpt lat="44.02826" lon="7.06764">
        <ele>1459</ele>
        <time>2015-08-20T07:20:30Z</time>
      </trkpt>
      <trkpt lat="44.02827" lon="7.06763">
        <ele>1459</ele>
        <time>2015-08-20T07:20:31Z</time>
      </trkpt>
      <trkpt lat="44.0283" lon="7.06761">
        <ele>1459</ele>
        <time>2015-08-20T07:20:36Z</time>
      </trkpt>
      <trkpt lat="44.02834" lon="7.06758">
        <ele>1459</ele>
        <time>2015-08-20T07:20:36Z</time>
      </trkpt>
      <trkpt lat="44.02835" lon="7.06757">
        <ele>1459</ele>
        <time>2015-08-20T07:20:37Z</time>
      </trkpt>
      <trkpt lat="44.02838" lon="7.06755">
        <ele>1459</ele>
        <time>2015-08-20T07:20:42Z</time>
      </trkpt>
      <trkpt lat="44.02842" lon="7.06753">
        <ele>1459</ele>
        <time>2015-08-20T07:20:42Z</time>
      </trkpt>
      <trkpt lat="44.02844" lon="7.06752">
        <ele>1459</ele>
        <time>2015-08-20T07:20:43Z</time>
      </trkpt>
      <trkpt lat="44.02846" lon="7.06751">
        <ele>1459</ele>
        <time>2015-08-20T07:20:49Z</time>
      </trkpt>
      <trkpt lat="44.02852" lon="7.06747">
        <ele>1459</ele>
        <time>2015-08-20T07:20:49Z</time>
      </trkpt>
      <trkpt lat="44.02854" lon="7.06746">
        <ele>1459</ele>
        <time>2015-08-20T07:20:50Z</time>
      </trkpt>
      <trkpt lat="44.02856" lon="7.06744">
        <ele>1459</ele>
        <time>2015-08-20T07:20:54Z</time>
      </trkpt>
      <trkpt lat="44.02859" lon="7.06744">
        <ele>1459</ele>
        <time>2015-08-20T07:20:54Z</time>
      </trkpt>
      <trkpt lat="44.02861" lon="7.06743">
        <ele>1459</ele>
        <time>2015-08-20T07:20:55Z</time>
      </trkpt>
      <trkpt lat="44.02862" lon="7.06743">
        <ele>1459</ele>
        <time>2015-08-20T07:20:56Z</time>
      </trkpt>
      <trkpt lat="44.02865" lon="7.06743">
        <ele>1459</ele>
        <time>2015-08-20T07:21:01Z</time>
      </trkpt>
      <trkpt lat="44.02869" lon="7.06742">
        <ele>1459</ele>
        <time>2015-08-20T07:21:01Z</time>
      </trkpt>
      <trkpt lat="44.02871" lon="7.06742">
        <ele>1459</ele>
        <time>2015-08-20T07:21:02Z</time>
      </trkpt>
      <trkpt lat="44.02874" lon="7.06742">
        <ele>1459</ele>
        <time>2015-08-20T07:21:06Z</time>
      </trkpt>
      <trkpt lat="44.02876" lon="7.0674">
        <ele>1458</ele>
        <time>2015-08-20T07:21:06Z</time>
      </trkpt>
      <trkpt lat="44.02878" lon="7.0674">
        <ele>1458</ele>
        <time>2015-08-20T07:21:07Z</time>
      </trkpt>
      <trkpt lat="44.02879" lon="7.06739">
        <ele>1458</ele>
        <time>2015-08-20T07:21:08Z</time>
      </trkpt>
      <trkpt lat="44.02882" lon="7.06737">
        <ele>1458</ele>
        <time>2015-08-20T07:21:12Z</time>
      </trkpt>
      <trkpt lat="44.02884" lon="7.06737">
        <ele>1458</ele>
        <time>2015-08-20T07:21:12Z</time>
      </trkpt>
      <trkpt lat="44.02885" lon="7.06736">
        <ele>1458</ele>
        <time>2015-08-20T07:21:13Z</time>
      </trkpt>
      <trkpt lat="44.02891" lon="7.06733">
        <ele>1458</ele>
        <time>2015-08-20T07:21:17Z</time>
      </trkpt>
      <trkpt lat="44.02893" lon="7.06733">
        <ele>1458</ele>
        <time>2015-08-20T07:21:18Z</time>
      </trkpt>
      <trkpt lat="44.02896" lon="7.06732">
        <ele>1458</ele>
        <time>2015-08-20T07:21:23Z</time>
      </trkpt>
      <trkpt lat="44.029" lon="7.0673">
        <ele>1458</ele>
        <time>2015-08-20T07:21:23Z</time>
      </trkpt>
      <trkpt lat="44.02901" lon="7.0673">
        <ele>1458</ele>
        <time>2015-08-20T07:21:24Z</time>
      </trkpt>
      <trkpt lat="44.02906" lon="7.0673">
        <ele>1458</ele>
        <time>2015-08-20T07:21:28Z</time>
      </trkpt>
      <trkpt lat="44.02908" lon="7.0673">
        <ele>1458</ele>
        <time>2015-08-20T07:21:29Z</time>
      </trkpt>
      <trkpt lat="44.0291" lon="7.0673">
        <ele>1458</ele>
        <time>2015-08-20T07:21:34Z</time>
      </trkpt>
      <trkpt lat="44.02914" lon="7.0673">
        <ele>1458</ele>
        <time>2015-08-20T07:21:34Z</time>
      </trkpt>
      <trkpt lat="44.02916" lon="7.0673">
        <ele>1458</ele>
        <time>2015-08-20T07:21:35Z</time>
      </trkpt>
      <trkpt lat="44.02922" lon="7.06729">
        <ele>1458</ele>
        <time>2015-08-20T07:21:39Z</time>
      </trkpt>
      <trkpt lat="44.02924" lon="7.06728">
        <ele>1458</ele>
        <time>2015-08-20T07:21:40Z</time>
      </trkpt>
      <trkpt lat="44.02927" lon="7.06729">
        <ele>1458</ele>
        <time>2015-08-20T07:21:45Z</time>
      </trkpt>
      <trkpt lat="44.02931" lon="7.06731">
        <ele>1458</ele>
        <time>2015-08-20T07:21:45Z</time>
      </trkpt>
      <trkpt lat="44.02933" lon="7.06731">
        <ele>1458</ele>
        <time>2015-08-20T07:21:46Z</time>
      </trkpt>
      <trkpt lat="44.02939" lon="7.06732">
        <ele>1458</ele>
        <time>2015-08-20T07:21:50Z</time>
      </trkpt>
      <trkpt lat="44.0294" lon="7.06733">
        <ele>1458</ele>
        <time>2015-08-20T07:21:51Z</time>
      </trkpt>
      <trkpt lat="44.02942" lon="7.06733">
        <ele>1458</ele>
        <time>2015-08-20T07:21:52Z</time>
      </trkpt>
      <trkpt lat="44.02945" lon="7.06734">
        <ele>1458</ele>
        <time>2015-08-20T07:21:56Z</time>
      </trkpt>
      <trkpt lat="44.02948" lon="7.06736">
        <ele>1458</ele>
        <time>2015-08-20T07:21:56Z</time>
      </trkpt>
      <trkpt lat="44.0295" lon="7.06735">
        <ele>1458</ele>
        <time>2015-08-20T07:21:57Z</time>
      </trkpt>
      <trkpt lat="44.02952" lon="7.06737">
        <ele>1458</ele>
        <time>2015-08-20T07:22:02Z</time>
      </trkpt>
      <trkpt lat="44.02956" lon="7.06738">
        <ele>1458</ele>
        <time>2015-08-20T07:22:02Z</time>
      </trkpt>
      <trkpt lat="44.02958" lon="7.06738">
        <ele>1459</ele>
        <time>2015-08-20T07:22:03Z</time>
      </trkpt>
      <trkpt lat="44.0296" lon="7.0674">
        <ele>1459</ele>
        <time>2015-08-20T07:22:07Z</time>
      </trkpt>
      <trkpt lat="44.02964" lon="7.06743">
        <ele>1460</ele>
        <time>2015-08-20T07:22:08Z</time>
      </trkpt>
      <trkpt lat="44.02965" lon="7.06745">
        <ele>1460</ele>
        <time>2015-08-20T07:22:09Z</time>
      </trkpt>
      <trkpt lat="44.02968" lon="7.06748">
        <ele>1460</ele>
        <time>2015-08-20T07:22:13Z</time>
      </trkpt>
      <trkpt lat="44.02972" lon="7.06752">
        <ele>1460</ele>
        <time>2015-08-20T07:22:14Z</time>
      </trkpt>
      <trkpt lat="44.02973" lon="7.06752">
        <ele>1460</ele>
        <time>2015-08-20T07:22:15Z</time>
      </trkpt>
      <trkpt lat="44.02978" lon="7.06754">
        <ele>1460</ele>
        <time>2015-08-20T07:22:19Z</time>
      </trkpt>
      <trkpt lat="44.0298" lon="7.06755">
        <ele>1460</ele>
        <time>2015-08-20T07:22:20Z</time>
      </trkpt>
      <trkpt lat="44.02982" lon="7.06756">
        <ele>1460</ele>
        <time>2015-08-20T07:22:25Z</time>
      </trkpt>
      <trkpt lat="44.02986" lon="7.06757">
        <ele>1460</ele>
        <time>2015-08-20T07:22:26Z</time>
      </trkpt>
      <trkpt lat="44.02988" lon="7.06756">
        <ele>1460</ele>
        <time>2015-08-20T07:22:27Z</time>
      </trkpt>
      <trkpt lat="44.02989" lon="7.06756">
        <ele>1460</ele>
        <time>2015-08-20T07:22:28Z</time>
      </trkpt>
      <trkpt lat="44.02992" lon="7.06757">
        <ele>1460</ele>
        <time>2015-08-20T07:22:32Z</time>
      </trkpt>
      <trkpt lat="44.02997" lon="7.06753">
        <ele>1460</ele>
        <time>2015-08-20T07:22:32Z</time>
      </trkpt>
      <trkpt lat="44.02998" lon="7.06752">
        <ele>1460</ele>
        <time>2015-08-20T07:22:34Z</time>
      </trkpt>
      <trkpt lat="44.02999" lon="7.06751">
        <ele>1460</ele>
        <time>2015-08-20T07:22:35Z</time>
      </trkpt>
      <trkpt lat="44.03001" lon="7.06748">
        <ele>1460</ele>
        <time>2015-08-20T07:22:40Z</time>
      </trkpt>
      <trkpt lat="44.03005" lon="7.06745">
        <ele>1461</ele>
        <time>2015-08-20T07:22:40Z</time>
      </trkpt>
      <trkpt lat="44.03007" lon="7.06742">
        <ele>1461</ele>
        <time>2015-08-20T07:22:45Z</time>
      </trkpt>
      <trkpt lat="44.03011" lon="7.0674">
        <ele>1462</ele>
        <time>2015-08-20T07:22:46Z</time>
      </trkpt>
      <trkpt lat="44.03012" lon="7.0674">
        <ele>1463</ele>
        <time>2015-08-20T07:22:47Z</time>
      </trkpt>
      <trkpt lat="44.03014" lon="7.06739">
        <ele>1463</ele>
        <time>2015-08-20T07:22:52Z</time>
      </trkpt>
      <trkpt lat="44.03016" lon="7.06739">
        <ele>1463</ele>
        <time>2015-08-20T07:22:52Z</time>
      </trkpt>
      <trkpt lat="44.03018" lon="7.06737">
        <ele>1463</ele>
        <time>2015-08-20T07:22:54Z</time>
      </trkpt>
      <trkpt lat="44.0302" lon="7.06735">
        <ele>1463</ele>
        <time>2015-08-20T07:22:59Z</time>
      </trkpt>
      <trkpt lat="44.03024" lon="7.06734">
        <ele>1463</ele>
        <time>2015-08-20T07:22:59Z</time>
      </trkpt>
      <trkpt lat="44.03025" lon="7.06732">
        <ele>1462</ele>
        <time>2015-08-20T07:23:00Z</time>
      </trkpt>
      <trkpt lat="44.03027" lon="7.06729">
        <ele>1462</ele>
        <time>2015-08-20T07:23:05Z</time>
      </trkpt>
      <trkpt lat="44.03029" lon="7.06725">
        <ele>1462</ele>
        <time>2015-08-20T07:23:06Z</time>
      </trkpt>
      <trkpt lat="44.03032" lon="7.06721">
        <ele>1462</ele>
        <time>2015-08-20T07:23:11Z</time>
      </trkpt>
      <trkpt lat="44.03036" lon="7.06718">
        <ele>1462</ele>
        <time>2015-08-20T07:23:11Z</time>
      </trkpt>
      <trkpt lat="44.03038" lon="7.06717">
        <ele>1462</ele>
        <time>2015-08-20T07:23:12Z</time>
      </trkpt>
      <trkpt lat="44.03039" lon="7.06716">
        <ele>1462</ele>
        <time>2015-08-20T07:23:13Z</time>
      </trkpt>
      <trkpt lat="44.03041" lon="7.06715">
        <ele>1462</ele>
        <time>2015-08-20T07:23:18Z</time>
      </trkpt>
      <trkpt lat="44.03046" lon="7.06714">
        <ele>1462</ele>
        <time>2015-08-20T07:23:18Z</time>
      </trkpt>
      <trkpt lat="44.03047" lon="7.06713">
        <ele>1462</ele>
        <time>2015-08-20T07:23:19Z</time>
      </trkpt>
      <trkpt lat="44.0305" lon="7.06711">
        <ele>1462</ele>
        <time>2015-08-20T07:23:24Z</time>
      </trkpt>
      <trkpt lat="44.03054" lon="7.0671">
        <ele>1462</ele>
        <time>2015-08-20T07:23:24Z</time>
      </trkpt>
      <trkpt lat="44.03055" lon="7.0671">
        <ele>1462</ele>
        <time>2015-08-20T07:23:25Z</time>
      </trkpt>
      <trkpt lat="44.03057" lon="7.0671">
        <ele>1462</ele>
        <time>2015-08-20T07:23:31Z</time>
      </trkpt>
      <trkpt lat="44.03062" lon="7.06711">
        <ele>1462</ele>
        <time>2015-08-20T07:23:31Z</time>
      </trkpt>
      <trkpt lat="44.03063" lon="7.06712">
        <ele>1462</ele>
        <time>2015-08-20T07:23:32Z</time>
      </trkpt>
      <trkpt lat="44.03066" lon="7.06712">
        <ele>1462</ele>
        <time>2015-08-20T07:23:38Z</time>
      </trkpt>
      <trkpt lat="44.03071" lon="7.06711">
        <ele>1462</ele>
        <time>2015-08-20T07:23:39Z</time>
      </trkpt>
      <trkpt lat="44.03072" lon="7.06712">
        <ele>1462</ele>
        <time>2015-08-20T07:23:39Z</time>
      </trkpt>
      <trkpt lat="44.03075" lon="7.06711">
        <ele>1462</ele>
        <time>2015-08-20T07:23:44Z</time>
      </trkpt>
      <trkpt lat="44.03079" lon="7.0671">
        <ele>1462</ele>
        <time>2015-08-20T07:23:44Z</time>
      </trkpt>
      <trkpt lat="44.0308" lon="7.0671">
        <ele>1462</ele>
        <time>2015-08-20T07:23:45Z</time>
      </trkpt>
      <trkpt lat="44.03081" lon="7.06711">
        <ele>1462</ele>
        <time>2015-08-20T07:23:46Z</time>
      </trkpt>
      <trkpt lat="44.03083" lon="7.06712">
        <ele>1462</ele>
        <time>2015-08-20T07:23:51Z</time>
      </trkpt>
      <trkpt lat="44.03087" lon="7.06714">
        <ele>1463</ele>
        <time>2015-08-20T07:23:51Z</time>
      </trkpt>
      <trkpt lat="44.03088" lon="7.06715">
        <ele>1463</ele>
        <time>2015-08-20T07:23:52Z</time>
      </trkpt>
      <trkpt lat="44.03091" lon="7.06717">
        <ele>1463</ele>
        <time>2015-08-20T07:23:57Z</time>
      </trkpt>
      <trkpt lat="44.03095" lon="7.06718">
        <ele>1464</ele>
        <time>2015-08-20T07:23:57Z</time>
      </trkpt>
      <trkpt lat="44.03096" lon="7.06719">
        <ele>1464</ele>
        <time>2015-08-20T07:23:58Z</time>
      </trkpt>
      <trkpt lat="44.03098" lon="7.06718">
        <ele>1465</ele>
        <time>2015-08-20T07:24:03Z</time>
      </trkpt>
      <trkpt lat="44.03103" lon="7.06716">
        <ele>1466</ele>
        <time>2015-08-20T07:24:04Z</time>
      </trkpt>
      <trkpt lat="44.03104" lon="7.06715">
        <ele>1467</ele>
        <time>2015-08-20T07:24:06Z</time>
      </trkpt>
      <trkpt lat="44.03107" lon="7.06715">
        <ele>1468</ele>
        <time>2015-08-20T07:24:10Z</time>
      </trkpt>
      <trkpt lat="44.03114" lon="7.06711">
        <ele>1469</ele>
        <time>2015-08-20T07:24:11Z</time>
      </trkpt>
      <trkpt lat="44.03115" lon="7.06709">
        <ele>1470</ele>
        <time>2015-08-20T07:24:13Z</time>
      </trkpt>
      <trkpt lat="44.03118" lon="7.06709">
        <ele>1471</ele>
        <time>2015-08-20T07:24:17Z</time>
      </trkpt>
      <trkpt lat="44.03123" lon="7.06707">
        <ele>1472</ele>
        <time>2015-08-20T07:24:18Z</time>
      </trkpt>
      <trkpt lat="44.03125" lon="7.06706">
        <ele>1473</ele>
        <time>2015-08-20T07:24:19Z</time>
      </trkpt>
      <trkpt lat="44.03127" lon="7.06704">
        <ele>1475</ele>
        <time>2015-08-20T07:24:24Z</time>
      </trkpt>
      <trkpt lat="44.0313" lon="7.06703">
        <ele>1477</ele>
        <time>2015-08-20T07:24:24Z</time>
      </trkpt>
      <trkpt lat="44.03132" lon="7.06703">
        <ele>1479</ele>
        <time>2015-08-20T07:24:27Z</time>
      </trkpt>
      <trkpt lat="44.03134" lon="7.06704">
        <ele>1480</ele>
        <time>2015-08-20T07:24:30Z</time>
      </trkpt>
      <trkpt lat="44.03137" lon="7.06703">
        <ele>1481</ele>
        <time>2015-08-20T07:24:31Z</time>
      </trkpt>
      <trkpt lat="44.0314" lon="7.06702">
        <ele>1482</ele>
        <time>2015-08-20T07:24:35Z</time>
      </trkpt>
      <trkpt lat="44.03142" lon="7.06701">
        <ele>1482</ele>
        <time>2015-08-20T07:24:37Z</time>
      </trkpt>
      <trkpt lat="44.03144" lon="7.067">
        <ele>1482</ele>
        <time>2015-08-20T07:24:41Z</time>
      </trkpt>
      <trkpt lat="44.03146" lon="7.06698">
        <ele>1482</ele>
        <time>2015-08-20T07:24:41Z</time>
      </trkpt>
      <trkpt lat="44.03148" lon="7.06698">
        <ele>1481</ele>
        <time>2015-08-20T07:24:42Z</time>
      </trkpt>
      <trkpt lat="44.03149" lon="7.06697">
        <ele>1480</ele>
        <time>2015-08-20T07:24:43Z</time>
      </trkpt>
      <trkpt lat="44.03152" lon="7.06696">
        <ele>1480</ele>
        <time>2015-08-20T07:24:47Z</time>
      </trkpt>
      <trkpt lat="44.03154" lon="7.06695">
        <ele>1479</ele>
        <time>2015-08-20T07:24:47Z</time>
      </trkpt>
      <trkpt lat="44.03156" lon="7.06695">
        <ele>1479</ele>
        <time>2015-08-20T07:24:48Z</time>
      </trkpt>
      <trkpt lat="44.03162" lon="7.06694">
        <ele>1478</ele>
        <time>2015-08-20T07:24:52Z</time>
      </trkpt>
      <trkpt lat="44.03163" lon="7.06695">
        <ele>1477</ele>
        <time>2015-08-20T07:24:53Z</time>
      </trkpt>
      <trkpt lat="44.03164" lon="7.06695">
        <ele>1477</ele>
        <time>2015-08-20T07:24:55Z</time>
      </trkpt>
      <trkpt lat="44.03169" lon="7.06696">
        <ele>1477</ele>
        <time>2015-08-20T07:24:58Z</time>
      </trkpt>
      <trkpt lat="44.03172" lon="7.06696">
        <ele>1477</ele>
        <time>2015-08-20T07:25:03Z</time>
      </trkpt>
      <trkpt lat="44.03175" lon="7.06696">
        <ele>1477</ele>
        <time>2015-08-20T07:25:05Z</time>
      </trkpt>
      <trkpt lat="44.03176" lon="7.06696">
        <ele>1477</ele>
        <time>2015-08-20T07:25:07Z</time>
      </trkpt>
      <trkpt lat="44.03178" lon="7.06695">
        <ele>1477</ele>
        <time>2015-08-20T07:25:25Z</time>
      </trkpt>
      <trkpt lat="44.0318" lon="7.06696">
        <ele>1477</ele>
        <time>2015-08-20T07:25:31Z</time>
      </trkpt>
      <trkpt lat="44.03184" lon="7.06695">
        <ele>1477</ele>
        <time>2015-08-20T07:25:32Z</time>
      </trkpt>
      <trkpt lat="44.03186" lon="7.06694">
        <ele>1477</ele>
        <time>2015-08-20T07:25:33Z</time>
      </trkpt>
      <trkpt lat="44.03191" lon="7.06693">
        <ele>1477</ele>
        <time>2015-08-20T07:25:36Z</time>
      </trkpt>
      <trkpt lat="44.03192" lon="7.06693">
        <ele>1477</ele>
        <time>2015-08-20T07:25:37Z</time>
      </trkpt>
      <trkpt lat="44.03193" lon="7.06693">
        <ele>1477</ele>
        <time>2015-08-20T07:25:38Z</time>
      </trkpt>
      <trkpt lat="44.03194" lon="7.06693">
        <ele>1478</ele>
        <time>2015-08-20T07:25:40Z</time>
      </trkpt>
      <trkpt lat="44.03197" lon="7.06694">
        <ele>1479</ele>
        <time>2015-08-20T07:25:44Z</time>
      </trkpt>
      <trkpt lat="44.032" lon="7.06695">
        <ele>1479</ele>
        <time>2015-08-20T07:25:44Z</time>
      </trkpt>
      <trkpt lat="44.03201" lon="7.06696">
        <ele>1480</ele>
        <time>2015-08-20T07:25:46Z</time>
      </trkpt>
      <trkpt lat="44.03202" lon="7.06696">
        <ele>1480</ele>
        <time>2015-08-20T07:25:47Z</time>
      </trkpt>
      <trkpt lat="44.03205" lon="7.06697">
        <ele>1480</ele>
        <time>2015-08-20T07:25:51Z</time>
      </trkpt>
      <trkpt lat="44.03208" lon="7.06695">
        <ele>1480</ele>
        <time>2015-08-20T07:25:51Z</time>
      </trkpt>
      <trkpt lat="44.0321" lon="7.06694">
        <ele>1481</ele>
        <time>2015-08-20T07:25:52Z</time>
      </trkpt>
      <trkpt lat="44.03212" lon="7.06695">
        <ele>1482</ele>
        <time>2015-08-20T07:25:56Z</time>
      </trkpt>
      <trkpt lat="44.03214" lon="7.06695">
        <ele>1483</ele>
        <time>2015-08-20T07:25:56Z</time>
      </trkpt>
      <trkpt lat="44.03216" lon="7.06696">
        <ele>1484</ele>
        <time>2015-08-20T07:25:57Z</time>
      </trkpt>
      <trkpt lat="44.03218" lon="7.06697">
        <ele>1485</ele>
        <time>2015-08-20T07:26:01Z</time>
      </trkpt>
      <trkpt lat="44.03222" lon="7.06699">
        <ele>1486</ele>
        <time>2015-08-20T07:26:02Z</time>
      </trkpt>
      <trkpt lat="44.03223" lon="7.06702">
        <ele>1488</ele>
        <time>2015-08-20T07:26:04Z</time>
      </trkpt>
      <trkpt lat="44.03226" lon="7.06705">
        <ele>1488</ele>
        <time>2015-08-20T07:26:08Z</time>
      </trkpt>
      <trkpt lat="44.03229" lon="7.06707">
        <ele>1488</ele>
        <time>2015-08-20T07:26:08Z</time>
      </trkpt>
      <trkpt lat="44.0323" lon="7.06708">
        <ele>1488</ele>
        <time>2015-08-20T07:26:10Z</time>
      </trkpt>
      <trkpt lat="44.03231" lon="7.06706">
        <ele>1488</ele>
        <time>2015-08-20T07:26:15Z</time>
      </trkpt>
      <trkpt lat="44.03233" lon="7.06704">
        <ele>1488</ele>
        <time>2015-08-20T07:26:15Z</time>
      </trkpt>
      <trkpt lat="44.03234" lon="7.06703">
        <ele>1488</ele>
        <time>2015-08-20T07:26:16Z</time>
      </trkpt>
      <trkpt lat="44.03236" lon="7.067">
        <ele>1488</ele>
        <time>2015-08-20T07:26:21Z</time>
      </trkpt>
      <trkpt lat="44.0324" lon="7.06701">
        <ele>1488</ele>
        <time>2015-08-20T07:26:22Z</time>
      </trkpt>
      <trkpt lat="44.03244" lon="7.06701">
        <ele>1488</ele>
        <time>2015-08-20T07:26:27Z</time>
      </trkpt>
      <trkpt lat="44.03247" lon="7.06699">
        <ele>1487</ele>
        <time>2015-08-20T07:26:28Z</time>
      </trkpt>
      <trkpt lat="44.03248" lon="7.06697">
        <ele>1486</ele>
        <time>2015-08-20T07:26:30Z</time>
      </trkpt>
      <trkpt lat="44.03248" lon="7.06696">
        <ele>1485</ele>
        <time>2015-08-20T07:26:30Z</time>
      </trkpt>
      <trkpt lat="44.03248" lon="7.06693">
        <ele>1484</ele>
        <time>2015-08-20T07:26:35Z</time>
      </trkpt>
      <trkpt lat="44.03248" lon="7.06687">
        <ele>1484</ele>
        <time>2015-08-20T07:26:35Z</time>
      </trkpt>
      <trkpt lat="44.03248" lon="7.06685">
        <ele>1484</ele>
        <time>2015-08-20T07:26:37Z</time>
      </trkpt>
      <trkpt lat="44.03249" lon="7.06683">
        <ele>1483</ele>
        <time>2015-08-20T07:26:37Z</time>
      </trkpt>
      <trkpt lat="44.03251" lon="7.0668">
        <ele>1483</ele>
        <time>2015-08-20T07:26:42Z</time>
      </trkpt>
      <trkpt lat="44.03253" lon="7.06677">
        <ele>1483</ele>
        <time>2015-08-20T07:26:42Z</time>
      </trkpt>
      <trkpt lat="44.03255" lon="7.06674">
        <ele>1483</ele>
        <time>2015-08-20T07:26:47Z</time>
      </trkpt>
      <trkpt lat="44.03258" lon="7.06672">
        <ele>1483</ele>
        <time>2015-08-20T07:26:47Z</time>
      </trkpt>
      <trkpt lat="44.0326" lon="7.06671">
        <ele>1483</ele>
        <time>2015-08-20T07:26:49Z</time>
      </trkpt>
      <trkpt lat="44.03263" lon="7.0667">
        <ele>1483</ele>
        <time>2015-08-20T07:26:55Z</time>
      </trkpt>
      <trkpt lat="44.03265" lon="7.0667">
        <ele>1483</ele>
        <time>2015-08-20T07:26:55Z</time>
      </trkpt>
      <trkpt lat="44.03271" lon="7.06672">
        <ele>1483</ele>
        <time>2015-08-20T07:27:01Z</time>
      </trkpt>
      <trkpt lat="44.03272" lon="7.06671">
        <ele>1483</ele>
        <time>2015-08-20T07:27:03Z</time>
      </trkpt>
      <trkpt lat="44.03273" lon="7.06671">
        <ele>1483</ele>
        <time>2015-08-20T07:27:03Z</time>
      </trkpt>
      <trkpt lat="44.03276" lon="7.06672">
        <ele>1483</ele>
        <time>2015-08-20T07:27:07Z</time>
      </trkpt>
      <trkpt lat="44.03278" lon="7.06672">
        <ele>1483</ele>
        <time>2015-08-20T07:27:07Z</time>
      </trkpt>
      <trkpt lat="44.03282" lon="7.06674">
        <ele>1483</ele>
        <time>2015-08-20T07:27:13Z</time>
      </trkpt>
      <trkpt lat="44.03285" lon="7.06674">
        <ele>1483</ele>
        <time>2015-08-20T07:27:13Z</time>
      </trkpt>
      <trkpt lat="44.03286" lon="7.06674">
        <ele>1483</ele>
        <time>2015-08-20T07:27:15Z</time>
      </trkpt>
      <trkpt lat="44.03289" lon="7.06673">
        <ele>1483</ele>
        <time>2015-08-20T07:27:19Z</time>
      </trkpt>
      <trkpt lat="44.03292" lon="7.06674">
        <ele>1483</ele>
        <time>2015-08-20T07:27:19Z</time>
      </trkpt>
      <trkpt lat="44.03293" lon="7.06674">
        <ele>1483</ele>
        <time>2015-08-20T07:27:20Z</time>
      </trkpt>
      <trkpt lat="44.03296" lon="7.06674">
        <ele>1483</ele>
        <time>2015-08-20T07:27:24Z</time>
      </trkpt>
      <trkpt lat="44.03299" lon="7.06675">
        <ele>1483</ele>
        <time>2015-08-20T07:27:25Z</time>
      </trkpt>
      <trkpt lat="44.03301" lon="7.06675">
        <ele>1483</ele>
        <time>2015-08-20T07:27:26Z</time>
      </trkpt>
      <trkpt lat="44.03305" lon="7.06678">
        <ele>1483</ele>
        <time>2015-08-20T07:27:30Z</time>
      </trkpt>
      <trkpt lat="44.03307" lon="7.06678">
        <ele>1483</ele>
        <time>2015-08-20T07:27:31Z</time>
      </trkpt>
      <trkpt lat="44.03309" lon="7.0668">
        <ele>1483</ele>
        <time>2015-08-20T07:27:36Z</time>
      </trkpt>
      <trkpt lat="44.03313" lon="7.06682">
        <ele>1483</ele>
        <time>2015-08-20T07:27:36Z</time>
      </trkpt>
      <trkpt lat="44.03314" lon="7.06683">
        <ele>1483</ele>
        <time>2015-08-20T07:27:37Z</time>
      </trkpt>
      <trkpt lat="44.03316" lon="7.06684">
        <ele>1483</ele>
        <time>2015-08-20T07:27:42Z</time>
      </trkpt>
      <trkpt lat="44.0332" lon="7.06685">
        <ele>1483</ele>
        <time>2015-08-20T07:27:42Z</time>
      </trkpt>
      <trkpt lat="44.03325" lon="7.06691">
        <ele>1483</ele>
        <time>2015-08-20T07:27:47Z</time>
      </trkpt>
      <trkpt lat="44.03326" lon="7.06693">
        <ele>1484</ele>
        <time>2015-08-20T07:27:49Z</time>
      </trkpt>
      <trkpt lat="44.03328" lon="7.06694">
        <ele>1485</ele>
        <time>2015-08-20T07:27:54Z</time>
      </trkpt>
      <trkpt lat="44.03331" lon="7.06698">
        <ele>1485</ele>
        <time>2015-08-20T07:27:55Z</time>
      </trkpt>
      <trkpt lat="44.03337" lon="7.06703">
        <ele>1485</ele>
        <time>2015-08-20T07:28:01Z</time>
      </trkpt>
      <trkpt lat="44.03338" lon="7.06703">
        <ele>1486</ele>
        <time>2015-08-20T07:28:02Z</time>
      </trkpt>
      <trkpt lat="44.03341" lon="7.06706">
        <ele>1486</ele>
        <time>2015-08-20T07:28:08Z</time>
      </trkpt>
      <trkpt lat="44.03346" lon="7.06707">
        <ele>1487</ele>
        <time>2015-08-20T07:28:09Z</time>
      </trkpt>
      <trkpt lat="44.03347" lon="7.06707">
        <ele>1487</ele>
        <time>2015-08-20T07:28:10Z</time>
      </trkpt>
      <trkpt lat="44.03349" lon="7.06708">
        <ele>1488</ele>
        <time>2015-08-20T07:28:16Z</time>
      </trkpt>
      <trkpt lat="44.03352" lon="7.0671">
        <ele>1488</ele>
        <time>2015-08-20T07:28:16Z</time>
      </trkpt>
      <trkpt lat="44.03355" lon="7.0671">
        <ele>1489</ele>
        <time>2015-08-20T07:28:22Z</time>
      </trkpt>
      <trkpt lat="44.03358" lon="7.0671">
        <ele>1489</ele>
        <time>2015-08-20T07:28:22Z</time>
      </trkpt>
      <trkpt lat="44.0336" lon="7.0671">
        <ele>1489</ele>
        <time>2015-08-20T07:28:23Z</time>
      </trkpt>
      <trkpt lat="44.03362" lon="7.0671">
        <ele>1489</ele>
        <time>2015-08-20T07:28:28Z</time>
      </trkpt>
      <trkpt lat="44.03366" lon="7.06711">
        <ele>1489</ele>
        <time>2015-08-20T07:28:28Z</time>
      </trkpt>
      <trkpt lat="44.03367" lon="7.06711">
        <ele>1490</ele>
        <time>2015-08-20T07:28:29Z</time>
      </trkpt>
      <trkpt lat="44.03368" lon="7.06711">
        <ele>1490</ele>
        <time>2015-08-20T07:28:30Z</time>
      </trkpt>
      <trkpt lat="44.03375" lon="7.0671">
        <ele>1490</ele>
        <time>2015-08-20T07:28:35Z</time>
      </trkpt>
      <trkpt lat="44.03376" lon="7.06709">
        <ele>1490</ele>
        <time>2015-08-20T07:28:36Z</time>
      </trkpt>
      <trkpt lat="44.03378" lon="7.06708">
        <ele>1490</ele>
        <time>2015-08-20T07:28:41Z</time>
      </trkpt>
      <trkpt lat="44.03381" lon="7.06706">
        <ele>1490</ele>
        <time>2015-08-20T07:28:41Z</time>
      </trkpt>
      <trkpt lat="44.03382" lon="7.06705">
        <ele>1490</ele>
        <time>2015-08-20T07:28:42Z</time>
      </trkpt>
      <trkpt lat="44.03385" lon="7.06704">
        <ele>1491</ele>
        <time>2015-08-20T07:28:47Z</time>
      </trkpt>
      <trkpt lat="44.03389" lon="7.06703">
        <ele>1492</ele>
        <time>2015-08-20T07:28:47Z</time>
      </trkpt>
      <trkpt lat="44.03391" lon="7.067">
        <ele>1492</ele>
        <time>2015-08-20T07:28:50Z</time>
      </trkpt>
      <trkpt lat="44.03392" lon="7.06698">
        <ele>1493</ele>
        <time>2015-08-20T07:28:54Z</time>
      </trkpt>
      <trkpt lat="44.03395" lon="7.06695">
        <ele>1493</ele>
        <time>2015-08-20T07:28:54Z</time>
      </trkpt>
      <trkpt lat="44.03397" lon="7.06693">
        <ele>1493</ele>
        <time>2015-08-20T07:29:00Z</time>
      </trkpt>
      <trkpt lat="44.03401" lon="7.0669">
        <ele>1493</ele>
        <time>2015-08-20T07:29:00Z</time>
      </trkpt>
      <trkpt lat="44.03403" lon="7.0669">
        <ele>1493</ele>
        <time>2015-08-20T07:29:02Z</time>
      </trkpt>
      <trkpt lat="44.03405" lon="7.06689">
        <ele>1494</ele>
        <time>2015-08-20T07:29:07Z</time>
      </trkpt>
      <trkpt lat="44.03408" lon="7.06689">
        <ele>1494</ele>
        <time>2015-08-20T07:29:07Z</time>
      </trkpt>
      <trkpt lat="44.0341" lon="7.06689">
        <ele>1494</ele>
        <time>2015-08-20T07:29:08Z</time>
      </trkpt>
      <trkpt lat="44.03413" lon="7.06689">
        <ele>1495</ele>
        <time>2015-08-20T07:29:12Z</time>
      </trkpt>
      <trkpt lat="44.03417" lon="7.06689">
        <ele>1495</ele>
        <time>2015-08-20T07:29:13Z</time>
      </trkpt>
      <trkpt lat="44.03418" lon="7.06689">
        <ele>1496</ele>
        <time>2015-08-20T07:29:14Z</time>
      </trkpt>
      <trkpt lat="44.03421" lon="7.0669">
        <ele>1497</ele>
        <time>2015-08-20T07:29:18Z</time>
      </trkpt>
      <trkpt lat="44.03425" lon="7.06691">
        <ele>1498</ele>
        <time>2015-08-20T07:29:19Z</time>
      </trkpt>
      <trkpt lat="44.03426" lon="7.06692">
        <ele>1499</ele>
        <time>2015-08-20T07:29:20Z</time>
      </trkpt>
      <trkpt lat="44.03429" lon="7.06695">
        <ele>1500</ele>
        <time>2015-08-20T07:29:24Z</time>
      </trkpt>
      <trkpt lat="44.03433" lon="7.06698">
        <ele>1500</ele>
        <time>2015-08-20T07:29:25Z</time>
      </trkpt>
      <trkpt lat="44.03434" lon="7.06698">
        <ele>1501</ele>
        <time>2015-08-20T07:29:26Z</time>
      </trkpt>
      <trkpt lat="44.03435" lon="7.06698">
        <ele>1501</ele>
        <time>2015-08-20T07:29:28Z</time>
      </trkpt>
      <trkpt lat="44.03438" lon="7.06695">
        <ele>1501</ele>
        <time>2015-08-20T07:29:32Z</time>
      </trkpt>
      <trkpt lat="44.03442" lon="7.06695">
        <ele>1501</ele>
        <time>2015-08-20T07:29:33Z</time>
      </trkpt>
      <trkpt lat="44.03443" lon="7.06696">
        <ele>1501</ele>
        <time>2015-08-20T07:29:33Z</time>
      </trkpt>
      <trkpt lat="44.03445" lon="7.06696">
        <ele>1501</ele>
        <time>2015-08-20T07:29:34Z</time>
      </trkpt>
      <trkpt lat="44.03447" lon="7.06697">
        <ele>1501</ele>
        <time>2015-08-20T07:29:39Z</time>
      </trkpt>
      <trkpt lat="44.03451" lon="7.06698">
        <ele>1501</ele>
        <time>2015-08-20T07:29:39Z</time>
      </trkpt>
      <trkpt lat="44.03453" lon="7.06698">
        <ele>1501</ele>
        <time>2015-08-20T07:29:40Z</time>
      </trkpt>
      <trkpt lat="44.03455" lon="7.06699">
        <ele>1501</ele>
        <time>2015-08-20T07:29:45Z</time>
      </trkpt>
      <trkpt lat="44.03459" lon="7.06703">
        <ele>1501</ele>
        <time>2015-08-20T07:29:45Z</time>
      </trkpt>
      <trkpt lat="44.0346" lon="7.06704">
        <ele>1501</ele>
        <time>2015-08-20T07:29:47Z</time>
      </trkpt>
      <trkpt lat="44.03461" lon="7.06706">
        <ele>1501</ele>
        <time>2015-08-20T07:29:47Z</time>
      </trkpt>
      <trkpt lat="44.03464" lon="7.06708">
        <ele>1501</ele>
        <time>2015-08-20T07:29:52Z</time>
      </trkpt>
      <trkpt lat="44.03467" lon="7.06713">
        <ele>1501</ele>
        <time>2015-08-20T07:29:52Z</time>
      </trkpt>
      <trkpt lat="44.03468" lon="7.06715">
        <ele>1501</ele>
        <time>2015-08-20T07:29:53Z</time>
      </trkpt>
      <trkpt lat="44.03469" lon="7.06717">
        <ele>1501</ele>
        <time>2015-08-20T07:29:54Z</time>
      </trkpt>
      <trkpt lat="44.03471" lon="7.06718">
        <ele>1501</ele>
        <time>2015-08-20T07:29:59Z</time>
      </trkpt>
      <trkpt lat="44.03474" lon="7.06723">
        <ele>1501</ele>
        <time>2015-08-20T07:29:59Z</time>
      </trkpt>
      <trkpt lat="44.03477" lon="7.06726">
        <ele>1501</ele>
        <time>2015-08-20T07:30:05Z</time>
      </trkpt>
      <trkpt lat="44.03481" lon="7.06725">
        <ele>1501</ele>
        <time>2015-08-20T07:30:06Z</time>
      </trkpt>
      <trkpt lat="44.03482" lon="7.06724">
        <ele>1501</ele>
        <time>2015-08-20T07:30:06Z</time>
      </trkpt>
      <trkpt lat="44.03484" lon="7.06724">
        <ele>1501</ele>
        <time>2015-08-20T07:30:08Z</time>
      </trkpt>
      <trkpt lat="44.03487" lon="7.06723">
        <ele>1501</ele>
        <time>2015-08-20T07:30:12Z</time>
      </trkpt>
      <trkpt lat="44.0349" lon="7.06721">
        <ele>1501</ele>
        <time>2015-08-20T07:30:12Z</time>
      </trkpt>
      <trkpt lat="44.03492" lon="7.06721">
        <ele>1501</ele>
        <time>2015-08-20T07:30:13Z</time>
      </trkpt>
      <trkpt lat="44.03493" lon="7.06723">
        <ele>1501</ele>
        <time>2015-08-20T07:30:14Z</time>
      </trkpt>
      <trkpt lat="44.03494" lon="7.06727">
        <ele>1501</ele>
        <time>2015-08-20T07:30:20Z</time>
      </trkpt>
      <trkpt lat="44.03497" lon="7.06736">
        <ele>1501</ele>
        <time>2015-08-20T07:30:21Z</time>
      </trkpt>
      <trkpt lat="44.03497" lon="7.06738">
        <ele>1501</ele>
        <time>2015-08-20T07:30:22Z</time>
      </trkpt>
      <trkpt lat="44.03499" lon="7.06739">
        <ele>1501</ele>
        <time>2015-08-20T07:30:22Z</time>
      </trkpt>
      <trkpt lat="44.03507" lon="7.06741">
        <ele>1501</ele>
        <time>2015-08-20T07:30:28Z</time>
      </trkpt>
      <trkpt lat="44.03509" lon="7.0674">
        <ele>1501</ele>
        <time>2015-08-20T07:30:29Z</time>
      </trkpt>
      <trkpt lat="44.0351" lon="7.06739">
        <ele>1501</ele>
        <time>2015-08-20T07:30:30Z</time>
      </trkpt>
      <trkpt lat="44.03512" lon="7.06736">
        <ele>1501</ele>
        <time>2015-08-20T07:30:35Z</time>
      </trkpt>
      <trkpt lat="44.03515" lon="7.06732">
        <ele>1501</ele>
        <time>2015-08-20T07:30:37Z</time>
      </trkpt>
      <trkpt lat="44.03518" lon="7.06731">
        <ele>1501</ele>
        <time>2015-08-20T07:30:44Z</time>
      </trkpt>
      <trkpt lat="44.03522" lon="7.0673">
        <ele>1501</ele>
        <time>2015-08-20T07:30:44Z</time>
      </trkpt>
      <trkpt lat="44.03526" lon="7.0673">
        <ele>1501</ele>
        <time>2015-08-20T07:30:50Z</time>
      </trkpt>
      <trkpt lat="44.0353" lon="7.06733">
        <ele>1501</ele>
        <time>2015-08-20T07:30:51Z</time>
      </trkpt>
      <trkpt lat="44.03533" lon="7.06735">
        <ele>1503</ele>
        <time>2015-08-20T07:30:57Z</time>
      </trkpt>
      <trkpt lat="44.03537" lon="7.06738">
        <ele>1504</ele>
        <time>2015-08-20T07:30:57Z</time>
      </trkpt>
      <trkpt lat="44.03538" lon="7.06739">
        <ele>1504</ele>
        <time>2015-08-20T07:30:58Z</time>
      </trkpt>
      <trkpt lat="44.0354" lon="7.06741">
        <ele>1504</ele>
        <time>2015-08-20T07:31:03Z</time>
      </trkpt>
      <trkpt lat="44.03545" lon="7.06747">
        <ele>1504</ele>
        <time>2015-08-20T07:31:04Z</time>
      </trkpt>
      <trkpt lat="44.03547" lon="7.06748">
        <ele>1504</ele>
        <time>2015-08-20T07:31:05Z</time>
      </trkpt>
      <trkpt lat="44.03549" lon="7.0675">
        <ele>1504</ele>
        <time>2015-08-20T07:31:10Z</time>
      </trkpt>
      <trkpt lat="44.03553" lon="7.06753">
        <ele>1504</ele>
        <time>2015-08-20T07:31:10Z</time>
      </trkpt>
      <trkpt lat="44.03555" lon="7.06754">
        <ele>1504</ele>
        <time>2015-08-20T07:31:11Z</time>
      </trkpt>
      <trkpt lat="44.03556" lon="7.06757">
        <ele>1504</ele>
        <time>2015-08-20T07:31:16Z</time>
      </trkpt>
      <trkpt lat="44.03559" lon="7.06762">
        <ele>1504</ele>
        <time>2015-08-20T07:31:16Z</time>
      </trkpt>
      <trkpt lat="44.0356" lon="7.06763">
        <ele>1504</ele>
        <time>2015-08-20T07:31:18Z</time>
      </trkpt>
      <trkpt lat="44.03563" lon="7.06768">
        <ele>1504</ele>
        <time>2015-08-20T07:31:23Z</time>
      </trkpt>
      <trkpt lat="44.03567" lon="7.0677">
        <ele>1504</ele>
        <time>2015-08-20T07:31:24Z</time>
      </trkpt>
      <trkpt lat="44.03569" lon="7.0677">
        <ele>1504</ele>
        <time>2015-08-20T07:31:25Z</time>
      </trkpt>
      <trkpt lat="44.03576" lon="7.06771">
        <ele>1504</ele>
        <time>2015-08-20T07:31:31Z</time>
      </trkpt>
      <trkpt lat="44.03577" lon="7.06771">
        <ele>1504</ele>
        <time>2015-08-20T07:31:32Z</time>
      </trkpt>
      <trkpt lat="44.03579" lon="7.06771">
        <ele>1505</ele>
        <time>2015-08-20T07:31:37Z</time>
      </trkpt>
      <trkpt lat="44.03583" lon="7.0677">
        <ele>1505</ele>
        <time>2015-08-20T07:31:37Z</time>
      </trkpt>
      <trkpt lat="44.03584" lon="7.06769">
        <ele>1506</ele>
        <time>2015-08-20T07:31:38Z</time>
      </trkpt>
      <trkpt lat="44.03586" lon="7.06768">
        <ele>1506</ele>
        <time>2015-08-20T07:31:39Z</time>
      </trkpt>
      <trkpt lat="44.03587" lon="7.06768">
        <ele>1506</ele>
        <time>2015-08-20T07:31:40Z</time>
      </trkpt>
      <trkpt lat="44.03589" lon="7.06767">
        <ele>1507</ele>
        <time>2015-08-20T07:31:44Z</time>
      </trkpt>
      <trkpt lat="44.03592" lon="7.06765">
        <ele>1507</ele>
        <time>2015-08-20T07:31:44Z</time>
      </trkpt>
      <trkpt lat="44.03593" lon="7.06763">
        <ele>1508</ele>
        <time>2015-08-20T07:31:47Z</time>
      </trkpt>
      <trkpt lat="44.03596" lon="7.06761">
        <ele>1509</ele>
        <time>2015-08-20T07:31:51Z</time>
      </trkpt>
      <trkpt lat="44.03599" lon="7.06761">
        <ele>1510</ele>
        <time>2015-08-20T07:31:51Z</time>
      </trkpt>
      <trkpt lat="44.03601" lon="7.06762">
        <ele>1511</ele>
        <time>2015-08-20T07:31:53Z</time>
      </trkpt>
      <trkpt lat="44.03603" lon="7.0676">
        <ele>1512</ele>
        <time>2015-08-20T07:31:57Z</time>
      </trkpt>
      <trkpt lat="44.03605" lon="7.06758">
        <ele>1512</ele>
        <time>2015-08-20T07:31:57Z</time>
      </trkpt>
      <trkpt lat="44.03607" lon="7.06755">
        <ele>1512</ele>
        <time>2015-08-20T07:31:59Z</time>
      </trkpt>
      <trkpt lat="44.03608" lon="7.06751">
        <ele>1512</ele>
        <time>2015-08-20T07:32:04Z</time>
      </trkpt>
      <trkpt lat="44.03609" lon="7.06749">
        <ele>1512</ele>
        <time>2015-08-20T07:32:04Z</time>
      </trkpt>
      <trkpt lat="44.0361" lon="7.06745">
        <ele>1512</ele>
        <time>2015-08-20T07:32:09Z</time>
      </trkpt>
      <trkpt lat="44.0361" lon="7.06742">
        <ele>1512</ele>
        <time>2015-08-20T07:32:10Z</time>
      </trkpt>
      <trkpt lat="44.0361" lon="7.0674">
        <ele>1512</ele>
        <time>2015-08-20T07:32:10Z</time>
      </trkpt>
      <trkpt lat="44.0361" lon="7.06738">
        <ele>1512</ele>
        <time>2015-08-20T07:32:14Z</time>
      </trkpt>
      <trkpt lat="44.03611" lon="7.06734">
        <ele>1512</ele>
        <time>2015-08-20T07:32:15Z</time>
      </trkpt>
      <trkpt lat="44.03611" lon="7.06732">
        <ele>1512</ele>
        <time>2015-08-20T07:32:16Z</time>
      </trkpt>
      <trkpt lat="44.03611" lon="7.0673">
        <ele>1512</ele>
        <time>2015-08-20T07:32:20Z</time>
      </trkpt>
      <trkpt lat="44.03611" lon="7.06727">
        <ele>1513</ele>
        <time>2015-08-20T07:32:20Z</time>
      </trkpt>
      <trkpt lat="44.0361" lon="7.06725">
        <ele>1513</ele>
        <time>2015-08-20T07:32:22Z</time>
      </trkpt>
      <trkpt lat="44.03609" lon="7.06723">
        <ele>1513</ele>
        <time>2015-08-20T07:32:26Z</time>
      </trkpt>
      <trkpt lat="44.03609" lon="7.0672">
        <ele>1514</ele>
        <time>2015-08-20T07:32:26Z</time>
      </trkpt>
      <trkpt lat="44.0361" lon="7.06718">
        <ele>1514</ele>
        <time>2015-08-20T07:32:27Z</time>
      </trkpt>
      <trkpt lat="44.03611" lon="7.06715">
        <ele>1514</ele>
        <time>2015-08-20T07:32:32Z</time>
      </trkpt>
      <trkpt lat="44.03613" lon="7.06711">
        <ele>1515</ele>
        <time>2015-08-20T07:32:33Z</time>
      </trkpt>
      <trkpt lat="44.03614" lon="7.06709">
        <ele>1515</ele>
        <time>2015-08-20T07:32:35Z</time>
      </trkpt>
      <trkpt lat="44.03614" lon="7.06707">
        <ele>1516</ele>
        <time>2015-08-20T07:32:40Z</time>
      </trkpt>
      <trkpt lat="44.03615" lon="7.06706">
        <ele>1516</ele>
        <time>2015-08-20T07:32:43Z</time>
      </trkpt>
      <trkpt lat="44.03616" lon="7.06706">
        <ele>1516</ele>
        <time>2015-08-20T07:32:47Z</time>
      </trkpt>
      <trkpt lat="44.03619" lon="7.06707">
        <ele>1517</ele>
        <time>2015-08-20T07:32:48Z</time>
      </trkpt>
      <trkpt lat="44.03621" lon="7.06708">
        <ele>1518</ele>
        <time>2015-08-20T07:32:49Z</time>
      </trkpt>
      <trkpt lat="44.03622" lon="7.06708">
        <ele>1519</ele>
        <time>2015-08-20T07:32:50Z</time>
      </trkpt>
      <trkpt lat="44.03624" lon="7.06709">
        <ele>1519</ele>
        <time>2015-08-20T07:32:54Z</time>
      </trkpt>
      <trkpt lat="44.03626" lon="7.06709">
        <ele>1519</ele>
        <time>2015-08-20T07:32:54Z</time>
      </trkpt>
      <trkpt lat="44.03627" lon="7.06709">
        <ele>1519</ele>
        <time>2015-08-20T07:32:55Z</time>
      </trkpt>
      <trkpt lat="44.03629" lon="7.0671">
        <ele>1520</ele>
        <time>2015-08-20T07:32:59Z</time>
      </trkpt>
      <trkpt lat="44.03633" lon="7.06711">
        <ele>1520</ele>
        <time>2015-08-20T07:33:00Z</time>
      </trkpt>
      <trkpt lat="44.03638" lon="7.06713">
        <ele>1521</ele>
        <time>2015-08-20T07:33:05Z</time>
      </trkpt>
      <trkpt lat="44.0364" lon="7.06713">
        <ele>1522</ele>
        <time>2015-08-20T07:33:06Z</time>
      </trkpt>
      <trkpt lat="44.03642" lon="7.06715">
        <ele>1522</ele>
        <time>2015-08-20T07:33:10Z</time>
      </trkpt>
      <trkpt lat="44.03645" lon="7.06717">
        <ele>1523</ele>
        <time>2015-08-20T07:33:11Z</time>
      </trkpt>
      <trkpt lat="44.03647" lon="7.06716">
        <ele>1523</ele>
        <time>2015-08-20T07:33:14Z</time>
      </trkpt>
      <trkpt lat="44.03648" lon="7.06716">
        <ele>1524</ele>
        <time>2015-08-20T07:33:14Z</time>
      </trkpt>
      <trkpt lat="44.0365" lon="7.06714">
        <ele>1524</ele>
        <time>2015-08-20T07:33:19Z</time>
      </trkpt>
      <trkpt lat="44.03654" lon="7.06711">
        <ele>1524</ele>
        <time>2015-08-20T07:33:20Z</time>
      </trkpt>
      <trkpt lat="44.03658" lon="7.06709">
        <ele>1524</ele>
        <time>2015-08-20T07:33:23Z</time>
      </trkpt>
      <trkpt lat="44.0366" lon="7.06707">
        <ele>1524</ele>
        <time>2015-08-20T07:33:26Z</time>
      </trkpt>
      <trkpt lat="44.03662" lon="7.06705">
        <ele>1524</ele>
        <time>2015-08-20T07:33:29Z</time>
      </trkpt>
      <trkpt lat="44.03666" lon="7.06705">
        <ele>1524</ele>
        <time>2015-08-20T07:33:30Z</time>
      </trkpt>
      <trkpt lat="44.0367" lon="7.06704">
        <ele>1524</ele>
        <time>2015-08-20T07:33:36Z</time>
      </trkpt>
      <trkpt lat="44.03675" lon="7.06704">
        <ele>1524</ele>
        <time>2015-08-20T07:33:37Z</time>
      </trkpt>
      <trkpt lat="44.03676" lon="7.06705">
        <ele>1524</ele>
        <time>2015-08-20T07:33:38Z</time>
      </trkpt>
      <trkpt lat="44.03678" lon="7.06706">
        <ele>1524</ele>
        <time>2015-08-20T07:33:43Z</time>
      </trkpt>
      <trkpt lat="44.0368" lon="7.06706">
        <ele>1524</ele>
        <time>2015-08-20T07:33:43Z</time>
      </trkpt>
      <trkpt lat="44.03684" lon="7.06708">
        <ele>1524</ele>
        <time>2015-08-20T07:33:48Z</time>
      </trkpt>
      <trkpt lat="44.03686" lon="7.06709">
        <ele>1524</ele>
        <time>2015-08-20T07:33:48Z</time>
      </trkpt>
      <trkpt lat="44.03688" lon="7.06709">
        <ele>1524</ele>
        <time>2015-08-20T07:33:49Z</time>
      </trkpt>
      <trkpt lat="44.03689" lon="7.06709">
        <ele>1525</ele>
        <time>2015-08-20T07:33:50Z</time>
      </trkpt>
      <trkpt lat="44.03691" lon="7.0671">
        <ele>1525</ele>
        <time>2015-08-20T07:33:55Z</time>
      </trkpt>
      <trkpt lat="44.03694" lon="7.06713">
        <ele>1525</ele>
        <time>2015-08-20T07:33:57Z</time>
      </trkpt>
      <trkpt lat="44.03698" lon="7.06713">
        <ele>1527</ele>
        <time>2015-08-20T07:34:02Z</time>
      </trkpt>
      <trkpt lat="44.03702" lon="7.06715">
        <ele>1527</ele>
        <time>2015-08-20T07:34:03Z</time>
      </trkpt>
      <trkpt lat="44.03703" lon="7.06716">
        <ele>1528</ele>
        <time>2015-08-20T07:34:03Z</time>
      </trkpt>
      <trkpt lat="44.03708" lon="7.06716">
        <ele>1529</ele>
        <time>2015-08-20T07:34:07Z</time>
      </trkpt>
      <trkpt lat="44.03709" lon="7.06716">
        <ele>1529</ele>
        <time>2015-08-20T07:34:08Z</time>
      </trkpt>
      <trkpt lat="44.03711" lon="7.06716">
        <ele>1529</ele>
        <time>2015-08-20T07:34:09Z</time>
      </trkpt>
      <trkpt lat="44.03714" lon="7.06717">
        <ele>1529</ele>
        <time>2015-08-20T07:34:13Z</time>
      </trkpt>
      <trkpt lat="44.03717" lon="7.0672">
        <ele>1530</ele>
        <time>2015-08-20T07:34:14Z</time>
      </trkpt>
      <trkpt lat="44.03718" lon="7.06721">
        <ele>1530</ele>
        <time>2015-08-20T07:34:14Z</time>
      </trkpt>
      <trkpt lat="44.03719" lon="7.0672">
        <ele>1531</ele>
        <time>2015-08-20T07:34:15Z</time>
      </trkpt>
      <trkpt lat="44.03726" lon="7.06718">
        <ele>1532</ele>
        <time>2015-08-20T07:34:20Z</time>
      </trkpt>
      <trkpt lat="44.03728" lon="7.06717">
        <ele>1533</ele>
        <time>2015-08-20T07:34:21Z</time>
      </trkpt>
      <trkpt lat="44.03731" lon="7.06718">
        <ele>1534</ele>
        <time>2015-08-20T07:34:25Z</time>
      </trkpt>
      <trkpt lat="44.03734" lon="7.06719">
        <ele>1535</ele>
        <time>2015-08-20T07:34:25Z</time>
      </trkpt>
      <trkpt lat="44.03735" lon="7.0672">
        <ele>1536</ele>
        <time>2015-08-20T07:34:26Z</time>
      </trkpt>
      <trkpt lat="44.03736" lon="7.06724">
        <ele>1538</ele>
        <time>2015-08-20T07:34:32Z</time>
      </trkpt>
      <trkpt lat="44.03739" lon="7.06728">
        <ele>1539</ele>
        <time>2015-08-20T07:34:33Z</time>
      </trkpt>
      <trkpt lat="44.0374" lon="7.0673">
        <ele>1540</ele>
        <time>2015-08-20T07:34:33Z</time>
      </trkpt>
      <trkpt lat="44.03742" lon="7.06731">
        <ele>1541</ele>
        <time>2015-08-20T07:34:34Z</time>
      </trkpt>
      <trkpt lat="44.03743" lon="7.06732">
        <ele>1541</ele>
        <time>2015-08-20T07:34:35Z</time>
      </trkpt>
      <trkpt lat="44.03745" lon="7.06736">
        <ele>1541</ele>
        <time>2015-08-20T07:34:40Z</time>
      </trkpt>
      <trkpt lat="44.03747" lon="7.06738">
        <ele>1541</ele>
        <time>2015-08-20T07:34:40Z</time>
      </trkpt>
      <trkpt lat="44.03749" lon="7.0674">
        <ele>1541</ele>
        <time>2015-08-20T07:34:45Z</time>
      </trkpt>
      <trkpt lat="44.03753" lon="7.06742">
        <ele>1541</ele>
        <time>2015-08-20T07:34:46Z</time>
      </trkpt>
      <trkpt lat="44.03756" lon="7.06743">
        <ele>1541</ele>
        <time>2015-08-20T07:34:50Z</time>
      </trkpt>
      <trkpt lat="44.03759" lon="7.06744">
        <ele>1541</ele>
        <time>2015-08-20T07:34:52Z</time>
      </trkpt>
      <trkpt lat="44.03761" lon="7.06745">
        <ele>1542</ele>
        <time>2015-08-20T07:34:53Z</time>
      </trkpt>
      <trkpt lat="44.03764" lon="7.06747">
        <ele>1542</ele>
        <time>2015-08-20T07:34:57Z</time>
      </trkpt>
      <trkpt lat="44.03766" lon="7.06747">
        <ele>1543</ele>
        <time>2015-08-20T07:34:59Z</time>
      </trkpt>
      <trkpt lat="44.03768" lon="7.06745">
        <ele>1544</ele>
        <time>2015-08-20T07:35:04Z</time>
      </trkpt>
      <trkpt lat="44.03772" lon="7.06745">
        <ele>1545</ele>
        <time>2015-08-20T07:35:06Z</time>
      </trkpt>
      <trkpt lat="44.03774" lon="7.06747">
        <ele>1545</ele>
        <time>2015-08-20T07:35:11Z</time>
      </trkpt>
      <trkpt lat="44.03777" lon="7.06749">
        <ele>1545</ele>
        <time>2015-08-20T07:35:11Z</time>
      </trkpt>
      <trkpt lat="44.03778" lon="7.0675">
        <ele>1545</ele>
        <time>2015-08-20T07:35:14Z</time>
      </trkpt>
      <trkpt lat="44.0378" lon="7.06751">
        <ele>1546</ele>
        <time>2015-08-20T07:35:18Z</time>
      </trkpt>
      <trkpt lat="44.03783" lon="7.06753">
        <ele>1546</ele>
        <time>2015-08-20T07:35:18Z</time>
      </trkpt>
      <trkpt lat="44.03784" lon="7.06754">
        <ele>1546</ele>
        <time>2015-08-20T07:35:20Z</time>
      </trkpt>
      <trkpt lat="44.03786" lon="7.06756">
        <ele>1546</ele>
        <time>2015-08-20T07:35:24Z</time>
      </trkpt>
      <trkpt lat="44.03788" lon="7.06757">
        <ele>1546</ele>
        <time>2015-08-20T07:35:25Z</time>
      </trkpt>
      <trkpt lat="44.03789" lon="7.06759">
        <ele>1546</ele>
        <time>2015-08-20T07:35:28Z</time>
      </trkpt>
      <trkpt lat="44.03793" lon="7.06763">
        <ele>1546</ele>
        <time>2015-08-20T07:35:32Z</time>
      </trkpt>
      <trkpt lat="44.03795" lon="7.06765">
        <ele>1546</ele>
        <time>2015-08-20T07:35:37Z</time>
      </trkpt>
      <trkpt lat="44.03797" lon="7.06768">
        <ele>1546</ele>
        <time>2015-08-20T07:35:39Z</time>
      </trkpt>
      <trkpt lat="44.03799" lon="7.06771">
        <ele>1546</ele>
        <time>2015-08-20T07:35:43Z</time>
      </trkpt>
      <trkpt lat="44.03803" lon="7.06773">
        <ele>1546</ele>
        <time>2015-08-20T07:35:45Z</time>
      </trkpt>
      <trkpt lat="44.03804" lon="7.06772">
        <ele>1546</ele>
        <time>2015-08-20T07:35:45Z</time>
      </trkpt>
      <trkpt lat="44.03807" lon="7.0677">
        <ele>1548</ele>
        <time>2015-08-20T07:35:51Z</time>
      </trkpt>
      <trkpt lat="44.03812" lon="7.06771">
        <ele>1549</ele>
        <time>2015-08-20T07:35:52Z</time>
      </trkpt>
      <trkpt lat="44.03814" lon="7.06769">
        <ele>1551</ele>
        <time>2015-08-20T07:35:58Z</time>
      </trkpt>
      <trkpt lat="44.03819" lon="7.06768">
        <ele>1552</ele>
        <time>2015-08-20T07:35:59Z</time>
      </trkpt>
      <trkpt lat="44.03822" lon="7.06768">
        <ele>1553</ele>
        <time>2015-08-20T07:36:03Z</time>
      </trkpt>
      <trkpt lat="44.03825" lon="7.06768">
        <ele>1554</ele>
        <time>2015-08-20T07:36:04Z</time>
      </trkpt>
      <trkpt lat="44.03826" lon="7.06768">
        <ele>1555</ele>
        <time>2015-08-20T07:36:05Z</time>
      </trkpt>
      <trkpt lat="44.0383" lon="7.06766">
        <ele>1556</ele>
        <time>2015-08-20T07:36:09Z</time>
      </trkpt>
      <trkpt lat="44.03831" lon="7.06766">
        <ele>1557</ele>
        <time>2015-08-20T07:36:10Z</time>
      </trkpt>
      <trkpt lat="44.03833" lon="7.06767">
        <ele>1558</ele>
        <time>2015-08-20T07:36:15Z</time>
      </trkpt>
      <trkpt lat="44.03836" lon="7.06771">
        <ele>1559</ele>
        <time>2015-08-20T07:36:16Z</time>
      </trkpt>
      <trkpt lat="44.03836" lon="7.06773">
        <ele>1559</ele>
        <time>2015-08-20T07:36:16Z</time>
      </trkpt>
      <trkpt lat="44.03836" lon="7.06774">
        <ele>1559</ele>
        <time>2015-08-20T07:36:18Z</time>
      </trkpt>
      <trkpt lat="44.03837" lon="7.06777">
        <ele>1559</ele>
        <time>2015-08-20T07:36:22Z</time>
      </trkpt>
      <trkpt lat="44.03838" lon="7.06781">
        <ele>1559</ele>
        <time>2015-08-20T07:36:23Z</time>
      </trkpt>
      <trkpt lat="44.03838" lon="7.06784">
        <ele>1559</ele>
        <time>2015-08-20T07:36:24Z</time>
      </trkpt>
      <trkpt lat="44.03839" lon="7.06786">
        <ele>1559</ele>
        <time>2015-08-20T07:36:28Z</time>
      </trkpt>
      <trkpt lat="44.03841" lon="7.0679">
        <ele>1559</ele>
        <time>2015-08-20T07:36:29Z</time>
      </trkpt>
      <trkpt lat="44.03841" lon="7.06794">
        <ele>1559</ele>
        <time>2015-08-20T07:36:35Z</time>
      </trkpt>
      <trkpt lat="44.03843" lon="7.06798">
        <ele>1559</ele>
        <time>2015-08-20T07:36:36Z</time>
      </trkpt>
      <trkpt lat="44.0384" lon="7.06801">
        <ele>1559</ele>
        <time>2015-08-20T07:36:42Z</time>
      </trkpt>
      <trkpt lat="44.03838" lon="7.06804">
        <ele>1559</ele>
        <time>2015-08-20T07:36:49Z</time>
      </trkpt>
      <trkpt lat="44.03836" lon="7.06806">
        <ele>1559</ele>
        <time>2015-08-20T07:36:49Z</time>
      </trkpt>
      <trkpt lat="44.03834" lon="7.06808">
        <ele>1559</ele>
        <time>2015-08-20T07:36:51Z</time>
      </trkpt>
      <trkpt lat="44.03833" lon="7.06809">
        <ele>1559</ele>
        <time>2015-08-20T07:36:58Z</time>
      </trkpt>
      <trkpt lat="44.03832" lon="7.06812">
        <ele>1559</ele>
        <time>2015-08-20T07:37:04Z</time>
      </trkpt>
      <trkpt lat="44.03832" lon="7.06813">
        <ele>1559</ele>
        <time>2015-08-20T07:37:04Z</time>
      </trkpt>
      <trkpt lat="44.03831" lon="7.06815">
        <ele>1559</ele>
        <time>2015-08-20T07:37:12Z</time>
      </trkpt>
      <trkpt lat="44.0383" lon="7.06817">
        <ele>1559</ele>
        <time>2015-08-20T07:37:17Z</time>
      </trkpt>
      <trkpt lat="44.03827" lon="7.06819">
        <ele>1559</ele>
        <time>2015-08-20T07:37:18Z</time>
      </trkpt>
      <trkpt lat="44.03824" lon="7.06821">
        <ele>1559</ele>
        <time>2015-08-20T07:37:23Z</time>
      </trkpt>
      <trkpt lat="44.03821" lon="7.06823">
        <ele>1559</ele>
        <time>2015-08-20T07:37:24Z</time>
      </trkpt>
      <trkpt lat="44.03816" lon="7.06826">
        <ele>1559</ele>
        <time>2015-08-20T07:37:29Z</time>
      </trkpt>
      <trkpt lat="44.03815" lon="7.06826">
        <ele>1559</ele>
        <time>2015-08-20T07:37:30Z</time>
      </trkpt>
      <trkpt lat="44.03813" lon="7.06826">
        <ele>1559</ele>
        <time>2015-08-20T07:37:32Z</time>
      </trkpt>
      <trkpt lat="44.03811" lon="7.06828">
        <ele>1559</ele>
        <time>2015-08-20T07:37:36Z</time>
      </trkpt>
      <trkpt lat="44.03809" lon="7.0683">
        <ele>1559</ele>
        <time>2015-08-20T07:37:37Z</time>
      </trkpt>
      <trkpt lat="44.03804" lon="7.06832">
        <ele>1559</ele>
        <time>2015-08-20T07:37:42Z</time>
      </trkpt>
      <trkpt lat="44.03802" lon="7.06832">
        <ele>1560</ele>
        <time>2015-08-20T07:37:50Z</time>
      </trkpt>
      <trkpt lat="44.03801" lon="7.06833">
        <ele>1560</ele>
        <time>2015-08-20T07:37:52Z</time>
      </trkpt>
      <trkpt lat="44.03799" lon="7.06835">
        <ele>1561</ele>
        <time>2015-08-20T07:37:58Z</time>
      </trkpt>
      <trkpt lat="44.03796" lon="7.06836">
        <ele>1561</ele>
        <time>2015-08-20T07:37:59Z</time>
      </trkpt>
      <trkpt lat="44.03795" lon="7.06836">
        <ele>1561</ele>
        <time>2015-08-20T07:38:00Z</time>
      </trkpt>
      <trkpt lat="44.03793" lon="7.06837">
        <ele>1561</ele>
        <time>2015-08-20T07:38:06Z</time>
      </trkpt>
      <trkpt lat="44.03791" lon="7.06839">
        <ele>1561</ele>
        <time>2015-08-20T07:38:14Z</time>
      </trkpt>
      <trkpt lat="44.03789" lon="7.06842">
        <ele>1561</ele>
        <time>2015-08-20T07:38:15Z</time>
      </trkpt>
      <trkpt lat="44.03787" lon="7.06844">
        <ele>1562</ele>
        <time>2015-08-20T07:38:20Z</time>
      </trkpt>
      <trkpt lat="44.03785" lon="7.06845">
        <ele>1562</ele>
        <time>2015-08-20T07:38:21Z</time>
      </trkpt>
      <trkpt lat="44.03783" lon="7.06848">
        <ele>1563</ele>
        <time>2015-08-20T07:38:25Z</time>
      </trkpt>
      <trkpt lat="44.03781" lon="7.0685">
        <ele>1563</ele>
        <time>2015-08-20T07:38:26Z</time>
      </trkpt>
      <trkpt lat="44.0378" lon="7.06851">
        <ele>1564</ele>
        <time>2015-08-20T07:38:28Z</time>
      </trkpt>
      <trkpt lat="44.03778" lon="7.06852">
        <ele>1564</ele>
        <time>2015-08-20T07:38:34Z</time>
      </trkpt>
      <trkpt lat="44.03776" lon="7.06854">
        <ele>1564</ele>
        <time>2015-08-20T07:38:34Z</time>
      </trkpt>
      <trkpt lat="44.03772" lon="7.06856">
        <ele>1565</ele>
        <time>2015-08-20T07:38:39Z</time>
      </trkpt>
      <trkpt lat="44.03771" lon="7.06857">
        <ele>1566</ele>
        <time>2015-08-20T07:38:42Z</time>
      </trkpt>
      <trkpt lat="44.0377" lon="7.06858">
        <ele>1566</ele>
        <time>2015-08-20T07:38:46Z</time>
      </trkpt>
      <trkpt lat="44.03768" lon="7.0686">
        <ele>1566</ele>
        <time>2015-08-20T07:38:46Z</time>
      </trkpt>
      <trkpt lat="44.03766" lon="7.06861">
        <ele>1567</ele>
        <time>2015-08-20T07:38:48Z</time>
      </trkpt>
      <trkpt lat="44.03765" lon="7.06862">
        <ele>1567</ele>
        <time>2015-08-20T07:38:52Z</time>
      </trkpt>
      <trkpt lat="44.03763" lon="7.06864">
        <ele>1567</ele>
        <time>2015-08-20T07:38:54Z</time>
      </trkpt>
      <trkpt lat="44.03762" lon="7.06866">
        <ele>1568</ele>
        <time>2015-08-20T07:38:59Z</time>
      </trkpt>
      <trkpt lat="44.03759" lon="7.06868">
        <ele>1568</ele>
        <time>2015-08-20T07:39:00Z</time>
      </trkpt>
      <trkpt lat="44.03757" lon="7.0687">
        <ele>1568</ele>
        <time>2015-08-20T07:39:05Z</time>
      </trkpt>
      <trkpt lat="44.03755" lon="7.06872">
        <ele>1568</ele>
        <time>2015-08-20T07:39:08Z</time>
      </trkpt>
      <trkpt lat="44.03754" lon="7.06874">
        <ele>1568</ele>
        <time>2015-08-20T07:39:14Z</time>
      </trkpt>
      <trkpt lat="44.03751" lon="7.06876">
        <ele>1569</ele>
        <time>2015-08-20T07:39:16Z</time>
      </trkpt>
      <trkpt lat="44.03749" lon="7.06877">
        <ele>1569</ele>
        <time>2015-08-20T07:39:22Z</time>
      </trkpt>
      <trkpt lat="44.03747" lon="7.0688">
        <ele>1570</ele>
        <time>2015-08-20T07:39:23Z</time>
      </trkpt>
      <trkpt lat="44.03746" lon="7.06881">
        <ele>1571</ele>
        <time>2015-08-20T07:39:29Z</time>
      </trkpt>
      <trkpt lat="44.03744" lon="7.06883">
        <ele>1571</ele>
        <time>2015-08-20T07:39:30Z</time>
      </trkpt>
      <trkpt lat="44.03742" lon="7.06885">
        <ele>1572</ele>
        <time>2015-08-20T07:39:36Z</time>
      </trkpt>
      <trkpt lat="44.0374" lon="7.06888">
        <ele>1573</ele>
        <time>2015-08-20T07:39:37Z</time>
      </trkpt>
      <trkpt lat="44.03739" lon="7.06889">
        <ele>1573</ele>
        <time>2015-08-20T07:39:39Z</time>
      </trkpt>
      <trkpt lat="44.03738" lon="7.06889">
        <ele>1574</ele>
        <time>2015-08-20T07:39:44Z</time>
      </trkpt>
      <trkpt lat="44.03736" lon="7.0689">
        <ele>1574</ele>
        <time>2015-08-20T07:39:45Z</time>
      </trkpt>
      <trkpt lat="44.03735" lon="7.0689">
        <ele>1574</ele>
        <time>2015-08-20T07:39:50Z</time>
      </trkpt>
      <trkpt lat="44.03734" lon="7.06892">
        <ele>1574</ele>
        <time>2015-08-20T07:39:50Z</time>
      </trkpt>
      <trkpt lat="44.03732" lon="7.06894">
        <ele>1575</ele>
        <time>2015-08-20T07:39:58Z</time>
      </trkpt>
      <trkpt lat="44.03732" lon="7.06896">
        <ele>1575</ele>
        <time>2015-08-20T07:40:04Z</time>
      </trkpt>
      <trkpt lat="44.03731" lon="7.069">
        <ele>1575</ele>
        <time>2015-08-20T07:40:05Z</time>
      </trkpt>
      <trkpt lat="44.0373" lon="7.06902">
        <ele>1577</ele>
        <time>2015-08-20T07:40:07Z</time>
      </trkpt>
      <trkpt lat="44.0373" lon="7.06906">
        <ele>1578</ele>
        <time>2015-08-20T07:40:12Z</time>
      </trkpt>
      <trkpt lat="44.0373" lon="7.06907">
        <ele>1580</ele>
        <time>2015-08-20T07:40:15Z</time>
      </trkpt>
      <trkpt lat="44.03731" lon="7.06911">
        <ele>1582</ele>
        <time>2015-08-20T07:40:21Z</time>
      </trkpt>
      <trkpt lat="44.03731" lon="7.06913">
        <ele>1583</ele>
        <time>2015-08-20T07:40:23Z</time>
      </trkpt>
      <trkpt lat="44.03731" lon="7.06915">
        <ele>1584</ele>
        <time>2015-08-20T07:40:28Z</time>
      </trkpt>
      <trkpt lat="44.03732" lon="7.06917">
        <ele>1585</ele>
        <time>2015-08-20T07:40:29Z</time>
      </trkpt>
      <trkpt lat="44.03732" lon="7.06919">
        <ele>1587</ele>
        <time>2015-08-20T07:40:35Z</time>
      </trkpt>
      <trkpt lat="44.03732" lon="7.06921">
        <ele>1587</ele>
        <time>2015-08-20T07:40:36Z</time>
      </trkpt>
      <trkpt lat="44.03732" lon="7.06923">
        <ele>1588</ele>
        <time>2015-08-20T07:40:38Z</time>
      </trkpt>
      <trkpt lat="44.03734" lon="7.06926">
        <ele>1589</ele>
        <time>2015-08-20T07:40:44Z</time>
      </trkpt>
      <trkpt lat="44.03733" lon="7.06928">
        <ele>1591</ele>
        <time>2015-08-20T07:40:46Z</time>
      </trkpt>
      <trkpt lat="44.03731" lon="7.06929">
        <ele>1591</ele>
        <time>2015-08-20T07:40:51Z</time>
      </trkpt>
      <trkpt lat="44.03729" lon="7.06931">
        <ele>1593</ele>
        <time>2015-08-20T07:40:53Z</time>
      </trkpt>
      <trkpt lat="44.03727" lon="7.06933">
        <ele>1595</ele>
        <time>2015-08-20T07:40:59Z</time>
      </trkpt>
      <trkpt lat="44.03727" lon="7.06936">
        <ele>1596</ele>
        <time>2015-08-20T07:41:00Z</time>
      </trkpt>
      <trkpt lat="44.03726" lon="7.06938">
        <ele>1597</ele>
        <time>2015-08-20T07:41:03Z</time>
      </trkpt>
      <trkpt lat="44.03725" lon="7.06941">
        <ele>1597</ele>
        <time>2015-08-20T07:41:08Z</time>
      </trkpt>
      <trkpt lat="44.03726" lon="7.06943">
        <ele>1598</ele>
        <time>2015-08-20T07:41:10Z</time>
      </trkpt>
      <trkpt lat="44.03726" lon="7.06946">
        <ele>1599</ele>
        <time>2015-08-20T07:41:15Z</time>
      </trkpt>
      <trkpt lat="44.03726" lon="7.06948">
        <ele>1600</ele>
        <time>2015-08-20T07:41:18Z</time>
      </trkpt>
      <trkpt lat="44.03727" lon="7.06951">
        <ele>1601</ele>
        <time>2015-08-20T07:41:24Z</time>
      </trkpt>
      <trkpt lat="44.03727" lon="7.06954">
        <ele>1602</ele>
        <time>2015-08-20T07:41:30Z</time>
      </trkpt>
      <trkpt lat="44.03727" lon="7.06956">
        <ele>1603</ele>
        <time>2015-08-20T07:41:31Z</time>
      </trkpt>
      <trkpt lat="44.03727" lon="7.06959">
        <ele>1603</ele>
        <time>2015-08-20T07:41:38Z</time>
      </trkpt>
      <trkpt lat="44.03729" lon="7.06962">
        <ele>1604</ele>
        <time>2015-08-20T07:41:39Z</time>
      </trkpt>
      <trkpt lat="44.03729" lon="7.06964">
        <ele>1604</ele>
        <time>2015-08-20T07:41:41Z</time>
      </trkpt>
      <trkpt lat="44.03729" lon="7.06965">
        <ele>1604</ele>
        <time>2015-08-20T07:41:46Z</time>
      </trkpt>
      <trkpt lat="44.03728" lon="7.06969">
        <ele>1604</ele>
        <time>2015-08-20T07:41:48Z</time>
      </trkpt>
      <trkpt lat="44.03729" lon="7.06971">
        <ele>1604</ele>
        <time>2015-08-20T07:41:54Z</time>
      </trkpt>
      <trkpt lat="44.03729" lon="7.06972">
        <ele>1604</ele>
        <time>2015-08-20T07:42:01Z</time>
      </trkpt>
      <trkpt lat="44.03727" lon="7.06974">
        <ele>1605</ele>
        <time>2015-08-20T07:42:02Z</time>
      </trkpt>
      <trkpt lat="44.03725" lon="7.06974">
        <ele>1606</ele>
        <time>2015-08-20T07:42:04Z</time>
      </trkpt>
      <trkpt lat="44.03724" lon="7.06977">
        <ele>1606</ele>
        <time>2015-08-20T07:42:12Z</time>
      </trkpt>
      <trkpt lat="44.03722" lon="7.0698">
        <ele>1606</ele>
        <time>2015-08-20T07:42:19Z</time>
      </trkpt>
      <trkpt lat="44.03723" lon="7.06982">
        <ele>1607</ele>
        <time>2015-08-20T07:42:26Z</time>
      </trkpt>
      <trkpt lat="44.03724" lon="7.06985">
        <ele>1607</ele>
        <time>2015-08-20T07:42:27Z</time>
      </trkpt>
      <trkpt lat="44.03723" lon="7.06987">
        <ele>1607</ele>
        <time>2015-08-20T07:42:34Z</time>
      </trkpt>
      <trkpt lat="44.03722" lon="7.06988">
        <ele>1608</ele>
        <time>2015-08-20T07:42:35Z</time>
      </trkpt>
      <trkpt lat="44.03723" lon="7.0699">
        <ele>1608</ele>
        <time>2015-08-20T07:42:41Z</time>
      </trkpt>
      <trkpt lat="44.0372" lon="7.0699">
        <ele>1609</ele>
        <time>2015-08-20T07:42:41Z</time>
      </trkpt>
      <trkpt lat="44.03719" lon="7.06991">
        <ele>1610</ele>
        <time>2015-08-20T07:42:43Z</time>
      </trkpt>
      <trkpt lat="44.03718" lon="7.06993">
        <ele>1611</ele>
        <time>2015-08-20T07:42:49Z</time>
      </trkpt>
      <trkpt lat="44.03719" lon="7.06995">
        <ele>1613</ele>
        <time>2015-08-20T07:42:56Z</time>
      </trkpt>
      <trkpt lat="44.0372" lon="7.06998">
        <ele>1613</ele>
        <time>2015-08-20T07:42:58Z</time>
      </trkpt>
      <trkpt lat="44.03721" lon="7.07">
        <ele>1614</ele>
        <time>2015-08-20T07:43:01Z</time>
      </trkpt>
      <trkpt lat="44.03721" lon="7.07004">
        <ele>1614</ele>
        <time>2015-08-20T07:43:06Z</time>
      </trkpt>
      <trkpt lat="44.03719" lon="7.07004">
        <ele>1614</ele>
        <time>2015-08-20T07:43:07Z</time>
      </trkpt>
      <trkpt lat="44.03718" lon="7.07004">
        <ele>1615</ele>
        <time>2015-08-20T07:43:09Z</time>
      </trkpt>
      <trkpt lat="44.03715" lon="7.07006">
        <ele>1616</ele>
        <time>2015-08-20T07:43:14Z</time>
      </trkpt>
      <trkpt lat="44.03714" lon="7.07008">
        <ele>1617</ele>
        <time>2015-08-20T07:43:22Z</time>
      </trkpt>
      <trkpt lat="44.03712" lon="7.0701">
        <ele>1618</ele>
        <time>2015-08-20T07:43:23Z</time>
      </trkpt>
      <trkpt lat="44.03711" lon="7.07011">
        <ele>1619</ele>
        <time>2015-08-20T07:43:30Z</time>
      </trkpt>
      <trkpt lat="44.0371" lon="7.07012">
        <ele>1619</ele>
        <time>2015-08-20T07:43:31Z</time>
      </trkpt>
      <trkpt lat="44.03711" lon="7.07014">
        <ele>1620</ele>
        <time>2015-08-20T07:43:32Z</time>
      </trkpt>
      <trkpt lat="44.03709" lon="7.07015">
        <ele>1620</ele>
        <time>2015-08-20T07:43:38Z</time>
      </trkpt>
      <trkpt lat="44.03707" lon="7.07017">
        <ele>1620</ele>
        <time>2015-08-20T07:43:39Z</time>
      </trkpt>
      <trkpt lat="44.03706" lon="7.07018">
        <ele>1621</ele>
        <time>2015-08-20T07:43:40Z</time>
      </trkpt>
      <trkpt lat="44.03703" lon="7.0702">
        <ele>1622</ele>
        <time>2015-08-20T07:43:46Z</time>
      </trkpt>
      <trkpt lat="44.03702" lon="7.0702">
        <ele>1623</ele>
        <time>2015-08-20T07:43:47Z</time>
      </trkpt>
      <trkpt lat="44.03701" lon="7.07021">
        <ele>1624</ele>
        <time>2015-08-20T07:43:48Z</time>
      </trkpt>
      <trkpt lat="44.03697" lon="7.07023">
        <ele>1625</ele>
        <time>2015-08-20T07:43:55Z</time>
      </trkpt>
      <trkpt lat="44.03696" lon="7.07023">
        <ele>1625</ele>
        <time>2015-08-20T07:43:56Z</time>
      </trkpt>
      <trkpt lat="44.03694" lon="7.07025">
        <ele>1626</ele>
        <time>2015-08-20T07:44:03Z</time>
      </trkpt>
      <trkpt lat="44.03692" lon="7.07024">
        <ele>1626</ele>
        <time>2015-08-20T07:44:10Z</time>
      </trkpt>
      <trkpt lat="44.0369" lon="7.07025">
        <ele>1629</ele>
        <time>2015-08-20T07:44:13Z</time>
      </trkpt>
      <trkpt lat="44.03689" lon="7.07027">
        <ele>1630</ele>
        <time>2015-08-20T07:44:18Z</time>
      </trkpt>
      <trkpt lat="44.03686" lon="7.07029">
        <ele>1630</ele>
        <time>2015-08-20T07:44:19Z</time>
      </trkpt>
      <trkpt lat="44.03686" lon="7.07031">
        <ele>1630</ele>
        <time>2015-08-20T07:44:26Z</time>
      </trkpt>
      <trkpt lat="44.03688" lon="7.07032">
        <ele>1631</ele>
        <time>2015-08-20T07:44:32Z</time>
      </trkpt>
      <trkpt lat="44.03688" lon="7.07036">
        <ele>1634</ele>
        <time>2015-08-20T07:44:42Z</time>
      </trkpt>
      <trkpt lat="44.03689" lon="7.07039">
        <ele>1634</ele>
        <time>2015-08-20T07:44:49Z</time>
      </trkpt>
      <trkpt lat="44.03689" lon="7.07041">
        <ele>1634</ele>
        <time>2015-08-20T07:44:50Z</time>
      </trkpt>
      <trkpt lat="44.03687" lon="7.07045">
        <ele>1634</ele>
        <time>2015-08-20T07:44:56Z</time>
      </trkpt>
      <trkpt lat="44.03685" lon="7.07047">
        <ele>1635</ele>
        <time>2015-08-20T07:45:04Z</time>
      </trkpt>
      <trkpt lat="44.03685" lon="7.07048">
        <ele>1638</ele>
        <time>2015-08-20T07:45:12Z</time>
      </trkpt>
      <trkpt lat="44.03686" lon="7.07049">
        <ele>1638</ele>
        <time>2015-08-20T07:45:18Z</time>
      </trkpt>
      <trkpt lat="44.03685" lon="7.0705">
        <ele>1638</ele>
        <time>2015-08-20T07:45:20Z</time>
      </trkpt>
      <trkpt lat="44.03686" lon="7.07053">
        <ele>1639</ele>
        <time>2015-08-20T07:45:26Z</time>
      </trkpt>
      <trkpt lat="44.03688" lon="7.07057">
        <ele>1639</ele>
        <time>2015-08-20T07:45:34Z</time>
      </trkpt>
      <trkpt lat="44.03688" lon="7.07059">
        <ele>1639</ele>
        <time>2015-08-20T07:45:41Z</time>
      </trkpt>
      <trkpt lat="44.0369" lon="7.07061">
        <ele>1639</ele>
        <time>2015-08-20T07:45:43Z</time>
      </trkpt>
      <trkpt lat="44.0369" lon="7.07062">
        <ele>1639</ele>
        <time>2015-08-20T07:45:49Z</time>
      </trkpt>
      <trkpt lat="44.03691" lon="7.07064">
        <ele>1640</ele>
        <time>2015-08-20T07:45:49Z</time>
      </trkpt>
      <trkpt lat="44.0369" lon="7.07067">
        <ele>1641</ele>
        <time>2015-08-20T07:45:56Z</time>
      </trkpt>
      <trkpt lat="44.03689" lon="7.07067">
        <ele>1641</ele>
        <time>2015-08-20T07:45:58Z</time>
      </trkpt>
      <trkpt lat="44.03687" lon="7.07069">
        <ele>1642</ele>
        <time>2015-08-20T07:46:04Z</time>
      </trkpt>
      <trkpt lat="44.03685" lon="7.0707">
        <ele>1643</ele>
        <time>2015-08-20T07:46:10Z</time>
      </trkpt>
      <trkpt lat="44.03685" lon="7.07072">
        <ele>1644</ele>
        <time>2015-08-20T07:46:11Z</time>
      </trkpt>
      <trkpt lat="44.03686" lon="7.07073">
        <ele>1644</ele>
        <time>2015-08-20T07:46:18Z</time>
      </trkpt>
      <trkpt lat="44.03687" lon="7.07076">
        <ele>1645</ele>
        <time>2015-08-20T07:46:20Z</time>
      </trkpt>
      <trkpt lat="44.03686" lon="7.07077">
        <ele>1645</ele>
        <time>2015-08-20T07:46:26Z</time>
      </trkpt>
      <trkpt lat="44.03687" lon="7.07079">
        <ele>1645</ele>
        <time>2015-08-20T07:46:27Z</time>
      </trkpt>
      <trkpt lat="44.03686" lon="7.07081">
        <ele>1645</ele>
        <time>2015-08-20T07:46:34Z</time>
      </trkpt>
      <trkpt lat="44.03686" lon="7.07083">
        <ele>1646</ele>
        <time>2015-08-20T07:46:34Z</time>
      </trkpt>
      <trkpt lat="44.03685" lon="7.07085">
        <ele>1648</ele>
        <time>2015-08-20T07:46:42Z</time>
      </trkpt>
      <trkpt lat="44.03683" lon="7.07086">
        <ele>1648</ele>
        <time>2015-08-20T07:46:44Z</time>
      </trkpt>
      <trkpt lat="44.03684" lon="7.07087">
        <ele>1648</ele>
        <time>2015-08-20T07:46:49Z</time>
      </trkpt>
      <trkpt lat="44.03684" lon="7.07089">
        <ele>1649</ele>
        <time>2015-08-20T07:46:52Z</time>
      </trkpt>
      <trkpt lat="44.03684" lon="7.07091">
        <ele>1650</ele>
        <time>2015-08-20T07:46:57Z</time>
      </trkpt>
      <trkpt lat="44.03685" lon="7.07092">
        <ele>1650</ele>
        <time>2015-08-20T07:46:58Z</time>
      </trkpt>
      <trkpt lat="44.03685" lon="7.07094">
        <ele>1652</ele>
        <time>2015-08-20T07:47:04Z</time>
      </trkpt>
      <trkpt lat="44.03685" lon="7.07096">
        <ele>1653</ele>
        <time>2015-08-20T07:47:06Z</time>
      </trkpt>
      <trkpt lat="44.03682" lon="7.07098">
        <ele>1655</ele>
        <time>2015-08-20T07:47:13Z</time>
      </trkpt>
      <trkpt lat="44.03681" lon="7.07098">
        <ele>1656</ele>
        <time>2015-08-20T07:47:15Z</time>
      </trkpt>
      <trkpt lat="44.03679" lon="7.07098">
        <ele>1656</ele>
        <time>2015-08-20T07:47:21Z</time>
      </trkpt>
      <trkpt lat="44.03676" lon="7.07099">
        <ele>1656</ele>
        <time>2015-08-20T07:47:22Z</time>
      </trkpt>
      <trkpt lat="44.03677" lon="7.07098">
        <ele>1656</ele>
        <time>2015-08-20T07:47:24Z</time>
      </trkpt>
      <trkpt lat="44.03676" lon="7.07098">
        <ele>1656</ele>
        <time>2015-08-20T07:47:37Z</time>
      </trkpt>
      <trkpt lat="44.03674" lon="7.071">
        <ele>1656</ele>
        <time>2015-08-20T07:47:40Z</time>
      </trkpt>
      <trkpt lat="44.03676" lon="7.07098">
        <ele>1656</ele>
        <time>2015-08-20T07:47:45Z</time>
      </trkpt>
      <trkpt lat="44.03677" lon="7.07097">
        <ele>1656</ele>
        <time>2015-08-20T07:47:46Z</time>
      </trkpt>
      <trkpt lat="44.03678" lon="7.07097">
        <ele>1656</ele>
        <time>2015-08-20T07:47:54Z</time>
      </trkpt>
      <trkpt lat="44.03677" lon="7.07098">
        <ele>1656</ele>
        <time>2015-08-20T07:48:03Z</time>
      </trkpt>
      <trkpt lat="44.03676" lon="7.07099">
        <ele>1656</ele>
        <time>2015-08-20T07:48:09Z</time>
      </trkpt>
      <trkpt lat="44.03673" lon="7.07102">
        <ele>1656</ele>
        <time>2015-08-20T07:48:10Z</time>
      </trkpt>
      <trkpt lat="44.03673" lon="7.07103">
        <ele>1656</ele>
        <time>2015-08-20T07:48:12Z</time>
      </trkpt>
      <trkpt lat="44.03672" lon="7.07106">
        <ele>1658</ele>
        <time>2015-08-20T07:48:19Z</time>
      </trkpt>
      <trkpt lat="44.03669" lon="7.07108">
        <ele>1661</ele>
        <time>2015-08-20T07:48:28Z</time>
      </trkpt>
      <trkpt lat="44.03668" lon="7.07109">
        <ele>1661</ele>
        <time>2015-08-20T07:48:35Z</time>
      </trkpt>
      <trkpt lat="44.03667" lon="7.0711">
        <ele>1661</ele>
        <time>2015-08-20T07:48:38Z</time>
      </trkpt>
      <trkpt lat="44.03664" lon="7.07112">
        <ele>1661</ele>
        <time>2015-08-20T07:48:43Z</time>
      </trkpt>
      <trkpt lat="44.03663" lon="7.07112">
        <ele>1661</ele>
        <time>2015-08-20T07:48:46Z</time>
      </trkpt>
      <trkpt lat="44.03661" lon="7.07113">
        <ele>1661</ele>
        <time>2015-08-20T07:48:51Z</time>
      </trkpt>
      <trkpt lat="44.03661" lon="7.07114">
        <ele>1661</ele>
        <time>2015-08-20T07:48:52Z</time>
      </trkpt>
      <trkpt lat="44.03663" lon="7.07117">
        <ele>1661</ele>
        <time>2015-08-20T07:48:59Z</time>
      </trkpt>
      <trkpt lat="44.03664" lon="7.07119">
        <ele>1662</ele>
        <time>2015-08-20T07:49:02Z</time>
      </trkpt>
      <trkpt lat="44.03665" lon="7.07122">
        <ele>1663</ele>
        <time>2015-08-20T07:49:08Z</time>
      </trkpt>
      <trkpt lat="44.03664" lon="7.07123">
        <ele>1665</ele>
        <time>2015-08-20T07:49:15Z</time>
      </trkpt>
      <trkpt lat="44.03661" lon="7.07124">
        <ele>1665</ele>
        <time>2015-08-20T07:49:17Z</time>
      </trkpt>
      <trkpt lat="44.0366" lon="7.07127">
        <ele>1667</ele>
        <time>2015-08-20T07:49:24Z</time>
      </trkpt>
      <trkpt lat="44.03659" lon="7.07127">
        <ele>1669</ele>
        <time>2015-08-20T07:49:27Z</time>
      </trkpt>
      <trkpt lat="44.03656" lon="7.07128">
        <ele>1670</ele>
        <time>2015-08-20T07:49:33Z</time>
      </trkpt>
      <trkpt lat="44.03654" lon="7.07129">
        <ele>1671</ele>
        <time>2015-08-20T07:49:36Z</time>
      </trkpt>
      <trkpt lat="44.03653" lon="7.07129">
        <ele>1671</ele>
        <time>2015-08-20T07:49:42Z</time>
      </trkpt>
      <trkpt lat="44.03651" lon="7.07129">
        <ele>1671</ele>
        <time>2015-08-20T07:49:49Z</time>
      </trkpt>
      <trkpt lat="44.03651" lon="7.07127">
        <ele>1671</ele>
        <time>2015-08-20T07:50:04Z</time>
      </trkpt>
      <trkpt lat="44.0365" lon="7.07129">
        <ele>1672</ele>
        <time>2015-08-20T07:50:42Z</time>
      </trkpt>
      <trkpt lat="44.03648" lon="7.07131">
        <ele>1673</ele>
        <time>2015-08-20T07:51:06Z</time>
      </trkpt>
      <trkpt lat="44.03646" lon="7.07132">
        <ele>1674</ele>
        <time>2015-08-20T07:51:13Z</time>
      </trkpt>
      <trkpt lat="44.03644" lon="7.07133">
        <ele>1675</ele>
        <time>2015-08-20T07:51:14Z</time>
      </trkpt>
      <trkpt lat="44.03645" lon="7.07131">
        <ele>1675</ele>
        <time>2015-08-20T07:51:22Z</time>
      </trkpt>
      <trkpt lat="44.03643" lon="7.07132">
        <ele>1675</ele>
        <time>2015-08-20T07:51:29Z</time>
      </trkpt>
      <trkpt lat="44.03641" lon="7.07133">
        <ele>1675</ele>
        <time>2015-08-20T07:51:30Z</time>
      </trkpt>
      <trkpt lat="44.0364" lon="7.07133">
        <ele>1676</ele>
        <time>2015-08-20T07:51:38Z</time>
      </trkpt>
      <trkpt lat="44.03638" lon="7.07135">
        <ele>1676</ele>
        <time>2015-08-20T07:51:38Z</time>
      </trkpt>
      <trkpt lat="44.03637" lon="7.07136">
        <ele>1676</ele>
        <time>2015-08-20T07:51:45Z</time>
      </trkpt>
      <trkpt lat="44.03635" lon="7.07139">
        <ele>1677</ele>
        <time>2015-08-20T07:51:47Z</time>
      </trkpt>
      <trkpt lat="44.03634" lon="7.0714">
        <ele>1677</ele>
        <time>2015-08-20T07:51:51Z</time>
      </trkpt>
      <trkpt lat="44.03632" lon="7.07142">
        <ele>1678</ele>
        <time>2015-08-20T07:51:52Z</time>
      </trkpt>
      <trkpt lat="44.03631" lon="7.07142">
        <ele>1679</ele>
        <time>2015-08-20T07:51:54Z</time>
      </trkpt>
      <trkpt lat="44.03628" lon="7.07145">
        <ele>1680</ele>
        <time>2015-08-20T07:52:00Z</time>
      </trkpt>
      <trkpt lat="44.03623" lon="7.07148">
        <ele>1681</ele>
        <time>2015-08-20T07:52:07Z</time>
      </trkpt>
      <trkpt lat="44.03621" lon="7.07148">
        <ele>1682</ele>
        <time>2015-08-20T07:52:12Z</time>
      </trkpt>
      <trkpt lat="44.03619" lon="7.0715">
        <ele>1682</ele>
        <time>2015-08-20T07:52:13Z</time>
      </trkpt>
      <trkpt lat="44.03617" lon="7.07151">
        <ele>1683</ele>
        <time>2015-08-20T07:52:19Z</time>
      </trkpt>
      <trkpt lat="44.03616" lon="7.07151">
        <ele>1683</ele>
        <time>2015-08-20T07:52:19Z</time>
      </trkpt>
      <trkpt lat="44.03615" lon="7.07153">
        <ele>1684</ele>
        <time>2015-08-20T07:52:22Z</time>
      </trkpt>
      <trkpt lat="44.03614" lon="7.07156">
        <ele>1684</ele>
        <time>2015-08-20T07:52:29Z</time>
      </trkpt>
      <trkpt lat="44.03617" lon="7.07156">
        <ele>1686</ele>
        <time>2015-08-20T07:52:36Z</time>
      </trkpt>
      <trkpt lat="44.03617" lon="7.07158">
        <ele>1688</ele>
        <time>2015-08-20T07:52:38Z</time>
      </trkpt>
      <trkpt lat="44.03616" lon="7.07159">
        <ele>1688</ele>
        <time>2015-08-20T07:52:43Z</time>
      </trkpt>
      <trkpt lat="44.03614" lon="7.07161">
        <ele>1689</ele>
        <time>2015-08-20T07:52:44Z</time>
      </trkpt>
      <trkpt lat="44.03613" lon="7.07162">
        <ele>1690</ele>
        <time>2015-08-20T07:52:51Z</time>
      </trkpt>
      <trkpt lat="44.03611" lon="7.07164">
        <ele>1690</ele>
        <time>2015-08-20T07:52:52Z</time>
      </trkpt>
      <trkpt lat="44.0361" lon="7.07166">
        <ele>1691</ele>
        <time>2015-08-20T07:53:00Z</time>
      </trkpt>
      <trkpt lat="44.03608" lon="7.07168">
        <ele>1691</ele>
        <time>2015-08-20T07:53:00Z</time>
      </trkpt>
      <trkpt lat="44.0361" lon="7.07169">
        <ele>1692</ele>
        <time>2015-08-20T07:53:07Z</time>
      </trkpt>
      <trkpt lat="44.03609" lon="7.0717">
        <ele>1694</ele>
        <time>2015-08-20T07:53:15Z</time>
      </trkpt>
      <trkpt lat="44.0361" lon="7.07171">
        <ele>1695</ele>
        <time>2015-08-20T07:53:16Z</time>
      </trkpt>
      <trkpt lat="44.03612" lon="7.07173">
        <ele>1696</ele>
        <time>2015-08-20T07:53:22Z</time>
      </trkpt>
      <trkpt lat="44.03614" lon="7.07175">
        <ele>1697</ele>
        <time>2015-08-20T07:53:29Z</time>
      </trkpt>
      <trkpt lat="44.03614" lon="7.07176">
        <ele>1698</ele>
        <time>2015-08-20T07:53:37Z</time>
      </trkpt>
      <trkpt lat="44.03617" lon="7.07177">
        <ele>1698</ele>
        <time>2015-08-20T07:53:37Z</time>
      </trkpt>
      <trkpt lat="44.03618" lon="7.07176">
        <ele>1698</ele>
        <time>2015-08-20T07:53:40Z</time>
      </trkpt>
      <trkpt lat="44.03618" lon="7.07178">
        <ele>1699</ele>
        <time>2015-08-20T07:53:45Z</time>
      </trkpt>
      <trkpt lat="44.03618" lon="7.0718">
        <ele>1699</ele>
        <time>2015-08-20T07:53:45Z</time>
      </trkpt>
      <trkpt lat="44.03617" lon="7.07182">
        <ele>1700</ele>
        <time>2015-08-20T07:53:52Z</time>
      </trkpt>
      <trkpt lat="44.03615" lon="7.07183">
        <ele>1700</ele>
        <time>2015-08-20T07:53:53Z</time>
      </trkpt>
      <trkpt lat="44.03613" lon="7.07185">
        <ele>1701</ele>
        <time>2015-08-20T07:54:00Z</time>
      </trkpt>
      <trkpt lat="44.03613" lon="7.07186">
        <ele>1702</ele>
        <time>2015-08-20T07:54:07Z</time>
      </trkpt>
      <trkpt lat="44.03614" lon="7.07187">
        <ele>1702</ele>
        <time>2015-08-20T07:54:08Z</time>
      </trkpt>
      <trkpt lat="44.03616" lon="7.07188">
        <ele>1704</ele>
        <time>2015-08-20T07:54:16Z</time>
      </trkpt>
      <trkpt lat="44.03617" lon="7.0719">
        <ele>1704</ele>
        <time>2015-08-20T07:54:16Z</time>
      </trkpt>
      <trkpt lat="44.03617" lon="7.07191">
        <ele>1706</ele>
        <time>2015-08-20T07:54:24Z</time>
      </trkpt>
      <trkpt lat="44.03619" lon="7.07193">
        <ele>1707</ele>
        <time>2015-08-20T07:54:32Z</time>
      </trkpt>
      <trkpt lat="44.0362" lon="7.07194">
        <ele>1707</ele>
        <time>2015-08-20T07:54:32Z</time>
      </trkpt>
      <trkpt lat="44.03622" lon="7.07198">
        <ele>1709</ele>
        <time>2015-08-20T07:54:40Z</time>
      </trkpt>
      <trkpt lat="44.03623" lon="7.07201">
        <ele>1710</ele>
        <time>2015-08-20T07:54:47Z</time>
      </trkpt>
      <trkpt lat="44.03625" lon="7.07202">
        <ele>1711</ele>
        <time>2015-08-20T07:54:54Z</time>
      </trkpt>
      <trkpt lat="44.03623" lon="7.07204">
        <ele>1712</ele>
        <time>2015-08-20T07:54:56Z</time>
      </trkpt>
      <trkpt lat="44.03626" lon="7.07207">
        <ele>1712</ele>
        <time>2015-08-20T07:55:04Z</time>
      </trkpt>
      <trkpt lat="44.03626" lon="7.07208">
        <ele>1713</ele>
        <time>2015-08-20T07:55:10Z</time>
      </trkpt>
      <trkpt lat="44.03627" lon="7.0721">
        <ele>1714</ele>
        <time>2015-08-20T07:55:11Z</time>
      </trkpt>
      <trkpt lat="44.03624" lon="7.07212">
        <ele>1714</ele>
        <time>2015-08-20T07:55:19Z</time>
      </trkpt>
      <trkpt lat="44.03623" lon="7.07215">
        <ele>1715</ele>
        <time>2015-08-20T07:55:26Z</time>
      </trkpt>
      <trkpt lat="44.03622" lon="7.07216">
        <ele>1717</ele>
        <time>2015-08-20T07:55:34Z</time>
      </trkpt>
      <trkpt lat="44.03621" lon="7.07217">
        <ele>1717</ele>
        <time>2015-08-20T07:55:34Z</time>
      </trkpt>
      <trkpt lat="44.03621" lon="7.07219">
        <ele>1718</ele>
        <time>2015-08-20T07:55:41Z</time>
      </trkpt>
      <trkpt lat="44.03619" lon="7.07221">
        <ele>1719</ele>
        <time>2015-08-20T07:55:42Z</time>
      </trkpt>
      <trkpt lat="44.03617" lon="7.07221">
        <ele>1719</ele>
        <time>2015-08-20T07:55:49Z</time>
      </trkpt>
      <trkpt lat="44.03616" lon="7.07223">
        <ele>1720</ele>
        <time>2015-08-20T07:55:49Z</time>
      </trkpt>
      <trkpt lat="44.03614" lon="7.07223">
        <ele>1721</ele>
        <time>2015-08-20T07:55:52Z</time>
      </trkpt>
      <trkpt lat="44.03613" lon="7.07224">
        <ele>1722</ele>
        <time>2015-08-20T07:55:57Z</time>
      </trkpt>
      <trkpt lat="44.03611" lon="7.07225">
        <ele>1722</ele>
        <time>2015-08-20T07:55:58Z</time>
      </trkpt>
      <trkpt lat="44.0361" lon="7.07226">
        <ele>1723</ele>
        <time>2015-08-20T07:56:05Z</time>
      </trkpt>
      <trkpt lat="44.03609" lon="7.07229">
        <ele>1724</ele>
        <time>2015-08-20T07:56:05Z</time>
      </trkpt>
      <trkpt lat="44.03609" lon="7.07231">
        <ele>1725</ele>
        <time>2015-08-20T07:56:13Z</time>
      </trkpt>
      <trkpt lat="44.03607" lon="7.07232">
        <ele>1726</ele>
        <time>2015-08-20T07:56:13Z</time>
      </trkpt>
      <trkpt lat="44.03605" lon="7.07233">
        <ele>1726</ele>
        <time>2015-08-20T07:56:20Z</time>
      </trkpt>
      <trkpt lat="44.03603" lon="7.07234">
        <ele>1727</ele>
        <time>2015-08-20T07:56:21Z</time>
      </trkpt>
      <trkpt lat="44.03602" lon="7.07236">
        <ele>1727</ele>
        <time>2015-08-20T07:56:27Z</time>
      </trkpt>
      <trkpt lat="44.03601" lon="7.07238">
        <ele>1727</ele>
        <time>2015-08-20T07:56:28Z</time>
      </trkpt>
      <trkpt lat="44.036" lon="7.07239">
        <ele>1728</ele>
        <time>2015-08-20T07:56:36Z</time>
      </trkpt>
      <trkpt lat="44.03599" lon="7.0724">
        <ele>1729</ele>
        <time>2015-08-20T07:56:37Z</time>
      </trkpt>
      <trkpt lat="44.03597" lon="7.07241">
        <ele>1729</ele>
        <time>2015-08-20T07:56:44Z</time>
      </trkpt>
      <trkpt lat="44.03596" lon="7.07243">
        <ele>1729</ele>
        <time>2015-08-20T07:56:44Z</time>
      </trkpt>
      <trkpt lat="44.03594" lon="7.07244">
        <ele>1730</ele>
        <time>2015-08-20T07:56:51Z</time>
      </trkpt>
      <trkpt lat="44.03595" lon="7.07244">
        <ele>1731</ele>
        <time>2015-08-20T07:57:06Z</time>
      </trkpt>
      <trkpt lat="44.03597" lon="7.07245">
        <ele>1733</ele>
        <time>2015-08-20T07:58:16Z</time>
      </trkpt>
      <trkpt lat="44.03596" lon="7.07245">
        <ele>1734</ele>
        <time>2015-08-20T07:58:48Z</time>
      </trkpt>
      <trkpt lat="44.03594" lon="7.07246">
        <ele>1734</ele>
        <time>2015-08-20T07:58:54Z</time>
      </trkpt>
      <trkpt lat="44.03591" lon="7.07248">
        <ele>1734</ele>
        <time>2015-08-20T07:58:56Z</time>
      </trkpt>
      <trkpt lat="44.03587" lon="7.07249">
        <ele>1734</ele>
        <time>2015-08-20T07:59:02Z</time>
      </trkpt>
      <trkpt lat="44.03585" lon="7.07253">
        <ele>1734</ele>
        <time>2015-08-20T07:59:10Z</time>
      </trkpt>
      <trkpt lat="44.03584" lon="7.07255">
        <ele>1734</ele>
        <time>2015-08-20T07:59:18Z</time>
      </trkpt>
      <trkpt lat="44.03583" lon="7.07257">
        <ele>1734</ele>
        <time>2015-08-20T07:59:20Z</time>
      </trkpt>
      <trkpt lat="44.0358" lon="7.07259">
        <ele>1736</ele>
        <time>2015-08-20T07:59:26Z</time>
      </trkpt>
      <trkpt lat="44.0358" lon="7.0726">
        <ele>1736</ele>
        <time>2015-08-20T07:59:28Z</time>
      </trkpt>
      <trkpt lat="44.03579" lon="7.07263">
        <ele>1737</ele>
        <time>2015-08-20T07:59:34Z</time>
      </trkpt>
      <trkpt lat="44.03577" lon="7.07265">
        <ele>1738</ele>
        <time>2015-08-20T07:59:43Z</time>
      </trkpt>
      <trkpt lat="44.03576" lon="7.07267">
        <ele>1740</ele>
        <time>2015-08-20T07:59:50Z</time>
      </trkpt>
      <trkpt lat="44.03575" lon="7.07268">
        <ele>1740</ele>
        <time>2015-08-20T07:59:50Z</time>
      </trkpt>
      <trkpt lat="44.03574" lon="7.07268">
        <ele>1740</ele>
        <time>2015-08-20T07:59:52Z</time>
      </trkpt>
      <trkpt lat="44.0357" lon="7.07269">
        <ele>1740</ele>
        <time>2015-08-20T07:59:58Z</time>
      </trkpt>
      <trkpt lat="44.03568" lon="7.0727">
        <ele>1740</ele>
        <time>2015-08-20T08:00:06Z</time>
      </trkpt>
      <trkpt lat="44.03567" lon="7.07272">
        <ele>1740</ele>
        <time>2015-08-20T08:00:13Z</time>
      </trkpt>
      <trkpt lat="44.03564" lon="7.07274">
        <ele>1741</ele>
        <time>2015-08-20T08:00:21Z</time>
      </trkpt>
      <trkpt lat="44.03563" lon="7.07274">
        <ele>1741</ele>
        <time>2015-08-20T08:00:23Z</time>
      </trkpt>
      <trkpt lat="44.03559" lon="7.07275">
        <ele>1741</ele>
        <time>2015-08-20T08:00:29Z</time>
      </trkpt>
      <trkpt lat="44.03558" lon="7.07276">
        <ele>1742</ele>
        <time>2015-08-20T08:00:31Z</time>
      </trkpt>
      <trkpt lat="44.03556" lon="7.07276">
        <ele>1742</ele>
        <time>2015-08-20T08:00:36Z</time>
      </trkpt>
      <trkpt lat="44.03555" lon="7.07276">
        <ele>1742</ele>
        <time>2015-08-20T08:00:37Z</time>
      </trkpt>
      <trkpt lat="44.03553" lon="7.07276">
        <ele>1743</ele>
        <time>2015-08-20T08:00:38Z</time>
      </trkpt>
      <trkpt lat="44.03552" lon="7.07276">
        <ele>1743</ele>
        <time>2015-08-20T08:00:43Z</time>
      </trkpt>
      <trkpt lat="44.0355" lon="7.07277">
        <ele>1744</ele>
        <time>2015-08-20T08:00:43Z</time>
      </trkpt>
      <trkpt lat="44.0355" lon="7.07279">
        <ele>1745</ele>
        <time>2015-08-20T08:00:49Z</time>
      </trkpt>
      <trkpt lat="44.0355" lon="7.07281">
        <ele>1746</ele>
        <time>2015-08-20T08:00:50Z</time>
      </trkpt>
      <trkpt lat="44.03549" lon="7.07283">
        <ele>1748</ele>
        <time>2015-08-20T08:00:56Z</time>
      </trkpt>
      <trkpt lat="44.0355" lon="7.07284">
        <ele>1749</ele>
        <time>2015-08-20T08:00:58Z</time>
      </trkpt>
      <trkpt lat="44.03549" lon="7.07287">
        <ele>1749</ele>
        <time>2015-08-20T08:01:03Z</time>
      </trkpt>
      <trkpt lat="44.03548" lon="7.07288">
        <ele>1751</ele>
        <time>2015-08-20T08:01:07Z</time>
      </trkpt>
      <trkpt lat="44.03547" lon="7.07289">
        <ele>1752</ele>
        <time>2015-08-20T08:01:14Z</time>
      </trkpt>
      <trkpt lat="44.03547" lon="7.07291">
        <ele>1752</ele>
        <time>2015-08-20T08:01:18Z</time>
      </trkpt>
      <trkpt lat="44.03546" lon="7.07293">
        <ele>1753</ele>
        <time>2015-08-20T08:01:19Z</time>
      </trkpt>
      <trkpt lat="44.03546" lon="7.07295">
        <ele>1754</ele>
        <time>2015-08-20T08:01:24Z</time>
      </trkpt>
      <trkpt lat="44.03545" lon="7.07297">
        <ele>1756</ele>
        <time>2015-08-20T08:01:31Z</time>
      </trkpt>
      <trkpt lat="44.03544" lon="7.07298">
        <ele>1756</ele>
        <time>2015-08-20T08:01:32Z</time>
      </trkpt>
      <trkpt lat="44.03543" lon="7.073">
        <ele>1757</ele>
        <time>2015-08-20T08:01:37Z</time>
      </trkpt>
      <trkpt lat="44.03542" lon="7.07301">
        <ele>1758</ele>
        <time>2015-08-20T08:01:40Z</time>
      </trkpt>
      <trkpt lat="44.03542" lon="7.07304">
        <ele>1759</ele>
        <time>2015-08-20T08:01:46Z</time>
      </trkpt>
      <trkpt lat="44.03542" lon="7.07306">
        <ele>1760</ele>
        <time>2015-08-20T08:01:50Z</time>
      </trkpt>
      <trkpt lat="44.03541" lon="7.07307">
        <ele>1761</ele>
        <time>2015-08-20T08:01:52Z</time>
      </trkpt>
      <trkpt lat="44.03542" lon="7.07309">
        <ele>1762</ele>
        <time>2015-08-20T08:01:57Z</time>
      </trkpt>
      <trkpt lat="44.03542" lon="7.07311">
        <ele>1763</ele>
        <time>2015-08-20T08:02:04Z</time>
      </trkpt>
      <trkpt lat="44.0354" lon="7.07312">
        <ele>1764</ele>
        <time>2015-08-20T08:02:06Z</time>
      </trkpt>
      <trkpt lat="44.03541" lon="7.07315">
        <ele>1765</ele>
        <time>2015-08-20T08:02:11Z</time>
      </trkpt>
      <trkpt lat="44.0354" lon="7.07316">
        <ele>1766</ele>
        <time>2015-08-20T08:02:18Z</time>
      </trkpt>
      <trkpt lat="44.03539" lon="7.07317">
        <ele>1767</ele>
        <time>2015-08-20T08:02:20Z</time>
      </trkpt>
      <trkpt lat="44.03539" lon="7.0732">
        <ele>1767</ele>
        <time>2015-08-20T08:02:24Z</time>
      </trkpt>
      <trkpt lat="44.03539" lon="7.07321">
        <ele>1768</ele>
        <time>2015-08-20T08:02:27Z</time>
      </trkpt>
      <trkpt lat="44.03539" lon="7.07323">
        <ele>1769</ele>
        <time>2015-08-20T08:02:33Z</time>
      </trkpt>
      <trkpt lat="44.03538" lon="7.07326">
        <ele>1770</ele>
        <time>2015-08-20T08:02:38Z</time>
      </trkpt>
      <trkpt lat="44.03538" lon="7.07329">
        <ele>1771</ele>
        <time>2015-08-20T08:02:44Z</time>
      </trkpt>
      <trkpt lat="44.03538" lon="7.0733">
        <ele>1772</ele>
        <time>2015-08-20T08:02:46Z</time>
      </trkpt>
      <trkpt lat="44.0354" lon="7.07332">
        <ele>1772</ele>
        <time>2015-08-20T08:02:50Z</time>
      </trkpt>
      <trkpt lat="44.03538" lon="7.07333">
        <ele>1773</ele>
        <time>2015-08-20T08:02:52Z</time>
      </trkpt>
      <trkpt lat="44.03537" lon="7.07334">
        <ele>1774</ele>
        <time>2015-08-20T08:02:57Z</time>
      </trkpt>
      <trkpt lat="44.03535" lon="7.07335">
        <ele>1774</ele>
        <time>2015-08-20T08:02:58Z</time>
      </trkpt>
      <trkpt lat="44.03534" lon="7.07336">
        <ele>1774</ele>
        <time>2015-08-20T08:03:04Z</time>
      </trkpt>
      <trkpt lat="44.03532" lon="7.07337">
        <ele>1775</ele>
        <time>2015-08-20T08:03:04Z</time>
      </trkpt>
      <trkpt lat="44.03531" lon="7.07338">
        <ele>1775</ele>
        <time>2015-08-20T08:03:06Z</time>
      </trkpt>
      <trkpt lat="44.03529" lon="7.07341">
        <ele>1776</ele>
        <time>2015-08-20T08:03:11Z</time>
      </trkpt>
      <trkpt lat="44.03526" lon="7.07342">
        <ele>1777</ele>
        <time>2015-08-20T08:03:15Z</time>
      </trkpt>
      <trkpt lat="44.03525" lon="7.07344">
        <ele>1778</ele>
        <time>2015-08-20T08:03:18Z</time>
      </trkpt>
      <trkpt lat="44.03522" lon="7.07345">
        <ele>1779</ele>
        <time>2015-08-20T08:03:23Z</time>
      </trkpt>
      <trkpt lat="44.03521" lon="7.07346">
        <ele>1780</ele>
        <time>2015-08-20T08:03:25Z</time>
      </trkpt>
      <trkpt lat="44.03519" lon="7.07347">
        <ele>1780</ele>
        <time>2015-08-20T08:03:30Z</time>
      </trkpt>
      <trkpt lat="44.03517" lon="7.07348">
        <ele>1781</ele>
        <time>2015-08-20T08:03:32Z</time>
      </trkpt>
      <trkpt lat="44.03514" lon="7.07349">
        <ele>1781</ele>
        <time>2015-08-20T08:03:36Z</time>
      </trkpt>
      <trkpt lat="44.03513" lon="7.0735">
        <ele>1782</ele>
        <time>2015-08-20T08:03:37Z</time>
      </trkpt>
      <trkpt lat="44.03512" lon="7.07351">
        <ele>1782</ele>
        <time>2015-08-20T08:03:39Z</time>
      </trkpt>
      <trkpt lat="44.03511" lon="7.07353">
        <ele>1782</ele>
        <time>2015-08-20T08:03:43Z</time>
      </trkpt>
      <trkpt lat="44.0351" lon="7.07354">
        <ele>1783</ele>
        <time>2015-08-20T08:03:43Z</time>
      </trkpt>
      <trkpt lat="44.03509" lon="7.07354">
        <ele>1783</ele>
        <time>2015-08-20T08:03:51Z</time>
      </trkpt>
      <trkpt lat="44.03507" lon="7.07356">
        <ele>1783</ele>
        <time>2015-08-20T08:03:56Z</time>
      </trkpt>
      <trkpt lat="44.03504" lon="7.07357">
        <ele>1784</ele>
        <time>2015-08-20T08:03:56Z</time>
      </trkpt>
      <trkpt lat="44.03504" lon="7.07359">
        <ele>1785</ele>
        <time>2015-08-20T08:03:59Z</time>
      </trkpt>
      <trkpt lat="44.03502" lon="7.07361">
        <ele>1785</ele>
        <time>2015-08-20T08:04:03Z</time>
      </trkpt>
      <trkpt lat="44.03502" lon="7.07359">
        <ele>1785</ele>
        <time>2015-08-20T08:04:08Z</time>
      </trkpt>
      <trkpt lat="44.03504" lon="7.07359">
        <ele>1785</ele>
        <time>2015-08-20T08:04:10Z</time>
      </trkpt>
      <trkpt lat="44.03502" lon="7.07361">
        <ele>1785</ele>
        <time>2015-08-20T08:04:23Z</time>
      </trkpt>
      <trkpt lat="44.03502" lon="7.07359">
        <ele>1786</ele>
        <time>2015-08-20T08:04:45Z</time>
      </trkpt>
      <trkpt lat="44.03501" lon="7.07361">
        <ele>1787</ele>
        <time>2015-08-20T08:05:31Z</time>
      </trkpt>
      <trkpt lat="44.035" lon="7.07361">
        <ele>1787</ele>
        <time>2015-08-20T08:05:31Z</time>
      </trkpt>
      <trkpt lat="44.03497" lon="7.07363">
        <ele>1787</ele>
        <time>2015-08-20T08:05:38Z</time>
      </trkpt>
      <trkpt lat="44.03495" lon="7.07365">
        <ele>1787</ele>
        <time>2015-08-20T08:05:39Z</time>
      </trkpt>
      <trkpt lat="44.03491" lon="7.07372">
        <ele>1787</ele>
        <time>2015-08-20T08:05:45Z</time>
      </trkpt>
      <trkpt lat="44.0349" lon="7.07374">
        <ele>1787</ele>
        <time>2015-08-20T08:05:50Z</time>
      </trkpt>
      <trkpt lat="44.03539" lon="7.07295">
        <ele>1767</ele>
        <time>2015-08-20T08:06:02Z</time>
      </trkpt>
      <trkpt lat="44.0354" lon="7.07294">
        <ele>1767</ele>
        <time>2015-08-20T08:06:08Z</time>
      </trkpt>
      <trkpt lat="44.03541" lon="7.07292">
        <ele>1767</ele>
        <time>2015-08-20T08:06:09Z</time>
      </trkpt>
      <trkpt lat="44.03542" lon="7.0729">
        <ele>1766</ele>
        <time>2015-08-20T08:06:15Z</time>
      </trkpt>
      <trkpt lat="44.03544" lon="7.07288">
        <ele>1765</ele>
        <time>2015-08-20T08:06:16Z</time>
      </trkpt>
      <trkpt lat="44.03545" lon="7.07287">
        <ele>1765</ele>
        <time>2015-08-20T08:06:21Z</time>
      </trkpt>
      <trkpt lat="44.03546" lon="7.07285">
        <ele>1764</ele>
        <time>2015-08-20T08:06:22Z</time>
      </trkpt>
      <trkpt lat="44.03547" lon="7.07284">
        <ele>1763</ele>
        <time>2015-08-20T08:06:24Z</time>
      </trkpt>
      <trkpt lat="44.03548" lon="7.07282">
        <ele>1762</ele>
        <time>2015-08-20T08:06:29Z</time>
      </trkpt>
      <trkpt lat="44.03549" lon="7.07281">
        <ele>1761</ele>
        <time>2015-08-20T08:06:32Z</time>
      </trkpt>
      <trkpt lat="44.03551" lon="7.0728">
        <ele>1760</ele>
        <time>2015-08-20T08:06:37Z</time>
      </trkpt>
      <trkpt lat="44.03552" lon="7.07281">
        <ele>1759</ele>
        <time>2015-08-20T08:06:50Z</time>
      </trkpt>
      <trkpt lat="44.0355" lon="7.07282">
        <ele>1758</ele>
        <time>2015-08-20T08:06:58Z</time>
      </trkpt>
      <trkpt lat="44.03551" lon="7.0728">
        <ele>1758</ele>
        <time>2015-08-20T08:07:04Z</time>
      </trkpt>
      <trkpt lat="44.03552" lon="7.07279">
        <ele>1758</ele>
        <time>2015-08-20T08:07:05Z</time>
      </trkpt>
      <trkpt lat="44.03553" lon="7.07277">
        <ele>1757</ele>
        <time>2015-08-20T08:07:12Z</time>
      </trkpt>
      <trkpt lat="44.03553" lon="7.07275">
        <ele>1756</ele>
        <time>2015-08-20T08:07:20Z</time>
      </trkpt>
      <trkpt lat="44.03556" lon="7.07274">
        <ele>1755</ele>
        <time>2015-08-20T08:07:27Z</time>
      </trkpt>
      <trkpt lat="44.03558" lon="7.07274">
        <ele>1755</ele>
        <time>2015-08-20T08:07:29Z</time>
      </trkpt>
      <trkpt lat="44.03559" lon="7.07273">
        <ele>1755</ele>
        <time>2015-08-20T08:07:33Z</time>
      </trkpt>
      <trkpt lat="44.03561" lon="7.07272">
        <ele>1754</ele>
        <time>2015-08-20T08:07:34Z</time>
      </trkpt>
      <trkpt lat="44.03564" lon="7.0727">
        <ele>1753</ele>
        <time>2015-08-20T08:07:38Z</time>
      </trkpt>
      <trkpt lat="44.03566" lon="7.07269">
        <ele>1752</ele>
        <time>2015-08-20T08:07:39Z</time>
      </trkpt>
      <trkpt lat="44.03568" lon="7.07268">
        <ele>1752</ele>
        <time>2015-08-20T08:07:41Z</time>
      </trkpt>
      <trkpt lat="44.0357" lon="7.07266">
        <ele>1751</ele>
        <time>2015-08-20T08:07:46Z</time>
      </trkpt>
      <trkpt lat="44.03571" lon="7.07265">
        <ele>1751</ele>
        <time>2015-08-20T08:07:48Z</time>
      </trkpt>
      <trkpt lat="44.03572" lon="7.07264">
        <ele>1750</ele>
        <time>2015-08-20T08:07:54Z</time>
      </trkpt>
      <trkpt lat="44.03575" lon="7.07263">
        <ele>1750</ele>
        <time>2015-08-20T08:07:55Z</time>
      </trkpt>
      <trkpt lat="44.03578" lon="7.07262">
        <ele>1749</ele>
        <time>2015-08-20T08:08:01Z</time>
      </trkpt>
      <trkpt lat="44.03579" lon="7.0726">
        <ele>1749</ele>
        <time>2015-08-20T08:08:07Z</time>
      </trkpt>
      <trkpt lat="44.03579" lon="7.07257">
        <ele>1748</ele>
        <time>2015-08-20T08:08:14Z</time>
      </trkpt>
      <trkpt lat="44.03581" lon="7.07254">
        <ele>1748</ele>
        <time>2015-08-20T08:08:15Z</time>
      </trkpt>
      <trkpt lat="44.03582" lon="7.07252">
        <ele>1747</ele>
        <time>2015-08-20T08:08:21Z</time>
      </trkpt>
      <trkpt lat="44.03583" lon="7.07252">
        <ele>1746</ele>
        <time>2015-08-20T08:08:22Z</time>
      </trkpt>
      <trkpt lat="44.03585" lon="7.07251">
        <ele>1742</ele>
        <time>2015-08-20T08:08:29Z</time>
      </trkpt>
      <trkpt lat="44.03586" lon="7.07248">
        <ele>1740</ele>
        <time>2015-08-20T08:08:35Z</time>
      </trkpt>
      <trkpt lat="44.03589" lon="7.07245">
        <ele>1739</ele>
        <time>2015-08-20T08:08:37Z</time>
      </trkpt>
      <trkpt lat="44.03591" lon="7.07243">
        <ele>1738</ele>
        <time>2015-08-20T08:08:42Z</time>
      </trkpt>
      <trkpt lat="44.03593" lon="7.07242">
        <ele>1738</ele>
        <time>2015-08-20T08:08:43Z</time>
      </trkpt>
      <trkpt lat="44.03597" lon="7.0724">
        <ele>1737</ele>
        <time>2015-08-20T08:08:47Z</time>
      </trkpt>
      <trkpt lat="44.03599" lon="7.0724">
        <ele>1737</ele>
        <time>2015-08-20T08:08:49Z</time>
      </trkpt>
      <trkpt lat="44.036" lon="7.07239">
        <ele>1737</ele>
        <time>2015-08-20T08:08:52Z</time>
      </trkpt>
      <trkpt lat="44.03602" lon="7.07238">
        <ele>1736</ele>
        <time>2015-08-20T08:08:53Z</time>
      </trkpt>
      <trkpt lat="44.03603" lon="7.07237">
        <ele>1736</ele>
        <time>2015-08-20T08:08:55Z</time>
      </trkpt>
      <trkpt lat="44.03604" lon="7.07236">
        <ele>1735</ele>
        <time>2015-08-20T08:09:00Z</time>
      </trkpt>
      <trkpt lat="44.03606" lon="7.07234">
        <ele>1735</ele>
        <time>2015-08-20T08:09:01Z</time>
      </trkpt>
      <trkpt lat="44.03606" lon="7.07233">
        <ele>1734</ele>
        <time>2015-08-20T08:09:03Z</time>
      </trkpt>
      <trkpt lat="44.0361" lon="7.0723">
        <ele>1733</ele>
        <time>2015-08-20T08:09:09Z</time>
      </trkpt>
      <trkpt lat="44.03612" lon="7.07228">
        <ele>1732</ele>
        <time>2015-08-20T08:09:14Z</time>
      </trkpt>
      <trkpt lat="44.03615" lon="7.07227">
        <ele>1731</ele>
        <time>2015-08-20T08:09:16Z</time>
      </trkpt>
      <trkpt lat="44.03617" lon="7.07226">
        <ele>1730</ele>
        <time>2015-08-20T08:09:21Z</time>
      </trkpt>
      <trkpt lat="44.03616" lon="7.07224">
        <ele>1729</ele>
        <time>2015-08-20T08:09:22Z</time>
      </trkpt>
      <trkpt lat="44.03617" lon="7.07222">
        <ele>1728</ele>
        <time>2015-08-20T08:09:28Z</time>
      </trkpt>
      <trkpt lat="44.03618" lon="7.0722">
        <ele>1728</ele>
        <time>2015-08-20T08:09:29Z</time>
      </trkpt>
      <trkpt lat="44.03619" lon="7.07219">
        <ele>1727</ele>
        <time>2015-08-20T08:09:31Z</time>
      </trkpt>
      <trkpt lat="44.0362" lon="7.07216">
        <ele>1726</ele>
        <time>2015-08-20T08:09:36Z</time>
      </trkpt>
      <trkpt lat="44.03621" lon="7.07214">
        <ele>1725</ele>
        <time>2015-08-20T08:09:38Z</time>
      </trkpt>
      <trkpt lat="44.03622" lon="7.07212">
        <ele>1725</ele>
        <time>2015-08-20T08:09:43Z</time>
      </trkpt>
      <trkpt lat="44.03624" lon="7.07212">
        <ele>1724</ele>
        <time>2015-08-20T08:09:44Z</time>
      </trkpt>
      <trkpt lat="44.03625" lon="7.0721">
        <ele>1724</ele>
        <time>2015-08-20T08:09:48Z</time>
      </trkpt>
      <trkpt lat="44.03626" lon="7.07209">
        <ele>1724</ele>
        <time>2015-08-20T08:09:49Z</time>
      </trkpt>
      <trkpt lat="44.03627" lon="7.07207">
        <ele>1723</ele>
        <time>2015-08-20T08:09:56Z</time>
      </trkpt>
      <trkpt lat="44.03628" lon="7.07206">
        <ele>1723</ele>
        <time>2015-08-20T08:09:57Z</time>
      </trkpt>
      <trkpt lat="44.03629" lon="7.07203">
        <ele>1722</ele>
        <time>2015-08-20T08:10:04Z</time>
      </trkpt>
      <trkpt lat="44.0363" lon="7.07202">
        <ele>1721</ele>
        <time>2015-08-20T08:10:06Z</time>
      </trkpt>
      <trkpt lat="44.03632" lon="7.072">
        <ele>1721</ele>
        <time>2015-08-20T08:10:11Z</time>
      </trkpt>
      <trkpt lat="44.03633" lon="7.07199">
        <ele>1720</ele>
        <time>2015-08-20T08:10:12Z</time>
      </trkpt>
      <trkpt lat="44.03635" lon="7.07198">
        <ele>1719</ele>
        <time>2015-08-20T08:10:14Z</time>
      </trkpt>
      <trkpt lat="44.03637" lon="7.07198">
        <ele>1718</ele>
        <time>2015-08-20T08:10:18Z</time>
      </trkpt>
      <trkpt lat="44.03638" lon="7.07197">
        <ele>1718</ele>
        <time>2015-08-20T08:10:19Z</time>
      </trkpt>
      <trkpt lat="44.0364" lon="7.07195">
        <ele>1717</ele>
        <time>2015-08-20T08:10:23Z</time>
      </trkpt>
      <trkpt lat="44.03641" lon="7.07194">
        <ele>1716</ele>
        <time>2015-08-20T08:10:25Z</time>
      </trkpt>
      <trkpt lat="44.03643" lon="7.07192">
        <ele>1715</ele>
        <time>2015-08-20T08:10:31Z</time>
      </trkpt>
      <trkpt lat="44.03643" lon="7.0719">
        <ele>1714</ele>
        <time>2015-08-20T08:10:34Z</time>
      </trkpt>
      <trkpt lat="44.03644" lon="7.07189">
        <ele>1713</ele>
        <time>2015-08-20T08:10:39Z</time>
      </trkpt>
      <trkpt lat="44.03645" lon="7.07188">
        <ele>1713</ele>
        <time>2015-08-20T08:10:40Z</time>
      </trkpt>
      <trkpt lat="44.03642" lon="7.07184">
        <ele>1712</ele>
        <time>2015-08-20T08:10:46Z</time>
      </trkpt>
      <trkpt lat="44.0364" lon="7.07182">
        <ele>1710</ele>
        <time>2015-08-20T08:10:48Z</time>
      </trkpt>
      <trkpt lat="44.03639" lon="7.07182">
        <ele>1710</ele>
        <time>2015-08-20T08:10:51Z</time>
      </trkpt>
      <trkpt lat="44.03639" lon="7.0718">
        <ele>1708</ele>
        <time>2015-08-20T08:10:54Z</time>
      </trkpt>
      <trkpt lat="44.03639" lon="7.07178">
        <ele>1707</ele>
        <time>2015-08-20T08:11:00Z</time>
      </trkpt>
      <trkpt lat="44.0364" lon="7.07177">
        <ele>1706</ele>
        <time>2015-08-20T08:11:02Z</time>
      </trkpt>
      <trkpt lat="44.03642" lon="7.07177">
        <ele>1706</ele>
        <time>2015-08-20T08:11:06Z</time>
      </trkpt>
      <trkpt lat="44.0364" lon="7.07175">
        <ele>1705</ele>
        <time>2015-08-20T08:11:09Z</time>
      </trkpt>
      <trkpt lat="44.0364" lon="7.07173">
        <ele>1704</ele>
        <time>2015-08-20T08:11:15Z</time>
      </trkpt>
      <trkpt lat="44.03638" lon="7.07171">
        <ele>1703</ele>
        <time>2015-08-20T08:11:16Z</time>
      </trkpt>
      <trkpt lat="44.03638" lon="7.07167">
        <ele>1700</ele>
        <time>2015-08-20T08:11:23Z</time>
      </trkpt>
      <trkpt lat="44.0364" lon="7.07164">
        <ele>1698</ele>
        <time>2015-08-20T08:11:30Z</time>
      </trkpt>
      <trkpt lat="44.03638" lon="7.07161">
        <ele>1697</ele>
        <time>2015-08-20T08:11:37Z</time>
      </trkpt>
      <trkpt lat="44.03638" lon="7.07159">
        <ele>1696</ele>
        <time>2015-08-20T08:11:38Z</time>
      </trkpt>
      <trkpt lat="44.0364" lon="7.07159">
        <ele>1695</ele>
        <time>2015-08-20T08:11:40Z</time>
      </trkpt>
      <trkpt lat="44.03641" lon="7.07159">
        <ele>1694</ele>
        <time>2015-08-20T08:11:44Z</time>
      </trkpt>
      <trkpt lat="44.03643" lon="7.07158">
        <ele>1694</ele>
        <time>2015-08-20T08:11:47Z</time>
      </trkpt>
      <trkpt lat="44.03645" lon="7.07158">
        <ele>1694</ele>
        <time>2015-08-20T08:11:51Z</time>
      </trkpt>
      <trkpt lat="44.03648" lon="7.07157">
        <ele>1694</ele>
        <time>2015-08-20T08:11:52Z</time>
      </trkpt>
      <trkpt lat="44.03651" lon="7.07156">
        <ele>1693</ele>
        <time>2015-08-20T08:11:56Z</time>
      </trkpt>
      <trkpt lat="44.03652" lon="7.07155">
        <ele>1691</ele>
        <time>2015-08-20T08:12:00Z</time>
      </trkpt>
      <trkpt lat="44.03653" lon="7.0715">
        <ele>1690</ele>
        <time>2015-08-20T08:12:06Z</time>
      </trkpt>
      <trkpt lat="44.03655" lon="7.07149">
        <ele>1689</ele>
        <time>2015-08-20T08:12:10Z</time>
      </trkpt>
      <trkpt lat="44.03656" lon="7.07148">
        <ele>1688</ele>
        <time>2015-08-20T08:12:11Z</time>
      </trkpt>
      <trkpt lat="44.03657" lon="7.07146">
        <ele>1688</ele>
        <time>2015-08-20T08:12:14Z</time>
      </trkpt>
      <trkpt lat="44.03659" lon="7.07144">
        <ele>1687</ele>
        <time>2015-08-20T08:12:19Z</time>
      </trkpt>
      <trkpt lat="44.03661" lon="7.07143">
        <ele>1686</ele>
        <time>2015-08-20T08:12:25Z</time>
      </trkpt>
      <trkpt lat="44.03662" lon="7.07143">
        <ele>1686</ele>
        <time>2015-08-20T08:12:26Z</time>
      </trkpt>
      <trkpt lat="44.03661" lon="7.07142">
        <ele>1685</ele>
        <time>2015-08-20T08:12:29Z</time>
      </trkpt>
      <trkpt lat="44.03659" lon="7.07139">
        <ele>1684</ele>
        <time>2015-08-20T08:12:34Z</time>
      </trkpt>
      <trkpt lat="44.0366" lon="7.07135">
        <ele>1683</ele>
        <time>2015-08-20T08:12:41Z</time>
      </trkpt>
      <trkpt lat="44.03661" lon="7.07135">
        <ele>1681</ele>
        <time>2015-08-20T08:12:43Z</time>
      </trkpt>
      <trkpt lat="44.0366" lon="7.07134">
        <ele>1680</ele>
        <time>2015-08-20T08:12:49Z</time>
      </trkpt>
      <trkpt lat="44.03658" lon="7.07133">
        <ele>1680</ele>
        <time>2015-08-20T08:12:51Z</time>
      </trkpt>
      <trkpt lat="44.03656" lon="7.0713">
        <ele>1680</ele>
        <time>2015-08-20T08:12:56Z</time>
      </trkpt>
      <trkpt lat="44.03653" lon="7.07125">
        <ele>1679</ele>
        <time>2015-08-20T08:13:03Z</time>
      </trkpt>
      <trkpt lat="44.03653" lon="7.07124">
        <ele>1678</ele>
        <time>2015-08-20T08:13:05Z</time>
      </trkpt>
      <trkpt lat="44.03651" lon="7.0712">
        <ele>1677</ele>
        <time>2015-08-20T08:13:10Z</time>
      </trkpt>
      <trkpt lat="44.03651" lon="7.07118">
        <ele>1675</ele>
        <time>2015-08-20T08:13:16Z</time>
      </trkpt>
      <trkpt lat="44.0365" lon="7.07116">
        <ele>1674</ele>
        <time>2015-08-20T08:13:18Z</time>
      </trkpt>
      <trkpt lat="44.03648" lon="7.07115">
        <ele>1673</ele>
        <time>2015-08-20T08:13:23Z</time>
      </trkpt>
      <trkpt lat="44.03646" lon="7.07114">
        <ele>1672</ele>
        <time>2015-08-20T08:13:24Z</time>
      </trkpt>
      <trkpt lat="44.03648" lon="7.07112">
        <ele>1671</ele>
        <time>2015-08-20T08:13:30Z</time>
      </trkpt>
      <trkpt lat="44.03649" lon="7.0711">
        <ele>1670</ele>
        <time>2015-08-20T08:13:32Z</time>
      </trkpt>
      <trkpt lat="44.03651" lon="7.07109">
        <ele>1669</ele>
        <time>2015-08-20T08:13:37Z</time>
      </trkpt>
      <trkpt lat="44.03653" lon="7.07108">
        <ele>1668</ele>
        <time>2015-08-20T08:13:38Z</time>
      </trkpt>
      <trkpt lat="44.03655" lon="7.07107">
        <ele>1668</ele>
        <time>2015-08-20T08:13:40Z</time>
      </trkpt>
      <trkpt lat="44.03655" lon="7.07105">
        <ele>1667</ele>
        <time>2015-08-20T08:13:43Z</time>
      </trkpt>
      <trkpt lat="44.03658" lon="7.07104">
        <ele>1667</ele>
        <time>2015-08-20T08:13:44Z</time>
      </trkpt>
      <trkpt lat="44.0366" lon="7.07102">
        <ele>1666</ele>
        <time>2015-08-20T08:13:50Z</time>
      </trkpt>
      <trkpt lat="44.03661" lon="7.07101">
        <ele>1666</ele>
        <time>2015-08-20T08:13:51Z</time>
      </trkpt>
      <trkpt lat="44.03663" lon="7.07099">
        <ele>1665</ele>
        <time>2015-08-20T08:13:54Z</time>
      </trkpt>
      <trkpt lat="44.03666" lon="7.07099">
        <ele>1665</ele>
        <time>2015-08-20T08:14:00Z</time>
      </trkpt>
      <trkpt lat="44.03668" lon="7.07097">
        <ele>1664</ele>
        <time>2015-08-20T08:14:01Z</time>
      </trkpt>
      <trkpt lat="44.03669" lon="7.07095">
        <ele>1663</ele>
        <time>2015-08-20T08:14:07Z</time>
      </trkpt>
      <trkpt lat="44.03669" lon="7.07092">
        <ele>1663</ele>
        <time>2015-08-20T08:14:08Z</time>
      </trkpt>
      <trkpt lat="44.03672" lon="7.0709">
        <ele>1661</ele>
        <time>2015-08-20T08:14:13Z</time>
      </trkpt>
      <trkpt lat="44.03672" lon="7.07088">
        <ele>1659</ele>
        <time>2015-08-20T08:14:21Z</time>
      </trkpt>
      <trkpt lat="44.03671" lon="7.07085">
        <ele>1658</ele>
        <time>2015-08-20T08:14:22Z</time>
      </trkpt>
      <trkpt lat="44.03671" lon="7.07084">
        <ele>1656</ele>
        <time>2015-08-20T08:14:24Z</time>
      </trkpt>
      <trkpt lat="44.03672" lon="7.07079">
        <ele>1655</ele>
        <time>2015-08-20T08:14:28Z</time>
      </trkpt>
      <trkpt lat="44.03671" lon="7.07077">
        <ele>1654</ele>
        <time>2015-08-20T08:14:31Z</time>
      </trkpt>
      <trkpt lat="44.03671" lon="7.07075">
        <ele>1654</ele>
        <time>2015-08-20T08:14:35Z</time>
      </trkpt>
      <trkpt lat="44.03671" lon="7.07074">
        <ele>1654</ele>
        <time>2015-08-20T08:14:38Z</time>
      </trkpt>
      <trkpt lat="44.03672" lon="7.07071">
        <ele>1653</ele>
        <time>2015-08-20T08:14:43Z</time>
      </trkpt>
      <trkpt lat="44.03673" lon="7.07068">
        <ele>1653</ele>
        <time>2015-08-20T08:14:44Z</time>
      </trkpt>
      <trkpt lat="44.03674" lon="7.07067">
        <ele>1653</ele>
        <time>2015-08-20T08:14:46Z</time>
      </trkpt>
      <trkpt lat="44.03676" lon="7.07066">
        <ele>1652</ele>
        <time>2015-08-20T08:14:51Z</time>
      </trkpt>
      <trkpt lat="44.03679" lon="7.07064">
        <ele>1652</ele>
        <time>2015-08-20T08:14:52Z</time>
      </trkpt>
      <trkpt lat="44.03681" lon="7.07064">
        <ele>1651</ele>
        <time>2015-08-20T08:14:58Z</time>
      </trkpt>
      <trkpt lat="44.03684" lon="7.07062">
        <ele>1650</ele>
        <time>2015-08-20T08:14:58Z</time>
      </trkpt>
      <trkpt lat="44.03685" lon="7.07062">
        <ele>1649</ele>
        <time>2015-08-20T08:15:02Z</time>
      </trkpt>
      <trkpt lat="44.03687" lon="7.0706">
        <ele>1647</ele>
        <time>2015-08-20T08:15:05Z</time>
      </trkpt>
      <trkpt lat="44.0369" lon="7.07055">
        <ele>1646</ele>
        <time>2015-08-20T08:15:12Z</time>
      </trkpt>
      <trkpt lat="44.03691" lon="7.07054">
        <ele>1645</ele>
        <time>2015-08-20T08:15:18Z</time>
      </trkpt>
      <trkpt lat="44.03694" lon="7.07054">
        <ele>1645</ele>
        <time>2015-08-20T08:15:19Z</time>
      </trkpt>
      <trkpt lat="44.03697" lon="7.07055">
        <ele>1644</ele>
        <time>2015-08-20T08:15:21Z</time>
      </trkpt>
      <trkpt lat="44.037" lon="7.07054">
        <ele>1643</ele>
        <time>2015-08-20T08:15:26Z</time>
      </trkpt>
      <trkpt lat="44.03701" lon="7.07054">
        <ele>1643</ele>
        <time>2015-08-20T08:15:27Z</time>
      </trkpt>
      <trkpt lat="44.03702" lon="7.07052">
        <ele>1640</ele>
        <time>2015-08-20T08:15:34Z</time>
      </trkpt>
      <trkpt lat="44.03703" lon="7.07047">
        <ele>1638</ele>
        <time>2015-08-20T08:15:41Z</time>
      </trkpt>
      <trkpt lat="44.03704" lon="7.07047">
        <ele>1637</ele>
        <time>2015-08-20T08:15:42Z</time>
      </trkpt>
      <trkpt lat="44.03705" lon="7.07045">
        <ele>1637</ele>
        <time>2015-08-20T08:15:48Z</time>
      </trkpt>
      <trkpt lat="44.03707" lon="7.07043">
        <ele>1636</ele>
        <time>2015-08-20T08:15:49Z</time>
      </trkpt>
      <trkpt lat="44.03709" lon="7.07043">
        <ele>1636</ele>
        <time>2015-08-20T08:15:51Z</time>
      </trkpt>
      <trkpt lat="44.03711" lon="7.07041">
        <ele>1635</ele>
        <time>2015-08-20T08:15:55Z</time>
      </trkpt>
      <trkpt lat="44.03712" lon="7.0704">
        <ele>1634</ele>
        <time>2015-08-20T08:15:59Z</time>
      </trkpt>
      <trkpt lat="44.03713" lon="7.07038">
        <ele>1634</ele>
        <time>2015-08-20T08:16:03Z</time>
      </trkpt>
      <trkpt lat="44.03713" lon="7.07034">
        <ele>1634</ele>
        <time>2015-08-20T08:16:04Z</time>
      </trkpt>
      <trkpt lat="44.03714" lon="7.07033">
        <ele>1634</ele>
        <time>2015-08-20T08:16:06Z</time>
      </trkpt>
      <trkpt lat="44.03715" lon="7.07031">
        <ele>1634</ele>
        <time>2015-08-20T08:16:11Z</time>
      </trkpt>
      <trkpt lat="44.03717" lon="7.07029">
        <ele>1634</ele>
        <time>2015-08-20T08:16:17Z</time>
      </trkpt>
      <trkpt lat="44.03717" lon="7.07027">
        <ele>1634</ele>
        <time>2015-08-20T08:16:19Z</time>
      </trkpt>
      <trkpt lat="44.03717" lon="7.07025">
        <ele>1634</ele>
        <time>2015-08-20T08:16:25Z</time>
      </trkpt>
      <trkpt lat="44.03716" lon="7.07023">
        <ele>1634</ele>
        <time>2015-08-20T08:16:26Z</time>
      </trkpt>
      <trkpt lat="44.03716" lon="7.07022">
        <ele>1634</ele>
        <time>2015-08-20T08:16:27Z</time>
      </trkpt>
      <trkpt lat="44.03716" lon="7.07018">
        <ele>1634</ele>
        <time>2015-08-20T08:16:32Z</time>
      </trkpt>
      <trkpt lat="44.03716" lon="7.07016">
        <ele>1634</ele>
        <time>2015-08-20T08:16:34Z</time>
      </trkpt>
      <trkpt lat="44.03712" lon="7.07014">
        <ele>1634</ele>
        <time>2015-08-20T08:16:38Z</time>
      </trkpt>
      <trkpt lat="44.03712" lon="7.07012">
        <ele>1632</ele>
        <time>2015-08-20T08:16:40Z</time>
      </trkpt>
      <trkpt lat="44.03712" lon="7.07009">
        <ele>1630</ele>
        <time>2015-08-20T08:16:45Z</time>
      </trkpt>
      <trkpt lat="44.03714" lon="7.07006">
        <ele>1629</ele>
        <time>2015-08-20T08:16:46Z</time>
      </trkpt>
      <trkpt lat="44.03716" lon="7.07003">
        <ele>1627</ele>
        <time>2015-08-20T08:16:52Z</time>
      </trkpt>
      <trkpt lat="44.03719" lon="7.07001">
        <ele>1626</ele>
        <time>2015-08-20T08:16:53Z</time>
      </trkpt>
      <trkpt lat="44.0372" lon="7.06999">
        <ele>1625</ele>
        <time>2015-08-20T08:16:57Z</time>
      </trkpt>
      <trkpt lat="44.0372" lon="7.06997">
        <ele>1624</ele>
        <time>2015-08-20T08:16:57Z</time>
      </trkpt>
      <trkpt lat="44.0372" lon="7.06995">
        <ele>1623</ele>
        <time>2015-08-20T08:16:59Z</time>
      </trkpt>
      <trkpt lat="44.0372" lon="7.06994">
        <ele>1622</ele>
        <time>2015-08-20T08:17:00Z</time>
      </trkpt>
      <trkpt lat="44.0372" lon="7.06991">
        <ele>1621</ele>
        <time>2015-08-20T08:17:03Z</time>
      </trkpt>
      <trkpt lat="44.03719" lon="7.06989">
        <ele>1618</ele>
        <time>2015-08-20T08:17:07Z</time>
      </trkpt>
      <trkpt lat="44.0372" lon="7.06987">
        <ele>1617</ele>
        <time>2015-08-20T08:17:11Z</time>
      </trkpt>
      <trkpt lat="44.03721" lon="7.06983">
        <ele>1616</ele>
        <time>2015-08-20T08:17:12Z</time>
      </trkpt>
      <trkpt lat="44.03722" lon="7.06976">
        <ele>1615</ele>
        <time>2015-08-20T08:17:18Z</time>
      </trkpt>
      <trkpt lat="44.03722" lon="7.06975">
        <ele>1614</ele>
        <time>2015-08-20T08:17:19Z</time>
      </trkpt>
      <trkpt lat="44.03722" lon="7.06973">
        <ele>1614</ele>
        <time>2015-08-20T08:17:20Z</time>
      </trkpt>
      <trkpt lat="44.03725" lon="7.06971">
        <ele>1613</ele>
        <time>2015-08-20T08:17:25Z</time>
      </trkpt>
      <trkpt lat="44.03727" lon="7.06968">
        <ele>1613</ele>
        <time>2015-08-20T08:17:26Z</time>
      </trkpt>
      <trkpt lat="44.03727" lon="7.06965">
        <ele>1612</ele>
        <time>2015-08-20T08:17:27Z</time>
      </trkpt>
      <trkpt lat="44.03727" lon="7.06962">
        <ele>1611</ele>
        <time>2015-08-20T08:17:32Z</time>
      </trkpt>
      <trkpt lat="44.03728" lon="7.06957">
        <ele>1610</ele>
        <time>2015-08-20T08:17:33Z</time>
      </trkpt>
      <trkpt lat="44.03728" lon="7.06955">
        <ele>1609</ele>
        <time>2015-08-20T08:17:34Z</time>
      </trkpt>
      <trkpt lat="44.03728" lon="7.06953">
        <ele>1608</ele>
        <time>2015-08-20T08:17:35Z</time>
      </trkpt>
      <trkpt lat="44.0373" lon="7.06947">
        <ele>1607</ele>
        <time>2015-08-20T08:17:38Z</time>
      </trkpt>
      <trkpt lat="44.0373" lon="7.06945">
        <ele>1606</ele>
        <time>2015-08-20T08:17:39Z</time>
      </trkpt>
      <trkpt lat="44.03732" lon="7.06942">
        <ele>1605</ele>
        <time>2015-08-20T08:17:44Z</time>
      </trkpt>
      <trkpt lat="44.03733" lon="7.06937">
        <ele>1604</ele>
        <time>2015-08-20T08:17:44Z</time>
      </trkpt>
      <trkpt lat="44.03735" lon="7.06934">
        <ele>1602</ele>
        <time>2015-08-20T08:17:47Z</time>
      </trkpt>
      <trkpt lat="44.03735" lon="7.06929">
        <ele>1601</ele>
        <time>2015-08-20T08:17:51Z</time>
      </trkpt>
      <trkpt lat="44.03735" lon="7.06924">
        <ele>1600</ele>
        <time>2015-08-20T08:17:52Z</time>
      </trkpt>
      <trkpt lat="44.03736" lon="7.0692">
        <ele>1597</ele>
        <time>2015-08-20T08:17:59Z</time>
      </trkpt>
      <trkpt lat="44.03738" lon="7.06912">
        <ele>1596</ele>
        <time>2015-08-20T08:18:00Z</time>
      </trkpt>
      <trkpt lat="44.03738" lon="7.06909">
        <ele>1595</ele>
        <time>2015-08-20T08:18:01Z</time>
      </trkpt>
      <trkpt lat="44.03739" lon="7.06906">
        <ele>1594</ele>
        <time>2015-08-20T08:18:02Z</time>
      </trkpt>
      <trkpt lat="44.03741" lon="7.06902">
        <ele>1593</ele>
        <time>2015-08-20T08:18:06Z</time>
      </trkpt>
      <trkpt lat="44.03744" lon="7.06895">
        <ele>1592</ele>
        <time>2015-08-20T08:18:06Z</time>
      </trkpt>
      <trkpt lat="44.03745" lon="7.06892">
        <ele>1591</ele>
        <time>2015-08-20T08:18:08Z</time>
      </trkpt>
      <trkpt lat="44.03751" lon="7.0688">
        <ele>1590</ele>
        <time>2015-08-20T08:18:11Z</time>
      </trkpt>
      <trkpt lat="44.03754" lon="7.06876">
        <ele>1589</ele>
        <time>2015-08-20T08:18:13Z</time>
      </trkpt>
      <trkpt lat="44.03757" lon="7.06873">
        <ele>1588</ele>
        <time>2015-08-20T08:18:14Z</time>
      </trkpt>
      <trkpt lat="44.03761" lon="7.06868">
        <ele>1587</ele>
        <time>2015-08-20T08:18:18Z</time>
      </trkpt>
      <trkpt lat="44.03766" lon="7.06866">
        <ele>1586</ele>
        <time>2015-08-20T08:18:18Z</time>
      </trkpt>
      <trkpt lat="44.03767" lon="7.06865">
        <ele>1585</ele>
        <time>2015-08-20T08:18:19Z</time>
      </trkpt>
      <trkpt lat="44.03769" lon="7.06862">
        <ele>1584</ele>
        <time>2015-08-20T08:18:23Z</time>
      </trkpt>
      <trkpt lat="44.03772" lon="7.06859">
        <ele>1583</ele>
        <time>2015-08-20T08:18:23Z</time>
      </trkpt>
      <trkpt lat="44.03776" lon="7.06854">
        <ele>1581</ele>
        <time>2015-08-20T08:18:29Z</time>
      </trkpt>
      <trkpt lat="44.0378" lon="7.06848">
        <ele>1580</ele>
        <time>2015-08-20T08:18:29Z</time>
      </trkpt>
      <trkpt lat="44.03781" lon="7.06846">
        <ele>1579</ele>
        <time>2015-08-20T08:18:30Z</time>
      </trkpt>
      <trkpt lat="44.03783" lon="7.06844">
        <ele>1578</ele>
        <time>2015-08-20T08:18:31Z</time>
      </trkpt>
      <trkpt lat="44.03785" lon="7.06842">
        <ele>1577</ele>
        <time>2015-08-20T08:18:35Z</time>
      </trkpt>
      <trkpt lat="44.03788" lon="7.0684">
        <ele>1576</ele>
        <time>2015-08-20T08:18:35Z</time>
      </trkpt>
      <trkpt lat="44.03789" lon="7.06839">
        <ele>1575</ele>
        <time>2015-08-20T08:18:36Z</time>
      </trkpt>
      <trkpt lat="44.03791" lon="7.06837">
        <ele>1574</ele>
        <time>2015-08-20T08:18:41Z</time>
      </trkpt>
      <trkpt lat="44.03795" lon="7.06833">
        <ele>1573</ele>
        <time>2015-08-20T08:18:41Z</time>
      </trkpt>
      <trkpt lat="44.03796" lon="7.06832">
        <ele>1572</ele>
        <time>2015-08-20T08:18:42Z</time>
      </trkpt>
      <trkpt lat="44.03799" lon="7.06829">
        <ele>1571</ele>
        <time>2015-08-20T08:18:47Z</time>
      </trkpt>
      <trkpt lat="44.03803" lon="7.06826">
        <ele>1570</ele>
        <time>2015-08-20T08:18:47Z</time>
      </trkpt>
      <trkpt lat="44.03805" lon="7.06825">
        <ele>1569</ele>
        <time>2015-08-20T08:18:48Z</time>
      </trkpt>
      <trkpt lat="44.03807" lon="7.06823">
        <ele>1568</ele>
        <time>2015-08-20T08:18:52Z</time>
      </trkpt>
      <trkpt lat="44.03809" lon="7.06821">
        <ele>1567</ele>
        <time>2015-08-20T08:18:53Z</time>
      </trkpt>
      <trkpt lat="44.03812" lon="7.06819">
        <ele>1566</ele>
        <time>2015-08-20T08:18:54Z</time>
      </trkpt>
      <trkpt lat="44.03813" lon="7.06818">
        <ele>1566</ele>
        <time>2015-08-20T08:18:56Z</time>
      </trkpt>
      <trkpt lat="44.03818" lon="7.06814">
        <ele>1565</ele>
        <time>2015-08-20T08:19:00Z</time>
      </trkpt>
      <trkpt lat="44.03819" lon="7.06813">
        <ele>1565</ele>
        <time>2015-08-20T08:19:00Z</time>
      </trkpt>
      <trkpt lat="44.03821" lon="7.06812">
        <ele>1565</ele>
        <time>2015-08-20T08:19:01Z</time>
      </trkpt>
      <trkpt lat="44.03823" lon="7.0681">
        <ele>1564</ele>
        <time>2015-08-20T08:19:05Z</time>
      </trkpt>
      <trkpt lat="44.03826" lon="7.06808">
        <ele>1564</ele>
        <time>2015-08-20T08:19:06Z</time>
      </trkpt>
      <trkpt lat="44.03827" lon="7.06807">
        <ele>1564</ele>
        <time>2015-08-20T08:19:06Z</time>
      </trkpt>
      <trkpt lat="44.0383" lon="7.06805">
        <ele>1564</ele>
        <time>2015-08-20T08:19:11Z</time>
      </trkpt>
      <trkpt lat="44.03833" lon="7.06802">
        <ele>1564</ele>
        <time>2015-08-20T08:19:11Z</time>
      </trkpt>
      <trkpt lat="44.03834" lon="7.06801">
        <ele>1564</ele>
        <time>2015-08-20T08:19:12Z</time>
      </trkpt>
      <trkpt lat="44.03837" lon="7.068">
        <ele>1564</ele>
        <time>2015-08-20T08:19:17Z</time>
      </trkpt>
      <trkpt lat="44.03841" lon="7.06797">
        <ele>1564</ele>
        <time>2015-08-20T08:19:17Z</time>
      </trkpt>
      <trkpt lat="44.03842" lon="7.06797">
        <ele>1564</ele>
        <time>2015-08-20T08:19:18Z</time>
      </trkpt>
      <trkpt lat="44.03844" lon="7.06795">
        <ele>1564</ele>
        <time>2015-08-20T08:19:22Z</time>
      </trkpt>
      <trkpt lat="44.03846" lon="7.06794">
        <ele>1564</ele>
        <time>2015-08-20T08:19:22Z</time>
      </trkpt>
      <trkpt lat="44.03848" lon="7.06792">
        <ele>1564</ele>
        <time>2015-08-20T08:19:25Z</time>
      </trkpt>
      <trkpt lat="44.03849" lon="7.0679">
        <ele>1564</ele>
        <time>2015-08-20T08:19:27Z</time>
      </trkpt>
      <trkpt lat="44.03848" lon="7.06789">
        <ele>1564</ele>
        <time>2015-08-20T08:19:37Z</time>
      </trkpt>
      <trkpt lat="44.03848" lon="7.0679">
        <ele>1564</ele>
        <time>2015-08-20T08:19:39Z</time>
      </trkpt>
      <trkpt lat="44.03848" lon="7.06792">
        <ele>1564</ele>
        <time>2015-08-20T08:19:59Z</time>
      </trkpt>
      <trkpt lat="44.03848" lon="7.06796">
        <ele>1564</ele>
        <time>2015-08-20T08:20:21Z</time>
      </trkpt>
      <trkpt lat="44.03849" lon="7.06796">
        <ele>1564</ele>
        <time>2015-08-20T08:20:31Z</time>
      </trkpt>
      <trkpt lat="44.03849" lon="7.06794">
        <ele>1564</ele>
        <time>2015-08-20T08:20:36Z</time>
      </trkpt>
      <trkpt lat="44.0385" lon="7.06795">
        <ele>1564</ele>
        <time>2015-08-20T08:21:00Z</time>
      </trkpt>
      <trkpt lat="44.03849" lon="7.06794">
        <ele>1563</ele>
        <time>2015-08-20T08:21:27Z</time>
      </trkpt>
      <trkpt lat="44.0385" lon="7.06793">
        <ele>1563</ele>
        <time>2015-08-20T08:22:04Z</time>
      </trkpt>
      <trkpt lat="44.03854" lon="7.06791">
        <ele>1563</ele>
        <time>2015-08-20T08:22:08Z</time>
      </trkpt>
      <trkpt lat="44.03855" lon="7.0679">
        <ele>1563</ele>
        <time>2015-08-20T08:22:10Z</time>
      </trkpt>
      <trkpt lat="44.03858" lon="7.06789">
        <ele>1563</ele>
        <time>2015-08-20T08:22:15Z</time>
      </trkpt>
      <trkpt lat="44.03862" lon="7.06789">
        <ele>1563</ele>
        <time>2015-08-20T08:22:15Z</time>
      </trkpt>
      <trkpt lat="44.03863" lon="7.06789">
        <ele>1563</ele>
        <time>2015-08-20T08:22:17Z</time>
      </trkpt>
      <trkpt lat="44.03866" lon="7.06789">
        <ele>1563</ele>
        <time>2015-08-20T08:22:22Z</time>
      </trkpt>
      <trkpt lat="44.0387" lon="7.06787">
        <ele>1563</ele>
        <time>2015-08-20T08:22:22Z</time>
      </trkpt>
      <trkpt lat="44.03872" lon="7.06787">
        <ele>1563</ele>
        <time>2015-08-20T08:22:24Z</time>
      </trkpt>
      <trkpt lat="44.03876" lon="7.06785">
        <ele>1563</ele>
        <time>2015-08-20T08:22:28Z</time>
      </trkpt>
      <trkpt lat="44.03878" lon="7.06785">
        <ele>1563</ele>
        <time>2015-08-20T08:22:30Z</time>
      </trkpt>
      <trkpt lat="44.03883" lon="7.06784">
        <ele>1563</ele>
        <time>2015-08-20T08:22:35Z</time>
      </trkpt>
      <trkpt lat="44.03885" lon="7.06784">
        <ele>1563</ele>
        <time>2015-08-20T08:22:36Z</time>
      </trkpt>
      <trkpt lat="44.03888" lon="7.06785">
        <ele>1564</ele>
        <time>2015-08-20T08:22:40Z</time>
      </trkpt>
      <trkpt lat="44.03891" lon="7.06785">
        <ele>1564</ele>
        <time>2015-08-20T08:22:40Z</time>
      </trkpt>
      <trkpt lat="44.03895" lon="7.06785">
        <ele>1564</ele>
        <time>2015-08-20T08:22:46Z</time>
      </trkpt>
      <trkpt lat="44.03899" lon="7.06786">
        <ele>1564</ele>
        <time>2015-08-20T08:22:46Z</time>
      </trkpt>
      <trkpt lat="44.03902" lon="7.06785">
        <ele>1565</ele>
        <time>2015-08-20T08:22:53Z</time>
      </trkpt>
      <trkpt lat="44.03905" lon="7.06782">
        <ele>1566</ele>
        <time>2015-08-20T08:22:54Z</time>
      </trkpt>
      <trkpt lat="44.03906" lon="7.0678">
        <ele>1567</ele>
        <time>2015-08-20T08:23:00Z</time>
      </trkpt>
      <trkpt lat="44.03907" lon="7.06778">
        <ele>1568</ele>
        <time>2015-08-20T08:23:01Z</time>
      </trkpt>
      <trkpt lat="44.03913" lon="7.06776">
        <ele>1569</ele>
        <time>2015-08-20T08:23:06Z</time>
      </trkpt>
      <trkpt lat="44.03914" lon="7.06776">
        <ele>1569</ele>
        <time>2015-08-20T08:23:08Z</time>
      </trkpt>
      <trkpt lat="44.03915" lon="7.06776">
        <ele>1569</ele>
        <time>2015-08-20T08:23:09Z</time>
      </trkpt>
      <trkpt lat="44.03917" lon="7.06777">
        <ele>1570</ele>
        <time>2015-08-20T08:23:13Z</time>
      </trkpt>
      <trkpt lat="44.0392" lon="7.06776">
        <ele>1570</ele>
        <time>2015-08-20T08:23:13Z</time>
      </trkpt>
      <trkpt lat="44.03925" lon="7.06776">
        <ele>1570</ele>
        <time>2015-08-20T08:23:19Z</time>
      </trkpt>
      <trkpt lat="44.03926" lon="7.06776">
        <ele>1570</ele>
        <time>2015-08-20T08:23:20Z</time>
      </trkpt>
      <trkpt lat="44.03929" lon="7.06774">
        <ele>1571</ele>
        <time>2015-08-20T08:23:25Z</time>
      </trkpt>
      <trkpt lat="44.03933" lon="7.06774">
        <ele>1572</ele>
        <time>2015-08-20T08:23:25Z</time>
      </trkpt>
      <trkpt lat="44.03935" lon="7.06773">
        <ele>1574</ele>
        <time>2015-08-20T08:23:31Z</time>
      </trkpt>
      <trkpt lat="44.03938" lon="7.06774">
        <ele>1575</ele>
        <time>2015-08-20T08:23:31Z</time>
      </trkpt>
      <trkpt lat="44.03939" lon="7.06774">
        <ele>1576</ele>
        <time>2015-08-20T08:23:32Z</time>
      </trkpt>
      <trkpt lat="44.03941" lon="7.06775">
        <ele>1576</ele>
        <time>2015-08-20T08:23:38Z</time>
      </trkpt>
      <trkpt lat="44.03945" lon="7.06774">
        <ele>1576</ele>
        <time>2015-08-20T08:23:38Z</time>
      </trkpt>
      <trkpt lat="44.03948" lon="7.06774">
        <ele>1576</ele>
        <time>2015-08-20T08:23:44Z</time>
      </trkpt>
      <trkpt lat="44.03951" lon="7.06774">
        <ele>1576</ele>
        <time>2015-08-20T08:23:44Z</time>
      </trkpt>
      <trkpt lat="44.03953" lon="7.06772">
        <ele>1576</ele>
        <time>2015-08-20T08:23:51Z</time>
      </trkpt>
      <trkpt lat="44.03956" lon="7.0677">
        <ele>1576</ele>
        <time>2015-08-20T08:23:51Z</time>
      </trkpt>
      <trkpt lat="44.03958" lon="7.0677">
        <ele>1576</ele>
        <time>2015-08-20T08:23:53Z</time>
      </trkpt>
      <trkpt lat="44.03959" lon="7.06769">
        <ele>1577</ele>
        <time>2015-08-20T08:23:57Z</time>
      </trkpt>
      <trkpt lat="44.0396" lon="7.06768">
        <ele>1578</ele>
        <time>2015-08-20T08:23:57Z</time>
      </trkpt>
      <trkpt lat="44.03967" lon="7.06766">
        <ele>1580</ele>
        <time>2015-08-20T08:24:03Z</time>
      </trkpt>
      <trkpt lat="44.03968" lon="7.06764">
        <ele>1581</ele>
        <time>2015-08-20T08:24:06Z</time>
      </trkpt>
      <trkpt lat="44.0397" lon="7.06762">
        <ele>1581</ele>
        <time>2015-08-20T08:24:11Z</time>
      </trkpt>
      <trkpt lat="44.03972" lon="7.06758">
        <ele>1581</ele>
        <time>2015-08-20T08:24:12Z</time>
      </trkpt>
      <trkpt lat="44.03974" lon="7.06757">
        <ele>1581</ele>
        <time>2015-08-20T08:24:16Z</time>
      </trkpt>
      <trkpt lat="44.03978" lon="7.06757">
        <ele>1581</ele>
        <time>2015-08-20T08:24:16Z</time>
      </trkpt>
      <trkpt lat="44.03979" lon="7.06756">
        <ele>1582</ele>
        <time>2015-08-20T08:24:19Z</time>
      </trkpt>
      <trkpt lat="44.03985" lon="7.06754">
        <ele>1582</ele>
        <time>2015-08-20T08:24:24Z</time>
      </trkpt>
      <trkpt lat="44.03986" lon="7.06753">
        <ele>1582</ele>
        <time>2015-08-20T08:24:26Z</time>
      </trkpt>
      <trkpt lat="44.03989" lon="7.06753">
        <ele>1583</ele>
        <time>2015-08-20T08:24:30Z</time>
      </trkpt>
      <trkpt lat="44.03992" lon="7.06752">
        <ele>1583</ele>
        <time>2015-08-20T08:24:30Z</time>
      </trkpt>
      <trkpt lat="44.03994" lon="7.06753">
        <ele>1583</ele>
        <time>2015-08-20T08:24:32Z</time>
      </trkpt>
      <trkpt lat="44.03995" lon="7.06753">
        <ele>1583</ele>
        <time>2015-08-20T08:24:33Z</time>
      </trkpt>
      <trkpt lat="44.03997" lon="7.06752">
        <ele>1583</ele>
        <time>2015-08-20T08:24:37Z</time>
      </trkpt>
      <trkpt lat="44.03999" lon="7.06751">
        <ele>1583</ele>
        <time>2015-08-20T08:24:38Z</time>
      </trkpt>
      <trkpt lat="44.04001" lon="7.0675">
        <ele>1583</ele>
        <time>2015-08-20T08:24:39Z</time>
      </trkpt>
      <trkpt lat="44.04004" lon="7.06747">
        <ele>1584</ele>
        <time>2015-08-20T08:24:45Z</time>
      </trkpt>
      <trkpt lat="44.04006" lon="7.06747">
        <ele>1585</ele>
        <time>2015-08-20T08:24:47Z</time>
      </trkpt>
      <trkpt lat="44.04008" lon="7.06747">
        <ele>1586</ele>
        <time>2015-08-20T08:24:52Z</time>
      </trkpt>
      <trkpt lat="44.0401" lon="7.06746">
        <ele>1586</ele>
        <time>2015-08-20T08:24:52Z</time>
      </trkpt>
      <trkpt lat="44.04012" lon="7.06745">
        <ele>1586</ele>
        <time>2015-08-20T08:24:54Z</time>
      </trkpt>
      <trkpt lat="44.04013" lon="7.06744">
        <ele>1586</ele>
        <time>2015-08-20T08:24:55Z</time>
      </trkpt>
      <trkpt lat="44.04017" lon="7.06745">
        <ele>1586</ele>
        <time>2015-08-20T08:25:00Z</time>
      </trkpt>
      <trkpt lat="44.04021" lon="7.06746">
        <ele>1586</ele>
        <time>2015-08-20T08:25:01Z</time>
      </trkpt>
      <trkpt lat="44.04024" lon="7.06746">
        <ele>1586</ele>
        <time>2015-08-20T08:25:06Z</time>
      </trkpt>
      <trkpt lat="44.04026" lon="7.06744">
        <ele>1586</ele>
        <time>2015-08-20T08:25:09Z</time>
      </trkpt>
      <trkpt lat="44.04027" lon="7.06744">
        <ele>1586</ele>
        <time>2015-08-20T08:25:14Z</time>
      </trkpt>
      <trkpt lat="44.0403" lon="7.06742">
        <ele>1586</ele>
        <time>2015-08-20T08:25:15Z</time>
      </trkpt>
      <trkpt lat="44.04033" lon="7.06742">
        <ele>1586</ele>
        <time>2015-08-20T08:25:16Z</time>
      </trkpt>
      <trkpt lat="44.04037" lon="7.06739">
        <ele>1588</ele>
        <time>2015-08-20T08:25:22Z</time>
      </trkpt>
      <trkpt lat="44.0404" lon="7.06739">
        <ele>1589</ele>
        <time>2015-08-20T08:25:24Z</time>
      </trkpt>
      <trkpt lat="44.04044" lon="7.06738">
        <ele>1589</ele>
        <time>2015-08-20T08:25:30Z</time>
      </trkpt>
      <trkpt lat="44.04045" lon="7.06737">
        <ele>1590</ele>
        <time>2015-08-20T08:25:31Z</time>
      </trkpt>
      <trkpt lat="44.04049" lon="7.06738">
        <ele>1590</ele>
        <time>2015-08-20T08:25:35Z</time>
      </trkpt>
      <trkpt lat="44.04052" lon="7.06737">
        <ele>1590</ele>
        <time>2015-08-20T08:25:37Z</time>
      </trkpt>
      <trkpt lat="44.04054" lon="7.06736">
        <ele>1590</ele>
        <time>2015-08-20T08:25:38Z</time>
      </trkpt>
      <trkpt lat="44.0406" lon="7.06738">
        <ele>1590</ele>
        <time>2015-08-20T08:25:42Z</time>
      </trkpt>
      <trkpt lat="44.04062" lon="7.06738">
        <ele>1590</ele>
        <time>2015-08-20T08:25:44Z</time>
      </trkpt>
      <trkpt lat="44.04063" lon="7.06738">
        <ele>1590</ele>
        <time>2015-08-20T08:25:44Z</time>
      </trkpt>
      <trkpt lat="44.04067" lon="7.06738">
        <ele>1590</ele>
        <time>2015-08-20T08:25:48Z</time>
      </trkpt>
      <trkpt lat="44.04069" lon="7.06737">
        <ele>1590</ele>
        <time>2015-08-20T08:25:49Z</time>
      </trkpt>
      <trkpt lat="44.0407" lon="7.06736">
        <ele>1590</ele>
        <time>2015-08-20T08:25:51Z</time>
      </trkpt>
      <trkpt lat="44.04073" lon="7.06733">
        <ele>1591</ele>
        <time>2015-08-20T08:25:56Z</time>
      </trkpt>
      <trkpt lat="44.04077" lon="7.06732">
        <ele>1592</ele>
        <time>2015-08-20T08:25:57Z</time>
      </trkpt>
      <trkpt lat="44.04078" lon="7.06732">
        <ele>1592</ele>
        <time>2015-08-20T08:25:58Z</time>
      </trkpt>
      <trkpt lat="44.0408" lon="7.06731">
        <ele>1593</ele>
        <time>2015-08-20T08:25:59Z</time>
      </trkpt>
      <trkpt lat="44.04082" lon="7.06731">
        <ele>1593</ele>
        <time>2015-08-20T08:26:04Z</time>
      </trkpt>
      <trkpt lat="44.04086" lon="7.06728">
        <ele>1593</ele>
        <time>2015-08-20T08:26:05Z</time>
      </trkpt>
      <trkpt lat="44.04088" lon="7.06726">
        <ele>1594</ele>
        <time>2015-08-20T08:26:07Z</time>
      </trkpt>
      <trkpt lat="44.0409" lon="7.06726">
        <ele>1595</ele>
        <time>2015-08-20T08:26:11Z</time>
      </trkpt>
      <trkpt lat="44.04093" lon="7.06726">
        <ele>1595</ele>
        <time>2015-08-20T08:26:12Z</time>
      </trkpt>
      <trkpt lat="44.04094" lon="7.06726">
        <ele>1595</ele>
        <time>2015-08-20T08:26:13Z</time>
      </trkpt>
      <trkpt lat="44.04096" lon="7.06726">
        <ele>1596</ele>
        <time>2015-08-20T08:26:17Z</time>
      </trkpt>
      <trkpt lat="44.041" lon="7.06727">
        <ele>1596</ele>
        <time>2015-08-20T08:26:17Z</time>
      </trkpt>
      <trkpt lat="44.04101" lon="7.06726">
        <ele>1596</ele>
        <time>2015-08-20T08:26:18Z</time>
      </trkpt>
      <trkpt lat="44.04104" lon="7.06725">
        <ele>1596</ele>
        <time>2015-08-20T08:26:23Z</time>
      </trkpt>
      <trkpt lat="44.04107" lon="7.06724">
        <ele>1596</ele>
        <time>2015-08-20T08:26:23Z</time>
      </trkpt>
      <trkpt lat="44.04108" lon="7.06723">
        <ele>1596</ele>
        <time>2015-08-20T08:26:24Z</time>
      </trkpt>
      <trkpt lat="44.04113" lon="7.06722">
        <ele>1596</ele>
        <time>2015-08-20T08:26:29Z</time>
      </trkpt>
      <trkpt lat="44.04114" lon="7.06721">
        <ele>1597</ele>
        <time>2015-08-20T08:26:29Z</time>
      </trkpt>
      <trkpt lat="44.04117" lon="7.06719">
        <ele>1597</ele>
        <time>2015-08-20T08:26:35Z</time>
      </trkpt>
      <trkpt lat="44.04121" lon="7.06718">
        <ele>1597</ele>
        <time>2015-08-20T08:26:35Z</time>
      </trkpt>
      <trkpt lat="44.04122" lon="7.0672">
        <ele>1598</ele>
        <time>2015-08-20T08:26:42Z</time>
      </trkpt>
      <trkpt lat="44.04122" lon="7.06721">
        <ele>1599</ele>
        <time>2015-08-20T08:26:52Z</time>
      </trkpt>
      <trkpt lat="44.04126" lon="7.06718">
        <ele>1600</ele>
        <time>2015-08-20T08:27:06Z</time>
      </trkpt>
      <trkpt lat="44.0413" lon="7.06717">
        <ele>1600</ele>
        <time>2015-08-20T08:27:12Z</time>
      </trkpt>
      <trkpt lat="44.04133" lon="7.06715">
        <ele>1600</ele>
        <time>2015-08-20T08:27:12Z</time>
      </trkpt>
      <trkpt lat="44.04134" lon="7.06714">
        <ele>1600</ele>
        <time>2015-08-20T08:27:13Z</time>
      </trkpt>
      <trkpt lat="44.04137" lon="7.06713">
        <ele>1600</ele>
        <time>2015-08-20T08:27:18Z</time>
      </trkpt>
      <trkpt lat="44.04139" lon="7.06711">
        <ele>1600</ele>
        <time>2015-08-20T08:27:18Z</time>
      </trkpt>
      <trkpt lat="44.04142" lon="7.06709">
        <ele>1600</ele>
        <time>2015-08-20T08:27:21Z</time>
      </trkpt>
      <trkpt lat="44.04143" lon="7.06707">
        <ele>1600</ele>
        <time>2015-08-20T08:27:26Z</time>
      </trkpt>
      <trkpt lat="44.04147" lon="7.06705">
        <ele>1600</ele>
        <time>2015-08-20T08:27:26Z</time>
      </trkpt>
      <trkpt lat="44.04149" lon="7.06704">
        <ele>1601</ele>
        <time>2015-08-20T08:27:31Z</time>
      </trkpt>
      <trkpt lat="44.04152" lon="7.06703">
        <ele>1602</ele>
        <time>2015-08-20T08:27:31Z</time>
      </trkpt>
      <trkpt lat="44.04153" lon="7.06702">
        <ele>1602</ele>
        <time>2015-08-20T08:27:32Z</time>
      </trkpt>
      <trkpt lat="44.04155" lon="7.06701">
        <ele>1603</ele>
        <time>2015-08-20T08:27:37Z</time>
      </trkpt>
      <trkpt lat="44.04158" lon="7.067">
        <ele>1604</ele>
        <time>2015-08-20T08:27:37Z</time>
      </trkpt>
      <trkpt lat="44.0416" lon="7.06698">
        <ele>1605</ele>
        <time>2015-08-20T08:27:43Z</time>
      </trkpt>
      <trkpt lat="44.04163" lon="7.06696">
        <ele>1605</ele>
        <time>2015-08-20T08:27:43Z</time>
      </trkpt>
      <trkpt lat="44.04166" lon="7.06696">
        <ele>1606</ele>
        <time>2015-08-20T08:27:49Z</time>
      </trkpt>
      <trkpt lat="44.04168" lon="7.06695">
        <ele>1607</ele>
        <time>2015-08-20T08:27:50Z</time>
      </trkpt>
      <trkpt lat="44.04171" lon="7.06695">
        <ele>1608</ele>
        <time>2015-08-20T08:27:55Z</time>
      </trkpt>
      <trkpt lat="44.04174" lon="7.06695">
        <ele>1609</ele>
        <time>2015-08-20T08:27:55Z</time>
      </trkpt>
      <trkpt lat="44.04176" lon="7.06695">
        <ele>1609</ele>
        <time>2015-08-20T08:27:56Z</time>
      </trkpt>
      <trkpt lat="44.04177" lon="7.06696">
        <ele>1609</ele>
        <time>2015-08-20T08:27:57Z</time>
      </trkpt>
      <trkpt lat="44.04179" lon="7.06696">
        <ele>1610</ele>
        <time>2015-08-20T08:28:02Z</time>
      </trkpt>
      <trkpt lat="44.04182" lon="7.06697">
        <ele>1610</ele>
        <time>2015-08-20T08:28:02Z</time>
      </trkpt>
      <trkpt lat="44.04184" lon="7.06697">
        <ele>1610</ele>
        <time>2015-08-20T08:28:03Z</time>
      </trkpt>
      <trkpt lat="44.04186" lon="7.06696">
        <ele>1610</ele>
        <time>2015-08-20T08:28:08Z</time>
      </trkpt>
      <trkpt lat="44.04189" lon="7.06697">
        <ele>1611</ele>
        <time>2015-08-20T08:28:08Z</time>
      </trkpt>
      <trkpt lat="44.04192" lon="7.06695">
        <ele>1611</ele>
        <time>2015-08-20T08:28:14Z</time>
      </trkpt>
      <trkpt lat="44.04195" lon="7.06695">
        <ele>1612</ele>
        <time>2015-08-20T08:28:14Z</time>
      </trkpt>
      <trkpt lat="44.04196" lon="7.06695">
        <ele>1612</ele>
        <time>2015-08-20T08:28:15Z</time>
      </trkpt>
      <trkpt lat="44.04198" lon="7.06696">
        <ele>1612</ele>
        <time>2015-08-20T08:28:20Z</time>
      </trkpt>
      <trkpt lat="44.04202" lon="7.06696">
        <ele>1613</ele>
        <time>2015-08-20T08:28:20Z</time>
      </trkpt>
      <trkpt lat="44.04203" lon="7.06696">
        <ele>1613</ele>
        <time>2015-08-20T08:28:21Z</time>
      </trkpt>
      <trkpt lat="44.04206" lon="7.06696">
        <ele>1613</ele>
        <time>2015-08-20T08:28:26Z</time>
      </trkpt>
      <trkpt lat="44.04209" lon="7.06696">
        <ele>1613</ele>
        <time>2015-08-20T08:28:26Z</time>
      </trkpt>
      <trkpt lat="44.04212" lon="7.06696">
        <ele>1613</ele>
        <time>2015-08-20T08:28:32Z</time>
      </trkpt>
      <trkpt lat="44.04216" lon="7.06696">
        <ele>1614</ele>
        <time>2015-08-20T08:28:32Z</time>
      </trkpt>
      <trkpt lat="44.04219" lon="7.06697">
        <ele>1614</ele>
        <time>2015-08-20T08:28:38Z</time>
      </trkpt>
      <trkpt lat="44.04222" lon="7.06699">
        <ele>1615</ele>
        <time>2015-08-20T08:28:38Z</time>
      </trkpt>
      <trkpt lat="44.04226" lon="7.06699">
        <ele>1615</ele>
        <time>2015-08-20T08:28:44Z</time>
      </trkpt>
      <trkpt lat="44.04229" lon="7.067">
        <ele>1616</ele>
        <time>2015-08-20T08:28:44Z</time>
      </trkpt>
      <trkpt lat="44.04231" lon="7.067">
        <ele>1616</ele>
        <time>2015-08-20T08:28:50Z</time>
      </trkpt>
      <trkpt lat="44.04235" lon="7.067">
        <ele>1617</ele>
        <time>2015-08-20T08:28:50Z</time>
      </trkpt>
      <trkpt lat="44.04238" lon="7.067">
        <ele>1617</ele>
        <time>2015-08-20T08:28:56Z</time>
      </trkpt>
      <trkpt lat="44.04241" lon="7.067">
        <ele>1618</ele>
        <time>2015-08-20T08:28:56Z</time>
      </trkpt>
      <trkpt lat="44.04244" lon="7.06699">
        <ele>1619</ele>
        <time>2015-08-20T08:29:02Z</time>
      </trkpt>
      <trkpt lat="44.04248" lon="7.06699">
        <ele>1620</ele>
        <time>2015-08-20T08:29:02Z</time>
      </trkpt>
      <trkpt lat="44.04249" lon="7.06699">
        <ele>1620</ele>
        <time>2015-08-20T08:29:03Z</time>
      </trkpt>
      <trkpt lat="44.04251" lon="7.06699">
        <ele>1620</ele>
        <time>2015-08-20T08:29:08Z</time>
      </trkpt>
      <trkpt lat="44.04255" lon="7.06699">
        <ele>1621</ele>
        <time>2015-08-20T08:29:08Z</time>
      </trkpt>
      <trkpt lat="44.04256" lon="7.067">
        <ele>1621</ele>
        <time>2015-08-20T08:29:09Z</time>
      </trkpt>
      <trkpt lat="44.04258" lon="7.067">
        <ele>1621</ele>
        <time>2015-08-20T08:29:14Z</time>
      </trkpt>
      <trkpt lat="44.04262" lon="7.06702">
        <ele>1621</ele>
        <time>2015-08-20T08:29:14Z</time>
      </trkpt>
      <trkpt lat="44.04263" lon="7.06702">
        <ele>1622</ele>
        <time>2015-08-20T08:29:15Z</time>
      </trkpt>
      <trkpt lat="44.04266" lon="7.06703">
        <ele>1622</ele>
        <time>2015-08-20T08:29:20Z</time>
      </trkpt>
      <trkpt lat="44.04269" lon="7.06703">
        <ele>1622</ele>
        <time>2015-08-20T08:29:20Z</time>
      </trkpt>
      <trkpt lat="44.0427" lon="7.06703">
        <ele>1623</ele>
        <time>2015-08-20T08:29:21Z</time>
      </trkpt>
      <trkpt lat="44.04272" lon="7.06704">
        <ele>1623</ele>
        <time>2015-08-20T08:29:26Z</time>
      </trkpt>
      <trkpt lat="44.04275" lon="7.06705">
        <ele>1623</ele>
        <time>2015-08-20T08:29:26Z</time>
      </trkpt>
      <trkpt lat="44.04276" lon="7.06705">
        <ele>1624</ele>
        <time>2015-08-20T08:29:27Z</time>
      </trkpt>
      <trkpt lat="44.04278" lon="7.06706">
        <ele>1624</ele>
        <time>2015-08-20T08:29:32Z</time>
      </trkpt>
      <trkpt lat="44.04282" lon="7.06707">
        <ele>1624</ele>
        <time>2015-08-20T08:29:32Z</time>
      </trkpt>
      <trkpt lat="44.04283" lon="7.06707">
        <ele>1624</ele>
        <time>2015-08-20T08:29:33Z</time>
      </trkpt>
      <trkpt lat="44.04285" lon="7.06708">
        <ele>1624</ele>
        <time>2015-08-20T08:29:38Z</time>
      </trkpt>
      <trkpt lat="44.04289" lon="7.06709">
        <ele>1625</ele>
        <time>2015-08-20T08:29:38Z</time>
      </trkpt>
      <trkpt lat="44.0429" lon="7.06709">
        <ele>1625</ele>
        <time>2015-08-20T08:29:39Z</time>
      </trkpt>
      <trkpt lat="44.04293" lon="7.0671">
        <ele>1625</ele>
        <time>2015-08-20T08:29:44Z</time>
      </trkpt>
      <trkpt lat="44.04296" lon="7.06711">
        <ele>1626</ele>
        <time>2015-08-20T08:29:44Z</time>
      </trkpt>
      <trkpt lat="44.04298" lon="7.06711">
        <ele>1626</ele>
        <time>2015-08-20T08:29:45Z</time>
      </trkpt>
      <trkpt lat="44.043" lon="7.06712">
        <ele>1626</ele>
        <time>2015-08-20T08:29:50Z</time>
      </trkpt>
      <trkpt lat="44.04303" lon="7.06713">
        <ele>1626</ele>
        <time>2015-08-20T08:29:50Z</time>
      </trkpt>
      <trkpt lat="44.04305" lon="7.06713">
        <ele>1627</ele>
        <time>2015-08-20T08:29:51Z</time>
      </trkpt>
      <trkpt lat="44.04307" lon="7.06714">
        <ele>1627</ele>
        <time>2015-08-20T08:29:56Z</time>
      </trkpt>
      <trkpt lat="44.04311" lon="7.06714">
        <ele>1627</ele>
        <time>2015-08-20T08:29:56Z</time>
      </trkpt>
      <trkpt lat="44.04314" lon="7.06715">
        <ele>1627</ele>
        <time>2015-08-20T08:30:02Z</time>
      </trkpt>
      <trkpt lat="44.04317" lon="7.06716">
        <ele>1627</ele>
        <time>2015-08-20T08:30:02Z</time>
      </trkpt>
      <trkpt lat="44.04318" lon="7.06716">
        <ele>1628</ele>
        <time>2015-08-20T08:30:03Z</time>
      </trkpt>
      <trkpt lat="44.04321" lon="7.06717">
        <ele>1628</ele>
        <time>2015-08-20T08:30:08Z</time>
      </trkpt>
      <trkpt lat="44.04324" lon="7.0672">
        <ele>1628</ele>
        <time>2015-08-20T08:30:08Z</time>
      </trkpt>
      <trkpt lat="44.04325" lon="7.0672">
        <ele>1628</ele>
        <time>2015-08-20T08:30:09Z</time>
      </trkpt>
      <trkpt lat="44.04327" lon="7.06722">
        <ele>1629</ele>
        <time>2015-08-20T08:30:14Z</time>
      </trkpt>
      <trkpt lat="44.0433" lon="7.06724">
        <ele>1629</ele>
        <time>2015-08-20T08:30:14Z</time>
      </trkpt>
      <trkpt lat="44.04333" lon="7.06727">
        <ele>1630</ele>
        <time>2015-08-20T08:30:20Z</time>
      </trkpt>
      <trkpt lat="44.04336" lon="7.0673">
        <ele>1630</ele>
        <time>2015-08-20T08:30:20Z</time>
      </trkpt>
      <trkpt lat="44.04339" lon="7.06732">
        <ele>1631</ele>
        <time>2015-08-20T08:30:26Z</time>
      </trkpt>
      <trkpt lat="44.04341" lon="7.06735">
        <ele>1631</ele>
        <time>2015-08-20T08:30:26Z</time>
      </trkpt>
      <trkpt lat="44.04342" lon="7.06736">
        <ele>1632</ele>
        <time>2015-08-20T08:30:27Z</time>
      </trkpt>
      <trkpt lat="44.04344" lon="7.06737">
        <ele>1632</ele>
        <time>2015-08-20T08:30:33Z</time>
      </trkpt>
      <trkpt lat="44.04348" lon="7.06738">
        <ele>1632</ele>
        <time>2015-08-20T08:30:33Z</time>
      </trkpt>
      <trkpt lat="44.04351" lon="7.06738">
        <ele>1632</ele>
        <time>2015-08-20T08:30:39Z</time>
      </trkpt>
      <trkpt lat="44.04354" lon="7.06739">
        <ele>1632</ele>
        <time>2015-08-20T08:30:39Z</time>
      </trkpt>
      <trkpt lat="44.04356" lon="7.0674">
        <ele>1633</ele>
        <time>2015-08-20T08:30:42Z</time>
      </trkpt>
      <trkpt lat="44.04358" lon="7.06741">
        <ele>1633</ele>
        <time>2015-08-20T08:30:47Z</time>
      </trkpt>
      <trkpt lat="44.04362" lon="7.06743">
        <ele>1634</ele>
        <time>2015-08-20T08:30:47Z</time>
      </trkpt>
      <trkpt lat="44.04364" lon="7.06744">
        <ele>1634</ele>
        <time>2015-08-20T08:30:52Z</time>
      </trkpt>
      <trkpt lat="44.04367" lon="7.06745">
        <ele>1634</ele>
        <time>2015-08-20T08:30:52Z</time>
      </trkpt>
      <trkpt lat="44.04369" lon="7.06746">
        <ele>1635</ele>
        <time>2015-08-20T08:30:58Z</time>
      </trkpt>
      <trkpt lat="44.04372" lon="7.06747">
        <ele>1635</ele>
        <time>2015-08-20T08:30:58Z</time>
      </trkpt>
      <trkpt lat="44.04373" lon="7.06747">
        <ele>1635</ele>
        <time>2015-08-20T08:31:00Z</time>
      </trkpt>
      <trkpt lat="44.04376" lon="7.06748">
        <ele>1635</ele>
        <time>2015-08-20T08:31:05Z</time>
      </trkpt>
      <trkpt lat="44.0438" lon="7.06749">
        <ele>1636</ele>
        <time>2015-08-20T08:31:05Z</time>
      </trkpt>
      <trkpt lat="44.04382" lon="7.0675">
        <ele>1636</ele>
        <time>2015-08-20T08:31:11Z</time>
      </trkpt>
      <trkpt lat="44.04386" lon="7.06752">
        <ele>1637</ele>
        <time>2015-08-20T08:31:11Z</time>
      </trkpt>
      <trkpt lat="44.04389" lon="7.06754">
        <ele>1637</ele>
        <time>2015-08-20T08:31:17Z</time>
      </trkpt>
      <trkpt lat="44.04392" lon="7.06756">
        <ele>1638</ele>
        <time>2015-08-20T08:31:17Z</time>
      </trkpt>
      <trkpt lat="44.04393" lon="7.06757">
        <ele>1638</ele>
        <time>2015-08-20T08:31:18Z</time>
      </trkpt>
      <trkpt lat="44.04396" lon="7.06759">
        <ele>1639</ele>
        <time>2015-08-20T08:31:24Z</time>
      </trkpt>
      <trkpt lat="44.04399" lon="7.06762">
        <ele>1639</ele>
        <time>2015-08-20T08:31:25Z</time>
      </trkpt>
      <trkpt lat="44.04402" lon="7.06764">
        <ele>1639</ele>
        <time>2015-08-20T08:31:30Z</time>
      </trkpt>
      <trkpt lat="44.04405" lon="7.06765">
        <ele>1639</ele>
        <time>2015-08-20T08:31:30Z</time>
      </trkpt>
      <trkpt lat="44.04406" lon="7.06766">
        <ele>1639</ele>
        <time>2015-08-20T08:31:32Z</time>
      </trkpt>
      <trkpt lat="44.04407" lon="7.06766">
        <ele>1639</ele>
        <time>2015-08-20T08:31:33Z</time>
      </trkpt>
      <trkpt lat="44.04409" lon="7.06766">
        <ele>1639</ele>
        <time>2015-08-20T08:31:37Z</time>
      </trkpt>
      <trkpt lat="44.04414" lon="7.06766">
        <ele>1639</ele>
        <time>2015-08-20T08:31:37Z</time>
      </trkpt>
      <trkpt lat="44.04417" lon="7.06767">
        <ele>1640</ele>
        <time>2015-08-20T08:31:43Z</time>
      </trkpt>
      <trkpt lat="44.04421" lon="7.06768">
        <ele>1641</ele>
        <time>2015-08-20T08:31:43Z</time>
      </trkpt>
      <trkpt lat="44.04423" lon="7.06768">
        <ele>1642</ele>
        <time>2015-08-20T08:31:46Z</time>
      </trkpt>
      <trkpt lat="44.04424" lon="7.06769">
        <ele>1642</ele>
        <time>2015-08-20T08:31:47Z</time>
      </trkpt>
      <trkpt lat="44.04426" lon="7.0677">
        <ele>1643</ele>
        <time>2015-08-20T08:31:51Z</time>
      </trkpt>
      <trkpt lat="44.04429" lon="7.06771">
        <ele>1643</ele>
        <time>2015-08-20T08:31:51Z</time>
      </trkpt>
      <trkpt lat="44.04432" lon="7.06771">
        <ele>1643</ele>
        <time>2015-08-20T08:31:57Z</time>
      </trkpt>
      <trkpt lat="44.04435" lon="7.06772">
        <ele>1644</ele>
        <time>2015-08-20T08:31:57Z</time>
      </trkpt>
      <trkpt lat="44.04437" lon="7.06771">
        <ele>1644</ele>
        <time>2015-08-20T08:32:00Z</time>
      </trkpt>
      <trkpt lat="44.04438" lon="7.06771">
        <ele>1644</ele>
        <time>2015-08-20T08:32:04Z</time>
      </trkpt>
      <trkpt lat="44.04441" lon="7.06771">
        <ele>1645</ele>
        <time>2015-08-20T08:32:04Z</time>
      </trkpt>
      <trkpt lat="44.04443" lon="7.06772">
        <ele>1645</ele>
        <time>2015-08-20T08:32:07Z</time>
      </trkpt>
      <trkpt lat="44.04445" lon="7.06771">
        <ele>1645</ele>
        <time>2015-08-20T08:32:11Z</time>
      </trkpt>
      <trkpt lat="44.04448" lon="7.06771">
        <ele>1646</ele>
        <time>2015-08-20T08:32:12Z</time>
      </trkpt>
      <trkpt lat="44.04451" lon="7.0677">
        <ele>1646</ele>
        <time>2015-08-20T08:32:17Z</time>
      </trkpt>
      <trkpt lat="44.04454" lon="7.06771">
        <ele>1646</ele>
        <time>2015-08-20T08:32:17Z</time>
      </trkpt>
      <trkpt lat="44.04456" lon="7.0677">
        <ele>1647</ele>
        <time>2015-08-20T08:32:18Z</time>
      </trkpt>
      <trkpt lat="44.04458" lon="7.0677">
        <ele>1647</ele>
        <time>2015-08-20T08:32:23Z</time>
      </trkpt>
      <trkpt lat="44.04461" lon="7.0677">
        <ele>1647</ele>
        <time>2015-08-20T08:32:23Z</time>
      </trkpt>
      <trkpt lat="44.04463" lon="7.0677">
        <ele>1648</ele>
        <time>2015-08-20T08:32:26Z</time>
      </trkpt>
      <trkpt lat="44.04465" lon="7.06769">
        <ele>1648</ele>
        <time>2015-08-20T08:32:31Z</time>
      </trkpt>
      <trkpt lat="44.04469" lon="7.06769">
        <ele>1649</ele>
        <time>2015-08-20T08:32:31Z</time>
      </trkpt>
      <trkpt lat="44.0447" lon="7.06769">
        <ele>1649</ele>
        <time>2015-08-20T08:32:32Z</time>
      </trkpt>
      <trkpt lat="44.04472" lon="7.06769">
        <ele>1649</ele>
        <time>2015-08-20T08:32:37Z</time>
      </trkpt>
      <trkpt lat="44.04476" lon="7.06768">
        <ele>1649</ele>
        <time>2015-08-20T08:32:37Z</time>
      </trkpt>
      <trkpt lat="44.04478" lon="7.06767">
        <ele>1650</ele>
        <time>2015-08-20T08:32:40Z</time>
      </trkpt>
      <trkpt lat="44.0448" lon="7.06767">
        <ele>1650</ele>
        <time>2015-08-20T08:32:44Z</time>
      </trkpt>
      <trkpt lat="44.04483" lon="7.06767">
        <ele>1650</ele>
        <time>2015-08-20T08:32:44Z</time>
      </trkpt>
      <trkpt lat="44.04484" lon="7.06767">
        <ele>1651</ele>
        <time>2015-08-20T08:32:46Z</time>
      </trkpt>
      <trkpt lat="44.04491" lon="7.06767">
        <ele>1651</ele>
        <time>2015-08-20T08:32:50Z</time>
      </trkpt>
      <trkpt lat="44.04492" lon="7.06767">
        <ele>1651</ele>
        <time>2015-08-20T08:32:51Z</time>
      </trkpt>
      <trkpt lat="44.04498" lon="7.06767">
        <ele>1651</ele>
        <time>2015-08-20T08:32:56Z</time>
      </trkpt>
      <trkpt lat="44.04499" lon="7.06767">
        <ele>1651</ele>
        <time>2015-08-20T08:32:57Z</time>
      </trkpt>
      <trkpt lat="44.04505" lon="7.06766">
        <ele>1651</ele>
        <time>2015-08-20T08:33:02Z</time>
      </trkpt>
      <trkpt lat="44.04507" lon="7.06765">
        <ele>1651</ele>
        <time>2015-08-20T08:33:03Z</time>
      </trkpt>
      <trkpt lat="44.04508" lon="7.06765">
        <ele>1652</ele>
        <time>2015-08-20T08:33:04Z</time>
      </trkpt>
      <trkpt lat="44.0451" lon="7.06765">
        <ele>1652</ele>
        <time>2015-08-20T08:33:09Z</time>
      </trkpt>
      <trkpt lat="44.04514" lon="7.06765">
        <ele>1652</ele>
        <time>2015-08-20T08:33:09Z</time>
      </trkpt>
      <trkpt lat="44.04515" lon="7.06764">
        <ele>1652</ele>
        <time>2015-08-20T08:33:10Z</time>
      </trkpt>
      <trkpt lat="44.04518" lon="7.06764">
        <ele>1652</ele>
        <time>2015-08-20T08:33:15Z</time>
      </trkpt>
      <trkpt lat="44.04521" lon="7.06763">
        <ele>1652</ele>
        <time>2015-08-20T08:33:15Z</time>
      </trkpt>
      <trkpt lat="44.04522" lon="7.06763">
        <ele>1653</ele>
        <time>2015-08-20T08:33:16Z</time>
      </trkpt>
      <trkpt lat="44.04525" lon="7.06762">
        <ele>1653</ele>
        <time>2015-08-20T08:33:21Z</time>
      </trkpt>
      <trkpt lat="44.04528" lon="7.06761">
        <ele>1653</ele>
        <time>2015-08-20T08:33:21Z</time>
      </trkpt>
      <trkpt lat="44.0453" lon="7.06761">
        <ele>1653</ele>
        <time>2015-08-20T08:33:22Z</time>
      </trkpt>
      <trkpt lat="44.04533" lon="7.06761">
        <ele>1653</ele>
        <time>2015-08-20T08:33:27Z</time>
      </trkpt>
      <trkpt lat="44.04537" lon="7.06761">
        <ele>1653</ele>
        <time>2015-08-20T08:33:27Z</time>
      </trkpt>
      <trkpt lat="44.04538" lon="7.06761">
        <ele>1653</ele>
        <time>2015-08-20T08:33:28Z</time>
      </trkpt>
      <trkpt lat="44.0454" lon="7.0676">
        <ele>1653</ele>
        <time>2015-08-20T08:33:33Z</time>
      </trkpt>
      <trkpt lat="44.04543" lon="7.0676">
        <ele>1653</ele>
        <time>2015-08-20T08:33:33Z</time>
      </trkpt>
      <trkpt lat="44.04545" lon="7.06758">
        <ele>1653</ele>
        <time>2015-08-20T08:33:35Z</time>
      </trkpt>
      <trkpt lat="44.04547" lon="7.06757">
        <ele>1653</ele>
        <time>2015-08-20T08:33:36Z</time>
      </trkpt>
      <trkpt lat="44.04548" lon="7.06757">
        <ele>1653</ele>
        <time>2015-08-20T08:33:37Z</time>
      </trkpt>
      <trkpt lat="44.04551" lon="7.06755">
        <ele>1653</ele>
        <time>2015-08-20T08:33:43Z</time>
      </trkpt>
      <trkpt lat="44.04556" lon="7.06754">
        <ele>1653</ele>
        <time>2015-08-20T08:33:43Z</time>
      </trkpt>
      <trkpt lat="44.04557" lon="7.06753">
        <ele>1653</ele>
        <time>2015-08-20T08:33:48Z</time>
      </trkpt>
      <trkpt lat="44.04561" lon="7.06752">
        <ele>1653</ele>
        <time>2015-08-20T08:33:48Z</time>
      </trkpt>
      <trkpt lat="44.04562" lon="7.06752">
        <ele>1653</ele>
        <time>2015-08-20T08:33:49Z</time>
      </trkpt>
      <trkpt lat="44.04565" lon="7.06751">
        <ele>1654</ele>
        <time>2015-08-20T08:33:54Z</time>
      </trkpt>
      <trkpt lat="44.04569" lon="7.06751">
        <ele>1654</ele>
        <time>2015-08-20T08:33:54Z</time>
      </trkpt>
      <trkpt lat="44.04571" lon="7.06751">
        <ele>1654</ele>
        <time>2015-08-20T08:33:55Z</time>
      </trkpt>
      <trkpt lat="44.04573" lon="7.06751">
        <ele>1654</ele>
        <time>2015-08-20T08:34:00Z</time>
      </trkpt>
      <trkpt lat="44.04577" lon="7.06751">
        <ele>1655</ele>
        <time>2015-08-20T08:34:00Z</time>
      </trkpt>
      <trkpt lat="44.04579" lon="7.06752">
        <ele>1655</ele>
        <time>2015-08-20T08:34:01Z</time>
      </trkpt>
      <trkpt lat="44.04585" lon="7.06752">
        <ele>1656</ele>
        <time>2015-08-20T08:34:06Z</time>
      </trkpt>
      <trkpt lat="44.04592" lon="7.06752">
        <ele>1656</ele>
        <time>2015-08-20T08:34:12Z</time>
      </trkpt>
      <trkpt lat="44.04594" lon="7.06752">
        <ele>1657</ele>
        <time>2015-08-20T08:34:13Z</time>
      </trkpt>
      <trkpt lat="44.04597" lon="7.06751">
        <ele>1657</ele>
        <time>2015-08-20T08:34:19Z</time>
      </trkpt>
      <trkpt lat="44.046" lon="7.06751">
        <ele>1658</ele>
        <time>2015-08-20T08:34:19Z</time>
      </trkpt>
      <trkpt lat="44.04602" lon="7.06751">
        <ele>1658</ele>
        <time>2015-08-20T08:34:20Z</time>
      </trkpt>
      <trkpt lat="44.04604" lon="7.06751">
        <ele>1658</ele>
        <time>2015-08-20T08:34:25Z</time>
      </trkpt>
      <trkpt lat="44.04608" lon="7.06751">
        <ele>1659</ele>
        <time>2015-08-20T08:34:25Z</time>
      </trkpt>
      <trkpt lat="44.04611" lon="7.06751">
        <ele>1659</ele>
        <time>2015-08-20T08:34:31Z</time>
      </trkpt>
      <trkpt lat="44.04614" lon="7.06751">
        <ele>1659</ele>
        <time>2015-08-20T08:34:31Z</time>
      </trkpt>
      <trkpt lat="44.04615" lon="7.0675">
        <ele>1660</ele>
        <time>2015-08-20T08:34:32Z</time>
      </trkpt>
      <trkpt lat="44.04618" lon="7.06749">
        <ele>1660</ele>
        <time>2015-08-20T08:34:37Z</time>
      </trkpt>
      <trkpt lat="44.04622" lon="7.06749">
        <ele>1660</ele>
        <time>2015-08-20T08:34:37Z</time>
      </trkpt>
      <trkpt lat="44.04623" lon="7.0675">
        <ele>1661</ele>
        <time>2015-08-20T08:34:40Z</time>
      </trkpt>
      <trkpt lat="44.04625" lon="7.06751">
        <ele>1661</ele>
        <time>2015-08-20T08:34:40Z</time>
      </trkpt>
      <trkpt lat="44.04627" lon="7.06751">
        <ele>1661</ele>
        <time>2015-08-20T08:34:45Z</time>
      </trkpt>
      <trkpt lat="44.0463" lon="7.0675">
        <ele>1661</ele>
        <time>2015-08-20T08:34:46Z</time>
      </trkpt>
      <trkpt lat="44.04631" lon="7.06749">
        <ele>1661</ele>
        <time>2015-08-20T08:34:48Z</time>
      </trkpt>
      <trkpt lat="44.04632" lon="7.06748">
        <ele>1661</ele>
        <time>2015-08-20T08:34:53Z</time>
      </trkpt>
      <trkpt lat="44.04637" lon="7.06746">
        <ele>1661</ele>
        <time>2015-08-20T08:34:53Z</time>
      </trkpt>
      <trkpt lat="44.04639" lon="7.06746">
        <ele>1661</ele>
        <time>2015-08-20T08:34:55Z</time>
      </trkpt>
      <trkpt lat="44.04641" lon="7.06745">
        <ele>1661</ele>
        <time>2015-08-20T08:34:59Z</time>
      </trkpt>
      <trkpt lat="44.04644" lon="7.06744">
        <ele>1661</ele>
        <time>2015-08-20T08:34:59Z</time>
      </trkpt>
      <trkpt lat="44.04646" lon="7.06743">
        <ele>1661</ele>
        <time>2015-08-20T08:35:02Z</time>
      </trkpt>
      <trkpt lat="44.04651" lon="7.06741">
        <ele>1662</ele>
        <time>2015-08-20T08:35:06Z</time>
      </trkpt>
      <trkpt lat="44.04659" lon="7.0674">
        <ele>1663</ele>
        <time>2015-08-20T08:35:12Z</time>
      </trkpt>
      <trkpt lat="44.0466" lon="7.06739">
        <ele>1664</ele>
        <time>2015-08-20T08:35:13Z</time>
      </trkpt>
      <trkpt lat="44.04661" lon="7.06739">
        <ele>1665</ele>
        <time>2015-08-20T08:35:15Z</time>
      </trkpt>
      <trkpt lat="44.04663" lon="7.06738">
        <ele>1666</ele>
        <time>2015-08-20T08:35:19Z</time>
      </trkpt>
      <trkpt lat="44.04666" lon="7.06738">
        <ele>1667</ele>
        <time>2015-08-20T08:35:19Z</time>
      </trkpt>
      <trkpt lat="44.04673" lon="7.06737">
        <ele>1668</ele>
        <time>2015-08-20T08:35:25Z</time>
      </trkpt>
      <trkpt lat="44.04674" lon="7.06738">
        <ele>1669</ele>
        <time>2015-08-20T08:35:26Z</time>
      </trkpt>
      <trkpt lat="44.04676" lon="7.06739">
        <ele>1669</ele>
        <time>2015-08-20T08:35:32Z</time>
      </trkpt>
      <trkpt lat="44.04681" lon="7.0674">
        <ele>1669</ele>
        <time>2015-08-20T08:35:33Z</time>
      </trkpt>
      <trkpt lat="44.04684" lon="7.06741">
        <ele>1669</ele>
        <time>2015-08-20T08:35:38Z</time>
      </trkpt>
      <trkpt lat="44.04684" lon="7.06742">
        <ele>1670</ele>
        <time>2015-08-20T08:35:40Z</time>
      </trkpt>
      <trkpt lat="44.04683" lon="7.06741">
        <ele>1670</ele>
        <time>2015-08-20T08:35:46Z</time>
      </trkpt>
      <trkpt lat="44.04686" lon="7.06741">
        <ele>1670</ele>
        <time>2015-08-20T08:35:54Z</time>
      </trkpt>
      <trkpt lat="44.04688" lon="7.0674">
        <ele>1670</ele>
        <time>2015-08-20T08:35:55Z</time>
      </trkpt>
      <trkpt lat="44.04693" lon="7.06737">
        <ele>1670</ele>
        <time>2015-08-20T08:36:00Z</time>
      </trkpt>
      <trkpt lat="44.04696" lon="7.06735">
        <ele>1670</ele>
        <time>2015-08-20T08:36:06Z</time>
      </trkpt>
      <trkpt lat="44.04699" lon="7.06734">
        <ele>1670</ele>
        <time>2015-08-20T08:36:06Z</time>
      </trkpt>
      <trkpt lat="44.04706" lon="7.06731">
        <ele>1670</ele>
        <time>2015-08-20T08:36:12Z</time>
      </trkpt>
      <trkpt lat="44.04707" lon="7.06731">
        <ele>1670</ele>
        <time>2015-08-20T08:36:13Z</time>
      </trkpt>
      <trkpt lat="44.0471" lon="7.06731">
        <ele>1670</ele>
        <time>2015-08-20T08:36:19Z</time>
      </trkpt>
      <trkpt lat="44.04714" lon="7.06729">
        <ele>1670</ele>
        <time>2015-08-20T08:36:19Z</time>
      </trkpt>
      <trkpt lat="44.04716" lon="7.06728">
        <ele>1671</ele>
        <time>2015-08-20T08:36:25Z</time>
      </trkpt>
      <trkpt lat="44.04719" lon="7.06726">
        <ele>1671</ele>
        <time>2015-08-20T08:36:25Z</time>
      </trkpt>
      <trkpt lat="44.04722" lon="7.06721">
        <ele>1672</ele>
        <time>2015-08-20T08:36:31Z</time>
      </trkpt>
      <trkpt lat="44.04724" lon="7.06719">
        <ele>1672</ele>
        <time>2015-08-20T08:36:34Z</time>
      </trkpt>
      <trkpt lat="44.04725" lon="7.06717">
        <ele>1672</ele>
        <time>2015-08-20T08:36:38Z</time>
      </trkpt>
      <trkpt lat="44.04726" lon="7.06714">
        <ele>1672</ele>
        <time>2015-08-20T08:36:38Z</time>
      </trkpt>
      <trkpt lat="44.04728" lon="7.06712">
        <ele>1673</ele>
        <time>2015-08-20T08:36:40Z</time>
      </trkpt>
      <trkpt lat="44.0473" lon="7.0671">
        <ele>1673</ele>
        <time>2015-08-20T08:36:45Z</time>
      </trkpt>
      <trkpt lat="44.04734" lon="7.06709">
        <ele>1673</ele>
        <time>2015-08-20T08:36:46Z</time>
      </trkpt>
      <trkpt lat="44.04735" lon="7.0671">
        <ele>1673</ele>
        <time>2015-08-20T08:36:48Z</time>
      </trkpt>
      <trkpt lat="44.04737" lon="7.06712">
        <ele>1673</ele>
        <time>2015-08-20T08:36:53Z</time>
      </trkpt>
      <trkpt lat="44.04739" lon="7.06716">
        <ele>1673</ele>
        <time>2015-08-20T08:36:54Z</time>
      </trkpt>
      <trkpt lat="44.0474" lon="7.06718">
        <ele>1674</ele>
        <time>2015-08-20T08:36:56Z</time>
      </trkpt>
      <trkpt lat="44.04742" lon="7.06721">
        <ele>1674</ele>
        <time>2015-08-20T08:37:01Z</time>
      </trkpt>
      <trkpt lat="44.04745" lon="7.06726">
        <ele>1674</ele>
        <time>2015-08-20T08:37:02Z</time>
      </trkpt>
      <trkpt lat="44.04747" lon="7.0673">
        <ele>1674</ele>
        <time>2015-08-20T08:37:07Z</time>
      </trkpt>
      <trkpt lat="44.04749" lon="7.06734">
        <ele>1675</ele>
        <time>2015-08-20T08:37:08Z</time>
      </trkpt>
      <trkpt lat="44.0475" lon="7.06736">
        <ele>1675</ele>
        <time>2015-08-20T08:37:10Z</time>
      </trkpt>
      <trkpt lat="44.04755" lon="7.06741">
        <ele>1675</ele>
        <time>2015-08-20T08:37:14Z</time>
      </trkpt>
      <trkpt lat="44.04756" lon="7.06742">
        <ele>1676</ele>
        <time>2015-08-20T08:37:17Z</time>
      </trkpt>
      <trkpt lat="44.0476" lon="7.06744">
        <ele>1676</ele>
        <time>2015-08-20T08:37:21Z</time>
      </trkpt>
      <trkpt lat="44.04762" lon="7.06745">
        <ele>1677</ele>
        <time>2015-08-20T08:37:24Z</time>
      </trkpt>
      <trkpt lat="44.04764" lon="7.06745">
        <ele>1677</ele>
        <time>2015-08-20T08:37:28Z</time>
      </trkpt>
      <trkpt lat="44.04767" lon="7.06746">
        <ele>1677</ele>
        <time>2015-08-20T08:37:28Z</time>
      </trkpt>
      <trkpt lat="44.04769" lon="7.06747">
        <ele>1678</ele>
        <time>2015-08-20T08:37:35Z</time>
      </trkpt>
      <trkpt lat="44.04773" lon="7.06747">
        <ele>1678</ele>
        <time>2015-08-20T08:37:35Z</time>
      </trkpt>
      <trkpt lat="44.04776" lon="7.06747">
        <ele>1678</ele>
        <time>2015-08-20T08:37:41Z</time>
      </trkpt>
      <trkpt lat="44.04779" lon="7.06748">
        <ele>1679</ele>
        <time>2015-08-20T08:37:41Z</time>
      </trkpt>
      <trkpt lat="44.04781" lon="7.06748">
        <ele>1679</ele>
        <time>2015-08-20T08:37:43Z</time>
      </trkpt>
      <trkpt lat="44.04783" lon="7.06749">
        <ele>1679</ele>
        <time>2015-08-20T08:37:49Z</time>
      </trkpt>
      <trkpt lat="44.04786" lon="7.06746">
        <ele>1679</ele>
        <time>2015-08-20T08:37:50Z</time>
      </trkpt>
      <trkpt lat="44.04788" lon="7.06745">
        <ele>1680</ele>
        <time>2015-08-20T08:37:52Z</time>
      </trkpt>
      <trkpt lat="44.0479" lon="7.06745">
        <ele>1680</ele>
        <time>2015-08-20T08:37:56Z</time>
      </trkpt>
      <trkpt lat="44.04793" lon="7.06744">
        <ele>1681</ele>
        <time>2015-08-20T08:37:56Z</time>
      </trkpt>
      <trkpt lat="44.04795" lon="7.06743">
        <ele>1682</ele>
        <time>2015-08-20T08:37:59Z</time>
      </trkpt>
      <trkpt lat="44.04797" lon="7.06743">
        <ele>1682</ele>
        <time>2015-08-20T08:38:04Z</time>
      </trkpt>
      <trkpt lat="44.04801" lon="7.06742">
        <ele>1683</ele>
        <time>2015-08-20T08:38:04Z</time>
      </trkpt>
      <trkpt lat="44.04802" lon="7.06742">
        <ele>1683</ele>
        <time>2015-08-20T08:38:05Z</time>
      </trkpt>
      <trkpt lat="44.04805" lon="7.06742">
        <ele>1684</ele>
        <time>2015-08-20T08:38:10Z</time>
      </trkpt>
      <trkpt lat="44.04807" lon="7.06743">
        <ele>1685</ele>
        <time>2015-08-20T08:38:10Z</time>
      </trkpt>
      <trkpt lat="44.04808" lon="7.06743">
        <ele>1685</ele>
        <time>2015-08-20T08:38:11Z</time>
      </trkpt>
      <trkpt lat="44.0481" lon="7.06743">
        <ele>1686</ele>
        <time>2015-08-20T08:38:16Z</time>
      </trkpt>
      <trkpt lat="44.04813" lon="7.06742">
        <ele>1687</ele>
        <time>2015-08-20T08:38:16Z</time>
      </trkpt>
      <trkpt lat="44.04817" lon="7.06742">
        <ele>1688</ele>
        <time>2015-08-20T08:38:23Z</time>
      </trkpt>
      <trkpt lat="44.0482" lon="7.06741">
        <ele>1689</ele>
        <time>2015-08-20T08:38:23Z</time>
      </trkpt>
      <trkpt lat="44.04823" lon="7.0674">
        <ele>1690</ele>
        <time>2015-08-20T08:38:29Z</time>
      </trkpt>
      <trkpt lat="44.04826" lon="7.06739">
        <ele>1690</ele>
        <time>2015-08-20T08:38:29Z</time>
      </trkpt>
      <trkpt lat="44.04827" lon="7.06739">
        <ele>1691</ele>
        <time>2015-08-20T08:38:30Z</time>
      </trkpt>
      <trkpt lat="44.04832" lon="7.06739">
        <ele>1691</ele>
        <time>2015-08-20T08:38:35Z</time>
      </trkpt>
      <trkpt lat="44.04834" lon="7.06738">
        <ele>1691</ele>
        <time>2015-08-20T08:38:42Z</time>
      </trkpt>
      <trkpt lat="44.04839" lon="7.06737">
        <ele>1691</ele>
        <time>2015-08-20T08:38:42Z</time>
      </trkpt>
      <trkpt lat="44.04841" lon="7.06737">
        <ele>1691</ele>
        <time>2015-08-20T08:38:48Z</time>
      </trkpt>
      <trkpt lat="44.04844" lon="7.06736">
        <ele>1691</ele>
        <time>2015-08-20T08:38:48Z</time>
      </trkpt>
      <trkpt lat="44.04845" lon="7.06736">
        <ele>1692</ele>
        <time>2015-08-20T08:38:49Z</time>
      </trkpt>
      <trkpt lat="44.0485" lon="7.06735">
        <ele>1692</ele>
        <time>2015-08-20T08:38:54Z</time>
      </trkpt>
      <trkpt lat="44.04853" lon="7.06735">
        <ele>1693</ele>
        <time>2015-08-20T08:39:01Z</time>
      </trkpt>
      <trkpt lat="44.04857" lon="7.06735">
        <ele>1693</ele>
        <time>2015-08-20T08:39:01Z</time>
      </trkpt>
      <trkpt lat="44.0486" lon="7.06734">
        <ele>1694</ele>
        <time>2015-08-20T08:39:07Z</time>
      </trkpt>
      <trkpt lat="44.04862" lon="7.06733">
        <ele>1695</ele>
        <time>2015-08-20T08:39:07Z</time>
      </trkpt>
      <trkpt lat="44.04863" lon="7.06733">
        <ele>1695</ele>
        <time>2015-08-20T08:39:08Z</time>
      </trkpt>
      <trkpt lat="44.04869" lon="7.06731">
        <ele>1695</ele>
        <time>2015-08-20T08:39:13Z</time>
      </trkpt>
      <trkpt lat="44.0487" lon="7.06731">
        <ele>1696</ele>
        <time>2015-08-20T08:39:15Z</time>
      </trkpt>
      <trkpt lat="44.04872" lon="7.0673">
        <ele>1697</ele>
        <time>2015-08-20T08:39:17Z</time>
      </trkpt>
      <trkpt lat="44.04874" lon="7.06729">
        <ele>1697</ele>
        <time>2015-08-20T08:39:22Z</time>
      </trkpt>
      <trkpt lat="44.04877" lon="7.06728">
        <ele>1698</ele>
        <time>2015-08-20T08:39:23Z</time>
      </trkpt>
      <trkpt lat="44.04878" lon="7.06728">
        <ele>1698</ele>
        <time>2015-08-20T08:39:25Z</time>
      </trkpt>
      <trkpt lat="44.04883" lon="7.06729">
        <ele>1699</ele>
        <time>2015-08-20T08:39:29Z</time>
      </trkpt>
      <trkpt lat="44.04885" lon="7.0673">
        <ele>1699</ele>
        <time>2015-08-20T08:39:32Z</time>
      </trkpt>
      <trkpt lat="44.04887" lon="7.0673">
        <ele>1699</ele>
        <time>2015-08-20T08:39:37Z</time>
      </trkpt>
      <trkpt lat="44.0489" lon="7.06731">
        <ele>1700</ele>
        <time>2015-08-20T08:39:37Z</time>
      </trkpt>
      <trkpt lat="44.04891" lon="7.06731">
        <ele>1701</ele>
        <time>2015-08-20T08:39:40Z</time>
      </trkpt>
      <trkpt lat="44.04893" lon="7.0673">
        <ele>1702</ele>
        <time>2015-08-20T08:39:46Z</time>
      </trkpt>
      <trkpt lat="44.04897" lon="7.0673">
        <ele>1702</ele>
        <time>2015-08-20T08:39:46Z</time>
      </trkpt>
      <trkpt lat="44.049" lon="7.06729">
        <ele>1702</ele>
        <time>2015-08-20T08:39:52Z</time>
      </trkpt>
      <trkpt lat="44.04903" lon="7.0673">
        <ele>1703</ele>
        <time>2015-08-20T08:39:52Z</time>
      </trkpt>
      <trkpt lat="44.04908" lon="7.06728">
        <ele>1703</ele>
        <time>2015-08-20T08:39:58Z</time>
      </trkpt>
      <trkpt lat="44.04909" lon="7.06728">
        <ele>1704</ele>
        <time>2015-08-20T08:39:59Z</time>
      </trkpt>
      <trkpt lat="44.04911" lon="7.06728">
        <ele>1704</ele>
        <time>2015-08-20T08:40:05Z</time>
      </trkpt>
      <trkpt lat="44.04916" lon="7.06727">
        <ele>1704</ele>
        <time>2015-08-20T08:40:05Z</time>
      </trkpt>
      <trkpt lat="44.04917" lon="7.06727">
        <ele>1705</ele>
        <time>2015-08-20T08:40:06Z</time>
      </trkpt>
      <trkpt lat="44.04919" lon="7.06727">
        <ele>1705</ele>
        <time>2015-08-20T08:40:11Z</time>
      </trkpt>
      <trkpt lat="44.04922" lon="7.06726">
        <ele>1706</ele>
        <time>2015-08-20T08:40:11Z</time>
      </trkpt>
      <trkpt lat="44.04924" lon="7.06724">
        <ele>1706</ele>
        <time>2015-08-20T08:40:14Z</time>
      </trkpt>
      <trkpt lat="44.04925" lon="7.06723">
        <ele>1707</ele>
        <time>2015-08-20T08:40:18Z</time>
      </trkpt>
      <trkpt lat="44.04929" lon="7.06722">
        <ele>1707</ele>
        <time>2015-08-20T08:40:20Z</time>
      </trkpt>
      <trkpt lat="44.04935" lon="7.06718">
        <ele>1707</ele>
        <time>2015-08-20T08:40:25Z</time>
      </trkpt>
      <trkpt lat="44.04936" lon="7.06718">
        <ele>1708</ele>
        <time>2015-08-20T08:40:28Z</time>
      </trkpt>
      <trkpt lat="44.04938" lon="7.06719">
        <ele>1708</ele>
        <time>2015-08-20T08:40:32Z</time>
      </trkpt>
      <trkpt lat="44.04941" lon="7.0672">
        <ele>1708</ele>
        <time>2015-08-20T08:40:32Z</time>
      </trkpt>
      <trkpt lat="44.04943" lon="7.06721">
        <ele>1709</ele>
        <time>2015-08-20T08:40:39Z</time>
      </trkpt>
      <trkpt lat="44.04948" lon="7.06724">
        <ele>1709</ele>
        <time>2015-08-20T08:40:40Z</time>
      </trkpt>
      <trkpt lat="44.0495" lon="7.06725">
        <ele>1709</ele>
        <time>2015-08-20T08:40:41Z</time>
      </trkpt>
      <trkpt lat="44.04952" lon="7.06725">
        <ele>1709</ele>
        <time>2015-08-20T08:40:45Z</time>
      </trkpt>
      <trkpt lat="44.04955" lon="7.06726">
        <ele>1710</ele>
        <time>2015-08-20T08:40:45Z</time>
      </trkpt>
      <trkpt lat="44.04957" lon="7.06725">
        <ele>1711</ele>
        <time>2015-08-20T08:40:48Z</time>
      </trkpt>
      <trkpt lat="44.04963" lon="7.06726">
        <ele>1711</ele>
        <time>2015-08-20T08:40:53Z</time>
      </trkpt>
      <trkpt lat="44.04966" lon="7.06726">
        <ele>1712</ele>
        <time>2015-08-20T08:41:00Z</time>
      </trkpt>
      <trkpt lat="44.0497" lon="7.06726">
        <ele>1713</ele>
        <time>2015-08-20T08:41:01Z</time>
      </trkpt>
      <trkpt lat="44.04974" lon="7.06726">
        <ele>1713</ele>
        <time>2015-08-20T08:41:05Z</time>
      </trkpt>
      <trkpt lat="44.04976" lon="7.06726">
        <ele>1714</ele>
        <time>2015-08-20T08:41:05Z</time>
      </trkpt>
      <trkpt lat="44.04977" lon="7.06726">
        <ele>1714</ele>
        <time>2015-08-20T08:41:06Z</time>
      </trkpt>
      <trkpt lat="44.04979" lon="7.06726">
        <ele>1714</ele>
        <time>2015-08-20T08:41:10Z</time>
      </trkpt>
      <trkpt lat="44.04981" lon="7.06726">
        <ele>1714</ele>
        <time>2015-08-20T08:41:10Z</time>
      </trkpt>
      <trkpt lat="44.04986" lon="7.06726">
        <ele>1715</ele>
        <time>2015-08-20T08:41:15Z</time>
      </trkpt>
      <trkpt lat="44.04988" lon="7.06726">
        <ele>1715</ele>
        <time>2015-08-20T08:41:17Z</time>
      </trkpt>
      <trkpt lat="44.0499" lon="7.06725">
        <ele>1715</ele>
        <time>2015-08-20T08:41:21Z</time>
      </trkpt>
      <trkpt lat="44.04993" lon="7.06725">
        <ele>1716</ele>
        <time>2015-08-20T08:41:21Z</time>
      </trkpt>
      <trkpt lat="44.04996" lon="7.06724">
        <ele>1716</ele>
        <time>2015-08-20T08:41:26Z</time>
      </trkpt>
      <trkpt lat="44.04998" lon="7.06724">
        <ele>1716</ele>
        <time>2015-08-20T08:41:26Z</time>
      </trkpt>
      <trkpt lat="44.04999" lon="7.06723">
        <ele>1716</ele>
        <time>2015-08-20T08:41:27Z</time>
      </trkpt>
      <trkpt lat="44.05001" lon="7.06722">
        <ele>1716</ele>
        <time>2015-08-20T08:41:31Z</time>
      </trkpt>
      <trkpt lat="44.05003" lon="7.06722">
        <ele>1717</ele>
        <time>2015-08-20T08:41:31Z</time>
      </trkpt>
      <trkpt lat="44.05005" lon="7.06721">
        <ele>1717</ele>
        <time>2015-08-20T08:41:32Z</time>
      </trkpt>
      <trkpt lat="44.05009" lon="7.0672">
        <ele>1717</ele>
        <time>2015-08-20T08:41:36Z</time>
      </trkpt>
      <trkpt lat="44.05012" lon="7.0672">
        <ele>1717</ele>
        <time>2015-08-20T08:41:41Z</time>
      </trkpt>
      <trkpt lat="44.05015" lon="7.06719">
        <ele>1717</ele>
        <time>2015-08-20T08:41:42Z</time>
      </trkpt>
      <trkpt lat="44.05018" lon="7.06718">
        <ele>1718</ele>
        <time>2015-08-20T08:41:47Z</time>
      </trkpt>
      <trkpt lat="44.05021" lon="7.06718">
        <ele>1718</ele>
        <time>2015-08-20T08:41:47Z</time>
      </trkpt>
      <trkpt lat="44.05022" lon="7.06718">
        <ele>1719</ele>
        <time>2015-08-20T08:41:48Z</time>
      </trkpt>
      <trkpt lat="44.05025" lon="7.06719">
        <ele>1719</ele>
        <time>2015-08-20T08:41:52Z</time>
      </trkpt>
      <trkpt lat="44.05027" lon="7.06719">
        <ele>1719</ele>
        <time>2015-08-20T08:41:52Z</time>
      </trkpt>
      <trkpt lat="44.05029" lon="7.06719">
        <ele>1719</ele>
        <time>2015-08-20T08:41:53Z</time>
      </trkpt>
      <trkpt lat="44.05031" lon="7.06718">
        <ele>1719</ele>
        <time>2015-08-20T08:41:57Z</time>
      </trkpt>
      <trkpt lat="44.05034" lon="7.06719">
        <ele>1719</ele>
        <time>2015-08-20T08:41:57Z</time>
      </trkpt>
      <trkpt lat="44.05035" lon="7.06718">
        <ele>1719</ele>
        <time>2015-08-20T08:41:58Z</time>
      </trkpt>
      <trkpt lat="44.05041" lon="7.06717">
        <ele>1719</ele>
        <time>2015-08-20T08:42:02Z</time>
      </trkpt>
      <trkpt lat="44.05042" lon="7.06716">
        <ele>1719</ele>
        <time>2015-08-20T08:42:03Z</time>
      </trkpt>
      <trkpt lat="44.05044" lon="7.06716">
        <ele>1720</ele>
        <time>2015-08-20T08:42:07Z</time>
      </trkpt>
      <trkpt lat="44.05048" lon="7.06715">
        <ele>1720</ele>
        <time>2015-08-20T08:42:08Z</time>
      </trkpt>
      <trkpt lat="44.0505" lon="7.06715">
        <ele>1720</ele>
        <time>2015-08-20T08:42:09Z</time>
      </trkpt>
      <trkpt lat="44.05052" lon="7.06715">
        <ele>1720</ele>
        <time>2015-08-20T08:42:13Z</time>
      </trkpt>
      <trkpt lat="44.05055" lon="7.06714">
        <ele>1721</ele>
        <time>2015-08-20T08:42:13Z</time>
      </trkpt>
      <trkpt lat="44.05056" lon="7.06714">
        <ele>1721</ele>
        <time>2015-08-20T08:42:14Z</time>
      </trkpt>
      <trkpt lat="44.05058" lon="7.06714">
        <ele>1721</ele>
        <time>2015-08-20T08:42:18Z</time>
      </trkpt>
      <trkpt lat="44.05061" lon="7.06713">
        <ele>1722</ele>
        <time>2015-08-20T08:42:18Z</time>
      </trkpt>
      <trkpt lat="44.05062" lon="7.06713">
        <ele>1722</ele>
        <time>2015-08-20T08:42:19Z</time>
      </trkpt>
      <trkpt lat="44.05067" lon="7.06713">
        <ele>1722</ele>
        <time>2015-08-20T08:42:23Z</time>
      </trkpt>
      <trkpt lat="44.05068" lon="7.06714">
        <ele>1723</ele>
        <time>2015-08-20T08:42:26Z</time>
      </trkpt>
      <trkpt lat="44.05071" lon="7.06714">
        <ele>1723</ele>
        <time>2015-08-20T08:42:29Z</time>
      </trkpt>
      <trkpt lat="44.05073" lon="7.06714">
        <ele>1723</ele>
        <time>2015-08-20T08:42:29Z</time>
      </trkpt>
      <trkpt lat="44.05074" lon="7.06714">
        <ele>1725</ele>
        <time>2015-08-20T08:42:57Z</time>
      </trkpt>
      <trkpt lat="44.05077" lon="7.06713">
        <ele>1725</ele>
        <time>2015-08-20T08:42:58Z</time>
      </trkpt>
      <trkpt lat="44.05078" lon="7.06713">
        <ele>1725</ele>
        <time>2015-08-20T08:42:59Z</time>
      </trkpt>
      <trkpt lat="44.0508" lon="7.06713">
        <ele>1725</ele>
        <time>2015-08-20T08:43:00Z</time>
      </trkpt>
      <trkpt lat="44.05082" lon="7.06713">
        <ele>1726</ele>
        <time>2015-08-20T08:43:03Z</time>
      </trkpt>
      <trkpt lat="44.05084" lon="7.06711">
        <ele>1726</ele>
        <time>2015-08-20T08:43:03Z</time>
      </trkpt>
      <trkpt lat="44.05086" lon="7.0671">
        <ele>1727</ele>
        <time>2015-08-20T08:43:06Z</time>
      </trkpt>
      <trkpt lat="44.05088" lon="7.06709">
        <ele>1727</ele>
        <time>2015-08-20T08:43:09Z</time>
      </trkpt>
      <trkpt lat="44.0509" lon="7.06709">
        <ele>1727</ele>
        <time>2015-08-20T08:43:10Z</time>
      </trkpt>
      <trkpt lat="44.05097" lon="7.06708">
        <ele>1727</ele>
        <time>2015-08-20T08:43:14Z</time>
      </trkpt>
      <trkpt lat="44.05098" lon="7.06708">
        <ele>1727</ele>
        <time>2015-08-20T08:43:15Z</time>
      </trkpt>
      <trkpt lat="44.05099" lon="7.06708">
        <ele>1727</ele>
        <time>2015-08-20T08:43:17Z</time>
      </trkpt>
      <trkpt lat="44.05103" lon="7.06708">
        <ele>1727</ele>
        <time>2015-08-20T08:43:20Z</time>
      </trkpt>
      <trkpt lat="44.05105" lon="7.06709">
        <ele>1727</ele>
        <time>2015-08-20T08:43:20Z</time>
      </trkpt>
      <trkpt lat="44.05106" lon="7.06709">
        <ele>1727</ele>
        <time>2015-08-20T08:43:21Z</time>
      </trkpt>
      <trkpt lat="44.05109" lon="7.06709">
        <ele>1727</ele>
        <time>2015-08-20T08:43:25Z</time>
      </trkpt>
      <trkpt lat="44.05111" lon="7.06709">
        <ele>1727</ele>
        <time>2015-08-20T08:43:25Z</time>
      </trkpt>
      <trkpt lat="44.05114" lon="7.06709">
        <ele>1727</ele>
        <time>2015-08-20T08:43:30Z</time>
      </trkpt>
      <trkpt lat="44.05118" lon="7.06709">
        <ele>1727</ele>
        <time>2015-08-20T08:43:32Z</time>
      </trkpt>
      <trkpt lat="44.05119" lon="7.06709">
        <ele>1727</ele>
        <time>2015-08-20T08:43:34Z</time>
      </trkpt>
      <trkpt lat="44.0512" lon="7.06709">
        <ele>1727</ele>
        <time>2015-08-20T08:43:41Z</time>
      </trkpt>
      <trkpt lat="44.05122" lon="7.06709">
        <ele>1727</ele>
        <time>2015-08-20T08:43:42Z</time>
      </trkpt>
      <trkpt lat="44.05124" lon="7.06709">
        <ele>1727</ele>
        <time>2015-08-20T08:43:46Z</time>
      </trkpt>
      <trkpt lat="44.05128" lon="7.0671">
        <ele>1727</ele>
        <time>2015-08-20T08:43:46Z</time>
      </trkpt>
      <trkpt lat="44.05134" lon="7.06711">
        <ele>1727</ele>
        <time>2015-08-20T08:43:50Z</time>
      </trkpt>
      <trkpt lat="44.05136" lon="7.06711">
        <ele>1727</ele>
        <time>2015-08-20T08:43:51Z</time>
      </trkpt>
      <trkpt lat="44.05139" lon="7.06711">
        <ele>1727</ele>
        <time>2015-08-20T08:43:56Z</time>
      </trkpt>
      <trkpt lat="44.05143" lon="7.06713">
        <ele>1727</ele>
        <time>2015-08-20T08:43:56Z</time>
      </trkpt>
      <trkpt lat="44.05145" lon="7.06713">
        <ele>1727</ele>
        <time>2015-08-20T08:43:57Z</time>
      </trkpt>
      <trkpt lat="44.05148" lon="7.06713">
        <ele>1727</ele>
        <time>2015-08-20T08:44:01Z</time>
      </trkpt>
      <trkpt lat="44.0515" lon="7.06712">
        <ele>1727</ele>
        <time>2015-08-20T08:44:01Z</time>
      </trkpt>
      <trkpt lat="44.05151" lon="7.06712">
        <ele>1727</ele>
        <time>2015-08-20T08:44:03Z</time>
      </trkpt>
      <trkpt lat="44.05152" lon="7.06712">
        <ele>1727</ele>
        <time>2015-08-20T08:44:03Z</time>
      </trkpt>
      <trkpt lat="44.05154" lon="7.06712">
        <ele>1727</ele>
        <time>2015-08-20T08:44:04Z</time>
      </trkpt>
      <trkpt lat="44.05156" lon="7.06712">
        <ele>1727</ele>
        <time>2015-08-20T08:44:08Z</time>
      </trkpt>
      <trkpt lat="44.05159" lon="7.06712">
        <ele>1727</ele>
        <time>2015-08-20T08:44:08Z</time>
      </trkpt>
      <trkpt lat="44.0516" lon="7.06712">
        <ele>1727</ele>
        <time>2015-08-20T08:44:09Z</time>
      </trkpt>
      <trkpt lat="44.05163" lon="7.06711">
        <ele>1727</ele>
        <time>2015-08-20T08:44:13Z</time>
      </trkpt>
      <trkpt lat="44.05165" lon="7.06711">
        <ele>1728</ele>
        <time>2015-08-20T08:44:13Z</time>
      </trkpt>
      <trkpt lat="44.0517" lon="7.06707">
        <ele>1728</ele>
        <time>2015-08-20T08:44:18Z</time>
      </trkpt>
      <trkpt lat="44.05171" lon="7.06706">
        <ele>1728</ele>
        <time>2015-08-20T08:44:20Z</time>
      </trkpt>
      <trkpt lat="44.05173" lon="7.06704">
        <ele>1729</ele>
        <time>2015-08-20T08:44:24Z</time>
      </trkpt>
      <trkpt lat="44.05175" lon="7.06702">
        <ele>1729</ele>
        <time>2015-08-20T08:44:24Z</time>
      </trkpt>
      <trkpt lat="44.05181" lon="7.06696">
        <ele>1729</ele>
        <time>2015-08-20T08:44:29Z</time>
      </trkpt>
      <trkpt lat="44.05182" lon="7.06695">
        <ele>1729</ele>
        <time>2015-08-20T08:44:30Z</time>
      </trkpt>
      <trkpt lat="44.05185" lon="7.06691">
        <ele>1729</ele>
        <time>2015-08-20T08:44:35Z</time>
      </trkpt>
      <trkpt lat="44.05186" lon="7.06688">
        <ele>1730</ele>
        <time>2015-08-20T08:44:35Z</time>
      </trkpt>
      <trkpt lat="44.05187" lon="7.06687">
        <ele>1730</ele>
        <time>2015-08-20T08:44:36Z</time>
      </trkpt>
      <trkpt lat="44.05188" lon="7.06684">
        <ele>1730</ele>
        <time>2015-08-20T08:44:40Z</time>
      </trkpt>
      <trkpt lat="44.0519" lon="7.06681">
        <ele>1730</ele>
        <time>2015-08-20T08:44:40Z</time>
      </trkpt>
      <trkpt lat="44.05191" lon="7.0668">
        <ele>1731</ele>
        <time>2015-08-20T08:44:41Z</time>
      </trkpt>
      <trkpt lat="44.05196" lon="7.06676">
        <ele>1731</ele>
        <time>2015-08-20T08:44:45Z</time>
      </trkpt>
      <trkpt lat="44.05197" lon="7.06676">
        <ele>1731</ele>
        <time>2015-08-20T08:44:47Z</time>
      </trkpt>
      <trkpt lat="44.05199" lon="7.06675">
        <ele>1731</ele>
        <time>2015-08-20T08:44:48Z</time>
      </trkpt>
      <trkpt lat="44.05204" lon="7.06672">
        <ele>1731</ele>
        <time>2015-08-20T08:44:51Z</time>
      </trkpt>
      <trkpt lat="44.05206" lon="7.0667">
        <ele>1731</ele>
        <time>2015-08-20T08:44:54Z</time>
      </trkpt>
      <trkpt lat="44.05208" lon="7.06668">
        <ele>1731</ele>
        <time>2015-08-20T08:44:57Z</time>
      </trkpt>
      <trkpt lat="44.0521" lon="7.06665">
        <ele>1731</ele>
        <time>2015-08-20T08:44:57Z</time>
      </trkpt>
      <trkpt lat="44.05215" lon="7.06659">
        <ele>1731</ele>
        <time>2015-08-20T08:45:02Z</time>
      </trkpt>
      <trkpt lat="44.05218" lon="7.06655">
        <ele>1731</ele>
        <time>2015-08-20T08:45:08Z</time>
      </trkpt>
      <trkpt lat="44.0522" lon="7.0665">
        <ele>1731</ele>
        <time>2015-08-20T08:45:08Z</time>
      </trkpt>
      <trkpt lat="44.05221" lon="7.06649">
        <ele>1731</ele>
        <time>2015-08-20T08:45:09Z</time>
      </trkpt>
      <trkpt lat="44.05223" lon="7.06646">
        <ele>1731</ele>
        <time>2015-08-20T08:45:13Z</time>
      </trkpt>
      <trkpt lat="44.05225" lon="7.06643">
        <ele>1731</ele>
        <time>2015-08-20T08:45:13Z</time>
      </trkpt>
      <trkpt lat="44.05225" lon="7.06641">
        <ele>1731</ele>
        <time>2015-08-20T08:45:14Z</time>
      </trkpt>
      <trkpt lat="44.05227" lon="7.06638">
        <ele>1731</ele>
        <time>2015-08-20T08:45:18Z</time>
      </trkpt>
      <trkpt lat="44.05229" lon="7.06636">
        <ele>1731</ele>
        <time>2015-08-20T08:45:18Z</time>
      </trkpt>
      <trkpt lat="44.0523" lon="7.06634">
        <ele>1731</ele>
        <time>2015-08-20T08:45:19Z</time>
      </trkpt>
      <trkpt lat="44.05235" lon="7.06631">
        <ele>1731</ele>
        <time>2015-08-20T08:45:23Z</time>
      </trkpt>
      <trkpt lat="44.05236" lon="7.0663">
        <ele>1731</ele>
        <time>2015-08-20T08:45:25Z</time>
      </trkpt>
      <trkpt lat="44.05238" lon="7.06629">
        <ele>1731</ele>
        <time>2015-08-20T08:45:26Z</time>
      </trkpt>
      <trkpt lat="44.05239" lon="7.06628">
        <ele>1731</ele>
        <time>2015-08-20T08:45:26Z</time>
      </trkpt>
      <trkpt lat="44.05241" lon="7.06626">
        <ele>1731</ele>
        <time>2015-08-20T08:45:30Z</time>
      </trkpt>
      <trkpt lat="44.05244" lon="7.06624">
        <ele>1731</ele>
        <time>2015-08-20T08:45:30Z</time>
      </trkpt>
      <trkpt lat="44.05244" lon="7.06622">
        <ele>1731</ele>
        <time>2015-08-20T08:45:31Z</time>
      </trkpt>
      <trkpt lat="44.05245" lon="7.06621">
        <ele>1731</ele>
        <time>2015-08-20T08:45:33Z</time>
      </trkpt>
      <trkpt lat="44.05246" lon="7.06619">
        <ele>1731</ele>
        <time>2015-08-20T08:45:34Z</time>
      </trkpt>
      <trkpt lat="44.05248" lon="7.06615">
        <ele>1731</ele>
        <time>2015-08-20T08:45:37Z</time>
      </trkpt>
      <trkpt lat="44.05249" lon="7.06612">
        <ele>1731</ele>
        <time>2015-08-20T08:45:37Z</time>
      </trkpt>
      <trkpt lat="44.05249" lon="7.0661">
        <ele>1731</ele>
        <time>2015-08-20T08:45:38Z</time>
      </trkpt>
      <trkpt lat="44.05251" lon="7.06607">
        <ele>1731</ele>
        <time>2015-08-20T08:45:42Z</time>
      </trkpt>
      <trkpt lat="44.05255" lon="7.06606">
        <ele>1731</ele>
        <time>2015-08-20T08:45:43Z</time>
      </trkpt>
      <trkpt lat="44.05257" lon="7.06606">
        <ele>1731</ele>
        <time>2015-08-20T08:45:45Z</time>
      </trkpt>
      <trkpt lat="44.05258" lon="7.06606">
        <ele>1731</ele>
        <time>2015-08-20T08:45:50Z</time>
      </trkpt>
      <trkpt lat="44.05262" lon="7.06605">
        <ele>1731</ele>
        <time>2015-08-20T08:45:51Z</time>
      </trkpt>
      <trkpt lat="44.05264" lon="7.06607">
        <ele>1731</ele>
        <time>2015-08-20T08:45:53Z</time>
      </trkpt>
      <trkpt lat="44.05265" lon="7.06609">
        <ele>1731</ele>
        <time>2015-08-20T08:45:57Z</time>
      </trkpt>
      <trkpt lat="44.05269" lon="7.06612">
        <ele>1731</ele>
        <time>2015-08-20T08:45:57Z</time>
      </trkpt>
      <trkpt lat="44.05273" lon="7.06616">
        <ele>1731</ele>
        <time>2015-08-20T08:46:01Z</time>
      </trkpt>
      <trkpt lat="44.05275" lon="7.06617">
        <ele>1732</ele>
        <time>2015-08-20T08:46:03Z</time>
      </trkpt>
      <trkpt lat="44.05276" lon="7.06618">
        <ele>1732</ele>
        <time>2015-08-20T08:46:03Z</time>
      </trkpt>
      <trkpt lat="44.05279" lon="7.06622">
        <ele>1732</ele>
        <time>2015-08-20T08:46:08Z</time>
      </trkpt>
      <trkpt lat="44.05281" lon="7.06625">
        <ele>1732</ele>
        <time>2015-08-20T08:46:08Z</time>
      </trkpt>
      <trkpt lat="44.05281" lon="7.06626">
        <ele>1732</ele>
        <time>2015-08-20T08:46:09Z</time>
      </trkpt>
      <trkpt lat="44.05281" lon="7.06628">
        <ele>1732</ele>
        <time>2015-08-20T08:46:11Z</time>
      </trkpt>
      <trkpt lat="44.05283" lon="7.0663">
        <ele>1732</ele>
        <time>2015-08-20T08:46:14Z</time>
      </trkpt>
      <trkpt lat="44.05286" lon="7.06632">
        <ele>1732</ele>
        <time>2015-08-20T08:46:15Z</time>
      </trkpt>
      <trkpt lat="44.05288" lon="7.06632">
        <ele>1732</ele>
        <time>2015-08-20T08:46:16Z</time>
      </trkpt>
      <trkpt lat="44.05289" lon="7.06633">
        <ele>1732</ele>
        <time>2015-08-20T08:46:17Z</time>
      </trkpt>
      <trkpt lat="44.05292" lon="7.06634">
        <ele>1732</ele>
        <time>2015-08-20T08:46:20Z</time>
      </trkpt>
      <trkpt lat="44.05294" lon="7.06635">
        <ele>1732</ele>
        <time>2015-08-20T08:46:20Z</time>
      </trkpt>
      <trkpt lat="44.05296" lon="7.06636">
        <ele>1732</ele>
        <time>2015-08-20T08:46:21Z</time>
      </trkpt>
      <trkpt lat="44.05301" lon="7.06639">
        <ele>1732</ele>
        <time>2015-08-20T08:46:25Z</time>
      </trkpt>
      <trkpt lat="44.05303" lon="7.06639">
        <ele>1732</ele>
        <time>2015-08-20T08:46:26Z</time>
      </trkpt>
      <trkpt lat="44.05304" lon="7.0664">
        <ele>1732</ele>
        <time>2015-08-20T08:46:27Z</time>
      </trkpt>
      <trkpt lat="44.05307" lon="7.06641">
        <ele>1732</ele>
        <time>2015-08-20T08:46:31Z</time>
      </trkpt>
      <trkpt lat="44.0531" lon="7.06641">
        <ele>1732</ele>
        <time>2015-08-20T08:46:31Z</time>
      </trkpt>
      <trkpt lat="44.05311" lon="7.06641">
        <ele>1732</ele>
        <time>2015-08-20T08:46:32Z</time>
      </trkpt>
      <trkpt lat="44.05314" lon="7.06641">
        <ele>1732</ele>
        <time>2015-08-20T08:46:36Z</time>
      </trkpt>
      <trkpt lat="44.05317" lon="7.06642">
        <ele>1732</ele>
        <time>2015-08-20T08:46:36Z</time>
      </trkpt>
      <trkpt lat="44.05318" lon="7.06642">
        <ele>1732</ele>
        <time>2015-08-20T08:46:37Z</time>
      </trkpt>
      <trkpt lat="44.05322" lon="7.06642">
        <ele>1732</ele>
        <time>2015-08-20T08:46:41Z</time>
      </trkpt>
      <trkpt lat="44.05326" lon="7.06641">
        <ele>1732</ele>
        <time>2015-08-20T08:46:42Z</time>
      </trkpt>
      <trkpt lat="44.05327" lon="7.0664">
        <ele>1732</ele>
        <time>2015-08-20T08:46:43Z</time>
      </trkpt>
      <trkpt lat="44.05328" lon="7.0664">
        <ele>1732</ele>
        <time>2015-08-20T08:47:11Z</time>
      </trkpt>
      <trkpt lat="44.05332" lon="7.06638">
        <ele>1732</ele>
        <time>2015-08-20T08:47:18Z</time>
      </trkpt>
      <trkpt lat="44.05333" lon="7.06637">
        <ele>1732</ele>
        <time>2015-08-20T08:47:21Z</time>
      </trkpt>
      <trkpt lat="44.05335" lon="7.06636">
        <ele>1732</ele>
        <time>2015-08-20T08:47:25Z</time>
      </trkpt>
      <trkpt lat="44.05337" lon="7.06634">
        <ele>1732</ele>
        <time>2015-08-20T08:47:26Z</time>
      </trkpt>
      <trkpt lat="44.05339" lon="7.06632">
        <ele>1732</ele>
        <time>2015-08-20T08:47:28Z</time>
      </trkpt>
      <trkpt lat="44.05342" lon="7.06631">
        <ele>1732</ele>
        <time>2015-08-20T08:47:31Z</time>
      </trkpt>
      <trkpt lat="44.05345" lon="7.06629">
        <ele>1732</ele>
        <time>2015-08-20T08:47:33Z</time>
      </trkpt>
      <trkpt lat="44.05346" lon="7.06628">
        <ele>1732</ele>
        <time>2015-08-20T08:47:33Z</time>
      </trkpt>
      <trkpt lat="44.0535" lon="7.06626">
        <ele>1732</ele>
        <time>2015-08-20T08:47:37Z</time>
      </trkpt>
      <trkpt lat="44.05352" lon="7.06624">
        <ele>1732</ele>
        <time>2015-08-20T08:47:39Z</time>
      </trkpt>
      <trkpt lat="44.05355" lon="7.06622">
        <ele>1732</ele>
        <time>2015-08-20T08:47:44Z</time>
      </trkpt>
      <trkpt lat="44.05357" lon="7.06621">
        <ele>1732</ele>
        <time>2015-08-20T08:47:45Z</time>
      </trkpt>
      <trkpt lat="44.05359" lon="7.06618">
        <ele>1734</ele>
        <time>2015-08-20T08:48:19Z</time>
      </trkpt>
      <trkpt lat="44.05362" lon="7.06616">
        <ele>1734</ele>
        <time>2015-08-20T08:48:20Z</time>
      </trkpt>
      <trkpt lat="44.05363" lon="7.06615">
        <ele>1734</ele>
        <time>2015-08-20T08:48:21Z</time>
      </trkpt>
      <trkpt lat="44.05369" lon="7.06611">
        <ele>1734</ele>
        <time>2015-08-20T08:48:25Z</time>
      </trkpt>
      <trkpt lat="44.05372" lon="7.06608">
        <ele>1734</ele>
        <time>2015-08-20T08:48:31Z</time>
      </trkpt>
      <trkpt lat="44.05375" lon="7.06605">
        <ele>1734</ele>
        <time>2015-08-20T08:48:32Z</time>
      </trkpt>
      <trkpt lat="44.05376" lon="7.06605">
        <ele>1734</ele>
        <time>2015-08-20T08:48:32Z</time>
      </trkpt>
      <trkpt lat="44.05378" lon="7.06604">
        <ele>1734</ele>
        <time>2015-08-20T08:48:36Z</time>
      </trkpt>
      <trkpt lat="44.0538" lon="7.06601">
        <ele>1734</ele>
        <time>2015-08-20T08:48:36Z</time>
      </trkpt>
      <trkpt lat="44.05382" lon="7.06599">
        <ele>1734</ele>
        <time>2015-08-20T08:48:38Z</time>
      </trkpt>
      <trkpt lat="44.05384" lon="7.06597">
        <ele>1734</ele>
        <time>2015-08-20T08:48:42Z</time>
      </trkpt>
      <trkpt lat="44.05386" lon="7.06596">
        <ele>1734</ele>
        <time>2015-08-20T08:48:42Z</time>
      </trkpt>
      <trkpt lat="44.05387" lon="7.06595">
        <ele>1734</ele>
        <time>2015-08-20T08:48:44Z</time>
      </trkpt>
      <trkpt lat="44.05392" lon="7.06593">
        <ele>1734</ele>
        <time>2015-08-20T08:48:49Z</time>
      </trkpt>
      <trkpt lat="44.05395" lon="7.06592">
        <ele>1734</ele>
        <time>2015-08-20T08:48:54Z</time>
      </trkpt>
      <trkpt lat="44.05398" lon="7.06591">
        <ele>1734</ele>
        <time>2015-08-20T08:48:54Z</time>
      </trkpt>
      <trkpt lat="44.05399" lon="7.06591">
        <ele>1734</ele>
        <time>2015-08-20T08:48:55Z</time>
      </trkpt>
      <trkpt lat="44.05404" lon="7.06591">
        <ele>1734</ele>
        <time>2015-08-20T08:48:59Z</time>
      </trkpt>
      <trkpt lat="44.05405" lon="7.0659">
        <ele>1734</ele>
        <time>2015-08-20T08:49:00Z</time>
      </trkpt>
      <trkpt lat="44.05407" lon="7.0659">
        <ele>1734</ele>
        <time>2015-08-20T08:49:05Z</time>
      </trkpt>
      <trkpt lat="44.05411" lon="7.0659">
        <ele>1734</ele>
        <time>2015-08-20T08:49:05Z</time>
      </trkpt>
      <trkpt lat="44.05413" lon="7.0659">
        <ele>1734</ele>
        <time>2015-08-20T08:49:06Z</time>
      </trkpt>
      <trkpt lat="44.05415" lon="7.0659">
        <ele>1734</ele>
        <time>2015-08-20T08:49:10Z</time>
      </trkpt>
      <trkpt lat="44.05418" lon="7.0659">
        <ele>1734</ele>
        <time>2015-08-20T08:49:10Z</time>
      </trkpt>
      <trkpt lat="44.05419" lon="7.0659">
        <ele>1734</ele>
        <time>2015-08-20T08:49:11Z</time>
      </trkpt>
      <trkpt lat="44.05424" lon="7.06589">
        <ele>1734</ele>
        <time>2015-08-20T08:49:15Z</time>
      </trkpt>
      <trkpt lat="44.05425" lon="7.06589">
        <ele>1734</ele>
        <time>2015-08-20T08:49:16Z</time>
      </trkpt>
      <trkpt lat="44.05427" lon="7.06589">
        <ele>1734</ele>
        <time>2015-08-20T08:49:21Z</time>
      </trkpt>
      <trkpt lat="44.05431" lon="7.06588">
        <ele>1734</ele>
        <time>2015-08-20T08:49:21Z</time>
      </trkpt>
      <trkpt lat="44.05432" lon="7.06588">
        <ele>1734</ele>
        <time>2015-08-20T08:49:22Z</time>
      </trkpt>
      <trkpt lat="44.05434" lon="7.06588">
        <ele>1734</ele>
        <time>2015-08-20T08:49:26Z</time>
      </trkpt>
      <trkpt lat="44.05436" lon="7.06587">
        <ele>1734</ele>
        <time>2015-08-20T08:49:26Z</time>
      </trkpt>
      <trkpt lat="44.05437" lon="7.06587">
        <ele>1734</ele>
        <time>2015-08-20T08:49:27Z</time>
      </trkpt>
      <trkpt lat="44.05442" lon="7.06586">
        <ele>1734</ele>
        <time>2015-08-20T08:49:31Z</time>
      </trkpt>
      <trkpt lat="44.05443" lon="7.06586">
        <ele>1734</ele>
        <time>2015-08-20T08:49:32Z</time>
      </trkpt>
      <trkpt lat="44.05444" lon="7.06586">
        <ele>1734</ele>
        <time>2015-08-20T08:49:33Z</time>
      </trkpt>
      <trkpt lat="44.05447" lon="7.06586">
        <ele>1734</ele>
        <time>2015-08-20T08:49:37Z</time>
      </trkpt>
      <trkpt lat="44.05449" lon="7.06585">
        <ele>1734</ele>
        <time>2015-08-20T08:49:37Z</time>
      </trkpt>
      <trkpt lat="44.0545" lon="7.06584">
        <ele>1734</ele>
        <time>2015-08-20T08:49:38Z</time>
      </trkpt>
      <trkpt lat="44.05454" lon="7.06582">
        <ele>1734</ele>
        <time>2015-08-20T08:49:42Z</time>
      </trkpt>
      <trkpt lat="44.05457" lon="7.0658">
        <ele>1734</ele>
        <time>2015-08-20T08:49:48Z</time>
      </trkpt>
      <trkpt lat="44.0546" lon="7.06579">
        <ele>1734</ele>
        <time>2015-08-20T08:49:48Z</time>
      </trkpt>
      <trkpt lat="44.05462" lon="7.06579">
        <ele>1734</ele>
        <time>2015-08-20T08:49:49Z</time>
      </trkpt>
      <trkpt lat="44.05463" lon="7.06579">
        <ele>1734</ele>
        <time>2015-08-20T08:49:50Z</time>
      </trkpt>
      <trkpt lat="44.05465" lon="7.06578">
        <ele>1734</ele>
        <time>2015-08-20T08:49:54Z</time>
      </trkpt>
      <trkpt lat="44.05467" lon="7.06577">
        <ele>1734</ele>
        <time>2015-08-20T08:49:54Z</time>
      </trkpt>
      <trkpt lat="44.05473" lon="7.06575">
        <ele>1734</ele>
        <time>2015-08-20T08:49:59Z</time>
      </trkpt>
      <trkpt lat="44.05476" lon="7.06575">
        <ele>1734</ele>
        <time>2015-08-20T08:50:05Z</time>
      </trkpt>
      <trkpt lat="44.05479" lon="7.06574">
        <ele>1734</ele>
        <time>2015-08-20T08:50:05Z</time>
      </trkpt>
      <trkpt lat="44.0548" lon="7.06574">
        <ele>1734</ele>
        <time>2015-08-20T08:50:06Z</time>
      </trkpt>
      <trkpt lat="44.05482" lon="7.06574">
        <ele>1734</ele>
        <time>2015-08-20T08:50:10Z</time>
      </trkpt>
      <trkpt lat="44.05485" lon="7.06573">
        <ele>1734</ele>
        <time>2015-08-20T08:50:10Z</time>
      </trkpt>
      <trkpt lat="44.05486" lon="7.06573">
        <ele>1734</ele>
        <time>2015-08-20T08:50:11Z</time>
      </trkpt>
      <trkpt lat="44.0549" lon="7.06572">
        <ele>1734</ele>
        <time>2015-08-20T08:50:15Z</time>
      </trkpt>
      <trkpt lat="44.05492" lon="7.06572">
        <ele>1734</ele>
        <time>2015-08-20T08:50:17Z</time>
      </trkpt>
      <trkpt lat="44.05494" lon="7.06572">
        <ele>1734</ele>
        <time>2015-08-20T08:50:21Z</time>
      </trkpt>
      <trkpt lat="44.05496" lon="7.06571">
        <ele>1734</ele>
        <time>2015-08-20T08:50:21Z</time>
      </trkpt>
      <trkpt lat="44.05497" lon="7.06571">
        <ele>1734</ele>
        <time>2015-08-20T08:50:22Z</time>
      </trkpt>
      <trkpt lat="44.05502" lon="7.06571">
        <ele>1734</ele>
        <time>2015-08-20T08:50:26Z</time>
      </trkpt>
      <trkpt lat="44.05503" lon="7.06571">
        <ele>1734</ele>
        <time>2015-08-20T08:50:27Z</time>
      </trkpt>
      <trkpt lat="44.05505" lon="7.06569">
        <ele>1734</ele>
        <time>2015-08-20T08:50:32Z</time>
      </trkpt>
      <trkpt lat="44.05507" lon="7.06568">
        <ele>1734</ele>
        <time>2015-08-20T08:50:32Z</time>
      </trkpt>
      <trkpt lat="44.0551" lon="7.06567">
        <ele>1734</ele>
        <time>2015-08-20T08:50:37Z</time>
      </trkpt>
      <trkpt lat="44.05512" lon="7.06566">
        <ele>1734</ele>
        <time>2015-08-20T08:50:37Z</time>
      </trkpt>
      <trkpt lat="44.05516" lon="7.06565">
        <ele>1734</ele>
        <time>2015-08-20T08:50:42Z</time>
      </trkpt>
      <trkpt lat="44.05519" lon="7.06565">
        <ele>1734</ele>
        <time>2015-08-20T08:50:43Z</time>
      </trkpt>
      <trkpt lat="44.0552" lon="7.06565">
        <ele>1734</ele>
        <time>2015-08-20T08:50:45Z</time>
      </trkpt>
      <trkpt lat="44.05523" lon="7.06565">
        <ele>1734</ele>
        <time>2015-08-20T08:50:49Z</time>
      </trkpt>
      <trkpt lat="44.05527" lon="7.06565">
        <ele>1734</ele>
        <time>2015-08-20T08:50:49Z</time>
      </trkpt>
      <trkpt lat="44.05529" lon="7.06564">
        <ele>1734</ele>
        <time>2015-08-20T08:50:51Z</time>
      </trkpt>
      <trkpt lat="44.05531" lon="7.06562">
        <ele>1734</ele>
        <time>2015-08-20T08:50:57Z</time>
      </trkpt>
      <trkpt lat="44.05534" lon="7.06559">
        <ele>1734</ele>
        <time>2015-08-20T08:50:57Z</time>
      </trkpt>
      <trkpt lat="44.05538" lon="7.06556">
        <ele>1734</ele>
        <time>2015-08-20T08:51:01Z</time>
      </trkpt>
      <trkpt lat="44.0554" lon="7.06555">
        <ele>1734</ele>
        <time>2015-08-20T08:51:07Z</time>
      </trkpt>
      <trkpt lat="44.05544" lon="7.06554">
        <ele>1735</ele>
        <time>2015-08-20T08:51:08Z</time>
      </trkpt>
      <trkpt lat="44.05549" lon="7.0655">
        <ele>1735</ele>
        <time>2015-08-20T08:51:12Z</time>
      </trkpt>
      <trkpt lat="44.05552" lon="7.06549">
        <ele>1735</ele>
        <time>2015-08-20T08:51:18Z</time>
      </trkpt>
      <trkpt lat="44.05555" lon="7.06547">
        <ele>1735</ele>
        <time>2015-08-20T08:51:18Z</time>
      </trkpt>
      <trkpt lat="44.05557" lon="7.06546">
        <ele>1736</ele>
        <time>2015-08-20T08:51:19Z</time>
      </trkpt>
      <trkpt lat="44.05559" lon="7.06545">
        <ele>1736</ele>
        <time>2015-08-20T08:51:23Z</time>
      </trkpt>
      <trkpt lat="44.05561" lon="7.06543">
        <ele>1736</ele>
        <time>2015-08-20T08:51:23Z</time>
      </trkpt>
      <trkpt lat="44.05565" lon="7.06538">
        <ele>1736</ele>
        <time>2015-08-20T08:51:28Z</time>
      </trkpt>
      <trkpt lat="44.05566" lon="7.06537">
        <ele>1736</ele>
        <time>2015-08-20T08:51:29Z</time>
      </trkpt>
      <trkpt lat="44.05568" lon="7.06536">
        <ele>1736</ele>
        <time>2015-08-20T08:51:34Z</time>
      </trkpt>
      <trkpt lat="44.05572" lon="7.06533">
        <ele>1736</ele>
        <time>2015-08-20T08:51:34Z</time>
      </trkpt>
      <trkpt lat="44.05573" lon="7.06533">
        <ele>1736</ele>
        <time>2015-08-20T08:51:36Z</time>
      </trkpt>
      <trkpt lat="44.05575" lon="7.06534">
        <ele>1736</ele>
        <time>2015-08-20T08:51:37Z</time>
      </trkpt>
      <trkpt lat="44.05577" lon="7.06534">
        <ele>1736</ele>
        <time>2015-08-20T08:51:42Z</time>
      </trkpt>
      <trkpt lat="44.05581" lon="7.06536">
        <ele>1736</ele>
        <time>2015-08-20T08:51:42Z</time>
      </trkpt>
      <trkpt lat="44.05582" lon="7.06537">
        <ele>1736</ele>
        <time>2015-08-20T08:51:44Z</time>
      </trkpt>
      <trkpt lat="44.05585" lon="7.06539">
        <ele>1736</ele>
        <time>2015-08-20T08:51:48Z</time>
      </trkpt>
      <trkpt lat="44.05587" lon="7.0654">
        <ele>1736</ele>
        <time>2015-08-20T08:51:48Z</time>
      </trkpt>
      <trkpt lat="44.05588" lon="7.0654">
        <ele>1736</ele>
        <time>2015-08-20T08:51:49Z</time>
      </trkpt>
      <trkpt lat="44.05592" lon="7.06542">
        <ele>1736</ele>
        <time>2015-08-20T08:51:53Z</time>
      </trkpt>
      <trkpt lat="44.05593" lon="7.06543">
        <ele>1736</ele>
        <time>2015-08-20T08:51:54Z</time>
      </trkpt>
      <trkpt lat="44.05594" lon="7.06543">
        <ele>1736</ele>
        <time>2015-08-20T08:51:55Z</time>
      </trkpt>
      <trkpt lat="44.05597" lon="7.06544">
        <ele>1736</ele>
        <time>2015-08-20T08:51:59Z</time>
      </trkpt>
      <trkpt lat="44.05599" lon="7.06545">
        <ele>1736</ele>
        <time>2015-08-20T08:51:59Z</time>
      </trkpt>
      <trkpt lat="44.056" lon="7.06545">
        <ele>1736</ele>
        <time>2015-08-20T08:52:00Z</time>
      </trkpt>
      <trkpt lat="44.05604" lon="7.06546">
        <ele>1736</ele>
        <time>2015-08-20T08:52:06Z</time>
      </trkpt>
      <trkpt lat="44.05607" lon="7.06547">
        <ele>1736</ele>
        <time>2015-08-20T08:52:06Z</time>
      </trkpt>
      <trkpt lat="44.0561" lon="7.06548">
        <ele>1736</ele>
        <time>2015-08-20T08:52:12Z</time>
      </trkpt>
      <trkpt lat="44.05613" lon="7.06552">
        <ele>1736</ele>
        <time>2015-08-20T08:52:13Z</time>
      </trkpt>
      <trkpt lat="44.05614" lon="7.06553">
        <ele>1736</ele>
        <time>2015-08-20T08:52:13Z</time>
      </trkpt>
      <trkpt lat="44.05616" lon="7.06556">
        <ele>1736</ele>
        <time>2015-08-20T08:52:18Z</time>
      </trkpt>
      <trkpt lat="44.05618" lon="7.06559">
        <ele>1736</ele>
        <time>2015-08-20T08:52:18Z</time>
      </trkpt>
      <trkpt lat="44.05619" lon="7.0656">
        <ele>1737</ele>
        <time>2015-08-20T08:52:19Z</time>
      </trkpt>
      <trkpt lat="44.05622" lon="7.06561">
        <ele>1737</ele>
        <time>2015-08-20T08:52:23Z</time>
      </trkpt>
      <trkpt lat="44.05625" lon="7.06563">
        <ele>1737</ele>
        <time>2015-08-20T08:52:24Z</time>
      </trkpt>
      <trkpt lat="44.05626" lon="7.06563">
        <ele>1738</ele>
        <time>2015-08-20T08:52:25Z</time>
      </trkpt>
      <trkpt lat="44.05628" lon="7.06564">
        <ele>1738</ele>
        <time>2015-08-20T08:52:29Z</time>
      </trkpt>
      <trkpt lat="44.0563" lon="7.06565">
        <ele>1739</ele>
        <time>2015-08-20T08:52:29Z</time>
      </trkpt>
      <trkpt lat="44.05634" lon="7.06567">
        <ele>1739</ele>
        <time>2015-08-20T08:52:35Z</time>
      </trkpt>
      <trkpt lat="44.05637" lon="7.06568">
        <ele>1739</ele>
        <time>2015-08-20T08:52:35Z</time>
      </trkpt>
      <trkpt lat="44.05639" lon="7.06569">
        <ele>1739</ele>
        <time>2015-08-20T08:52:36Z</time>
      </trkpt>
      <trkpt lat="44.05641" lon="7.0657">
        <ele>1739</ele>
        <time>2015-08-20T08:52:40Z</time>
      </trkpt>
      <trkpt lat="44.05643" lon="7.0657">
        <ele>1739</ele>
        <time>2015-08-20T08:52:40Z</time>
      </trkpt>
      <trkpt lat="44.05644" lon="7.06571">
        <ele>1739</ele>
        <time>2015-08-20T08:52:41Z</time>
      </trkpt>
      <trkpt lat="44.05647" lon="7.06572">
        <ele>1739</ele>
        <time>2015-08-20T08:52:45Z</time>
      </trkpt>
      <trkpt lat="44.0565" lon="7.06574">
        <ele>1739</ele>
        <time>2015-08-20T08:52:46Z</time>
      </trkpt>
      <trkpt lat="44.05651" lon="7.06575">
        <ele>1739</ele>
        <time>2015-08-20T08:52:47Z</time>
      </trkpt>
      <trkpt lat="44.05654" lon="7.06576">
        <ele>1739</ele>
        <time>2015-08-20T08:52:51Z</time>
      </trkpt>
      <trkpt lat="44.05656" lon="7.06577">
        <ele>1739</ele>
        <time>2015-08-20T08:52:51Z</time>
      </trkpt>
      <trkpt lat="44.05658" lon="7.06577">
        <ele>1739</ele>
        <time>2015-08-20T08:52:52Z</time>
      </trkpt>
      <trkpt lat="44.0566" lon="7.06578">
        <ele>1739</ele>
        <time>2015-08-20T08:52:56Z</time>
      </trkpt>
      <trkpt lat="44.05661" lon="7.06578">
        <ele>1740</ele>
        <time>2015-08-20T08:53:06Z</time>
      </trkpt>
      <trkpt lat="44.05664" lon="7.06579">
        <ele>1740</ele>
        <time>2015-08-20T08:53:11Z</time>
      </trkpt>
      <trkpt lat="44.05668" lon="7.0658">
        <ele>1740</ele>
        <time>2015-08-20T08:53:12Z</time>
      </trkpt>
      <trkpt lat="44.05671" lon="7.0658">
        <ele>1740</ele>
        <time>2015-08-20T08:53:16Z</time>
      </trkpt>
      <trkpt lat="44.05673" lon="7.06581">
        <ele>1740</ele>
        <time>2015-08-20T08:53:16Z</time>
      </trkpt>
      <trkpt lat="44.05674" lon="7.06581">
        <ele>1740</ele>
        <time>2015-08-20T08:53:17Z</time>
      </trkpt>
      <trkpt lat="44.05676" lon="7.06581">
        <ele>1741</ele>
        <time>2015-08-20T08:53:22Z</time>
      </trkpt>
      <trkpt lat="44.0568" lon="7.06582">
        <ele>1741</ele>
        <time>2015-08-20T08:53:22Z</time>
      </trkpt>
      <trkpt lat="44.05681" lon="7.06582">
        <ele>1741</ele>
        <time>2015-08-20T08:53:23Z</time>
      </trkpt>
      <trkpt lat="44.05684" lon="7.06582">
        <ele>1741</ele>
        <time>2015-08-20T08:53:27Z</time>
      </trkpt>
      <trkpt lat="44.05686" lon="7.06583">
        <ele>1741</ele>
        <time>2015-08-20T08:53:27Z</time>
      </trkpt>
      <trkpt lat="44.05687" lon="7.06582">
        <ele>1742</ele>
        <time>2015-08-20T08:53:28Z</time>
      </trkpt>
      <trkpt lat="44.05689" lon="7.06582">
        <ele>1742</ele>
        <time>2015-08-20T08:53:32Z</time>
      </trkpt>
      <trkpt lat="44.05692" lon="7.06582">
        <ele>1742</ele>
        <time>2015-08-20T08:53:33Z</time>
      </trkpt>
      <trkpt lat="44.05693" lon="7.06582">
        <ele>1742</ele>
        <time>2015-08-20T08:53:34Z</time>
      </trkpt>
      <trkpt lat="44.05695" lon="7.06582">
        <ele>1743</ele>
        <time>2015-08-20T08:53:38Z</time>
      </trkpt>
      <trkpt lat="44.05697" lon="7.06583">
        <ele>1743</ele>
        <time>2015-08-20T08:53:39Z</time>
      </trkpt>
      <trkpt lat="44.057" lon="7.06583">
        <ele>1744</ele>
        <time>2015-08-20T08:53:43Z</time>
      </trkpt>
      <trkpt lat="44.05704" lon="7.06583">
        <ele>1744</ele>
        <time>2015-08-20T08:53:44Z</time>
      </trkpt>
      <trkpt lat="44.05705" lon="7.06584">
        <ele>1744</ele>
        <time>2015-08-20T08:53:45Z</time>
      </trkpt>
      <trkpt lat="44.05707" lon="7.06584">
        <ele>1744</ele>
        <time>2015-08-20T08:53:49Z</time>
      </trkpt>
      <trkpt lat="44.05709" lon="7.06584">
        <ele>1744</ele>
        <time>2015-08-20T08:53:49Z</time>
      </trkpt>
      <trkpt lat="44.05712" lon="7.06584">
        <ele>1744</ele>
        <time>2015-08-20T08:53:54Z</time>
      </trkpt>
      <trkpt lat="44.05715" lon="7.06584">
        <ele>1744</ele>
        <time>2015-08-20T08:53:55Z</time>
      </trkpt>
      <trkpt lat="44.05718" lon="7.06583">
        <ele>1744</ele>
        <time>2015-08-20T08:54:00Z</time>
      </trkpt>
      <trkpt lat="44.0572" lon="7.06583">
        <ele>1745</ele>
        <time>2015-08-20T08:54:01Z</time>
      </trkpt>
      <trkpt lat="44.05722" lon="7.06582">
        <ele>1745</ele>
        <time>2015-08-20T08:54:02Z</time>
      </trkpt>
      <trkpt lat="44.05724" lon="7.06582">
        <ele>1745</ele>
        <time>2015-08-20T08:54:06Z</time>
      </trkpt>
      <trkpt lat="44.05727" lon="7.06582">
        <ele>1745</ele>
        <time>2015-08-20T08:54:07Z</time>
      </trkpt>
      <trkpt lat="44.05728" lon="7.06582">
        <ele>1745</ele>
        <time>2015-08-20T08:54:09Z</time>
      </trkpt>
      <trkpt lat="44.0573" lon="7.06583">
        <ele>1745</ele>
        <time>2015-08-20T08:54:10Z</time>
      </trkpt>
      <trkpt lat="44.05734" lon="7.06584">
        <ele>1745</ele>
        <time>2015-08-20T08:54:13Z</time>
      </trkpt>
      <trkpt lat="44.05735" lon="7.06583">
        <ele>1746</ele>
        <time>2015-08-20T08:54:16Z</time>
      </trkpt>
      <trkpt lat="44.05737" lon="7.06584">
        <ele>1746</ele>
        <time>2015-08-20T08:54:21Z</time>
      </trkpt>
      <trkpt lat="44.0574" lon="7.06585">
        <ele>1746</ele>
        <time>2015-08-20T08:54:21Z</time>
      </trkpt>
      <trkpt lat="44.05742" lon="7.06586">
        <ele>1747</ele>
        <time>2015-08-20T08:54:23Z</time>
      </trkpt>
      <trkpt lat="44.05745" lon="7.06588">
        <ele>1747</ele>
        <time>2015-08-20T08:54:29Z</time>
      </trkpt>
      <trkpt lat="44.05748" lon="7.0659">
        <ele>1748</ele>
        <time>2015-08-20T08:54:29Z</time>
      </trkpt>
      <trkpt lat="44.05751" lon="7.06592">
        <ele>1748</ele>
        <time>2015-08-20T08:54:35Z</time>
      </trkpt>
      <trkpt lat="44.05754" lon="7.06593">
        <ele>1748</ele>
        <time>2015-08-20T08:54:35Z</time>
      </trkpt>
      <trkpt lat="44.05756" lon="7.06594">
        <ele>1748</ele>
        <time>2015-08-20T08:54:38Z</time>
      </trkpt>
      <trkpt lat="44.05759" lon="7.06594">
        <ele>1749</ele>
        <time>2015-08-20T08:54:41Z</time>
      </trkpt>
      <trkpt lat="44.05761" lon="7.06596">
        <ele>1749</ele>
        <time>2015-08-20T08:54:44Z</time>
      </trkpt>
      <trkpt lat="44.05765" lon="7.06599">
        <ele>1749</ele>
        <time>2015-08-20T08:54:47Z</time>
      </trkpt>
      <trkpt lat="44.05767" lon="7.06601">
        <ele>1749</ele>
        <time>2015-08-20T08:54:49Z</time>
      </trkpt>
      <trkpt lat="44.05771" lon="7.06607">
        <ele>1749</ele>
        <time>2015-08-20T08:54:54Z</time>
      </trkpt>
      <trkpt lat="44.05772" lon="7.06609">
        <ele>1749</ele>
        <time>2015-08-20T08:54:57Z</time>
      </trkpt>
      <trkpt lat="44.05774" lon="7.06611">
        <ele>1749</ele>
        <time>2015-08-20T08:55:00Z</time>
      </trkpt>
      <trkpt lat="44.05776" lon="7.06616">
        <ele>1749</ele>
        <time>2015-08-20T08:55:01Z</time>
      </trkpt>
      <trkpt lat="44.05777" lon="7.06617">
        <ele>1749</ele>
        <time>2015-08-20T08:55:02Z</time>
      </trkpt>
      <trkpt lat="44.05778" lon="7.0662">
        <ele>1749</ele>
        <time>2015-08-20T08:55:07Z</time>
      </trkpt>
      <trkpt lat="44.05782" lon="7.06624">
        <ele>1749</ele>
        <time>2015-08-20T08:55:08Z</time>
      </trkpt>
      <trkpt lat="44.05785" lon="7.06626">
        <ele>1749</ele>
        <time>2015-08-20T08:55:14Z</time>
      </trkpt>
      <trkpt lat="44.05787" lon="7.06629">
        <ele>1749</ele>
        <time>2015-08-20T08:55:14Z</time>
      </trkpt>
      <trkpt lat="44.05788" lon="7.06629">
        <ele>1749</ele>
        <time>2015-08-20T08:55:15Z</time>
      </trkpt>
      <trkpt lat="44.0579" lon="7.06631">
        <ele>1749</ele>
        <time>2015-08-20T08:55:19Z</time>
      </trkpt>
      <trkpt lat="44.05792" lon="7.06632">
        <ele>1749</ele>
        <time>2015-08-20T08:55:19Z</time>
      </trkpt>
      <trkpt lat="44.05795" lon="7.06634">
        <ele>1749</ele>
        <time>2015-08-20T08:55:24Z</time>
      </trkpt>
      <trkpt lat="44.05797" lon="7.06637">
        <ele>1749</ele>
        <time>2015-08-20T08:55:25Z</time>
      </trkpt>
      <trkpt lat="44.05799" lon="7.0664">
        <ele>1749</ele>
        <time>2015-08-20T08:55:28Z</time>
      </trkpt>
      <trkpt lat="44.05801" lon="7.06642">
        <ele>1749</ele>
        <time>2015-08-20T08:55:32Z</time>
      </trkpt>
      <trkpt lat="44.05803" lon="7.06643">
        <ele>1749</ele>
        <time>2015-08-20T08:55:32Z</time>
      </trkpt>
      <trkpt lat="44.05804" lon="7.06644">
        <ele>1749</ele>
        <time>2015-08-20T08:55:34Z</time>
      </trkpt>
      <trkpt lat="44.05805" lon="7.06645">
        <ele>1749</ele>
        <time>2015-08-20T08:55:38Z</time>
      </trkpt>
      <trkpt lat="44.05806" lon="7.06647">
        <ele>1749</ele>
        <time>2015-08-20T08:55:38Z</time>
      </trkpt>
      <trkpt lat="44.05808" lon="7.06647">
        <ele>1749</ele>
        <time>2015-08-20T08:55:50Z</time>
      </trkpt>
      <trkpt lat="44.05814" lon="7.06651">
        <ele>1749</ele>
        <time>2015-08-20T08:55:55Z</time>
      </trkpt>
      <trkpt lat="44.05816" lon="7.06652">
        <ele>1749</ele>
        <time>2015-08-20T08:55:56Z</time>
      </trkpt>
      <trkpt lat="44.05818" lon="7.06652">
        <ele>1749</ele>
        <time>2015-08-20T08:56:00Z</time>
      </trkpt>
      <trkpt lat="44.05819" lon="7.06654">
        <ele>1749</ele>
        <time>2015-08-20T08:56:00Z</time>
      </trkpt>
      <trkpt lat="44.05821" lon="7.06656">
        <ele>1749</ele>
        <time>2015-08-20T08:56:02Z</time>
      </trkpt>
      <trkpt lat="44.05822" lon="7.06658">
        <ele>1749</ele>
        <time>2015-08-20T08:56:06Z</time>
      </trkpt>
      <trkpt lat="44.05824" lon="7.06659">
        <ele>1749</ele>
        <time>2015-08-20T08:56:06Z</time>
      </trkpt>
      <trkpt lat="44.05825" lon="7.06662">
        <ele>1749</ele>
        <time>2015-08-20T08:56:09Z</time>
      </trkpt>
      <trkpt lat="44.05828" lon="7.06664">
        <ele>1749</ele>
        <time>2015-08-20T08:56:14Z</time>
      </trkpt>
      <trkpt lat="44.05831" lon="7.06669">
        <ele>1749</ele>
        <time>2015-08-20T08:56:14Z</time>
      </trkpt>
      <trkpt lat="44.05832" lon="7.06671">
        <ele>1749</ele>
        <time>2015-08-20T08:56:19Z</time>
      </trkpt>
      <trkpt lat="44.05836" lon="7.06675">
        <ele>1749</ele>
        <time>2015-08-20T08:56:19Z</time>
      </trkpt>
      <trkpt lat="44.05837" lon="7.06677">
        <ele>1749</ele>
        <time>2015-08-20T08:56:21Z</time>
      </trkpt>
      <trkpt lat="44.05839" lon="7.06679">
        <ele>1749</ele>
        <time>2015-08-20T08:56:25Z</time>
      </trkpt>
      <trkpt lat="44.0584" lon="7.0668">
        <ele>1749</ele>
        <time>2015-08-20T08:56:25Z</time>
      </trkpt>
      <trkpt lat="44.05842" lon="7.06682">
        <ele>1749</ele>
        <time>2015-08-20T08:56:27Z</time>
      </trkpt>
      <trkpt lat="44.05844" lon="7.06683">
        <ele>1749</ele>
        <time>2015-08-20T08:56:31Z</time>
      </trkpt>
      <trkpt lat="44.05846" lon="7.06684">
        <ele>1749</ele>
        <time>2015-08-20T08:56:31Z</time>
      </trkpt>
      <trkpt lat="44.05849" lon="7.06685">
        <ele>1749</ele>
        <time>2015-08-20T08:56:36Z</time>
      </trkpt>
      <trkpt lat="44.05852" lon="7.06687">
        <ele>1750</ele>
        <time>2015-08-20T08:56:37Z</time>
      </trkpt>
      <trkpt lat="44.05853" lon="7.06689">
        <ele>1750</ele>
        <time>2015-08-20T08:56:39Z</time>
      </trkpt>
      <trkpt lat="44.05854" lon="7.06691">
        <ele>1750</ele>
        <time>2015-08-20T08:56:43Z</time>
      </trkpt>
      <trkpt lat="44.05856" lon="7.06692">
        <ele>1750</ele>
        <time>2015-08-20T08:56:43Z</time>
      </trkpt>
      <trkpt lat="44.05858" lon="7.06692">
        <ele>1751</ele>
        <time>2015-08-20T08:56:46Z</time>
      </trkpt>
      <trkpt lat="44.05859" lon="7.06693">
        <ele>1751</ele>
        <time>2015-08-20T08:56:50Z</time>
      </trkpt>
      <trkpt lat="44.0586" lon="7.06695">
        <ele>1752</ele>
        <time>2015-08-20T08:56:50Z</time>
      </trkpt>
      <trkpt lat="44.05862" lon="7.06695">
        <ele>1752</ele>
        <time>2015-08-20T08:56:55Z</time>
      </trkpt>
      <trkpt lat="44.05864" lon="7.06696">
        <ele>1753</ele>
        <time>2015-08-20T08:56:56Z</time>
      </trkpt>
      <trkpt lat="44.05865" lon="7.06697">
        <ele>1754</ele>
        <time>2015-08-20T08:56:58Z</time>
      </trkpt>
      <trkpt lat="44.05867" lon="7.06697">
        <ele>1755</ele>
        <time>2015-08-20T08:57:03Z</time>
      </trkpt>
      <trkpt lat="44.05869" lon="7.06698">
        <ele>1756</ele>
        <time>2015-08-20T08:57:04Z</time>
      </trkpt>
      <trkpt lat="44.0587" lon="7.06699">
        <ele>1756</ele>
        <time>2015-08-20T08:57:06Z</time>
      </trkpt>
      <trkpt lat="44.05872" lon="7.06703">
        <ele>1756</ele>
        <time>2015-08-20T08:57:11Z</time>
      </trkpt>
      <trkpt lat="44.05873" lon="7.06704">
        <ele>1756</ele>
        <time>2015-08-20T08:57:12Z</time>
      </trkpt>
      <trkpt lat="44.05876" lon="7.06706">
        <ele>1757</ele>
        <time>2015-08-20T08:57:18Z</time>
      </trkpt>
      <trkpt lat="44.05878" lon="7.0671">
        <ele>1757</ele>
        <time>2015-08-20T08:57:19Z</time>
      </trkpt>
      <trkpt lat="44.0588" lon="7.06712">
        <ele>1758</ele>
        <time>2015-08-20T08:57:23Z</time>
      </trkpt>
      <trkpt lat="44.05882" lon="7.06715">
        <ele>1758</ele>
        <time>2015-08-20T08:57:24Z</time>
      </trkpt>
      <trkpt lat="44.05884" lon="7.06717">
        <ele>1759</ele>
        <time>2015-08-20T08:57:29Z</time>
      </trkpt>
      <trkpt lat="44.05885" lon="7.06719">
        <ele>1759</ele>
        <time>2015-08-20T08:57:30Z</time>
      </trkpt>
      <trkpt lat="44.05888" lon="7.06721">
        <ele>1759</ele>
        <time>2015-08-20T08:57:35Z</time>
      </trkpt>
      <trkpt lat="44.05889" lon="7.06723">
        <ele>1759</ele>
        <time>2015-08-20T08:57:36Z</time>
      </trkpt>
      <trkpt lat="44.0589" lon="7.06725">
        <ele>1759</ele>
        <time>2015-08-20T08:57:39Z</time>
      </trkpt>
      <trkpt lat="44.05892" lon="7.06727">
        <ele>1759</ele>
        <time>2015-08-20T08:57:42Z</time>
      </trkpt>
      <trkpt lat="44.05894" lon="7.06729">
        <ele>1760</ele>
        <time>2015-08-20T08:57:44Z</time>
      </trkpt>
      <trkpt lat="44.05896" lon="7.0673">
        <ele>1760</ele>
        <time>2015-08-20T08:57:46Z</time>
      </trkpt>
      <trkpt lat="44.05899" lon="7.06733">
        <ele>1761</ele>
        <time>2015-08-20T08:57:50Z</time>
      </trkpt>
      <trkpt lat="44.05901" lon="7.06736">
        <ele>1761</ele>
        <time>2015-08-20T08:57:56Z</time>
      </trkpt>
      <trkpt lat="44.05902" lon="7.06737">
        <ele>1761</ele>
        <time>2015-08-20T08:57:56Z</time>
      </trkpt>
      <trkpt lat="44.05904" lon="7.06738">
        <ele>1761</ele>
        <time>2015-08-20T08:57:58Z</time>
      </trkpt>
      <trkpt lat="44.05909" lon="7.0674">
        <ele>1761</ele>
        <time>2015-08-20T08:58:04Z</time>
      </trkpt>
      <trkpt lat="44.0591" lon="7.06741">
        <ele>1761</ele>
        <time>2015-08-20T08:58:06Z</time>
      </trkpt>
      <trkpt lat="44.05912" lon="7.06742">
        <ele>1761</ele>
        <time>2015-08-20T08:58:10Z</time>
      </trkpt>
      <trkpt lat="44.05913" lon="7.06744">
        <ele>1761</ele>
        <time>2015-08-20T08:58:11Z</time>
      </trkpt>
      <trkpt lat="44.05914" lon="7.06744">
        <ele>1761</ele>
        <time>2015-08-20T08:58:12Z</time>
      </trkpt>
      <trkpt lat="44.05916" lon="7.06746">
        <ele>1761</ele>
        <time>2015-08-20T08:58:17Z</time>
      </trkpt>
      <trkpt lat="44.05918" lon="7.06747">
        <ele>1761</ele>
        <time>2015-08-20T08:58:18Z</time>
      </trkpt>
      <trkpt lat="44.05922" lon="7.06752">
        <ele>1762</ele>
        <time>2015-08-20T08:58:22Z</time>
      </trkpt>
      <trkpt lat="44.05924" lon="7.06753">
        <ele>1762</ele>
        <time>2015-08-20T08:58:24Z</time>
      </trkpt>
      <trkpt lat="44.05925" lon="7.06755">
        <ele>1762</ele>
        <time>2015-08-20T08:58:30Z</time>
      </trkpt>
      <trkpt lat="44.05928" lon="7.0676">
        <ele>1762</ele>
        <time>2015-08-20T08:58:30Z</time>
      </trkpt>
      <trkpt lat="44.05928" lon="7.06763">
        <ele>1762</ele>
        <time>2015-08-20T08:58:32Z</time>
      </trkpt>
      <trkpt lat="44.05931" lon="7.06768">
        <ele>1762</ele>
        <time>2015-08-20T08:58:36Z</time>
      </trkpt>
      <trkpt lat="44.05932" lon="7.06769">
        <ele>1762</ele>
        <time>2015-08-20T08:58:37Z</time>
      </trkpt>
      <trkpt lat="44.05933" lon="7.0677">
        <ele>1762</ele>
        <time>2015-08-20T08:58:38Z</time>
      </trkpt>
      <trkpt lat="44.05935" lon="7.06773">
        <ele>1762</ele>
        <time>2015-08-20T08:58:42Z</time>
      </trkpt>
      <trkpt lat="44.05936" lon="7.06776">
        <ele>1762</ele>
        <time>2015-08-20T08:58:42Z</time>
      </trkpt>
      <trkpt lat="44.05936" lon="7.06777">
        <ele>1762</ele>
        <time>2015-08-20T08:58:43Z</time>
      </trkpt>
      <trkpt lat="44.05936" lon="7.06779">
        <ele>1762</ele>
        <time>2015-08-20T08:58:44Z</time>
      </trkpt>
      <trkpt lat="44.05938" lon="7.06782">
        <ele>1762</ele>
        <time>2015-08-20T08:58:50Z</time>
      </trkpt>
      <trkpt lat="44.0594" lon="7.06786">
        <ele>1762</ele>
        <time>2015-08-20T08:58:50Z</time>
      </trkpt>
      <trkpt lat="44.05941" lon="7.06788">
        <ele>1762</ele>
        <time>2015-08-20T08:58:55Z</time>
      </trkpt>
      <trkpt lat="44.05945" lon="7.0679">
        <ele>1762</ele>
        <time>2015-08-20T08:58:55Z</time>
      </trkpt>
      <trkpt lat="44.05947" lon="7.06791">
        <ele>1762</ele>
        <time>2015-08-20T08:58:58Z</time>
      </trkpt>
      <trkpt lat="44.05949" lon="7.06791">
        <ele>1762</ele>
        <time>2015-08-20T08:59:02Z</time>
      </trkpt>
      <trkpt lat="44.05952" lon="7.06793">
        <ele>1762</ele>
        <time>2015-08-20T08:59:02Z</time>
      </trkpt>
      <trkpt lat="44.05957" lon="7.06795">
        <ele>1762</ele>
        <time>2015-08-20T08:59:07Z</time>
      </trkpt>
      <trkpt lat="44.0596" lon="7.06796">
        <ele>1762</ele>
        <time>2015-08-20T08:59:13Z</time>
      </trkpt>
      <trkpt lat="44.05963" lon="7.06797">
        <ele>1762</ele>
        <time>2015-08-20T08:59:14Z</time>
      </trkpt>
      <trkpt lat="44.05965" lon="7.06798">
        <ele>1762</ele>
        <time>2015-08-20T08:59:15Z</time>
      </trkpt>
      <trkpt lat="44.05967" lon="7.068">
        <ele>1763</ele>
        <time>2015-08-20T08:59:21Z</time>
      </trkpt>
      <trkpt lat="44.05969" lon="7.06801">
        <ele>1764</ele>
        <time>2015-08-20T08:59:22Z</time>
      </trkpt>
      <trkpt lat="44.05971" lon="7.06802">
        <ele>1764</ele>
        <time>2015-08-20T08:59:26Z</time>
      </trkpt>
      <trkpt lat="44.05974" lon="7.06804">
        <ele>1764</ele>
        <time>2015-08-20T08:59:26Z</time>
      </trkpt>
      <trkpt lat="44.05979" lon="7.06807">
        <ele>1765</ele>
        <time>2015-08-20T08:59:31Z</time>
      </trkpt>
      <trkpt lat="44.05981" lon="7.06809">
        <ele>1765</ele>
        <time>2015-08-20T08:59:33Z</time>
      </trkpt>
      <trkpt lat="44.05983" lon="7.06811">
        <ele>1765</ele>
        <time>2015-08-20T08:59:37Z</time>
      </trkpt>
      <trkpt lat="44.05985" lon="7.06813">
        <ele>1766</ele>
        <time>2015-08-20T08:59:37Z</time>
      </trkpt>
      <trkpt lat="44.05988" lon="7.06816">
        <ele>1766</ele>
        <time>2015-08-20T08:59:43Z</time>
      </trkpt>
      <trkpt lat="44.0599" lon="7.06819">
        <ele>1766</ele>
        <time>2015-08-20T08:59:43Z</time>
      </trkpt>
      <trkpt lat="44.05991" lon="7.06821">
        <ele>1767</ele>
        <time>2015-08-20T08:59:45Z</time>
      </trkpt>
      <trkpt lat="44.05994" lon="7.06824">
        <ele>1767</ele>
        <time>2015-08-20T08:59:49Z</time>
      </trkpt>
      <trkpt lat="44.05995" lon="7.06825">
        <ele>1767</ele>
        <time>2015-08-20T08:59:50Z</time>
      </trkpt>
      <trkpt lat="44.06001" lon="7.06829">
        <ele>1767</ele>
        <time>2015-08-20T08:59:56Z</time>
      </trkpt>
      <trkpt lat="44.06006" lon="7.06831">
        <ele>1768</ele>
        <time>2015-08-20T09:00:01Z</time>
      </trkpt>
      <trkpt lat="44.06007" lon="7.06831">
        <ele>1768</ele>
        <time>2015-08-20T09:00:02Z</time>
      </trkpt>
      <trkpt lat="44.06009" lon="7.06832">
        <ele>1768</ele>
        <time>2015-08-20T09:00:07Z</time>
      </trkpt>
      <trkpt lat="44.06012" lon="7.0683">
        <ele>1768</ele>
        <time>2015-08-20T09:00:07Z</time>
      </trkpt>
      <trkpt lat="44.06014" lon="7.06829">
        <ele>1768</ele>
        <time>2015-08-20T09:00:10Z</time>
      </trkpt>
      <trkpt lat="44.06016" lon="7.06828">
        <ele>1768</ele>
        <time>2015-08-20T09:00:14Z</time>
      </trkpt>
      <trkpt lat="44.06019" lon="7.06825">
        <ele>1768</ele>
        <time>2015-08-20T09:00:14Z</time>
      </trkpt>
      <trkpt lat="44.06021" lon="7.06824">
        <ele>1769</ele>
        <time>2015-08-20T09:00:16Z</time>
      </trkpt>
      <trkpt lat="44.06022" lon="7.06823">
        <ele>1770</ele>
        <time>2015-08-20T09:00:17Z</time>
      </trkpt>
      <trkpt lat="44.06024" lon="7.06822">
        <ele>1770</ele>
        <time>2015-08-20T09:00:21Z</time>
      </trkpt>
      <trkpt lat="44.06026" lon="7.06821">
        <ele>1771</ele>
        <time>2015-08-20T09:00:21Z</time>
      </trkpt>
      <trkpt lat="44.0603" lon="7.06819">
        <ele>1772</ele>
        <time>2015-08-20T09:00:27Z</time>
      </trkpt>
      <trkpt lat="44.06033" lon="7.06817">
        <ele>1772</ele>
        <time>2015-08-20T09:00:27Z</time>
      </trkpt>
      <trkpt lat="44.06034" lon="7.06817">
        <ele>1772</ele>
        <time>2015-08-20T09:00:28Z</time>
      </trkpt>
      <trkpt lat="44.06037" lon="7.06816">
        <ele>1773</ele>
        <time>2015-08-20T09:00:33Z</time>
      </trkpt>
      <trkpt lat="44.06039" lon="7.06813">
        <ele>1773</ele>
        <time>2015-08-20T09:00:34Z</time>
      </trkpt>
      <trkpt lat="44.06041" lon="7.06812">
        <ele>1773</ele>
        <time>2015-08-20T09:00:36Z</time>
      </trkpt>
      <trkpt lat="44.06046" lon="7.06809">
        <ele>1774</ele>
        <time>2015-08-20T09:00:40Z</time>
      </trkpt>
      <trkpt lat="44.06047" lon="7.06809">
        <ele>1774</ele>
        <time>2015-08-20T09:00:41Z</time>
      </trkpt>
      <trkpt lat="44.06048" lon="7.06809">
        <ele>1774</ele>
        <time>2015-08-20T09:00:42Z</time>
      </trkpt>
      <trkpt lat="44.0605" lon="7.06808">
        <ele>1774</ele>
        <time>2015-08-20T09:00:46Z</time>
      </trkpt>
      <trkpt lat="44.06053" lon="7.06808">
        <ele>1775</ele>
        <time>2015-08-20T09:00:46Z</time>
      </trkpt>
      <trkpt lat="44.06054" lon="7.06808">
        <ele>1775</ele>
        <time>2015-08-20T09:00:47Z</time>
      </trkpt>
      <trkpt lat="44.06056" lon="7.06807">
        <ele>1775</ele>
        <time>2015-08-20T09:00:52Z</time>
      </trkpt>
      <trkpt lat="44.0606" lon="7.06805">
        <ele>1775</ele>
        <time>2015-08-20T09:00:52Z</time>
      </trkpt>
      <trkpt lat="44.06061" lon="7.06803">
        <ele>1775</ele>
        <time>2015-08-20T09:00:55Z</time>
      </trkpt>
      <trkpt lat="44.06063" lon="7.06802">
        <ele>1775</ele>
        <time>2015-08-20T09:00:59Z</time>
      </trkpt>
      <trkpt lat="44.06066" lon="7.06799">
        <ele>1775</ele>
        <time>2015-08-20T09:00:59Z</time>
      </trkpt>
      <trkpt lat="44.06068" lon="7.06797">
        <ele>1775</ele>
        <time>2015-08-20T09:01:02Z</time>
      </trkpt>
      <trkpt lat="44.0607" lon="7.06796">
        <ele>1775</ele>
        <time>2015-08-20T09:01:05Z</time>
      </trkpt>
      <trkpt lat="44.06073" lon="7.06792">
        <ele>1775</ele>
        <time>2015-08-20T09:01:06Z</time>
      </trkpt>
      <trkpt lat="44.06076" lon="7.0679">
        <ele>1775</ele>
        <time>2015-08-20T09:01:11Z</time>
      </trkpt>
      <trkpt lat="44.06078" lon="7.06788">
        <ele>1776</ele>
        <time>2015-08-20T09:01:11Z</time>
      </trkpt>
      <trkpt lat="44.06081" lon="7.06785">
        <ele>1776</ele>
        <time>2015-08-20T09:01:17Z</time>
      </trkpt>
      <trkpt lat="44.06085" lon="7.06784">
        <ele>1776</ele>
        <time>2015-08-20T09:01:17Z</time>
      </trkpt>
      <trkpt lat="44.06086" lon="7.06783">
        <ele>1776</ele>
        <time>2015-08-20T09:01:18Z</time>
      </trkpt>
      <trkpt lat="44.06087" lon="7.06783">
        <ele>1776</ele>
        <time>2015-08-20T09:01:19Z</time>
      </trkpt>
      <trkpt lat="44.06089" lon="7.06783">
        <ele>1777</ele>
        <time>2015-08-20T09:01:23Z</time>
      </trkpt>
      <trkpt lat="44.06091" lon="7.06782">
        <ele>1777</ele>
        <time>2015-08-20T09:01:23Z</time>
      </trkpt>
      <trkpt lat="44.06094" lon="7.0678">
        <ele>1778</ele>
        <time>2015-08-20T09:01:29Z</time>
      </trkpt>
      <trkpt lat="44.06096" lon="7.06779">
        <ele>1778</ele>
        <time>2015-08-20T09:01:29Z</time>
      </trkpt>
      <trkpt lat="44.061" lon="7.06778">
        <ele>1779</ele>
        <time>2015-08-20T09:01:34Z</time>
      </trkpt>
      <trkpt lat="44.06102" lon="7.06777">
        <ele>1780</ele>
        <time>2015-08-20T09:01:36Z</time>
      </trkpt>
      <trkpt lat="44.06104" lon="7.06777">
        <ele>1781</ele>
        <time>2015-08-20T09:01:40Z</time>
      </trkpt>
      <trkpt lat="44.06105" lon="7.06776">
        <ele>1782</ele>
        <time>2015-08-20T09:01:40Z</time>
      </trkpt>
      <trkpt lat="44.06107" lon="7.06775">
        <ele>1783</ele>
        <time>2015-08-20T09:01:42Z</time>
      </trkpt>
      <trkpt lat="44.06109" lon="7.06774">
        <ele>1783</ele>
        <time>2015-08-20T09:01:44Z</time>
      </trkpt>
      <trkpt lat="44.06113" lon="7.06772">
        <ele>1784</ele>
        <time>2015-08-20T09:01:48Z</time>
      </trkpt>
      <trkpt lat="44.06115" lon="7.06772">
        <ele>1785</ele>
        <time>2015-08-20T09:01:50Z</time>
      </trkpt>
      <trkpt lat="44.06116" lon="7.06771">
        <ele>1786</ele>
        <time>2015-08-20T09:01:54Z</time>
      </trkpt>
      <trkpt lat="44.06118" lon="7.0677">
        <ele>1787</ele>
        <time>2015-08-20T09:01:54Z</time>
      </trkpt>
      <trkpt lat="44.06121" lon="7.06768">
        <ele>1787</ele>
        <time>2015-08-20T09:02:00Z</time>
      </trkpt>
      <trkpt lat="44.06123" lon="7.06765">
        <ele>1788</ele>
        <time>2015-08-20T09:02:00Z</time>
      </trkpt>
      <trkpt lat="44.06127" lon="7.06761">
        <ele>1788</ele>
        <time>2015-08-20T09:02:05Z</time>
      </trkpt>
      <trkpt lat="44.06128" lon="7.06758">
        <ele>1788</ele>
        <time>2015-08-20T09:02:07Z</time>
      </trkpt>
      <trkpt lat="44.0613" lon="7.06757">
        <ele>1788</ele>
        <time>2015-08-20T09:02:11Z</time>
      </trkpt>
      <trkpt lat="44.06132" lon="7.06755">
        <ele>1788</ele>
        <time>2015-08-20T09:02:11Z</time>
      </trkpt>
      <trkpt lat="44.06134" lon="7.06752">
        <ele>1788</ele>
        <time>2015-08-20T09:02:17Z</time>
      </trkpt>
      <trkpt lat="44.06137" lon="7.0675">
        <ele>1788</ele>
        <time>2015-08-20T09:02:17Z</time>
      </trkpt>
      <trkpt lat="44.06139" lon="7.06747">
        <ele>1788</ele>
        <time>2015-08-20T09:02:22Z</time>
      </trkpt>
      <trkpt lat="44.06142" lon="7.06746">
        <ele>1788</ele>
        <time>2015-08-20T09:02:23Z</time>
      </trkpt>
      <trkpt lat="44.06145" lon="7.06743">
        <ele>1788</ele>
        <time>2015-08-20T09:02:28Z</time>
      </trkpt>
      <trkpt lat="44.06147" lon="7.06742">
        <ele>1788</ele>
        <time>2015-08-20T09:02:28Z</time>
      </trkpt>
      <trkpt lat="44.06149" lon="7.06739">
        <ele>1789</ele>
        <time>2015-08-20T09:02:34Z</time>
      </trkpt>
      <trkpt lat="44.06152" lon="7.06736">
        <ele>1789</ele>
        <time>2015-08-20T09:02:34Z</time>
      </trkpt>
      <trkpt lat="44.06153" lon="7.06734">
        <ele>1789</ele>
        <time>2015-08-20T09:02:37Z</time>
      </trkpt>
      <trkpt lat="44.06154" lon="7.06732">
        <ele>1789</ele>
        <time>2015-08-20T09:02:41Z</time>
      </trkpt>
      <trkpt lat="44.06156" lon="7.06728">
        <ele>1789</ele>
        <time>2015-08-20T09:02:41Z</time>
      </trkpt>
      <trkpt lat="44.06158" lon="7.06723">
        <ele>1790</ele>
        <time>2015-08-20T09:02:46Z</time>
      </trkpt>
      <trkpt lat="44.06161" lon="7.0672">
        <ele>1790</ele>
        <time>2015-08-20T09:02:47Z</time>
      </trkpt>
      <trkpt lat="44.06163" lon="7.06716">
        <ele>1791</ele>
        <time>2015-08-20T09:02:52Z</time>
      </trkpt>
      <trkpt lat="44.06165" lon="7.06713">
        <ele>1792</ele>
        <time>2015-08-20T09:02:52Z</time>
      </trkpt>
      <trkpt lat="44.06167" lon="7.0671">
        <ele>1793</ele>
        <time>2015-08-20T09:02:58Z</time>
      </trkpt>
      <trkpt lat="44.0617" lon="7.06706">
        <ele>1793</ele>
        <time>2015-08-20T09:02:58Z</time>
      </trkpt>
      <trkpt lat="44.06172" lon="7.06704">
        <ele>1794</ele>
        <time>2015-08-20T09:03:03Z</time>
      </trkpt>
      <trkpt lat="44.06174" lon="7.06701">
        <ele>1795</ele>
        <time>2015-08-20T09:03:04Z</time>
      </trkpt>
      <trkpt lat="44.06176" lon="7.06699">
        <ele>1796</ele>
        <time>2015-08-20T09:03:06Z</time>
      </trkpt>
      <trkpt lat="44.06178" lon="7.06696">
        <ele>1796</ele>
        <time>2015-08-20T09:03:10Z</time>
      </trkpt>
      <trkpt lat="44.06181" lon="7.06694">
        <ele>1796</ele>
        <time>2015-08-20T09:03:16Z</time>
      </trkpt>
      <trkpt lat="44.06183" lon="7.06691">
        <ele>1796</ele>
        <time>2015-08-20T09:03:17Z</time>
      </trkpt>
      <trkpt lat="44.06184" lon="7.06689">
        <ele>1797</ele>
        <time>2015-08-20T09:03:19Z</time>
      </trkpt>
      <trkpt lat="44.06188" lon="7.06682">
        <ele>1797</ele>
        <time>2015-08-20T09:03:23Z</time>
      </trkpt>
      <trkpt lat="44.06189" lon="7.0668">
        <ele>1797</ele>
        <time>2015-08-20T09:03:24Z</time>
      </trkpt>
      <trkpt lat="44.06189" lon="7.06679">
        <ele>1798</ele>
        <time>2015-08-20T09:03:26Z</time>
      </trkpt>
      <trkpt lat="44.0619" lon="7.06676">
        <ele>1798</ele>
        <time>2015-08-20T09:03:29Z</time>
      </trkpt>
      <trkpt lat="44.06192" lon="7.06672">
        <ele>1799</ele>
        <time>2015-08-20T09:03:30Z</time>
      </trkpt>
      <trkpt lat="44.06192" lon="7.0667">
        <ele>1799</ele>
        <time>2015-08-20T09:03:31Z</time>
      </trkpt>
      <trkpt lat="44.06193" lon="7.06668">
        <ele>1800</ele>
        <time>2015-08-20T09:03:35Z</time>
      </trkpt>
      <trkpt lat="44.06194" lon="7.06665">
        <ele>1800</ele>
        <time>2015-08-20T09:03:35Z</time>
      </trkpt>
      <trkpt lat="44.06194" lon="7.06662">
        <ele>1801</ele>
        <time>2015-08-20T09:03:37Z</time>
      </trkpt>
      <trkpt lat="44.06195" lon="7.06657">
        <ele>1801</ele>
        <time>2015-08-20T09:03:41Z</time>
      </trkpt>
      <trkpt lat="44.06197" lon="7.06654">
        <ele>1801</ele>
        <time>2015-08-20T09:03:44Z</time>
      </trkpt>
      <trkpt lat="44.06198" lon="7.06651">
        <ele>1801</ele>
        <time>2015-08-20T09:03:47Z</time>
      </trkpt>
      <trkpt lat="44.06199" lon="7.06647">
        <ele>1801</ele>
        <time>2015-08-20T09:03:48Z</time>
      </trkpt>
      <trkpt lat="44.06199" lon="7.06644">
        <ele>1801</ele>
        <time>2015-08-20T09:03:50Z</time>
      </trkpt>
      <trkpt lat="44.062" lon="7.06638">
        <ele>1801</ele>
        <time>2015-08-20T09:03:55Z</time>
      </trkpt>
      <trkpt lat="44.06202" lon="7.06636">
        <ele>1801</ele>
        <time>2015-08-20T09:03:58Z</time>
      </trkpt>
      <trkpt lat="44.06202" lon="7.06635">
        <ele>1801</ele>
        <time>2015-08-20T09:03:58Z</time>
      </trkpt>
      <trkpt lat="44.06202" lon="7.06633">
        <ele>1801</ele>
        <time>2015-08-20T09:03:59Z</time>
      </trkpt>
      <trkpt lat="44.06203" lon="7.06627">
        <ele>1801</ele>
        <time>2015-08-20T09:04:03Z</time>
      </trkpt>
      <trkpt lat="44.06204" lon="7.06624">
        <ele>1801</ele>
        <time>2015-08-20T09:04:05Z</time>
      </trkpt>
      <trkpt lat="44.06205" lon="7.06621">
        <ele>1801</ele>
        <time>2015-08-20T09:04:09Z</time>
      </trkpt>
      <trkpt lat="44.06206" lon="7.06617">
        <ele>1802</ele>
        <time>2015-08-20T09:04:10Z</time>
      </trkpt>
      <trkpt lat="44.06209" lon="7.0661">
        <ele>1803</ele>
        <time>2015-08-20T09:04:15Z</time>
      </trkpt>
      <trkpt lat="44.06209" lon="7.06609">
        <ele>1804</ele>
        <time>2015-08-20T09:04:16Z</time>
      </trkpt>
      <trkpt lat="44.0621" lon="7.06606">
        <ele>1804</ele>
        <time>2015-08-20T09:04:21Z</time>
      </trkpt>
      <trkpt lat="44.06212" lon="7.06601">
        <ele>1805</ele>
        <time>2015-08-20T09:04:21Z</time>
      </trkpt>
      <trkpt lat="44.06213" lon="7.066">
        <ele>1805</ele>
        <time>2015-08-20T09:04:22Z</time>
      </trkpt>
      <trkpt lat="44.06213" lon="7.06597">
        <ele>1805</ele>
        <time>2015-08-20T09:04:26Z</time>
      </trkpt>
      <trkpt lat="44.06215" lon="7.06593">
        <ele>1805</ele>
        <time>2015-08-20T09:04:27Z</time>
      </trkpt>
      <trkpt lat="44.06215" lon="7.06592">
        <ele>1805</ele>
        <time>2015-08-20T09:04:28Z</time>
      </trkpt>
      <trkpt lat="44.06218" lon="7.06585">
        <ele>1806</ele>
        <time>2015-08-20T09:04:32Z</time>
      </trkpt>
      <trkpt lat="44.06218" lon="7.06584">
        <ele>1806</ele>
        <time>2015-08-20T09:04:33Z</time>
      </trkpt>
      <trkpt lat="44.06219" lon="7.06581">
        <ele>1806</ele>
        <time>2015-08-20T09:04:38Z</time>
      </trkpt>
      <trkpt lat="44.06219" lon="7.06579">
        <ele>1807</ele>
        <time>2015-08-20T09:04:38Z</time>
      </trkpt>
      <trkpt lat="44.06219" lon="7.06575">
        <ele>1807</ele>
        <time>2015-08-20T09:04:45Z</time>
      </trkpt>
      <trkpt lat="44.0622" lon="7.06574">
        <ele>1807</ele>
        <time>2015-08-20T09:04:47Z</time>
      </trkpt>
      <trkpt lat="44.0622" lon="7.06572">
        <ele>1807</ele>
        <time>2015-08-20T09:04:47Z</time>
      </trkpt>
      <trkpt lat="44.06221" lon="7.06571">
        <ele>1807</ele>
        <time>2015-08-20T09:04:48Z</time>
      </trkpt>
      <trkpt lat="44.06221" lon="7.06569">
        <ele>1807</ele>
        <time>2015-08-20T09:04:52Z</time>
      </trkpt>
      <trkpt lat="44.0622" lon="7.06567">
        <ele>1807</ele>
        <time>2015-08-20T09:05:06Z</time>
      </trkpt>
      <trkpt lat="44.06222" lon="7.06567">
        <ele>1807</ele>
        <time>2015-08-20T09:05:21Z</time>
      </trkpt>
      <trkpt lat="44.06221" lon="7.06567">
        <ele>1807</ele>
        <time>2015-08-20T09:05:24Z</time>
      </trkpt>
      <trkpt lat="44.06221" lon="7.06564">
        <ele>1807</ele>
        <time>2015-08-20T09:05:32Z</time>
      </trkpt>
      <trkpt lat="44.06222" lon="7.06561">
        <ele>1807</ele>
        <time>2015-08-20T09:05:36Z</time>
      </trkpt>
      <trkpt lat="44.06224" lon="7.06555">
        <ele>1807</ele>
        <time>2015-08-20T09:05:37Z</time>
      </trkpt>
      <trkpt lat="44.06224" lon="7.06554">
        <ele>1807</ele>
        <time>2015-08-20T09:05:38Z</time>
      </trkpt>
      <trkpt lat="44.06225" lon="7.06547">
        <ele>1807</ele>
        <time>2015-08-20T09:05:42Z</time>
      </trkpt>
      <trkpt lat="44.06225" lon="7.06545">
        <ele>1807</ele>
        <time>2015-08-20T09:05:44Z</time>
      </trkpt>
      <trkpt lat="44.06226" lon="7.06544">
        <ele>1807</ele>
        <time>2015-08-20T09:05:44Z</time>
      </trkpt>
      <trkpt lat="44.06226" lon="7.0654">
        <ele>1807</ele>
        <time>2015-08-20T09:05:48Z</time>
      </trkpt>
      <trkpt lat="44.06227" lon="7.06535">
        <ele>1807</ele>
        <time>2015-08-20T09:05:49Z</time>
      </trkpt>
      <trkpt lat="44.06228" lon="7.06534">
        <ele>1807</ele>
        <time>2015-08-20T09:05:50Z</time>
      </trkpt>
      <trkpt lat="44.06229" lon="7.06532">
        <ele>1808</ele>
        <time>2015-08-20T09:05:51Z</time>
      </trkpt>
      <trkpt lat="44.06231" lon="7.06525">
        <ele>1808</ele>
        <time>2015-08-20T09:05:55Z</time>
      </trkpt>
      <trkpt lat="44.06231" lon="7.06524">
        <ele>1808</ele>
        <time>2015-08-20T09:05:56Z</time>
      </trkpt>
      <trkpt lat="44.06232" lon="7.06522">
        <ele>1809</ele>
        <time>2015-08-20T09:05:57Z</time>
      </trkpt>
      <trkpt lat="44.06233" lon="7.06518">
        <ele>1809</ele>
        <time>2015-08-20T09:06:01Z</time>
      </trkpt>
      <trkpt lat="44.06234" lon="7.06513">
        <ele>1809</ele>
        <time>2015-08-20T09:06:02Z</time>
      </trkpt>
      <trkpt lat="44.06235" lon="7.06511">
        <ele>1809</ele>
        <time>2015-08-20T09:06:03Z</time>
      </trkpt>
      <trkpt lat="44.06236" lon="7.06503">
        <ele>1809</ele>
        <time>2015-08-20T09:06:07Z</time>
      </trkpt>
      <trkpt lat="44.06236" lon="7.06502">
        <ele>1809</ele>
        <time>2015-08-20T09:06:08Z</time>
      </trkpt>
      <trkpt lat="44.06236" lon="7.065">
        <ele>1809</ele>
        <time>2015-08-20T09:06:09Z</time>
      </trkpt>
      <trkpt lat="44.06238" lon="7.06494">
        <ele>1809</ele>
        <time>2015-08-20T09:06:13Z</time>
      </trkpt>
      <trkpt lat="44.06238" lon="7.06492">
        <ele>1809</ele>
        <time>2015-08-20T09:06:14Z</time>
      </trkpt>
      <trkpt lat="44.06239" lon="7.06488">
        <ele>1809</ele>
        <time>2015-08-20T09:06:19Z</time>
      </trkpt>
      <trkpt lat="44.0624" lon="7.06483">
        <ele>1809</ele>
        <time>2015-08-20T09:06:19Z</time>
      </trkpt>
      <trkpt lat="44.0624" lon="7.06482">
        <ele>1809</ele>
        <time>2015-08-20T09:06:20Z</time>
      </trkpt>
      <trkpt lat="44.06241" lon="7.06478">
        <ele>1809</ele>
        <time>2015-08-20T09:06:24Z</time>
      </trkpt>
      <trkpt lat="44.06242" lon="7.06473">
        <ele>1809</ele>
        <time>2015-08-20T09:06:25Z</time>
      </trkpt>
      <trkpt lat="44.06242" lon="7.06471">
        <ele>1809</ele>
        <time>2015-08-20T09:06:26Z</time>
      </trkpt>
      <trkpt lat="44.06243" lon="7.06465">
        <ele>1810</ele>
        <time>2015-08-20T09:06:30Z</time>
      </trkpt>
      <trkpt lat="44.06243" lon="7.06463">
        <ele>1810</ele>
        <time>2015-08-20T09:06:31Z</time>
      </trkpt>
      <trkpt lat="44.06244" lon="7.0646">
        <ele>1810</ele>
        <time>2015-08-20T09:06:36Z</time>
      </trkpt>
      <trkpt lat="44.06245" lon="7.06455">
        <ele>1810</ele>
        <time>2015-08-20T09:06:36Z</time>
      </trkpt>
      <trkpt lat="44.06245" lon="7.06454">
        <ele>1811</ele>
        <time>2015-08-20T09:06:37Z</time>
      </trkpt>
      <trkpt lat="44.06245" lon="7.0645">
        <ele>1811</ele>
        <time>2015-08-20T09:06:42Z</time>
      </trkpt>
      <trkpt lat="44.06245" lon="7.06445">
        <ele>1811</ele>
        <time>2015-08-20T09:06:42Z</time>
      </trkpt>
      <trkpt lat="44.06245" lon="7.06443">
        <ele>1811</ele>
        <time>2015-08-20T09:06:43Z</time>
      </trkpt>
      <trkpt lat="44.06245" lon="7.06439">
        <ele>1811</ele>
        <time>2015-08-20T09:06:47Z</time>
      </trkpt>
      <trkpt lat="44.06245" lon="7.06434">
        <ele>1811</ele>
        <time>2015-08-20T09:06:48Z</time>
      </trkpt>
      <trkpt lat="44.06245" lon="7.06432">
        <ele>1811</ele>
        <time>2015-08-20T09:06:49Z</time>
      </trkpt>
      <trkpt lat="44.06246" lon="7.06426">
        <ele>1811</ele>
        <time>2015-08-20T09:06:53Z</time>
      </trkpt>
      <trkpt lat="44.06246" lon="7.06424">
        <ele>1812</ele>
        <time>2015-08-20T09:06:54Z</time>
      </trkpt>
      <trkpt lat="44.06247" lon="7.06421">
        <ele>1812</ele>
        <time>2015-08-20T09:06:59Z</time>
      </trkpt>
      <trkpt lat="44.06248" lon="7.06416">
        <ele>1813</ele>
        <time>2015-08-20T09:06:59Z</time>
      </trkpt>
      <trkpt lat="44.06248" lon="7.06415">
        <ele>1813</ele>
        <time>2015-08-20T09:07:00Z</time>
      </trkpt>
      <trkpt lat="44.06249" lon="7.06411">
        <ele>1813</ele>
        <time>2015-08-20T09:07:05Z</time>
      </trkpt>
      <trkpt lat="44.0625" lon="7.06406">
        <ele>1814</ele>
        <time>2015-08-20T09:07:05Z</time>
      </trkpt>
      <trkpt lat="44.0625" lon="7.06404">
        <ele>1814</ele>
        <time>2015-08-20T09:07:06Z</time>
      </trkpt>
      <trkpt lat="44.06251" lon="7.06397">
        <ele>1814</ele>
        <time>2015-08-20T09:07:10Z</time>
      </trkpt>
      <trkpt lat="44.06252" lon="7.06395">
        <ele>1815</ele>
        <time>2015-08-20T09:07:11Z</time>
      </trkpt>
      <trkpt lat="44.06252" lon="7.06392">
        <ele>1815</ele>
        <time>2015-08-20T09:07:16Z</time>
      </trkpt>
      <trkpt lat="44.06253" lon="7.06387">
        <ele>1815</ele>
        <time>2015-08-20T09:07:16Z</time>
      </trkpt>
      <trkpt lat="44.06253" lon="7.06385">
        <ele>1816</ele>
        <time>2015-08-20T09:07:17Z</time>
      </trkpt>
      <trkpt lat="44.06253" lon="7.06382">
        <ele>1816</ele>
        <time>2015-08-20T09:07:22Z</time>
      </trkpt>
      <trkpt lat="44.06253" lon="7.06377">
        <ele>1816</ele>
        <time>2015-08-20T09:07:22Z</time>
      </trkpt>
      <trkpt lat="44.06253" lon="7.06375">
        <ele>1816</ele>
        <time>2015-08-20T09:07:23Z</time>
      </trkpt>
      <trkpt lat="44.06254" lon="7.06373">
        <ele>1816</ele>
        <time>2015-08-20T09:07:24Z</time>
      </trkpt>
      <trkpt lat="44.06254" lon="7.06366">
        <ele>1816</ele>
        <time>2015-08-20T09:07:28Z</time>
      </trkpt>
      <trkpt lat="44.06254" lon="7.06364">
        <ele>1816</ele>
        <time>2015-08-20T09:07:29Z</time>
      </trkpt>
      <trkpt lat="44.06253" lon="7.06361">
        <ele>1816</ele>
        <time>2015-08-20T09:07:34Z</time>
      </trkpt>
      <trkpt lat="44.06254" lon="7.06356">
        <ele>1816</ele>
        <time>2015-08-20T09:07:34Z</time>
      </trkpt>
      <trkpt lat="44.06254" lon="7.06354">
        <ele>1817</ele>
        <time>2015-08-20T09:07:35Z</time>
      </trkpt>
      <trkpt lat="44.06254" lon="7.06351">
        <ele>1817</ele>
        <time>2015-08-20T09:07:40Z</time>
      </trkpt>
      <trkpt lat="44.06255" lon="7.06346">
        <ele>1817</ele>
        <time>2015-08-20T09:07:40Z</time>
      </trkpt>
      <trkpt lat="44.06255" lon="7.06344">
        <ele>1818</ele>
        <time>2015-08-20T09:07:41Z</time>
      </trkpt>
      <trkpt lat="44.06256" lon="7.06338">
        <ele>1818</ele>
        <time>2015-08-20T09:07:45Z</time>
      </trkpt>
      <trkpt lat="44.06256" lon="7.06336">
        <ele>1818</ele>
        <time>2015-08-20T09:07:46Z</time>
      </trkpt>
      <trkpt lat="44.06257" lon="7.06334">
        <ele>1818</ele>
        <time>2015-08-20T09:07:47Z</time>
      </trkpt>
      <trkpt lat="44.06258" lon="7.06328">
        <ele>1819</ele>
        <time>2015-08-20T09:07:51Z</time>
      </trkpt>
      <trkpt lat="44.06258" lon="7.06326">
        <ele>1819</ele>
        <time>2015-08-20T09:07:52Z</time>
      </trkpt>
      <trkpt lat="44.06259" lon="7.06322">
        <ele>1819</ele>
        <time>2015-08-20T09:07:57Z</time>
      </trkpt>
      <trkpt lat="44.0626" lon="7.06317">
        <ele>1819</ele>
        <time>2015-08-20T09:07:57Z</time>
      </trkpt>
      <trkpt lat="44.0626" lon="7.06316">
        <ele>1819</ele>
        <time>2015-08-20T09:07:58Z</time>
      </trkpt>
      <trkpt lat="44.06261" lon="7.06312">
        <ele>1819</ele>
        <time>2015-08-20T09:08:03Z</time>
      </trkpt>
      <trkpt lat="44.06262" lon="7.06307">
        <ele>1819</ele>
        <time>2015-08-20T09:08:03Z</time>
      </trkpt>
      <trkpt lat="44.06262" lon="7.06306">
        <ele>1819</ele>
        <time>2015-08-20T09:08:04Z</time>
      </trkpt>
      <trkpt lat="44.06263" lon="7.06302">
        <ele>1820</ele>
        <time>2015-08-20T09:08:08Z</time>
      </trkpt>
      <trkpt lat="44.06264" lon="7.06296">
        <ele>1820</ele>
        <time>2015-08-20T09:08:09Z</time>
      </trkpt>
      <trkpt lat="44.06265" lon="7.06295">
        <ele>1820</ele>
        <time>2015-08-20T09:08:10Z</time>
      </trkpt>
      <trkpt lat="44.06267" lon="7.06288">
        <ele>1820</ele>
        <time>2015-08-20T09:08:14Z</time>
      </trkpt>
      <trkpt lat="44.06267" lon="7.06286">
        <ele>1820</ele>
        <time>2015-08-20T09:08:15Z</time>
      </trkpt>
      <trkpt lat="44.06268" lon="7.06283">
        <ele>1820</ele>
        <time>2015-08-20T09:08:20Z</time>
      </trkpt>
      <trkpt lat="44.06268" lon="7.06278">
        <ele>1821</ele>
        <time>2015-08-20T09:08:20Z</time>
      </trkpt>
      <trkpt lat="44.06269" lon="7.06276">
        <ele>1821</ele>
        <time>2015-08-20T09:08:21Z</time>
      </trkpt>
      <trkpt lat="44.06269" lon="7.06273">
        <ele>1821</ele>
        <time>2015-08-20T09:08:26Z</time>
      </trkpt>
      <trkpt lat="44.06269" lon="7.06268">
        <ele>1822</ele>
        <time>2015-08-20T09:08:26Z</time>
      </trkpt>
      <trkpt lat="44.06269" lon="7.06266">
        <ele>1822</ele>
        <time>2015-08-20T09:08:27Z</time>
      </trkpt>
      <trkpt lat="44.0627" lon="7.06264">
        <ele>1822</ele>
        <time>2015-08-20T09:08:31Z</time>
      </trkpt>
      <trkpt lat="44.0627" lon="7.06259">
        <ele>1823</ele>
        <time>2015-08-20T09:08:32Z</time>
      </trkpt>
      <trkpt lat="44.06271" lon="7.06258">
        <ele>1823</ele>
        <time>2015-08-20T09:08:33Z</time>
      </trkpt>
      <trkpt lat="44.06271" lon="7.06252">
        <ele>1824</ele>
        <time>2015-08-20T09:08:37Z</time>
      </trkpt>
      <trkpt lat="44.06271" lon="7.0625">
        <ele>1824</ele>
        <time>2015-08-20T09:08:38Z</time>
      </trkpt>
      <trkpt lat="44.06272" lon="7.06248">
        <ele>1825</ele>
        <time>2015-08-20T09:08:43Z</time>
      </trkpt>
      <trkpt lat="44.06272" lon="7.06243">
        <ele>1825</ele>
        <time>2015-08-20T09:08:43Z</time>
      </trkpt>
      <trkpt lat="44.06272" lon="7.06241">
        <ele>1825</ele>
        <time>2015-08-20T09:08:44Z</time>
      </trkpt>
      <trkpt lat="44.06273" lon="7.06238">
        <ele>1826</ele>
        <time>2015-08-20T09:08:49Z</time>
      </trkpt>
      <trkpt lat="44.06274" lon="7.06234">
        <ele>1826</ele>
        <time>2015-08-20T09:08:49Z</time>
      </trkpt>
      <trkpt lat="44.06274" lon="7.06232">
        <ele>1826</ele>
        <time>2015-08-20T09:08:50Z</time>
      </trkpt>
      <trkpt lat="44.06274" lon="7.06231">
        <ele>1826</ele>
        <time>2015-08-20T09:08:52Z</time>
      </trkpt>
      <trkpt lat="44.06274" lon="7.06228">
        <ele>1827</ele>
        <time>2015-08-20T09:08:56Z</time>
      </trkpt>
      <trkpt lat="44.06274" lon="7.06223">
        <ele>1827</ele>
        <time>2015-08-20T09:08:56Z</time>
      </trkpt>
      <trkpt lat="44.06274" lon="7.06222">
        <ele>1828</ele>
        <time>2015-08-20T09:08:57Z</time>
      </trkpt>
      <trkpt lat="44.06275" lon="7.06215">
        <ele>1828</ele>
        <time>2015-08-20T09:09:01Z</time>
      </trkpt>
      <trkpt lat="44.06276" lon="7.06212">
        <ele>1828</ele>
        <time>2015-08-20T09:09:04Z</time>
      </trkpt>
      <trkpt lat="44.06277" lon="7.06209">
        <ele>1828</ele>
        <time>2015-08-20T09:09:08Z</time>
      </trkpt>
      <trkpt lat="44.06278" lon="7.06205">
        <ele>1829</ele>
        <time>2015-08-20T09:09:08Z</time>
      </trkpt>
      <trkpt lat="44.06278" lon="7.06203">
        <ele>1829</ele>
        <time>2015-08-20T09:09:09Z</time>
      </trkpt>
      <trkpt lat="44.06279" lon="7.062">
        <ele>1829</ele>
        <time>2015-08-20T09:09:13Z</time>
      </trkpt>
      <trkpt lat="44.0628" lon="7.06196">
        <ele>1830</ele>
        <time>2015-08-20T09:09:14Z</time>
      </trkpt>
      <trkpt lat="44.0628" lon="7.06194">
        <ele>1830</ele>
        <time>2015-08-20T09:09:15Z</time>
      </trkpt>
      <trkpt lat="44.0628" lon="7.06193">
        <ele>1830</ele>
        <time>2015-08-20T09:09:16Z</time>
      </trkpt>
      <trkpt lat="44.06282" lon="7.06187">
        <ele>1831</ele>
        <time>2015-08-20T09:09:20Z</time>
      </trkpt>
      <trkpt lat="44.06282" lon="7.06186">
        <ele>1831</ele>
        <time>2015-08-20T09:09:21Z</time>
      </trkpt>
      <trkpt lat="44.06282" lon="7.06183">
        <ele>1831</ele>
        <time>2015-08-20T09:09:26Z</time>
      </trkpt>
      <trkpt lat="44.06283" lon="7.06179">
        <ele>1832</ele>
        <time>2015-08-20T09:09:27Z</time>
      </trkpt>
      <trkpt lat="44.06283" lon="7.06175">
        <ele>1833</ele>
        <time>2015-08-20T09:09:32Z</time>
      </trkpt>
      <trkpt lat="44.06284" lon="7.06171">
        <ele>1833</ele>
        <time>2015-08-20T09:09:32Z</time>
      </trkpt>
      <trkpt lat="44.06284" lon="7.06169">
        <ele>1834</ele>
        <time>2015-08-20T09:09:34Z</time>
      </trkpt>
      <trkpt lat="44.06284" lon="7.06168">
        <ele>1834</ele>
        <time>2015-08-20T09:09:34Z</time>
      </trkpt>
      <trkpt lat="44.06285" lon="7.06165">
        <ele>1835</ele>
        <time>2015-08-20T09:09:38Z</time>
      </trkpt>
      <trkpt lat="44.06285" lon="7.0616">
        <ele>1835</ele>
        <time>2015-08-20T09:09:39Z</time>
      </trkpt>
      <trkpt lat="44.06285" lon="7.06159">
        <ele>1835</ele>
        <time>2015-08-20T09:09:40Z</time>
      </trkpt>
      <trkpt lat="44.06286" lon="7.06153">
        <ele>1836</ele>
        <time>2015-08-20T09:09:44Z</time>
      </trkpt>
      <trkpt lat="44.06286" lon="7.0615">
        <ele>1836</ele>
        <time>2015-08-20T09:09:46Z</time>
      </trkpt>
      <trkpt lat="44.06287" lon="7.06144">
        <ele>1836</ele>
        <time>2015-08-20T09:09:50Z</time>
      </trkpt>
      <trkpt lat="44.06288" lon="7.06143">
        <ele>1836</ele>
        <time>2015-08-20T09:09:51Z</time>
      </trkpt>
      <trkpt lat="44.06288" lon="7.06141">
        <ele>1836</ele>
        <time>2015-08-20T09:09:52Z</time>
      </trkpt>
      <trkpt lat="44.0629" lon="7.06135">
        <ele>1836</ele>
        <time>2015-08-20T09:09:56Z</time>
      </trkpt>
      <trkpt lat="44.0629" lon="7.06133">
        <ele>1836</ele>
        <time>2015-08-20T09:09:57Z</time>
      </trkpt>
      <trkpt lat="44.06291" lon="7.06132">
        <ele>1836</ele>
        <time>2015-08-20T09:09:58Z</time>
      </trkpt>
      <trkpt lat="44.06292" lon="7.06126">
        <ele>1837</ele>
        <time>2015-08-20T09:10:02Z</time>
      </trkpt>
      <trkpt lat="44.06293" lon="7.06124">
        <ele>1837</ele>
        <time>2015-08-20T09:10:03Z</time>
      </trkpt>
      <trkpt lat="44.06293" lon="7.06123">
        <ele>1837</ele>
        <time>2015-08-20T09:10:04Z</time>
      </trkpt>
      <trkpt lat="44.06296" lon="7.06117">
        <ele>1838</ele>
        <time>2015-08-20T09:10:08Z</time>
      </trkpt>
      <trkpt lat="44.06297" lon="7.06115">
        <ele>1838</ele>
        <time>2015-08-20T09:10:09Z</time>
      </trkpt>
      <trkpt lat="44.06298" lon="7.06113">
        <ele>1838</ele>
        <time>2015-08-20T09:10:14Z</time>
      </trkpt>
      <trkpt lat="44.06299" lon="7.06108">
        <ele>1839</ele>
        <time>2015-08-20T09:10:14Z</time>
      </trkpt>
      <trkpt lat="44.06299" lon="7.06107">
        <ele>1840</ele>
        <time>2015-08-20T09:10:15Z</time>
      </trkpt>
      <trkpt lat="44.063" lon="7.06104">
        <ele>1840</ele>
        <time>2015-08-20T09:10:20Z</time>
      </trkpt>
      <trkpt lat="44.06301" lon="7.06099">
        <ele>1840</ele>
        <time>2015-08-20T09:10:20Z</time>
      </trkpt>
      <trkpt lat="44.06302" lon="7.06097">
        <ele>1840</ele>
        <time>2015-08-20T09:10:21Z</time>
      </trkpt>
      <trkpt lat="44.06303" lon="7.06094">
        <ele>1840</ele>
        <time>2015-08-20T09:10:25Z</time>
      </trkpt>
      <trkpt lat="44.06305" lon="7.0609">
        <ele>1840</ele>
        <time>2015-08-20T09:10:26Z</time>
      </trkpt>
      <trkpt lat="44.06305" lon="7.06088">
        <ele>1840</ele>
        <time>2015-08-20T09:10:27Z</time>
      </trkpt>
      <trkpt lat="44.06306" lon="7.06081">
        <ele>1840</ele>
        <time>2015-08-20T09:10:31Z</time>
      </trkpt>
      <trkpt lat="44.06307" lon="7.0608">
        <ele>1840</ele>
        <time>2015-08-20T09:10:33Z</time>
      </trkpt>
      <trkpt lat="44.06307" lon="7.06078">
        <ele>1841</ele>
        <time>2015-08-20T09:10:33Z</time>
      </trkpt>
      <trkpt lat="44.06308" lon="7.06075">
        <ele>1841</ele>
        <time>2015-08-20T09:10:38Z</time>
      </trkpt>
      <trkpt lat="44.0631" lon="7.06071">
        <ele>1841</ele>
        <time>2015-08-20T09:10:38Z</time>
      </trkpt>
      <trkpt lat="44.0631" lon="7.06069">
        <ele>1841</ele>
        <time>2015-08-20T09:10:39Z</time>
      </trkpt>
      <trkpt lat="44.06311" lon="7.06068">
        <ele>1841</ele>
        <time>2015-08-20T09:10:40Z</time>
      </trkpt>
      <trkpt lat="44.06312" lon="7.06061">
        <ele>1842</ele>
        <time>2015-08-20T09:10:44Z</time>
      </trkpt>
      <trkpt lat="44.06313" lon="7.06059">
        <ele>1842</ele>
        <time>2015-08-20T09:10:45Z</time>
      </trkpt>
      <trkpt lat="44.06313" lon="7.06058">
        <ele>1842</ele>
        <time>2015-08-20T09:10:46Z</time>
      </trkpt>
      <trkpt lat="44.06314" lon="7.06055">
        <ele>1843</ele>
        <time>2015-08-20T09:10:50Z</time>
      </trkpt>
      <trkpt lat="44.06315" lon="7.0605">
        <ele>1843</ele>
        <time>2015-08-20T09:10:51Z</time>
      </trkpt>
      <trkpt lat="44.06315" lon="7.06049">
        <ele>1843</ele>
        <time>2015-08-20T09:10:52Z</time>
      </trkpt>
      <trkpt lat="44.06317" lon="7.06043">
        <ele>1844</ele>
        <time>2015-08-20T09:10:56Z</time>
      </trkpt>
      <trkpt lat="44.06318" lon="7.0604">
        <ele>1845</ele>
        <time>2015-08-20T09:10:59Z</time>
      </trkpt>
      <trkpt lat="44.06319" lon="7.06037">
        <ele>1845</ele>
        <time>2015-08-20T09:11:03Z</time>
      </trkpt>
      <trkpt lat="44.06321" lon="7.06034">
        <ele>1845</ele>
        <time>2015-08-20T09:11:03Z</time>
      </trkpt>
      <trkpt lat="44.06322" lon="7.06031">
        <ele>1846</ele>
        <time>2015-08-20T09:11:05Z</time>
      </trkpt>
      <trkpt lat="44.06324" lon="7.06025">
        <ele>1846</ele>
        <time>2015-08-20T09:11:10Z</time>
      </trkpt>
      <trkpt lat="44.06326" lon="7.06023">
        <ele>1847</ele>
        <time>2015-08-20T09:11:13Z</time>
      </trkpt>
      <trkpt lat="44.06328" lon="7.06018">
        <ele>1847</ele>
        <time>2015-08-20T09:11:17Z</time>
      </trkpt>
      <trkpt lat="44.06329" lon="7.06016">
        <ele>1847</ele>
        <time>2015-08-20T09:11:18Z</time>
      </trkpt>
      <trkpt lat="44.06328" lon="7.06015">
        <ele>1847</ele>
        <time>2015-08-20T09:11:19Z</time>
      </trkpt>
      <trkpt lat="44.06329" lon="7.06012">
        <ele>1847</ele>
        <time>2015-08-20T09:11:25Z</time>
      </trkpt>
      <trkpt lat="44.0633" lon="7.06006">
        <ele>1848</ele>
        <time>2015-08-20T09:11:25Z</time>
      </trkpt>
      <trkpt lat="44.06331" lon="7.06005">
        <ele>1849</ele>
        <time>2015-08-20T09:11:27Z</time>
      </trkpt>
      <trkpt lat="44.06332" lon="7.06002">
        <ele>1849</ele>
        <time>2015-08-20T09:11:31Z</time>
      </trkpt>
      <trkpt lat="44.06333" lon="7.05997">
        <ele>1850</ele>
        <time>2015-08-20T09:11:31Z</time>
      </trkpt>
      <trkpt lat="44.06334" lon="7.05995">
        <ele>1850</ele>
        <time>2015-08-20T09:11:32Z</time>
      </trkpt>
      <trkpt lat="44.06335" lon="7.05992">
        <ele>1850</ele>
        <time>2015-08-20T09:11:36Z</time>
      </trkpt>
      <trkpt lat="44.06336" lon="7.05988">
        <ele>1851</ele>
        <time>2015-08-20T09:11:37Z</time>
      </trkpt>
      <trkpt lat="44.06337" lon="7.05987">
        <ele>1851</ele>
        <time>2015-08-20T09:11:38Z</time>
      </trkpt>
      <trkpt lat="44.06339" lon="7.05981">
        <ele>1851</ele>
        <time>2015-08-20T09:11:42Z</time>
      </trkpt>
      <trkpt lat="44.06339" lon="7.0598">
        <ele>1852</ele>
        <time>2015-08-20T09:11:43Z</time>
      </trkpt>
      <trkpt lat="44.06341" lon="7.05973">
        <ele>1852</ele>
        <time>2015-08-20T09:11:48Z</time>
      </trkpt>
      <trkpt lat="44.06341" lon="7.05971">
        <ele>1853</ele>
        <time>2015-08-20T09:11:50Z</time>
      </trkpt>
      <trkpt lat="44.06341" lon="7.0597">
        <ele>1853</ele>
        <time>2015-08-20T09:11:50Z</time>
      </trkpt>
      <trkpt lat="44.06341" lon="7.05967">
        <ele>1853</ele>
        <time>2015-08-20T09:11:55Z</time>
      </trkpt>
      <trkpt lat="44.06341" lon="7.05962">
        <ele>1854</ele>
        <time>2015-08-20T09:11:55Z</time>
      </trkpt>
      <trkpt lat="44.06341" lon="7.05961">
        <ele>1854</ele>
        <time>2015-08-20T09:11:56Z</time>
      </trkpt>
      <trkpt lat="44.06341" lon="7.05958">
        <ele>1854</ele>
        <time>2015-08-20T09:12:00Z</time>
      </trkpt>
      <trkpt lat="44.06342" lon="7.05954">
        <ele>1854</ele>
        <time>2015-08-20T09:12:01Z</time>
      </trkpt>
      <trkpt lat="44.0634" lon="7.05953">
        <ele>1855</ele>
        <time>2015-08-20T09:12:08Z</time>
      </trkpt>
      <trkpt lat="44.0634" lon="7.05955">
        <ele>1854</ele>
        <time>2015-08-20T09:12:54Z</time>
      </trkpt>
      <trkpt lat="44.0634" lon="7.05958">
        <ele>1853</ele>
        <time>2015-08-20T09:13:09Z</time>
      </trkpt>
      <trkpt lat="44.0634" lon="7.05963">
        <ele>1853</ele>
        <time>2015-08-20T09:13:09Z</time>
      </trkpt>
      <trkpt lat="44.06339" lon="7.05966">
        <ele>1853</ele>
        <time>2015-08-20T09:13:14Z</time>
      </trkpt>
      <trkpt lat="44.06338" lon="7.05965">
        <ele>1851</ele>
        <time>2015-08-20T09:14:04Z</time>
      </trkpt>
      <trkpt lat="44.06338" lon="7.05963">
        <ele>1850</ele>
        <time>2015-08-20T09:14:24Z</time>
      </trkpt>
      <trkpt lat="44.06339" lon="7.05962">
        <ele>1850</ele>
        <time>2015-08-20T09:14:26Z</time>
      </trkpt>
      <trkpt lat="44.06339" lon="7.05958">
        <ele>1850</ele>
        <time>2015-08-20T09:14:32Z</time>
      </trkpt>
      <trkpt lat="44.06338" lon="7.05953">
        <ele>1850</ele>
        <time>2015-08-20T09:14:32Z</time>
      </trkpt>
      <trkpt lat="44.06336" lon="7.05953">
        <ele>1850</ele>
        <time>2015-08-20T09:14:34Z</time>
      </trkpt>
      <trkpt lat="44.06334" lon="7.05952">
        <ele>1850</ele>
        <time>2015-08-20T09:14:39Z</time>
      </trkpt>
      <trkpt lat="44.0633" lon="7.05951">
        <ele>1850</ele>
        <time>2015-08-20T09:14:40Z</time>
      </trkpt>
      <trkpt lat="44.06329" lon="7.05952">
        <ele>1850</ele>
        <time>2015-08-20T09:14:42Z</time>
      </trkpt>
      <trkpt lat="44.06326" lon="7.05952">
        <ele>1850</ele>
        <time>2015-08-20T09:14:47Z</time>
      </trkpt>
      <trkpt lat="44.06322" lon="7.05953">
        <ele>1850</ele>
        <time>2015-08-20T09:14:48Z</time>
      </trkpt>
      <trkpt lat="44.0632" lon="7.05953">
        <ele>1850</ele>
        <time>2015-08-20T09:14:52Z</time>
      </trkpt>
      <trkpt lat="44.06317" lon="7.05953">
        <ele>1850</ele>
        <time>2015-08-20T09:14:52Z</time>
      </trkpt>
      <trkpt lat="44.06316" lon="7.05953">
        <ele>1850</ele>
        <time>2015-08-20T09:14:53Z</time>
      </trkpt>
      <trkpt lat="44.06313" lon="7.05952">
        <ele>1850</ele>
        <time>2015-08-20T09:14:57Z</time>
      </trkpt>
      <trkpt lat="44.0631" lon="7.05952">
        <ele>1851</ele>
        <time>2015-08-20T09:14:58Z</time>
      </trkpt>
      <trkpt lat="44.06309" lon="7.05952">
        <ele>1851</ele>
        <time>2015-08-20T09:14:59Z</time>
      </trkpt>
      <trkpt lat="44.06307" lon="7.05953">
        <ele>1851</ele>
        <time>2015-08-20T09:15:03Z</time>
      </trkpt>
      <trkpt lat="44.06303" lon="7.05953">
        <ele>1851</ele>
        <time>2015-08-20T09:15:04Z</time>
      </trkpt>
      <trkpt lat="44.06302" lon="7.05953">
        <ele>1852</ele>
        <time>2015-08-20T09:15:05Z</time>
      </trkpt>
      <trkpt lat="44.063" lon="7.05954">
        <ele>1852</ele>
        <time>2015-08-20T09:15:09Z</time>
      </trkpt>
      <trkpt lat="44.06297" lon="7.05954">
        <ele>1852</ele>
        <time>2015-08-20T09:15:10Z</time>
      </trkpt>
      <trkpt lat="44.06295" lon="7.05954">
        <ele>1852</ele>
        <time>2015-08-20T09:15:11Z</time>
      </trkpt>
      <trkpt lat="44.06293" lon="7.05954">
        <ele>1852</ele>
        <time>2015-08-20T09:15:15Z</time>
      </trkpt>
      <trkpt lat="44.0629" lon="7.05953">
        <ele>1853</ele>
        <time>2015-08-20T09:15:16Z</time>
      </trkpt>
      <trkpt lat="44.06289" lon="7.05953">
        <ele>1853</ele>
        <time>2015-08-20T09:15:17Z</time>
      </trkpt>
      <trkpt lat="44.06287" lon="7.05953">
        <ele>1853</ele>
        <time>2015-08-20T09:15:21Z</time>
      </trkpt>
      <trkpt lat="44.06284" lon="7.05953">
        <ele>1854</ele>
        <time>2015-08-20T09:15:22Z</time>
      </trkpt>
      <trkpt lat="44.06282" lon="7.05953">
        <ele>1854</ele>
        <time>2015-08-20T09:15:23Z</time>
      </trkpt>
      <trkpt lat="44.0628" lon="7.05953">
        <ele>1854</ele>
        <time>2015-08-20T09:15:27Z</time>
      </trkpt>
      <trkpt lat="44.06277" lon="7.05953">
        <ele>1855</ele>
        <time>2015-08-20T09:15:28Z</time>
      </trkpt>
      <trkpt lat="44.06274" lon="7.05952">
        <ele>1855</ele>
        <time>2015-08-20T09:15:33Z</time>
      </trkpt>
      <trkpt lat="44.06271" lon="7.05952">
        <ele>1856</ele>
        <time>2015-08-20T09:15:34Z</time>
      </trkpt>
      <trkpt lat="44.06269" lon="7.05953">
        <ele>1856</ele>
        <time>2015-08-20T09:15:36Z</time>
      </trkpt>
      <trkpt lat="44.06265" lon="7.05956">
        <ele>1856</ele>
        <time>2015-08-20T09:15:40Z</time>
      </trkpt>
      <trkpt lat="44.06263" lon="7.05957">
        <ele>1857</ele>
        <time>2015-08-20T09:15:43Z</time>
      </trkpt>
      <trkpt lat="44.06262" lon="7.05959">
        <ele>1857</ele>
        <time>2015-08-20T09:15:47Z</time>
      </trkpt>
      <trkpt lat="44.06259" lon="7.05962">
        <ele>1858</ele>
        <time>2015-08-20T09:15:47Z</time>
      </trkpt>
      <trkpt lat="44.06256" lon="7.05964">
        <ele>1858</ele>
        <time>2015-08-20T09:15:53Z</time>
      </trkpt>
      <trkpt lat="44.06254" lon="7.05966">
        <ele>1859</ele>
        <time>2015-08-20T09:15:54Z</time>
      </trkpt>
      <trkpt lat="44.06251" lon="7.05968">
        <ele>1859</ele>
        <time>2015-08-20T09:15:59Z</time>
      </trkpt>
      <trkpt lat="44.06248" lon="7.0597">
        <ele>1859</ele>
        <time>2015-08-20T09:15:59Z</time>
      </trkpt>
      <trkpt lat="44.06246" lon="7.05972">
        <ele>1860</ele>
        <time>2015-08-20T09:16:05Z</time>
      </trkpt>
      <trkpt lat="44.06244" lon="7.05975">
        <ele>1861</ele>
        <time>2015-08-20T09:16:05Z</time>
      </trkpt>
      <trkpt lat="44.06242" lon="7.05977">
        <ele>1861</ele>
        <time>2015-08-20T09:16:11Z</time>
      </trkpt>
      <trkpt lat="44.06239" lon="7.05979">
        <ele>1862</ele>
        <time>2015-08-20T09:16:11Z</time>
      </trkpt>
      <trkpt lat="44.06237" lon="7.05982">
        <ele>1862</ele>
        <time>2015-08-20T09:16:16Z</time>
      </trkpt>
      <trkpt lat="44.06235" lon="7.05985">
        <ele>1863</ele>
        <time>2015-08-20T09:16:17Z</time>
      </trkpt>
      <trkpt lat="44.06233" lon="7.05988">
        <ele>1863</ele>
        <time>2015-08-20T09:16:22Z</time>
      </trkpt>
      <trkpt lat="44.06231" lon="7.0599">
        <ele>1864</ele>
        <time>2015-08-20T09:16:23Z</time>
      </trkpt>
      <trkpt lat="44.06229" lon="7.05994">
        <ele>1864</ele>
        <time>2015-08-20T09:16:28Z</time>
      </trkpt>
      <trkpt lat="44.06227" lon="7.05996">
        <ele>1865</ele>
        <time>2015-08-20T09:16:29Z</time>
      </trkpt>
      <trkpt lat="44.06226" lon="7.06">
        <ele>1865</ele>
        <time>2015-08-20T09:16:34Z</time>
      </trkpt>
      <trkpt lat="44.06224" lon="7.06003">
        <ele>1866</ele>
        <time>2015-08-20T09:16:35Z</time>
      </trkpt>
      <trkpt lat="44.06222" lon="7.06005">
        <ele>1866</ele>
        <time>2015-08-20T09:16:40Z</time>
      </trkpt>
      <trkpt lat="44.06219" lon="7.06006">
        <ele>1866</ele>
        <time>2015-08-20T09:16:41Z</time>
      </trkpt>
      <trkpt lat="44.06218" lon="7.06006">
        <ele>1867</ele>
        <time>2015-08-20T09:16:43Z</time>
      </trkpt>
      <trkpt lat="44.06217" lon="7.06007">
        <ele>1867</ele>
        <time>2015-08-20T09:16:49Z</time>
      </trkpt>
      <trkpt lat="44.06215" lon="7.06011">
        <ele>1867</ele>
        <time>2015-08-20T09:16:49Z</time>
      </trkpt>
      <trkpt lat="44.06213" lon="7.06014">
        <ele>1868</ele>
        <time>2015-08-20T09:16:55Z</time>
      </trkpt>
      <trkpt lat="44.06211" lon="7.06019">
        <ele>1868</ele>
        <time>2015-08-20T09:16:56Z</time>
      </trkpt>
      <trkpt lat="44.0621" lon="7.06022">
        <ele>1868</ele>
        <time>2015-08-20T09:17:01Z</time>
      </trkpt>
      <trkpt lat="44.06208" lon="7.06024">
        <ele>1869</ele>
        <time>2015-08-20T09:17:01Z</time>
      </trkpt>
      <trkpt lat="44.06207" lon="7.06025">
        <ele>1869</ele>
        <time>2015-08-20T09:17:04Z</time>
      </trkpt>
      <trkpt lat="44.06205" lon="7.06031">
        <ele>1870</ele>
        <time>2015-08-20T09:17:09Z</time>
      </trkpt>
      <trkpt lat="44.06202" lon="7.06036">
        <ele>1872</ele>
        <time>2015-08-20T09:17:33Z</time>
      </trkpt>
      <trkpt lat="44.06202" lon="7.06038">
        <ele>1872</ele>
        <time>2015-08-20T09:17:34Z</time>
      </trkpt>
      <trkpt lat="44.06202" lon="7.06041">
        <ele>1872</ele>
        <time>2015-08-20T09:17:38Z</time>
      </trkpt>
      <trkpt lat="44.06201" lon="7.06046">
        <ele>1872</ele>
        <time>2015-08-20T09:17:39Z</time>
      </trkpt>
      <trkpt lat="44.062" lon="7.0605">
        <ele>1872</ele>
        <time>2015-08-20T09:17:44Z</time>
      </trkpt>
      <trkpt lat="44.06198" lon="7.06054">
        <ele>1872</ele>
        <time>2015-08-20T09:17:45Z</time>
      </trkpt>
      <trkpt lat="44.06198" lon="7.06055">
        <ele>1872</ele>
        <time>2015-08-20T09:17:46Z</time>
      </trkpt>
      <trkpt lat="44.06197" lon="7.06058">
        <ele>1873</ele>
        <time>2015-08-20T09:17:50Z</time>
      </trkpt>
      <trkpt lat="44.06196" lon="7.06061">
        <ele>1873</ele>
        <time>2015-08-20T09:17:51Z</time>
      </trkpt>
      <trkpt lat="44.06195" lon="7.06065">
        <ele>1874</ele>
        <time>2015-08-20T09:17:57Z</time>
      </trkpt>
      <trkpt lat="44.06193" lon="7.0607">
        <ele>1874</ele>
        <time>2015-08-20T09:17:58Z</time>
      </trkpt>
      <trkpt lat="44.06193" lon="7.06072">
        <ele>1874</ele>
        <time>2015-08-20T09:18:03Z</time>
      </trkpt>
      <trkpt lat="44.06192" lon="7.06075">
        <ele>1875</ele>
        <time>2015-08-20T09:18:03Z</time>
      </trkpt>
      <trkpt lat="44.0619" lon="7.06079">
        <ele>1875</ele>
        <time>2015-08-20T09:18:09Z</time>
      </trkpt>
      <trkpt lat="44.06189" lon="7.06083">
        <ele>1876</ele>
        <time>2015-08-20T09:18:09Z</time>
      </trkpt>
      <trkpt lat="44.06189" lon="7.06086">
        <ele>1877</ele>
        <time>2015-08-20T09:18:11Z</time>
      </trkpt>
      <trkpt lat="44.06188" lon="7.06089">
        <ele>1877</ele>
        <time>2015-08-20T09:18:15Z</time>
      </trkpt>
      <trkpt lat="44.06187" lon="7.06092">
        <ele>1877</ele>
        <time>2015-08-20T09:18:16Z</time>
      </trkpt>
      <trkpt lat="44.06184" lon="7.061">
        <ele>1878</ele>
        <time>2015-08-20T09:18:22Z</time>
      </trkpt>
      <trkpt lat="44.06184" lon="7.06104">
        <ele>1878</ele>
        <time>2015-08-20T09:18:28Z</time>
      </trkpt>
      <trkpt lat="44.06182" lon="7.06108">
        <ele>1879</ele>
        <time>2015-08-20T09:18:28Z</time>
      </trkpt>
      <trkpt lat="44.06181" lon="7.06109">
        <ele>1880</ele>
        <time>2015-08-20T09:18:30Z</time>
      </trkpt>
      <trkpt lat="44.0618" lon="7.06111">
        <ele>1880</ele>
        <time>2015-08-20T09:18:36Z</time>
      </trkpt>
      <trkpt lat="44.06178" lon="7.06115">
        <ele>1881</ele>
        <time>2015-08-20T09:18:37Z</time>
      </trkpt>
      <trkpt lat="44.06176" lon="7.06119">
        <ele>1881</ele>
        <time>2015-08-20T09:18:41Z</time>
      </trkpt>
      <trkpt lat="44.06175" lon="7.06123">
        <ele>1881</ele>
        <time>2015-08-20T09:18:42Z</time>
      </trkpt>
      <trkpt lat="44.06175" lon="7.06125">
        <ele>1882</ele>
        <time>2015-08-20T09:18:43Z</time>
      </trkpt>
      <trkpt lat="44.06174" lon="7.06127">
        <ele>1882</ele>
        <time>2015-08-20T09:18:47Z</time>
      </trkpt>
      <trkpt lat="44.06173" lon="7.06131">
        <ele>1882</ele>
        <time>2015-08-20T09:18:48Z</time>
      </trkpt>
      <trkpt lat="44.06172" lon="7.06133">
        <ele>1882</ele>
        <time>2015-08-20T09:18:49Z</time>
      </trkpt>
      <trkpt lat="44.06171" lon="7.06135">
        <ele>1882</ele>
        <time>2015-08-20T09:18:53Z</time>
      </trkpt>
      <trkpt lat="44.0617" lon="7.06139">
        <ele>1883</ele>
        <time>2015-08-20T09:18:54Z</time>
      </trkpt>
      <trkpt lat="44.06169" lon="7.06143">
        <ele>1883</ele>
        <time>2015-08-20T09:18:59Z</time>
      </trkpt>
      <trkpt lat="44.06167" lon="7.06147">
        <ele>1883</ele>
        <time>2015-08-20T09:19:00Z</time>
      </trkpt>
      <trkpt lat="44.06166" lon="7.0615">
        <ele>1884</ele>
        <time>2015-08-20T09:19:05Z</time>
      </trkpt>
      <trkpt lat="44.06164" lon="7.06154">
        <ele>1884</ele>
        <time>2015-08-20T09:19:06Z</time>
      </trkpt>
      <trkpt lat="44.06163" lon="7.06157">
        <ele>1884</ele>
        <time>2015-08-20T09:19:11Z</time>
      </trkpt>
      <trkpt lat="44.06161" lon="7.06161">
        <ele>1885</ele>
        <time>2015-08-20T09:19:12Z</time>
      </trkpt>
      <trkpt lat="44.0616" lon="7.06162">
        <ele>1885</ele>
        <time>2015-08-20T09:19:13Z</time>
      </trkpt>
      <trkpt lat="44.06159" lon="7.06165">
        <ele>1885</ele>
        <time>2015-08-20T09:19:17Z</time>
      </trkpt>
      <trkpt lat="44.06157" lon="7.06168">
        <ele>1885</ele>
        <time>2015-08-20T09:19:18Z</time>
      </trkpt>
      <trkpt lat="44.06156" lon="7.06171">
        <ele>1886</ele>
        <time>2015-08-20T09:19:23Z</time>
      </trkpt>
      <trkpt lat="44.06154" lon="7.06175">
        <ele>1886</ele>
        <time>2015-08-20T09:19:24Z</time>
      </trkpt>
      <trkpt lat="44.06153" lon="7.06179">
        <ele>1887</ele>
        <time>2015-08-20T09:19:29Z</time>
      </trkpt>
      <trkpt lat="44.06151" lon="7.06182">
        <ele>1887</ele>
        <time>2015-08-20T09:19:30Z</time>
      </trkpt>
      <trkpt lat="44.0615" lon="7.06185">
        <ele>1887</ele>
        <time>2015-08-20T09:19:32Z</time>
      </trkpt>
      <trkpt lat="44.06149" lon="7.06187">
        <ele>1888</ele>
        <time>2015-08-20T09:19:36Z</time>
      </trkpt>
      <trkpt lat="44.06147" lon="7.06191">
        <ele>1888</ele>
        <time>2015-08-20T09:19:37Z</time>
      </trkpt>
      <trkpt lat="44.06145" lon="7.06194">
        <ele>1889</ele>
        <time>2015-08-20T09:19:42Z</time>
      </trkpt>
      <trkpt lat="44.06143" lon="7.06198">
        <ele>1889</ele>
        <time>2015-08-20T09:19:43Z</time>
      </trkpt>
      <trkpt lat="44.06141" lon="7.06202">
        <ele>1890</ele>
        <time>2015-08-20T09:19:48Z</time>
      </trkpt>
      <trkpt lat="44.06139" lon="7.06204">
        <ele>1890</ele>
        <time>2015-08-20T09:19:49Z</time>
      </trkpt>
      <trkpt lat="44.06137" lon="7.06206">
        <ele>1890</ele>
        <time>2015-08-20T09:19:51Z</time>
      </trkpt>
      <trkpt lat="44.06134" lon="7.06211">
        <ele>1891</ele>
        <time>2015-08-20T09:19:56Z</time>
      </trkpt>
      <trkpt lat="44.06132" lon="7.06213">
        <ele>1891</ele>
        <time>2015-08-20T09:19:58Z</time>
      </trkpt>
      <trkpt lat="44.06131" lon="7.06214">
        <ele>1891</ele>
        <time>2015-08-20T09:20:03Z</time>
      </trkpt>
      <trkpt lat="44.06127" lon="7.06215">
        <ele>1892</ele>
        <time>2015-08-20T09:20:05Z</time>
      </trkpt>
      <trkpt lat="44.06124" lon="7.06215">
        <ele>1892</ele>
        <time>2015-08-20T09:20:09Z</time>
      </trkpt>
      <trkpt lat="44.06121" lon="7.06214">
        <ele>1893</ele>
        <time>2015-08-20T09:20:10Z</time>
      </trkpt>
      <trkpt lat="44.0612" lon="7.06213">
        <ele>1893</ele>
        <time>2015-08-20T09:20:12Z</time>
      </trkpt>
      <trkpt lat="44.06118" lon="7.06212">
        <ele>1893</ele>
        <time>2015-08-20T09:20:18Z</time>
      </trkpt>
      <trkpt lat="44.06115" lon="7.06211">
        <ele>1894</ele>
        <time>2015-08-20T09:20:19Z</time>
      </trkpt>
      <trkpt lat="44.06113" lon="7.0621">
        <ele>1895</ele>
        <time>2015-08-20T09:20:20Z</time>
      </trkpt>
      <trkpt lat="44.0611" lon="7.06208">
        <ele>1895</ele>
        <time>2015-08-20T09:20:25Z</time>
      </trkpt>
      <trkpt lat="44.06108" lon="7.06207">
        <ele>1897</ele>
        <time>2015-08-20T09:20:31Z</time>
      </trkpt>
      <trkpt lat="44.06105" lon="7.06206">
        <ele>1897</ele>
        <time>2015-08-20T09:20:31Z</time>
      </trkpt>
      <trkpt lat="44.06104" lon="7.06206">
        <ele>1899</ele>
        <time>2015-08-20T09:20:33Z</time>
      </trkpt>
      <trkpt lat="44.06102" lon="7.06206">
        <ele>1899</ele>
        <time>2015-08-20T09:20:37Z</time>
      </trkpt>
      <trkpt lat="44.06099" lon="7.06205">
        <ele>1900</ele>
        <time>2015-08-20T09:20:38Z</time>
      </trkpt>
      <trkpt lat="44.06097" lon="7.06205">
        <ele>1900</ele>
        <time>2015-08-20T09:20:40Z</time>
      </trkpt>
      <trkpt lat="44.06095" lon="7.06203">
        <ele>1900</ele>
        <time>2015-08-20T09:20:45Z</time>
      </trkpt>
      <trkpt lat="44.06093" lon="7.06201">
        <ele>1901</ele>
        <time>2015-08-20T09:20:45Z</time>
      </trkpt>
      <trkpt lat="44.06092" lon="7.06201">
        <ele>1901</ele>
        <time>2015-08-20T09:20:47Z</time>
      </trkpt>
      <trkpt lat="44.0609" lon="7.062">
        <ele>1902</ele>
        <time>2015-08-20T09:20:52Z</time>
      </trkpt>
      <trkpt lat="44.06088" lon="7.06199">
        <ele>1902</ele>
        <time>2015-08-20T09:20:52Z</time>
      </trkpt>
      <trkpt lat="44.06086" lon="7.06198">
        <ele>1902</ele>
        <time>2015-08-20T09:20:54Z</time>
      </trkpt>
      <trkpt lat="44.06085" lon="7.06196">
        <ele>1903</ele>
        <time>2015-08-20T09:21:00Z</time>
      </trkpt>
      <trkpt lat="44.06082" lon="7.06193">
        <ele>1903</ele>
        <time>2015-08-20T09:21:00Z</time>
      </trkpt>
      <trkpt lat="44.0608" lon="7.06191">
        <ele>1904</ele>
        <time>2015-08-20T09:21:06Z</time>
      </trkpt>
      <trkpt lat="44.06077" lon="7.06189">
        <ele>1904</ele>
        <time>2015-08-20T09:21:07Z</time>
      </trkpt>
      <trkpt lat="44.06076" lon="7.06187">
        <ele>1905</ele>
        <time>2015-08-20T09:21:12Z</time>
      </trkpt>
      <trkpt lat="44.06074" lon="7.06185">
        <ele>1905</ele>
        <time>2015-08-20T09:21:12Z</time>
      </trkpt>
      <trkpt lat="44.06072" lon="7.06183">
        <ele>1906</ele>
        <time>2015-08-20T09:21:18Z</time>
      </trkpt>
      <trkpt lat="44.0607" lon="7.06181">
        <ele>1907</ele>
        <time>2015-08-20T09:21:18Z</time>
      </trkpt>
      <trkpt lat="44.06071" lon="7.06179">
        <ele>1907</ele>
        <time>2015-08-20T09:21:20Z</time>
      </trkpt>
      <trkpt lat="44.06072" lon="7.06176">
        <ele>1908</ele>
        <time>2015-08-20T09:21:25Z</time>
      </trkpt>
      <trkpt lat="44.06072" lon="7.06172">
        <ele>1908</ele>
        <time>2015-08-20T09:21:26Z</time>
      </trkpt>
      <trkpt lat="44.06072" lon="7.06171">
        <ele>1908</ele>
        <time>2015-08-20T09:21:27Z</time>
      </trkpt>
      <trkpt lat="44.06072" lon="7.06169">
        <ele>1908</ele>
        <time>2015-08-20T09:21:29Z</time>
      </trkpt>
      <trkpt lat="44.0607" lon="7.06166">
        <ele>1908</ele>
        <time>2015-08-20T09:21:34Z</time>
      </trkpt>
      <trkpt lat="44.06071" lon="7.06165">
        <ele>1908</ele>
        <time>2015-08-20T09:21:36Z</time>
      </trkpt>
      <trkpt lat="44.06072" lon="7.06163">
        <ele>1908</ele>
        <time>2015-08-20T09:21:41Z</time>
      </trkpt>
      <trkpt lat="44.06073" lon="7.0616">
        <ele>1908</ele>
        <time>2015-08-20T09:21:42Z</time>
      </trkpt>
      <trkpt lat="44.06074" lon="7.06158">
        <ele>1908</ele>
        <time>2015-08-20T09:21:49Z</time>
      </trkpt>
      <trkpt lat="44.06073" lon="7.06157">
        <ele>1908</ele>
        <time>2015-08-20T09:21:50Z</time>
      </trkpt>
      <trkpt lat="44.06072" lon="7.06155">
        <ele>1908</ele>
        <time>2015-08-20T09:21:52Z</time>
      </trkpt>
      <trkpt lat="44.06074" lon="7.06153">
        <ele>1909</ele>
        <time>2015-08-20T09:21:58Z</time>
      </trkpt>
      <trkpt lat="44.06075" lon="7.06151">
        <ele>1910</ele>
        <time>2015-08-20T09:22:05Z</time>
      </trkpt>
      <trkpt lat="44.06073" lon="7.06149">
        <ele>1911</ele>
        <time>2015-08-20T09:22:05Z</time>
      </trkpt>
      <trkpt lat="44.06072" lon="7.06147">
        <ele>1914</ele>
        <time>2015-08-20T09:22:12Z</time>
      </trkpt>
      <trkpt lat="44.06071" lon="7.06145">
        <ele>1915</ele>
        <time>2015-08-20T09:22:13Z</time>
      </trkpt>
      <trkpt lat="44.0607" lon="7.06143">
        <ele>1916</ele>
        <time>2015-08-20T09:22:19Z</time>
      </trkpt>
      <trkpt lat="44.06068" lon="7.06141">
        <ele>1917</ele>
        <time>2015-08-20T09:22:20Z</time>
      </trkpt>
      <trkpt lat="44.06066" lon="7.06138">
        <ele>1920</ele>
        <time>2015-08-20T09:22:26Z</time>
      </trkpt>
      <trkpt lat="44.06065" lon="7.06137">
        <ele>1920</ele>
        <time>2015-08-20T09:22:27Z</time>
      </trkpt>
      <trkpt lat="44.06063" lon="7.06135">
        <ele>1921</ele>
        <time>2015-08-20T09:22:34Z</time>
      </trkpt>
      <trkpt lat="44.06062" lon="7.06133">
        <ele>1922</ele>
        <time>2015-08-20T09:22:36Z</time>
      </trkpt>
      <trkpt lat="44.06059" lon="7.0613">
        <ele>1923</ele>
        <time>2015-08-20T09:22:43Z</time>
      </trkpt>
      <trkpt lat="44.06059" lon="7.06128">
        <ele>1925</ele>
        <time>2015-08-20T09:22:46Z</time>
      </trkpt>
      <trkpt lat="44.06059" lon="7.06126">
        <ele>1925</ele>
        <time>2015-08-20T09:22:50Z</time>
      </trkpt>
      <trkpt lat="44.06061" lon="7.06124">
        <ele>1925</ele>
        <time>2015-08-20T09:22:51Z</time>
      </trkpt>
      <trkpt lat="44.06061" lon="7.06122">
        <ele>1925</ele>
        <time>2015-08-20T09:22:54Z</time>
      </trkpt>
      <trkpt lat="44.06061" lon="7.06121">
        <ele>1925</ele>
        <time>2015-08-20T09:22:59Z</time>
      </trkpt>
      <trkpt lat="44.06061" lon="7.06119">
        <ele>1925</ele>
        <time>2015-08-20T09:23:00Z</time>
      </trkpt>
      <trkpt lat="44.0606" lon="7.06117">
        <ele>1925</ele>
        <time>2015-08-20T09:23:07Z</time>
      </trkpt>
      <trkpt lat="44.06059" lon="7.06115">
        <ele>1925</ele>
        <time>2015-08-20T09:23:08Z</time>
      </trkpt>
      <trkpt lat="44.06059" lon="7.06113">
        <ele>1925</ele>
        <time>2015-08-20T09:23:15Z</time>
      </trkpt>
      <trkpt lat="44.06059" lon="7.06111">
        <ele>1925</ele>
        <time>2015-08-20T09:23:16Z</time>
      </trkpt>
      <trkpt lat="44.06057" lon="7.0611">
        <ele>1927</ele>
        <time>2015-08-20T09:23:22Z</time>
      </trkpt>
      <trkpt lat="44.06056" lon="7.06107">
        <ele>1928</ele>
        <time>2015-08-20T09:23:23Z</time>
      </trkpt>
      <trkpt lat="44.06054" lon="7.06106">
        <ele>1930</ele>
        <time>2015-08-20T09:23:31Z</time>
      </trkpt>
      <trkpt lat="44.06052" lon="7.06105">
        <ele>1930</ele>
        <time>2015-08-20T09:23:32Z</time>
      </trkpt>
      <trkpt lat="44.06051" lon="7.061">
        <ele>1932</ele>
        <time>2015-08-20T09:23:37Z</time>
      </trkpt>
      <trkpt lat="44.06052" lon="7.06098">
        <ele>1933</ele>
        <time>2015-08-20T09:23:44Z</time>
      </trkpt>
      <trkpt lat="44.06052" lon="7.06096">
        <ele>1933</ele>
        <time>2015-08-20T09:23:46Z</time>
      </trkpt>
      <trkpt lat="44.0605" lon="7.06095">
        <ele>1935</ele>
        <time>2015-08-20T09:23:52Z</time>
      </trkpt>
      <trkpt lat="44.06049" lon="7.06092">
        <ele>1935</ele>
        <time>2015-08-20T09:23:53Z</time>
      </trkpt>
      <trkpt lat="44.06047" lon="7.06091">
        <ele>1936</ele>
        <time>2015-08-20T09:24:01Z</time>
      </trkpt>
      <trkpt lat="44.06045" lon="7.06089">
        <ele>1937</ele>
        <time>2015-08-20T09:24:02Z</time>
      </trkpt>
      <trkpt lat="44.06044" lon="7.06088">
        <ele>1938</ele>
        <time>2015-08-20T09:24:07Z</time>
      </trkpt>
      <trkpt lat="44.06044" lon="7.06084">
        <ele>1939</ele>
        <time>2015-08-20T09:24:08Z</time>
      </trkpt>
      <trkpt lat="44.06046" lon="7.06082">
        <ele>1940</ele>
        <time>2015-08-20T09:24:15Z</time>
      </trkpt>
      <trkpt lat="44.06048" lon="7.0608">
        <ele>1940</ele>
        <time>2015-08-20T09:24:16Z</time>
      </trkpt>
      <trkpt lat="44.06048" lon="7.06078">
        <ele>1941</ele>
        <time>2015-08-20T09:24:18Z</time>
      </trkpt>
      <trkpt lat="44.06049" lon="7.06076">
        <ele>1942</ele>
        <time>2015-08-20T09:24:23Z</time>
      </trkpt>
      <trkpt lat="44.06051" lon="7.06074">
        <ele>1942</ele>
        <time>2015-08-20T09:24:24Z</time>
      </trkpt>
      <trkpt lat="44.06052" lon="7.06072">
        <ele>1943</ele>
        <time>2015-08-20T09:24:26Z</time>
      </trkpt>
      <trkpt lat="44.06051" lon="7.06069">
        <ele>1943</ele>
        <time>2015-08-20T09:24:31Z</time>
      </trkpt>
      <trkpt lat="44.0605" lon="7.06069">
        <ele>1944</ele>
        <time>2015-08-20T09:24:49Z</time>
      </trkpt>
      <trkpt lat="44.06049" lon="7.06069">
        <ele>1944</ele>
        <time>2015-08-20T09:24:58Z</time>
      </trkpt>
      <trkpt lat="44.06046" lon="7.06066">
        <ele>1946</ele>
        <time>2015-08-20T09:26:31Z</time>
      </trkpt>
      <trkpt lat="44.06045" lon="7.06064">
        <ele>1947</ele>
        <time>2015-08-20T09:26:32Z</time>
      </trkpt>
      <trkpt lat="44.06044" lon="7.06061">
        <ele>1948</ele>
        <time>2015-08-20T09:26:38Z</time>
      </trkpt>
      <trkpt lat="44.06044" lon="7.06056">
        <ele>1949</ele>
        <time>2015-08-20T09:26:39Z</time>
      </trkpt>
      <trkpt lat="44.06043" lon="7.06054">
        <ele>1949</ele>
        <time>2015-08-20T09:26:43Z</time>
      </trkpt>
      <trkpt lat="44.06041" lon="7.06052">
        <ele>1950</ele>
        <time>2015-08-20T09:26:44Z</time>
      </trkpt>
      <trkpt lat="44.0604" lon="7.0605">
        <ele>1951</ele>
        <time>2015-08-20T09:26:47Z</time>
      </trkpt>
      <trkpt lat="44.06038" lon="7.06045">
        <ele>1952</ele>
        <time>2015-08-20T09:26:52Z</time>
      </trkpt>
      <trkpt lat="44.06038" lon="7.06043">
        <ele>1953</ele>
        <time>2015-08-20T09:26:54Z</time>
      </trkpt>
      <trkpt lat="44.06037" lon="7.06041">
        <ele>1953</ele>
        <time>2015-08-20T09:26:59Z</time>
      </trkpt>
      <trkpt lat="44.06036" lon="7.06038">
        <ele>1954</ele>
        <time>2015-08-20T09:27:00Z</time>
      </trkpt>
      <trkpt lat="44.06036" lon="7.06036">
        <ele>1955</ele>
        <time>2015-08-20T09:27:02Z</time>
      </trkpt>
      <trkpt lat="44.06035" lon="7.06034">
        <ele>1955</ele>
        <time>2015-08-20T09:27:06Z</time>
      </trkpt>
      <trkpt lat="44.06034" lon="7.0603">
        <ele>1956</ele>
        <time>2015-08-20T09:27:07Z</time>
      </trkpt>
      <trkpt lat="44.06034" lon="7.06028">
        <ele>1956</ele>
        <time>2015-08-20T09:27:09Z</time>
      </trkpt>
      <trkpt lat="44.06034" lon="7.06027">
        <ele>1956</ele>
        <time>2015-08-20T09:27:14Z</time>
      </trkpt>
      <trkpt lat="44.06034" lon="7.06022">
        <ele>1957</ele>
        <time>2015-08-20T09:27:16Z</time>
      </trkpt>
      <trkpt lat="44.06034" lon="7.0602">
        <ele>1957</ele>
        <time>2015-08-20T09:27:20Z</time>
      </trkpt>
      <trkpt lat="44.06034" lon="7.06017">
        <ele>1957</ele>
        <time>2015-08-20T09:27:21Z</time>
      </trkpt>
      <trkpt lat="44.06034" lon="7.06015">
        <ele>1957</ele>
        <time>2015-08-20T09:27:22Z</time>
      </trkpt>
      <trkpt lat="44.06032" lon="7.06011">
        <ele>1957</ele>
        <time>2015-08-20T09:27:29Z</time>
      </trkpt>
      <trkpt lat="44.06031" lon="7.0601">
        <ele>1958</ele>
        <time>2015-08-20T09:27:31Z</time>
      </trkpt>
      <trkpt lat="44.06031" lon="7.06008">
        <ele>1959</ele>
        <time>2015-08-20T09:27:35Z</time>
      </trkpt>
      <trkpt lat="44.06031" lon="7.06006">
        <ele>1959</ele>
        <time>2015-08-20T09:27:36Z</time>
      </trkpt>
      <trkpt lat="44.06031" lon="7.06004">
        <ele>1960</ele>
        <time>2015-08-20T09:27:38Z</time>
      </trkpt>
      <trkpt lat="44.0603" lon="7.06002">
        <ele>1961</ele>
        <time>2015-08-20T09:27:43Z</time>
      </trkpt>
      <trkpt lat="44.06028" lon="7.05999">
        <ele>1961</ele>
        <time>2015-08-20T09:27:44Z</time>
      </trkpt>
      <trkpt lat="44.06027" lon="7.05998">
        <ele>1962</ele>
        <time>2015-08-20T09:27:47Z</time>
      </trkpt>
      <trkpt lat="44.06026" lon="7.05996">
        <ele>1962</ele>
        <time>2015-08-20T09:27:52Z</time>
      </trkpt>
      <trkpt lat="44.06024" lon="7.05993">
        <ele>1962</ele>
        <time>2015-08-20T09:27:54Z</time>
      </trkpt>
      <trkpt lat="44.06023" lon="7.05991">
        <ele>1962</ele>
        <time>2015-08-20T09:27:55Z</time>
      </trkpt>
      <trkpt lat="44.06023" lon="7.05989">
        <ele>1962</ele>
        <time>2015-08-20T09:28:00Z</time>
      </trkpt>
      <trkpt lat="44.06022" lon="7.05987">
        <ele>1963</ele>
        <time>2015-08-20T09:28:00Z</time>
      </trkpt>
      <trkpt lat="44.06021" lon="7.05985">
        <ele>1964</ele>
        <time>2015-08-20T09:28:02Z</time>
      </trkpt>
      <trkpt lat="44.0602" lon="7.05983">
        <ele>1965</ele>
        <time>2015-08-20T09:28:07Z</time>
      </trkpt>
      <trkpt lat="44.0602" lon="7.05981">
        <ele>1965</ele>
        <time>2015-08-20T09:28:08Z</time>
      </trkpt>
      <trkpt lat="44.06019" lon="7.05979">
        <ele>1965</ele>
        <time>2015-08-20T09:28:11Z</time>
      </trkpt>
      <trkpt lat="44.06017" lon="7.05977">
        <ele>1965</ele>
        <time>2015-08-20T09:28:16Z</time>
      </trkpt>
      <trkpt lat="44.06016" lon="7.05974">
        <ele>1966</ele>
        <time>2015-08-20T09:28:17Z</time>
      </trkpt>
      <trkpt lat="44.06015" lon="7.05972">
        <ele>1966</ele>
        <time>2015-08-20T09:28:20Z</time>
      </trkpt>
      <trkpt lat="44.06014" lon="7.0597">
        <ele>1967</ele>
        <time>2015-08-20T09:28:25Z</time>
      </trkpt>
      <trkpt lat="44.06013" lon="7.05967">
        <ele>1967</ele>
        <time>2015-08-20T09:28:26Z</time>
      </trkpt>
      <trkpt lat="44.06012" lon="7.05965">
        <ele>1968</ele>
        <time>2015-08-20T09:28:29Z</time>
      </trkpt>
      <trkpt lat="44.06011" lon="7.05964">
        <ele>1968</ele>
        <time>2015-08-20T09:28:34Z</time>
      </trkpt>
      <trkpt lat="44.0601" lon="7.0596">
        <ele>1969</ele>
        <time>2015-08-20T09:28:35Z</time>
      </trkpt>
      <trkpt lat="44.0601" lon="7.05958">
        <ele>1969</ele>
        <time>2015-08-20T09:28:39Z</time>
      </trkpt>
      <trkpt lat="44.06009" lon="7.05956">
        <ele>1970</ele>
        <time>2015-08-20T09:28:40Z</time>
      </trkpt>
      <trkpt lat="44.06009" lon="7.05954">
        <ele>1971</ele>
        <time>2015-08-20T09:28:41Z</time>
      </trkpt>
      <trkpt lat="44.06008" lon="7.05953">
        <ele>1972</ele>
        <time>2015-08-20T09:28:46Z</time>
      </trkpt>
      <trkpt lat="44.06006" lon="7.05949">
        <ele>1972</ele>
        <time>2015-08-20T09:28:47Z</time>
      </trkpt>
      <trkpt lat="44.06006" lon="7.05947">
        <ele>1973</ele>
        <time>2015-08-20T09:28:49Z</time>
      </trkpt>
      <trkpt lat="44.06003" lon="7.05943">
        <ele>1973</ele>
        <time>2015-08-20T09:28:54Z</time>
      </trkpt>
      <trkpt lat="44.06002" lon="7.0594">
        <ele>1974</ele>
        <time>2015-08-20T09:29:00Z</time>
      </trkpt>
      <trkpt lat="44.06001" lon="7.05938">
        <ele>1975</ele>
        <time>2015-08-20T09:29:00Z</time>
      </trkpt>
      <trkpt lat="44.06" lon="7.05935">
        <ele>1976</ele>
        <time>2015-08-20T09:29:06Z</time>
      </trkpt>
      <trkpt lat="44.05998" lon="7.05932">
        <ele>1976</ele>
        <time>2015-08-20T09:29:06Z</time>
      </trkpt>
      <trkpt lat="44.05997" lon="7.0593">
        <ele>1977</ele>
        <time>2015-08-20T09:29:12Z</time>
      </trkpt>
      <trkpt lat="44.05996" lon="7.05927">
        <ele>1977</ele>
        <time>2015-08-20T09:29:13Z</time>
      </trkpt>
      <trkpt lat="44.05996" lon="7.05924">
        <ele>1978</ele>
        <time>2015-08-20T09:29:15Z</time>
      </trkpt>
      <trkpt lat="44.05995" lon="7.05922">
        <ele>1980</ele>
        <time>2015-08-20T09:29:20Z</time>
      </trkpt>
      <trkpt lat="44.05993" lon="7.05917">
        <ele>1980</ele>
        <time>2015-08-20T09:29:21Z</time>
      </trkpt>
      <trkpt lat="44.05992" lon="7.05914">
        <ele>1981</ele>
        <time>2015-08-20T09:29:27Z</time>
      </trkpt>
      <trkpt lat="44.05991" lon="7.05911">
        <ele>1981</ele>
        <time>2015-08-20T09:29:27Z</time>
      </trkpt>
      <trkpt lat="44.05991" lon="7.05908">
        <ele>1981</ele>
        <time>2015-08-20T09:29:29Z</time>
      </trkpt>
      <trkpt lat="44.05989" lon="7.05907">
        <ele>1982</ele>
        <time>2015-08-20T09:29:35Z</time>
      </trkpt>
      <trkpt lat="44.05985" lon="7.05907">
        <ele>1982</ele>
        <time>2015-08-20T09:29:36Z</time>
      </trkpt>
      <trkpt lat="44.05984" lon="7.05907">
        <ele>1982</ele>
        <time>2015-08-20T09:29:37Z</time>
      </trkpt>
      <trkpt lat="44.05982" lon="7.05907">
        <ele>1982</ele>
        <time>2015-08-20T09:29:41Z</time>
      </trkpt>
      <trkpt lat="44.05979" lon="7.05906">
        <ele>1982</ele>
        <time>2015-08-20T09:29:42Z</time>
      </trkpt>
      <trkpt lat="44.05978" lon="7.05906">
        <ele>1982</ele>
        <time>2015-08-20T09:29:43Z</time>
      </trkpt>
      <trkpt lat="44.05975" lon="7.05907">
        <ele>1982</ele>
        <time>2015-08-20T09:29:47Z</time>
      </trkpt>
      <trkpt lat="44.05972" lon="7.05907">
        <ele>1982</ele>
        <time>2015-08-20T09:29:48Z</time>
      </trkpt>
      <trkpt lat="44.0597" lon="7.05907">
        <ele>1983</ele>
        <time>2015-08-20T09:29:49Z</time>
      </trkpt>
      <trkpt lat="44.05968" lon="7.05907">
        <ele>1983</ele>
        <time>2015-08-20T09:29:53Z</time>
      </trkpt>
      <trkpt lat="44.05964" lon="7.05907">
        <ele>1983</ele>
        <time>2015-08-20T09:29:54Z</time>
      </trkpt>
      <trkpt lat="44.05963" lon="7.05907">
        <ele>1983</ele>
        <time>2015-08-20T09:29:55Z</time>
      </trkpt>
      <trkpt lat="44.05961" lon="7.05907">
        <ele>1983</ele>
        <time>2015-08-20T09:30:00Z</time>
      </trkpt>
      <trkpt lat="44.05957" lon="7.05906">
        <ele>1983</ele>
        <time>2015-08-20T09:30:00Z</time>
      </trkpt>
      <trkpt lat="44.05956" lon="7.05906">
        <ele>1983</ele>
        <time>2015-08-20T09:30:01Z</time>
      </trkpt>
      <trkpt lat="44.05952" lon="7.05904">
        <ele>1983</ele>
        <time>2015-08-20T09:30:06Z</time>
      </trkpt>
      <trkpt lat="44.05949" lon="7.05904">
        <ele>1983</ele>
        <time>2015-08-20T09:30:07Z</time>
      </trkpt>
      <trkpt lat="44.05947" lon="7.05903">
        <ele>1983</ele>
        <time>2015-08-20T09:30:09Z</time>
      </trkpt>
      <trkpt lat="44.05946" lon="7.05903">
        <ele>1983</ele>
        <time>2015-08-20T09:30:09Z</time>
      </trkpt>
      <trkpt lat="44.05944" lon="7.05903">
        <ele>1983</ele>
        <time>2015-08-20T09:30:13Z</time>
      </trkpt>
      <trkpt lat="44.05939" lon="7.05903">
        <ele>1983</ele>
        <time>2015-08-20T09:30:14Z</time>
      </trkpt>
      <trkpt lat="44.05938" lon="7.05903">
        <ele>1983</ele>
        <time>2015-08-20T09:30:15Z</time>
      </trkpt>
      <trkpt lat="44.05936" lon="7.05903">
        <ele>1983</ele>
        <time>2015-08-20T09:30:19Z</time>
      </trkpt>
      <trkpt lat="44.05932" lon="7.05903">
        <ele>1983</ele>
        <time>2015-08-20T09:30:20Z</time>
      </trkpt>
      <trkpt lat="44.0593" lon="7.05903">
        <ele>1983</ele>
        <time>2015-08-20T09:30:21Z</time>
      </trkpt>
      <trkpt lat="44.05927" lon="7.05902">
        <ele>1983</ele>
        <time>2015-08-20T09:30:26Z</time>
      </trkpt>
      <trkpt lat="44.05923" lon="7.05902">
        <ele>1983</ele>
        <time>2015-08-20T09:30:27Z</time>
      </trkpt>
      <trkpt lat="44.05922" lon="7.05902">
        <ele>1983</ele>
        <time>2015-08-20T09:30:28Z</time>
      </trkpt>
      <trkpt lat="44.05921" lon="7.05902">
        <ele>1983</ele>
        <time>2015-08-20T09:30:30Z</time>
      </trkpt>
      <trkpt lat="44.05919" lon="7.05902">
        <ele>1983</ele>
        <time>2015-08-20T09:30:34Z</time>
      </trkpt>
      <trkpt lat="44.05915" lon="7.05903">
        <ele>1983</ele>
        <time>2015-08-20T09:30:34Z</time>
      </trkpt>
      <trkpt lat="44.05914" lon="7.05903">
        <ele>1983</ele>
        <time>2015-08-20T09:30:35Z</time>
      </trkpt>
      <trkpt lat="44.05908" lon="7.05901">
        <ele>1983</ele>
        <time>2015-08-20T09:30:40Z</time>
      </trkpt>
      <trkpt lat="44.05907" lon="7.05901">
        <ele>1983</ele>
        <time>2015-08-20T09:30:41Z</time>
      </trkpt>
      <trkpt lat="44.05901" lon="7.059">
        <ele>1983</ele>
        <time>2015-08-20T09:30:46Z</time>
      </trkpt>
      <trkpt lat="44.059" lon="7.059">
        <ele>1983</ele>
        <time>2015-08-20T09:30:47Z</time>
      </trkpt>
      <trkpt lat="44.05899" lon="7.059">
        <ele>1983</ele>
        <time>2015-08-20T09:30:48Z</time>
      </trkpt>
      <trkpt lat="44.05896" lon="7.05899">
        <ele>1983</ele>
        <time>2015-08-20T09:30:52Z</time>
      </trkpt>
      <trkpt lat="44.05893" lon="7.05899">
        <ele>1983</ele>
        <time>2015-08-20T09:30:53Z</time>
      </trkpt>
      <trkpt lat="44.05891" lon="7.05899">
        <ele>1983</ele>
        <time>2015-08-20T09:30:54Z</time>
      </trkpt>
      <trkpt lat="44.0589" lon="7.05899">
        <ele>1983</ele>
        <time>2015-08-20T09:30:55Z</time>
      </trkpt>
      <trkpt lat="44.05887" lon="7.059">
        <ele>1983</ele>
        <time>2015-08-20T09:30:59Z</time>
      </trkpt>
      <trkpt lat="44.05883" lon="7.059">
        <ele>1983</ele>
        <time>2015-08-20T09:31:00Z</time>
      </trkpt>
      <trkpt lat="44.05882" lon="7.059">
        <ele>1983</ele>
        <time>2015-08-20T09:31:01Z</time>
      </trkpt>
      <trkpt lat="44.0588" lon="7.059">
        <ele>1983</ele>
        <time>2015-08-20T09:31:05Z</time>
      </trkpt>
      <trkpt lat="44.05876" lon="7.059">
        <ele>1983</ele>
        <time>2015-08-20T09:31:07Z</time>
      </trkpt>
      <trkpt lat="44.05875" lon="7.059">
        <ele>1983</ele>
        <time>2015-08-20T09:31:08Z</time>
      </trkpt>
      <trkpt lat="44.05874" lon="7.059">
        <ele>1983</ele>
        <time>2015-08-20T09:31:09Z</time>
      </trkpt>
      <trkpt lat="44.05872" lon="7.05899">
        <ele>1983</ele>
        <time>2015-08-20T09:31:13Z</time>
      </trkpt>
      <trkpt lat="44.05869" lon="7.05899">
        <ele>1983</ele>
        <time>2015-08-20T09:31:13Z</time>
      </trkpt>
      <trkpt lat="44.05868" lon="7.059">
        <ele>1983</ele>
        <time>2015-08-20T09:31:14Z</time>
      </trkpt>
      <trkpt lat="44.05867" lon="7.05899">
        <ele>1983</ele>
        <time>2015-08-20T09:31:15Z</time>
      </trkpt>
      <trkpt lat="44.05864" lon="7.05899">
        <ele>1983</ele>
        <time>2015-08-20T09:31:20Z</time>
      </trkpt>
      <trkpt lat="44.0586" lon="7.05899">
        <ele>1983</ele>
        <time>2015-08-20T09:31:21Z</time>
      </trkpt>
      <trkpt lat="44.05858" lon="7.05898">
        <ele>1983</ele>
        <time>2015-08-20T09:31:23Z</time>
      </trkpt>
      <trkpt lat="44.05856" lon="7.05899">
        <ele>1983</ele>
        <time>2015-08-20T09:31:27Z</time>
      </trkpt>
      <trkpt lat="44.05853" lon="7.05899">
        <ele>1983</ele>
        <time>2015-08-20T09:31:28Z</time>
      </trkpt>
      <trkpt lat="44.05849" lon="7.05899">
        <ele>1983</ele>
        <time>2015-08-20T09:31:34Z</time>
      </trkpt>
      <trkpt lat="44.05846" lon="7.05899">
        <ele>1983</ele>
        <time>2015-08-20T09:31:34Z</time>
      </trkpt>
      <trkpt lat="44.05843" lon="7.05901">
        <ele>1983</ele>
        <time>2015-08-20T09:31:40Z</time>
      </trkpt>
      <trkpt lat="44.05842" lon="7.05901">
        <ele>1983</ele>
        <time>2015-08-20T09:31:47Z</time>
      </trkpt>
      <trkpt lat="44.05842" lon="7.05899">
        <ele>1984</ele>
        <time>2015-08-20T09:31:50Z</time>
      </trkpt>
      <trkpt lat="44.05838" lon="7.05897">
        <ele>1991</ele>
        <time>2015-08-20T09:31:57Z</time>
      </trkpt>
      <trkpt lat="44.05837" lon="7.05894">
        <ele>1991</ele>
        <time>2015-08-20T09:32:01Z</time>
      </trkpt>
      <trkpt lat="44.05835" lon="7.05893">
        <ele>1991</ele>
        <time>2015-08-20T09:32:09Z</time>
      </trkpt>
      <trkpt lat="44.05834" lon="7.05891">
        <ele>1991</ele>
        <time>2015-08-20T09:32:13Z</time>
      </trkpt>
      <trkpt lat="44.05832" lon="7.05888">
        <ele>1991</ele>
        <time>2015-08-20T09:32:14Z</time>
      </trkpt>
      <trkpt lat="44.05831" lon="7.05885">
        <ele>1991</ele>
        <time>2015-08-20T09:32:16Z</time>
      </trkpt>
      <trkpt lat="44.05829" lon="7.05883">
        <ele>1991</ele>
        <time>2015-08-20T09:32:20Z</time>
      </trkpt>
      <trkpt lat="44.05827" lon="7.05879">
        <ele>1991</ele>
        <time>2015-08-20T09:32:21Z</time>
      </trkpt>
      <trkpt lat="44.05827" lon="7.05877">
        <ele>1991</ele>
        <time>2015-08-20T09:32:22Z</time>
      </trkpt>
      <trkpt lat="44.05826" lon="7.05875">
        <ele>1991</ele>
        <time>2015-08-20T09:32:23Z</time>
      </trkpt>
      <trkpt lat="44.05823" lon="7.05874">
        <ele>1991</ele>
        <time>2015-08-20T09:32:28Z</time>
      </trkpt>
      <trkpt lat="44.05818" lon="7.05873">
        <ele>1991</ele>
        <time>2015-08-20T09:32:29Z</time>
      </trkpt>
      <trkpt lat="44.05817" lon="7.05873">
        <ele>1991</ele>
        <time>2015-08-20T09:32:30Z</time>
      </trkpt>
      <trkpt lat="44.05814" lon="7.05873">
        <ele>1991</ele>
        <time>2015-08-20T09:32:35Z</time>
      </trkpt>
      <trkpt lat="44.05808" lon="7.05873">
        <ele>1991</ele>
        <time>2015-08-20T09:32:36Z</time>
      </trkpt>
      <trkpt lat="44.05807" lon="7.05872">
        <ele>1991</ele>
        <time>2015-08-20T09:32:37Z</time>
      </trkpt>
      <trkpt lat="44.05806" lon="7.05872">
        <ele>1991</ele>
        <time>2015-08-20T09:32:38Z</time>
      </trkpt>
      <trkpt lat="44.05804" lon="7.0587">
        <ele>1991</ele>
        <time>2015-08-20T09:32:43Z</time>
      </trkpt>
      <trkpt lat="44.05799" lon="7.05871">
        <ele>1991</ele>
        <time>2015-08-20T09:32:44Z</time>
      </trkpt>
      <trkpt lat="44.05797" lon="7.0587">
        <ele>1991</ele>
        <time>2015-08-20T09:32:45Z</time>
      </trkpt>
      <trkpt lat="44.05796" lon="7.0587">
        <ele>1991</ele>
        <time>2015-08-20T09:32:46Z</time>
      </trkpt>
      <trkpt lat="44.05794" lon="7.0587">
        <ele>1990</ele>
        <time>2015-08-20T09:32:50Z</time>
      </trkpt>
      <trkpt lat="44.05791" lon="7.0587">
        <ele>1989</ele>
        <time>2015-08-20T09:32:51Z</time>
      </trkpt>
      <trkpt lat="44.05789" lon="7.05871">
        <ele>1988</ele>
        <time>2015-08-20T09:32:53Z</time>
      </trkpt>
      <trkpt lat="44.05787" lon="7.05871">
        <ele>1988</ele>
        <time>2015-08-20T09:32:57Z</time>
      </trkpt>
      <trkpt lat="44.05785" lon="7.0587">
        <ele>1987</ele>
        <time>2015-08-20T09:32:58Z</time>
      </trkpt>
      <trkpt lat="44.05783" lon="7.0587">
        <ele>1986</ele>
        <time>2015-08-20T09:33:00Z</time>
      </trkpt>
      <trkpt lat="44.05782" lon="7.05869">
        <ele>1986</ele>
        <time>2015-08-20T09:33:05Z</time>
      </trkpt>
      <trkpt lat="44.05778" lon="7.05866">
        <ele>1985</ele>
        <time>2015-08-20T09:33:06Z</time>
      </trkpt>
      <trkpt lat="44.05775" lon="7.05864">
        <ele>1984</ele>
        <time>2015-08-20T09:33:11Z</time>
      </trkpt>
      <trkpt lat="44.05773" lon="7.0586">
        <ele>1983</ele>
        <time>2015-08-20T09:33:12Z</time>
      </trkpt>
      <trkpt lat="44.05771" lon="7.05859">
        <ele>1981</ele>
        <time>2015-08-20T09:33:14Z</time>
      </trkpt>
      <trkpt lat="44.05765" lon="7.05855">
        <ele>1980</ele>
        <time>2015-08-20T09:33:19Z</time>
      </trkpt>
      <trkpt lat="44.05764" lon="7.05854">
        <ele>1979</ele>
        <time>2015-08-20T09:33:20Z</time>
      </trkpt>
      <trkpt lat="44.05761" lon="7.05853">
        <ele>1978</ele>
        <time>2015-08-20T09:33:25Z</time>
      </trkpt>
      <trkpt lat="44.05758" lon="7.05849">
        <ele>1977</ele>
        <time>2015-08-20T09:33:26Z</time>
      </trkpt>
      <trkpt lat="44.05756" lon="7.05847">
        <ele>1976</ele>
        <time>2015-08-20T09:33:28Z</time>
      </trkpt>
      <trkpt lat="44.05754" lon="7.05844">
        <ele>1975</ele>
        <time>2015-08-20T09:33:32Z</time>
      </trkpt>
      <trkpt lat="44.05751" lon="7.0584">
        <ele>1975</ele>
        <time>2015-08-20T09:33:33Z</time>
      </trkpt>
      <trkpt lat="44.05748" lon="7.05837">
        <ele>1974</ele>
        <time>2015-08-20T09:33:38Z</time>
      </trkpt>
      <trkpt lat="44.05744" lon="7.05833">
        <ele>1974</ele>
        <time>2015-08-20T09:33:39Z</time>
      </trkpt>
      <trkpt lat="44.05743" lon="7.05832">
        <ele>1973</ele>
        <time>2015-08-20T09:33:40Z</time>
      </trkpt>
      <trkpt lat="44.05741" lon="7.0583">
        <ele>1973</ele>
        <time>2015-08-20T09:33:44Z</time>
      </trkpt>
      <trkpt lat="44.05738" lon="7.05826">
        <ele>1972</ele>
        <time>2015-08-20T09:33:45Z</time>
      </trkpt>
      <trkpt lat="44.05736" lon="7.05825">
        <ele>1972</ele>
        <time>2015-08-20T09:33:46Z</time>
      </trkpt>
      <trkpt lat="44.05734" lon="7.05823">
        <ele>1971</ele>
        <time>2015-08-20T09:33:50Z</time>
      </trkpt>
      <trkpt lat="44.0573" lon="7.05821">
        <ele>1971</ele>
        <time>2015-08-20T09:33:51Z</time>
      </trkpt>
      <trkpt lat="44.05729" lon="7.0582">
        <ele>1970</ele>
        <time>2015-08-20T09:33:52Z</time>
      </trkpt>
      <trkpt lat="44.05722" lon="7.05817">
        <ele>1970</ele>
        <time>2015-08-20T09:33:57Z</time>
      </trkpt>
      <trkpt lat="44.05721" lon="7.05816">
        <ele>1970</ele>
        <time>2015-08-20T09:33:58Z</time>
      </trkpt>
      <trkpt lat="44.05718" lon="7.05815">
        <ele>1969</ele>
        <time>2015-08-20T09:34:03Z</time>
      </trkpt>
      <trkpt lat="44.05713" lon="7.05813">
        <ele>1969</ele>
        <time>2015-08-20T09:34:04Z</time>
      </trkpt>
      <trkpt lat="44.05712" lon="7.05813">
        <ele>1968</ele>
        <time>2015-08-20T09:34:05Z</time>
      </trkpt>
      <trkpt lat="44.05709" lon="7.05812">
        <ele>1968</ele>
        <time>2015-08-20T09:34:09Z</time>
      </trkpt>
      <trkpt lat="44.05705" lon="7.0581">
        <ele>1968</ele>
        <time>2015-08-20T09:34:10Z</time>
      </trkpt>
      <trkpt lat="44.05703" lon="7.0581">
        <ele>1967</ele>
        <time>2015-08-20T09:34:11Z</time>
      </trkpt>
      <trkpt lat="44.05701" lon="7.05809">
        <ele>1967</ele>
        <time>2015-08-20T09:34:12Z</time>
      </trkpt>
      <trkpt lat="44.05699" lon="7.05808">
        <ele>1967</ele>
        <time>2015-08-20T09:34:17Z</time>
      </trkpt>
      <trkpt lat="44.05693" lon="7.05802">
        <ele>1966</ele>
        <time>2015-08-20T09:34:19Z</time>
      </trkpt>
      <trkpt lat="44.05692" lon="7.058">
        <ele>1966</ele>
        <time>2015-08-20T09:34:20Z</time>
      </trkpt>
      <trkpt lat="44.0569" lon="7.05798">
        <ele>1966</ele>
        <time>2015-08-20T09:34:25Z</time>
      </trkpt>
      <trkpt lat="44.05686" lon="7.05794">
        <ele>1966</ele>
        <time>2015-08-20T09:34:26Z</time>
      </trkpt>
      <trkpt lat="44.05684" lon="7.05791">
        <ele>1965</ele>
        <time>2015-08-20T09:34:29Z</time>
      </trkpt>
      <trkpt lat="44.05681" lon="7.05788">
        <ele>1965</ele>
        <time>2015-08-20T09:34:34Z</time>
      </trkpt>
      <trkpt lat="44.05679" lon="7.05786">
        <ele>1965</ele>
        <time>2015-08-20T09:34:35Z</time>
      </trkpt>
      <trkpt lat="44.05677" lon="7.05785">
        <ele>1964</ele>
        <time>2015-08-20T09:34:37Z</time>
      </trkpt>
      <trkpt lat="44.05675" lon="7.05784">
        <ele>1964</ele>
        <time>2015-08-20T09:34:40Z</time>
      </trkpt>
      <trkpt lat="44.05668" lon="7.05781">
        <ele>1964</ele>
        <time>2015-08-20T09:34:45Z</time>
      </trkpt>
      <trkpt lat="44.05666" lon="7.0578">
        <ele>1964</ele>
        <time>2015-08-20T09:34:47Z</time>
      </trkpt>
      <trkpt lat="44.05664" lon="7.05779">
        <ele>1963</ele>
        <time>2015-08-20T09:34:52Z</time>
      </trkpt>
      <trkpt lat="44.05658" lon="7.05777">
        <ele>1963</ele>
        <time>2015-08-20T09:34:53Z</time>
      </trkpt>
      <trkpt lat="44.05657" lon="7.05775">
        <ele>1962</ele>
        <time>2015-08-20T09:34:54Z</time>
      </trkpt>
      <trkpt lat="44.05653" lon="7.05772">
        <ele>1962</ele>
        <time>2015-08-20T09:34:59Z</time>
      </trkpt>
      <trkpt lat="44.0565" lon="7.0577">
        <ele>1962</ele>
        <time>2015-08-20T09:35:00Z</time>
      </trkpt>
      <trkpt lat="44.05646" lon="7.05767">
        <ele>1961</ele>
        <time>2015-08-20T09:35:05Z</time>
      </trkpt>
      <trkpt lat="44.05642" lon="7.05766">
        <ele>1961</ele>
        <time>2015-08-20T09:35:06Z</time>
      </trkpt>
      <trkpt lat="44.05641" lon="7.05765">
        <ele>1961</ele>
        <time>2015-08-20T09:35:07Z</time>
      </trkpt>
      <trkpt lat="44.0564" lon="7.05764">
        <ele>1961</ele>
        <time>2015-08-20T09:35:08Z</time>
      </trkpt>
      <trkpt lat="44.05637" lon="7.05764">
        <ele>1961</ele>
        <time>2015-08-20T09:35:12Z</time>
      </trkpt>
      <trkpt lat="44.05633" lon="7.05761">
        <ele>1961</ele>
        <time>2015-08-20T09:35:13Z</time>
      </trkpt>
      <trkpt lat="44.05631" lon="7.05759">
        <ele>1961</ele>
        <time>2015-08-20T09:35:15Z</time>
      </trkpt>
      <trkpt lat="44.05629" lon="7.05757">
        <ele>1961</ele>
        <time>2015-08-20T09:35:19Z</time>
      </trkpt>
      <trkpt lat="44.05627" lon="7.05753">
        <ele>1961</ele>
        <time>2015-08-20T09:35:20Z</time>
      </trkpt>
      <trkpt lat="44.05621" lon="7.05746">
        <ele>1961</ele>
        <time>2015-08-20T09:35:26Z</time>
      </trkpt>
      <trkpt lat="44.0562" lon="7.05744">
        <ele>1961</ele>
        <time>2015-08-20T09:35:28Z</time>
      </trkpt>
      <trkpt lat="44.05615" lon="7.05736">
        <ele>1961</ele>
        <time>2015-08-20T09:35:34Z</time>
      </trkpt>
      <trkpt lat="44.05614" lon="7.05734">
        <ele>1961</ele>
        <time>2015-08-20T09:35:35Z</time>
      </trkpt>
      <trkpt lat="44.05611" lon="7.05728">
        <ele>1961</ele>
        <time>2015-08-20T09:35:40Z</time>
      </trkpt>
      <trkpt lat="44.0561" lon="7.05726">
        <ele>1960</ele>
        <time>2015-08-20T09:35:42Z</time>
      </trkpt>
      <trkpt lat="44.05605" lon="7.05726">
        <ele>1959</ele>
        <time>2015-08-20T09:35:48Z</time>
      </trkpt>
      <trkpt lat="44.05603" lon="7.05725">
        <ele>1958</ele>
        <time>2015-08-20T09:35:53Z</time>
      </trkpt>
      <trkpt lat="44.05602" lon="7.05727">
        <ele>1957</ele>
        <time>2015-08-20T09:35:54Z</time>
      </trkpt>
      <trkpt lat="44.056" lon="7.05727">
        <ele>1956</ele>
        <time>2015-08-20T09:35:56Z</time>
      </trkpt>
      <trkpt lat="44.05599" lon="7.05726">
        <ele>1955</ele>
        <time>2015-08-20T09:36:01Z</time>
      </trkpt>
      <trkpt lat="44.05596" lon="7.05726">
        <ele>1954</ele>
        <time>2015-08-20T09:36:02Z</time>
      </trkpt>
      <trkpt lat="44.05594" lon="7.05727">
        <ele>1953</ele>
        <time>2015-08-20T09:36:09Z</time>
      </trkpt>
      <trkpt lat="44.05591" lon="7.05725">
        <ele>1952</ele>
        <time>2015-08-20T09:36:10Z</time>
      </trkpt>
      <trkpt lat="44.05589" lon="7.05725">
        <ele>1951</ele>
        <time>2015-08-20T09:36:16Z</time>
      </trkpt>
      <trkpt lat="44.05587" lon="7.05725">
        <ele>1950</ele>
        <time>2015-08-20T09:36:17Z</time>
      </trkpt>
      <trkpt lat="44.05585" lon="7.05724">
        <ele>1949</ele>
        <time>2015-08-20T09:36:25Z</time>
      </trkpt>
      <trkpt lat="44.05583" lon="7.05725">
        <ele>1948</ele>
        <time>2015-08-20T09:36:33Z</time>
      </trkpt>
      <trkpt lat="44.05581" lon="7.05725">
        <ele>1947</ele>
        <time>2015-08-20T09:36:35Z</time>
      </trkpt>
      <trkpt lat="44.05579" lon="7.05732">
        <ele>1946</ele>
        <time>2015-08-20T09:36:42Z</time>
      </trkpt>
      <trkpt lat="44.05577" lon="7.05732">
        <ele>1945</ele>
        <time>2015-08-20T09:36:43Z</time>
      </trkpt>
      <trkpt lat="44.05576" lon="7.05731">
        <ele>1944</ele>
        <time>2015-08-20T09:36:48Z</time>
      </trkpt>
      <trkpt lat="44.05571" lon="7.05728">
        <ele>1943</ele>
        <time>2015-08-20T09:36:49Z</time>
      </trkpt>
      <trkpt lat="44.05564" lon="7.05723">
        <ele>1941</ele>
        <time>2015-08-20T09:36:55Z</time>
      </trkpt>
      <trkpt lat="44.05562" lon="7.0572">
        <ele>1940</ele>
        <time>2015-08-20T09:36:57Z</time>
      </trkpt>
      <trkpt lat="44.0556" lon="7.05718">
        <ele>1939</ele>
        <time>2015-08-20T09:37:01Z</time>
      </trkpt>
      <trkpt lat="44.05557" lon="7.05717">
        <ele>1939</ele>
        <time>2015-08-20T09:37:02Z</time>
      </trkpt>
      <trkpt lat="44.05556" lon="7.05716">
        <ele>1938</ele>
        <time>2015-08-20T09:37:03Z</time>
      </trkpt>
      <trkpt lat="44.05553" lon="7.05714">
        <ele>1937</ele>
        <time>2015-08-20T09:37:08Z</time>
      </trkpt>
      <trkpt lat="44.0555" lon="7.05712">
        <ele>1937</ele>
        <time>2015-08-20T09:37:09Z</time>
      </trkpt>
      <trkpt lat="44.05548" lon="7.0571">
        <ele>1937</ele>
        <time>2015-08-20T09:37:11Z</time>
      </trkpt>
      <trkpt lat="44.05547" lon="7.05708">
        <ele>1937</ele>
        <time>2015-08-20T09:37:15Z</time>
      </trkpt>
      <trkpt lat="44.05544" lon="7.05704">
        <ele>1936</ele>
        <time>2015-08-20T09:37:16Z</time>
      </trkpt>
      <trkpt lat="44.05543" lon="7.05703">
        <ele>1936</ele>
        <time>2015-08-20T09:37:17Z</time>
      </trkpt>
      <trkpt lat="44.05541" lon="7.057">
        <ele>1936</ele>
        <time>2015-08-20T09:37:21Z</time>
      </trkpt>
      <trkpt lat="44.05538" lon="7.05697">
        <ele>1936</ele>
        <time>2015-08-20T09:37:22Z</time>
      </trkpt>
      <trkpt lat="44.05537" lon="7.05696">
        <ele>1935</ele>
        <time>2015-08-20T09:37:23Z</time>
      </trkpt>
      <trkpt lat="44.05535" lon="7.05694">
        <ele>1935</ele>
        <time>2015-08-20T09:37:27Z</time>
      </trkpt>
      <trkpt lat="44.05533" lon="7.0569">
        <ele>1935</ele>
        <time>2015-08-20T09:37:28Z</time>
      </trkpt>
      <trkpt lat="44.05531" lon="7.05687">
        <ele>1934</ele>
        <time>2015-08-20T09:37:33Z</time>
      </trkpt>
      <trkpt lat="44.05528" lon="7.05684">
        <ele>1934</ele>
        <time>2015-08-20T09:37:34Z</time>
      </trkpt>
      <trkpt lat="44.05527" lon="7.05682">
        <ele>1934</ele>
        <time>2015-08-20T09:37:36Z</time>
      </trkpt>
      <trkpt lat="44.05525" lon="7.05681">
        <ele>1934</ele>
        <time>2015-08-20T09:37:37Z</time>
      </trkpt>
      <trkpt lat="44.05523" lon="7.05679">
        <ele>1934</ele>
        <time>2015-08-20T09:37:42Z</time>
      </trkpt>
      <trkpt lat="44.05519" lon="7.05677">
        <ele>1934</ele>
        <time>2015-08-20T09:37:43Z</time>
      </trkpt>
      <trkpt lat="44.05517" lon="7.05675">
        <ele>1933</ele>
        <time>2015-08-20T09:37:48Z</time>
      </trkpt>
      <trkpt lat="44.05513" lon="7.0567">
        <ele>1933</ele>
        <time>2015-08-20T09:37:49Z</time>
      </trkpt>
      <trkpt lat="44.05511" lon="7.05665">
        <ele>1933</ele>
        <time>2015-08-20T09:37:55Z</time>
      </trkpt>
      <trkpt lat="44.05508" lon="7.0566">
        <ele>1933</ele>
        <time>2015-08-20T09:37:56Z</time>
      </trkpt>
      <trkpt lat="44.05505" lon="7.05657">
        <ele>1932</ele>
        <time>2015-08-20T09:38:01Z</time>
      </trkpt>
      <trkpt lat="44.05502" lon="7.05653">
        <ele>1932</ele>
        <time>2015-08-20T09:38:02Z</time>
      </trkpt>
      <trkpt lat="44.055" lon="7.0565">
        <ele>1931</ele>
        <time>2015-08-20T09:38:07Z</time>
      </trkpt>
      <trkpt lat="44.05497" lon="7.05645">
        <ele>1931</ele>
        <time>2015-08-20T09:38:08Z</time>
      </trkpt>
      <trkpt lat="44.05496" lon="7.05644">
        <ele>1930</ele>
        <time>2015-08-20T09:38:09Z</time>
      </trkpt>
      <trkpt lat="44.05494" lon="7.0564">
        <ele>1929</ele>
        <time>2015-08-20T09:38:14Z</time>
      </trkpt>
      <trkpt lat="44.05491" lon="7.05636">
        <ele>1928</ele>
        <time>2015-08-20T09:38:15Z</time>
      </trkpt>
      <trkpt lat="44.05485" lon="7.0563">
        <ele>1927</ele>
        <time>2015-08-20T09:38:21Z</time>
      </trkpt>
      <trkpt lat="44.05484" lon="7.05629">
        <ele>1927</ele>
        <time>2015-08-20T09:38:22Z</time>
      </trkpt>
      <trkpt lat="44.05481" lon="7.05627">
        <ele>1926</ele>
        <time>2015-08-20T09:38:27Z</time>
      </trkpt>
      <trkpt lat="44.05477" lon="7.05623">
        <ele>1926</ele>
        <time>2015-08-20T09:38:28Z</time>
      </trkpt>
      <trkpt lat="44.05474" lon="7.0562">
        <ele>1925</ele>
        <time>2015-08-20T09:38:33Z</time>
      </trkpt>
      <trkpt lat="44.0547" lon="7.05617">
        <ele>1924</ele>
        <time>2015-08-20T09:38:34Z</time>
      </trkpt>
      <trkpt lat="44.05467" lon="7.05614">
        <ele>1924</ele>
        <time>2015-08-20T09:38:39Z</time>
      </trkpt>
      <trkpt lat="44.05465" lon="7.0561">
        <ele>1924</ele>
        <time>2015-08-20T09:38:40Z</time>
      </trkpt>
      <trkpt lat="44.05462" lon="7.05607">
        <ele>1924</ele>
        <time>2015-08-20T09:38:45Z</time>
      </trkpt>
      <trkpt lat="44.05458" lon="7.05604">
        <ele>1923</ele>
        <time>2015-08-20T09:38:47Z</time>
      </trkpt>
      <trkpt lat="44.05454" lon="7.05602">
        <ele>1923</ele>
        <time>2015-08-20T09:38:53Z</time>
      </trkpt>
      <trkpt lat="44.0545" lon="7.05598">
        <ele>1923</ele>
        <time>2015-08-20T09:38:54Z</time>
      </trkpt>
      <trkpt lat="44.05447" lon="7.05596">
        <ele>1922</ele>
        <time>2015-08-20T09:38:59Z</time>
      </trkpt>
      <trkpt lat="44.05444" lon="7.05593">
        <ele>1922</ele>
        <time>2015-08-20T09:39:00Z</time>
      </trkpt>
      <trkpt lat="44.05441" lon="7.05591">
        <ele>1921</ele>
        <time>2015-08-20T09:39:05Z</time>
      </trkpt>
      <trkpt lat="44.05438" lon="7.05587">
        <ele>1921</ele>
        <time>2015-08-20T09:39:06Z</time>
      </trkpt>
      <trkpt lat="44.05436" lon="7.05584">
        <ele>1920</ele>
        <time>2015-08-20T09:39:08Z</time>
      </trkpt>
      <trkpt lat="44.05432" lon="7.05577">
        <ele>1920</ele>
        <time>2015-08-20T09:39:13Z</time>
      </trkpt>
      <trkpt lat="44.05432" lon="7.05576">
        <ele>1920</ele>
        <time>2015-08-20T09:39:14Z</time>
      </trkpt>
      <trkpt lat="44.05431" lon="7.05574">
        <ele>1920</ele>
        <time>2015-08-20T09:39:15Z</time>
      </trkpt>
      <trkpt lat="44.05427" lon="7.05567">
        <ele>1919</ele>
        <time>2015-08-20T09:39:20Z</time>
      </trkpt>
      <trkpt lat="44.05426" lon="7.05566">
        <ele>1919</ele>
        <time>2015-08-20T09:39:21Z</time>
      </trkpt>
      <trkpt lat="44.05424" lon="7.05565">
        <ele>1919</ele>
        <time>2015-08-20T09:39:22Z</time>
      </trkpt>
      <trkpt lat="44.05422" lon="7.05564">
        <ele>1919</ele>
        <time>2015-08-20T09:39:26Z</time>
      </trkpt>
      <trkpt lat="44.05418" lon="7.05564">
        <ele>1919</ele>
        <time>2015-08-20T09:39:27Z</time>
      </trkpt>
      <trkpt lat="44.05417" lon="7.05564">
        <ele>1919</ele>
        <time>2015-08-20T09:39:28Z</time>
      </trkpt>
      <trkpt lat="44.05416" lon="7.05564">
        <ele>1919</ele>
        <time>2015-08-20T09:39:29Z</time>
      </trkpt>
      <trkpt lat="44.05413" lon="7.05564">
        <ele>1919</ele>
        <time>2015-08-20T09:39:33Z</time>
      </trkpt>
      <trkpt lat="44.05409" lon="7.05564">
        <ele>1919</ele>
        <time>2015-08-20T09:39:34Z</time>
      </trkpt>
      <trkpt lat="44.05408" lon="7.05564">
        <ele>1919</ele>
        <time>2015-08-20T09:39:35Z</time>
      </trkpt>
      <trkpt lat="44.05401" lon="7.05566">
        <ele>1919</ele>
        <time>2015-08-20T09:39:40Z</time>
      </trkpt>
      <trkpt lat="44.05399" lon="7.05567">
        <ele>1919</ele>
        <time>2015-08-20T09:39:41Z</time>
      </trkpt>
      <trkpt lat="44.05398" lon="7.05567">
        <ele>1919</ele>
        <time>2015-08-20T09:39:42Z</time>
      </trkpt>
      <trkpt lat="44.05395" lon="7.05568">
        <ele>1919</ele>
        <time>2015-08-20T09:39:46Z</time>
      </trkpt>
      <trkpt lat="44.05392" lon="7.0557">
        <ele>1919</ele>
        <time>2015-08-20T09:39:47Z</time>
      </trkpt>
      <trkpt lat="44.0539" lon="7.05571">
        <ele>1919</ele>
        <time>2015-08-20T09:39:48Z</time>
      </trkpt>
      <trkpt lat="44.05389" lon="7.05571">
        <ele>1919</ele>
        <time>2015-08-20T09:39:49Z</time>
      </trkpt>
      <trkpt lat="44.05387" lon="7.05571">
        <ele>1919</ele>
        <time>2015-08-20T09:39:53Z</time>
      </trkpt>
      <trkpt lat="44.05384" lon="7.05572">
        <ele>1919</ele>
        <time>2015-08-20T09:39:54Z</time>
      </trkpt>
      <trkpt lat="44.05383" lon="7.05573">
        <ele>1919</ele>
        <time>2015-08-20T09:39:55Z</time>
      </trkpt>
      <trkpt lat="44.0538" lon="7.05574">
        <ele>1919</ele>
        <time>2015-08-20T09:39:57Z</time>
      </trkpt>
      <trkpt lat="44.05378" lon="7.05575">
        <ele>1919</ele>
        <time>2015-08-20T09:40:01Z</time>
      </trkpt>
      <trkpt lat="44.05374" lon="7.05578">
        <ele>1919</ele>
        <time>2015-08-20T09:40:02Z</time>
      </trkpt>
      <trkpt lat="44.05373" lon="7.05578">
        <ele>1919</ele>
        <time>2015-08-20T09:40:03Z</time>
      </trkpt>
      <trkpt lat="44.0537" lon="7.0558">
        <ele>1919</ele>
        <time>2015-08-20T09:40:07Z</time>
      </trkpt>
      <trkpt lat="44.05366" lon="7.05582">
        <ele>1919</ele>
        <time>2015-08-20T09:40:08Z</time>
      </trkpt>
      <trkpt lat="44.05365" lon="7.05582">
        <ele>1919</ele>
        <time>2015-08-20T09:40:09Z</time>
      </trkpt>
      <trkpt lat="44.05359" lon="7.05586">
        <ele>1919</ele>
        <time>2015-08-20T09:40:14Z</time>
      </trkpt>
      <trkpt lat="44.05358" lon="7.05587">
        <ele>1919</ele>
        <time>2015-08-20T09:40:15Z</time>
      </trkpt>
      <trkpt lat="44.05356" lon="7.05588">
        <ele>1919</ele>
        <time>2015-08-20T09:40:16Z</time>
      </trkpt>
      <trkpt lat="44.05354" lon="7.05589">
        <ele>1919</ele>
        <time>2015-08-20T09:40:20Z</time>
      </trkpt>
      <trkpt lat="44.0535" lon="7.05591">
        <ele>1919</ele>
        <time>2015-08-20T09:40:21Z</time>
      </trkpt>
      <trkpt lat="44.05349" lon="7.05591">
        <ele>1919</ele>
        <time>2015-08-20T09:40:22Z</time>
      </trkpt>
      <trkpt lat="44.05346" lon="7.05593">
        <ele>1919</ele>
        <time>2015-08-20T09:40:26Z</time>
      </trkpt>
      <trkpt lat="44.05343" lon="7.05595">
        <ele>1919</ele>
        <time>2015-08-20T09:40:27Z</time>
      </trkpt>
      <trkpt lat="44.05341" lon="7.05596">
        <ele>1919</ele>
        <time>2015-08-20T09:40:28Z</time>
      </trkpt>
      <trkpt lat="44.05335" lon="7.056">
        <ele>1919</ele>
        <time>2015-08-20T09:40:33Z</time>
      </trkpt>
      <trkpt lat="44.05334" lon="7.05601">
        <ele>1919</ele>
        <time>2015-08-20T09:40:34Z</time>
      </trkpt>
      <trkpt lat="44.05332" lon="7.05604">
        <ele>1919</ele>
        <time>2015-08-20T09:40:39Z</time>
      </trkpt>
      <trkpt lat="44.05329" lon="7.05605">
        <ele>1919</ele>
        <time>2015-08-20T09:40:40Z</time>
      </trkpt>
      <trkpt lat="44.05328" lon="7.05603">
        <ele>1919</ele>
        <time>2015-08-20T09:41:06Z</time>
      </trkpt>
      <trkpt lat="44.05326" lon="7.05605">
        <ele>1919</ele>
        <time>2015-08-20T09:41:23Z</time>
      </trkpt>
      <trkpt lat="44.05325" lon="7.05605">
        <ele>1919</ele>
        <time>2015-08-20T09:41:26Z</time>
      </trkpt>
      <trkpt lat="44.05323" lon="7.05605">
        <ele>1919</ele>
        <time>2015-08-20T09:41:31Z</time>
      </trkpt>
      <trkpt lat="44.05318" lon="7.05608">
        <ele>1919</ele>
        <time>2015-08-20T09:41:32Z</time>
      </trkpt>
      <trkpt lat="44.05317" lon="7.05609">
        <ele>1919</ele>
        <time>2015-08-20T09:41:33Z</time>
      </trkpt>
      <trkpt lat="44.05311" lon="7.05613">
        <ele>1919</ele>
        <time>2015-08-20T09:41:38Z</time>
      </trkpt>
      <trkpt lat="44.0531" lon="7.05613">
        <ele>1919</ele>
        <time>2015-08-20T09:41:39Z</time>
      </trkpt>
      <trkpt lat="44.05308" lon="7.05614">
        <ele>1919</ele>
        <time>2015-08-20T09:41:40Z</time>
      </trkpt>
      <trkpt lat="44.05306" lon="7.05614">
        <ele>1919</ele>
        <time>2015-08-20T09:41:45Z</time>
      </trkpt>
      <trkpt lat="44.05302" lon="7.05616">
        <ele>1919</ele>
        <time>2015-08-20T09:41:46Z</time>
      </trkpt>
      <trkpt lat="44.05294" lon="7.05622">
        <ele>1919</ele>
        <time>2015-08-20T09:41:53Z</time>
      </trkpt>
      <trkpt lat="44.05293" lon="7.05622">
        <ele>1919</ele>
        <time>2015-08-20T09:41:54Z</time>
      </trkpt>
      <trkpt lat="44.05291" lon="7.05624">
        <ele>1919</ele>
        <time>2015-08-20T09:41:58Z</time>
      </trkpt>
      <trkpt lat="44.05287" lon="7.05627">
        <ele>1919</ele>
        <time>2015-08-20T09:41:59Z</time>
      </trkpt>
      <trkpt lat="44.05284" lon="7.05629">
        <ele>1919</ele>
        <time>2015-08-20T09:42:04Z</time>
      </trkpt>
      <trkpt lat="44.05281" lon="7.05631">
        <ele>1918</ele>
        <time>2015-08-20T09:42:05Z</time>
      </trkpt>
      <trkpt lat="44.05279" lon="7.05632">
        <ele>1918</ele>
        <time>2015-08-20T09:42:06Z</time>
      </trkpt>
      <trkpt lat="44.05273" lon="7.05635">
        <ele>1918</ele>
        <time>2015-08-20T09:42:11Z</time>
      </trkpt>
      <trkpt lat="44.05272" lon="7.05636">
        <ele>1918</ele>
        <time>2015-08-20T09:42:12Z</time>
      </trkpt>
      <trkpt lat="44.0527" lon="7.05636">
        <ele>1918</ele>
        <time>2015-08-20T09:42:13Z</time>
      </trkpt>
      <trkpt lat="44.05268" lon="7.05637">
        <ele>1917</ele>
        <time>2015-08-20T09:42:17Z</time>
      </trkpt>
      <trkpt lat="44.05264" lon="7.05639">
        <ele>1917</ele>
        <time>2015-08-20T09:42:18Z</time>
      </trkpt>
      <trkpt lat="44.05262" lon="7.0564">
        <ele>1917</ele>
        <time>2015-08-20T09:42:19Z</time>
      </trkpt>
      <trkpt lat="44.0526" lon="7.0564">
        <ele>1917</ele>
        <time>2015-08-20T09:42:23Z</time>
      </trkpt>
      <trkpt lat="44.05256" lon="7.05642">
        <ele>1916</ele>
        <time>2015-08-20T09:42:24Z</time>
      </trkpt>
      <trkpt lat="44.05255" lon="7.05642">
        <ele>1916</ele>
        <time>2015-08-20T09:42:25Z</time>
      </trkpt>
      <trkpt lat="44.05249" lon="7.05646">
        <ele>1916</ele>
        <time>2015-08-20T09:42:30Z</time>
      </trkpt>
      <trkpt lat="44.05247" lon="7.05646">
        <ele>1916</ele>
        <time>2015-08-20T09:42:31Z</time>
      </trkpt>
      <trkpt lat="44.05246" lon="7.05646">
        <ele>1915</ele>
        <time>2015-08-20T09:42:32Z</time>
      </trkpt>
      <trkpt lat="44.05243" lon="7.05647">
        <ele>1915</ele>
        <time>2015-08-20T09:42:36Z</time>
      </trkpt>
      <trkpt lat="44.05239" lon="7.05649">
        <ele>1915</ele>
        <time>2015-08-20T09:42:37Z</time>
      </trkpt>
      <trkpt lat="44.05238" lon="7.0565">
        <ele>1914</ele>
        <time>2015-08-20T09:42:38Z</time>
      </trkpt>
      <trkpt lat="44.05237" lon="7.0565">
        <ele>1914</ele>
        <time>2015-08-20T09:42:39Z</time>
      </trkpt>
      <trkpt lat="44.05234" lon="7.05649">
        <ele>1914</ele>
        <time>2015-08-20T09:42:43Z</time>
      </trkpt>
      <trkpt lat="44.0523" lon="7.05647">
        <ele>1913</ele>
        <time>2015-08-20T09:42:44Z</time>
      </trkpt>
      <trkpt lat="44.05229" lon="7.05646">
        <ele>1913</ele>
        <time>2015-08-20T09:42:45Z</time>
      </trkpt>
      <trkpt lat="44.05223" lon="7.0564">
        <ele>1913</ele>
        <time>2015-08-20T09:42:51Z</time>
      </trkpt>
      <trkpt lat="44.0522" lon="7.05635">
        <ele>1912</ele>
        <time>2015-08-20T09:42:57Z</time>
      </trkpt>
      <trkpt lat="44.05216" lon="7.05628">
        <ele>1912</ele>
        <time>2015-08-20T09:42:58Z</time>
      </trkpt>
      <trkpt lat="44.05215" lon="7.05627">
        <ele>1911</ele>
        <time>2015-08-20T09:42:59Z</time>
      </trkpt>
      <trkpt lat="44.05214" lon="7.05624">
        <ele>1911</ele>
        <time>2015-08-20T09:43:03Z</time>
      </trkpt>
      <trkpt lat="44.05211" lon="7.05619">
        <ele>1911</ele>
        <time>2015-08-20T09:43:04Z</time>
      </trkpt>
      <trkpt lat="44.0521" lon="7.05618">
        <ele>1910</ele>
        <time>2015-08-20T09:43:05Z</time>
      </trkpt>
      <trkpt lat="44.05209" lon="7.05616">
        <ele>1910</ele>
        <time>2015-08-20T09:43:09Z</time>
      </trkpt>
      <trkpt lat="44.05205" lon="7.05613">
        <ele>1909</ele>
        <time>2015-08-20T09:43:10Z</time>
      </trkpt>
      <trkpt lat="44.05202" lon="7.05611">
        <ele>1908</ele>
        <time>2015-08-20T09:43:12Z</time>
      </trkpt>
      <trkpt lat="44.052" lon="7.05609">
        <ele>1908</ele>
        <time>2015-08-20T09:43:16Z</time>
      </trkpt>
      <trkpt lat="44.05196" lon="7.05606">
        <ele>1907</ele>
        <time>2015-08-20T09:43:17Z</time>
      </trkpt>
      <trkpt lat="44.05195" lon="7.05605">
        <ele>1906</ele>
        <time>2015-08-20T09:43:18Z</time>
      </trkpt>
      <trkpt lat="44.05188" lon="7.05601">
        <ele>1906</ele>
        <time>2015-08-20T09:43:23Z</time>
      </trkpt>
      <trkpt lat="44.05186" lon="7.056">
        <ele>1906</ele>
        <time>2015-08-20T09:43:24Z</time>
      </trkpt>
      <trkpt lat="44.05184" lon="7.05599">
        <ele>1905</ele>
        <time>2015-08-20T09:43:29Z</time>
      </trkpt>
      <trkpt lat="44.05179" lon="7.05594">
        <ele>1905</ele>
        <time>2015-08-20T09:43:30Z</time>
      </trkpt>
      <trkpt lat="44.05178" lon="7.05593">
        <ele>1904</ele>
        <time>2015-08-20T09:43:31Z</time>
      </trkpt>
      <trkpt lat="44.05177" lon="7.05591">
        <ele>1904</ele>
        <time>2015-08-20T09:43:32Z</time>
      </trkpt>
      <trkpt lat="44.05175" lon="7.05589">
        <ele>1903</ele>
        <time>2015-08-20T09:43:36Z</time>
      </trkpt>
      <trkpt lat="44.05171" lon="7.05588">
        <ele>1903</ele>
        <time>2015-08-20T09:43:37Z</time>
      </trkpt>
      <trkpt lat="44.05169" lon="7.05588">
        <ele>1903</ele>
        <time>2015-08-20T09:43:38Z</time>
      </trkpt>
      <trkpt lat="44.05168" lon="7.05588">
        <ele>1903</ele>
        <time>2015-08-20T09:43:39Z</time>
      </trkpt>
      <trkpt lat="44.05165" lon="7.0559">
        <ele>1903</ele>
        <time>2015-08-20T09:43:44Z</time>
      </trkpt>
      <trkpt lat="44.0516" lon="7.05592">
        <ele>1903</ele>
        <time>2015-08-20T09:43:45Z</time>
      </trkpt>
      <trkpt lat="44.05159" lon="7.05593">
        <ele>1903</ele>
        <time>2015-08-20T09:43:46Z</time>
      </trkpt>
      <trkpt lat="44.05156" lon="7.05595">
        <ele>1903</ele>
        <time>2015-08-20T09:43:50Z</time>
      </trkpt>
      <trkpt lat="44.05152" lon="7.05597">
        <ele>1903</ele>
        <time>2015-08-20T09:43:51Z</time>
      </trkpt>
      <trkpt lat="44.05151" lon="7.05598">
        <ele>1903</ele>
        <time>2015-08-20T09:43:52Z</time>
      </trkpt>
      <trkpt lat="44.05149" lon="7.05601">
        <ele>1903</ele>
        <time>2015-08-20T09:43:56Z</time>
      </trkpt>
      <trkpt lat="44.05146" lon="7.05604">
        <ele>1903</ele>
        <time>2015-08-20T09:43:57Z</time>
      </trkpt>
      <trkpt lat="44.05144" lon="7.05605">
        <ele>1903</ele>
        <time>2015-08-20T09:43:58Z</time>
      </trkpt>
      <trkpt lat="44.05142" lon="7.05607">
        <ele>1902</ele>
        <time>2015-08-20T09:44:03Z</time>
      </trkpt>
      <trkpt lat="44.05138" lon="7.05611">
        <ele>1902</ele>
        <time>2015-08-20T09:44:04Z</time>
      </trkpt>
      <trkpt lat="44.05136" lon="7.05612">
        <ele>1902</ele>
        <time>2015-08-20T09:44:05Z</time>
      </trkpt>
      <trkpt lat="44.05134" lon="7.05614">
        <ele>1902</ele>
        <time>2015-08-20T09:44:09Z</time>
      </trkpt>
      <trkpt lat="44.05131" lon="7.05617">
        <ele>1902</ele>
        <time>2015-08-20T09:44:10Z</time>
      </trkpt>
      <trkpt lat="44.0513" lon="7.05617">
        <ele>1902</ele>
        <time>2015-08-20T09:44:11Z</time>
      </trkpt>
      <trkpt lat="44.05127" lon="7.05618">
        <ele>1901</ele>
        <time>2015-08-20T09:44:13Z</time>
      </trkpt>
      <trkpt lat="44.05125" lon="7.0562">
        <ele>1901</ele>
        <time>2015-08-20T09:44:18Z</time>
      </trkpt>
      <trkpt lat="44.0512" lon="7.05622">
        <ele>1901</ele>
        <time>2015-08-20T09:44:19Z</time>
      </trkpt>
      <trkpt lat="44.05118" lon="7.05624">
        <ele>1901</ele>
        <time>2015-08-20T09:44:24Z</time>
      </trkpt>
      <trkpt lat="44.05113" lon="7.05627">
        <ele>1901</ele>
        <time>2015-08-20T09:44:25Z</time>
      </trkpt>
      <trkpt lat="44.05112" lon="7.05628">
        <ele>1901</ele>
        <time>2015-08-20T09:44:26Z</time>
      </trkpt>
      <trkpt lat="44.0511" lon="7.0563">
        <ele>1901</ele>
        <time>2015-08-20T09:44:30Z</time>
      </trkpt>
      <trkpt lat="44.05106" lon="7.05632">
        <ele>1901</ele>
        <time>2015-08-20T09:44:31Z</time>
      </trkpt>
      <trkpt lat="44.05105" lon="7.05633">
        <ele>1901</ele>
        <time>2015-08-20T09:44:32Z</time>
      </trkpt>
      <trkpt lat="44.05099" lon="7.05638">
        <ele>1900</ele>
        <time>2015-08-20T09:44:37Z</time>
      </trkpt>
      <trkpt lat="44.05098" lon="7.05639">
        <ele>1900</ele>
        <time>2015-08-20T09:44:38Z</time>
      </trkpt>
      <trkpt lat="44.05096" lon="7.05641">
        <ele>1900</ele>
        <time>2015-08-20T09:44:43Z</time>
      </trkpt>
      <trkpt lat="44.05091" lon="7.05644">
        <ele>1900</ele>
        <time>2015-08-20T09:44:44Z</time>
      </trkpt>
      <trkpt lat="44.0509" lon="7.05644">
        <ele>1899</ele>
        <time>2015-08-20T09:44:45Z</time>
      </trkpt>
      <trkpt lat="44.05088" lon="7.05645">
        <ele>1899</ele>
        <time>2015-08-20T09:44:46Z</time>
      </trkpt>
      <trkpt lat="44.05086" lon="7.05647">
        <ele>1899</ele>
        <time>2015-08-20T09:44:50Z</time>
      </trkpt>
      <trkpt lat="44.05082" lon="7.0565">
        <ele>1898</ele>
        <time>2015-08-20T09:44:51Z</time>
      </trkpt>
      <trkpt lat="44.05081" lon="7.0565">
        <ele>1898</ele>
        <time>2015-08-20T09:44:52Z</time>
      </trkpt>
      <trkpt lat="44.05079" lon="7.05652">
        <ele>1898</ele>
        <time>2015-08-20T09:44:57Z</time>
      </trkpt>
      <trkpt lat="44.05074" lon="7.05653">
        <ele>1898</ele>
        <time>2015-08-20T09:44:58Z</time>
      </trkpt>
      <trkpt lat="44.05072" lon="7.05654">
        <ele>1897</ele>
        <time>2015-08-20T09:44:59Z</time>
      </trkpt>
      <trkpt lat="44.0507" lon="7.05654">
        <ele>1897</ele>
        <time>2015-08-20T09:45:03Z</time>
      </trkpt>
      <trkpt lat="44.05066" lon="7.05656">
        <ele>1896</ele>
        <time>2015-08-20T09:45:04Z</time>
      </trkpt>
      <trkpt lat="44.05065" lon="7.05657">
        <ele>1896</ele>
        <time>2015-08-20T09:45:05Z</time>
      </trkpt>
      <trkpt lat="44.05064" lon="7.05658">
        <ele>1895</ele>
        <time>2015-08-20T09:45:06Z</time>
      </trkpt>
      <trkpt lat="44.05062" lon="7.0566">
        <ele>1895</ele>
        <time>2015-08-20T09:45:10Z</time>
      </trkpt>
      <trkpt lat="44.05059" lon="7.05663">
        <ele>1894</ele>
        <time>2015-08-20T09:45:11Z</time>
      </trkpt>
      <trkpt lat="44.05058" lon="7.05664">
        <ele>1893</ele>
        <time>2015-08-20T09:45:12Z</time>
      </trkpt>
      <trkpt lat="44.05056" lon="7.05664">
        <ele>1893</ele>
        <time>2015-08-20T09:45:13Z</time>
      </trkpt>
      <trkpt lat="44.05054" lon="7.05666">
        <ele>1893</ele>
        <time>2015-08-20T09:45:17Z</time>
      </trkpt>
      <trkpt lat="44.0505" lon="7.05669">
        <ele>1892</ele>
        <time>2015-08-20T09:45:18Z</time>
      </trkpt>
      <trkpt lat="44.05049" lon="7.0567">
        <ele>1892</ele>
        <time>2015-08-20T09:45:19Z</time>
      </trkpt>
      <trkpt lat="44.05044" lon="7.05676">
        <ele>1891</ele>
        <time>2015-08-20T09:45:24Z</time>
      </trkpt>
      <trkpt lat="44.05043" lon="7.05677">
        <ele>1891</ele>
        <time>2015-08-20T09:45:25Z</time>
      </trkpt>
      <trkpt lat="44.0504" lon="7.05679">
        <ele>1890</ele>
        <time>2015-08-20T09:45:30Z</time>
      </trkpt>
      <trkpt lat="44.05036" lon="7.05683">
        <ele>1889</ele>
        <time>2015-08-20T09:45:31Z</time>
      </trkpt>
      <trkpt lat="44.05035" lon="7.05684">
        <ele>1889</ele>
        <time>2015-08-20T09:45:32Z</time>
      </trkpt>
      <trkpt lat="44.05033" lon="7.05687">
        <ele>1887</ele>
        <time>2015-08-20T09:45:34Z</time>
      </trkpt>
      <trkpt lat="44.05031" lon="7.05688">
        <ele>1887</ele>
        <time>2015-08-20T09:45:38Z</time>
      </trkpt>
      <trkpt lat="44.0503" lon="7.05688">
        <ele>1886</ele>
        <time>2015-08-20T09:45:39Z</time>
      </trkpt>
      <trkpt lat="44.05029" lon="7.0569">
        <ele>1885</ele>
        <time>2015-08-20T09:45:41Z</time>
      </trkpt>
      <trkpt lat="44.05027" lon="7.05692">
        <ele>1885</ele>
        <time>2015-08-20T09:45:44Z</time>
      </trkpt>
      <trkpt lat="44.05025" lon="7.05693">
        <ele>1885</ele>
        <time>2015-08-20T09:45:45Z</time>
      </trkpt>
      <trkpt lat="44.05024" lon="7.05694">
        <ele>1884</ele>
        <time>2015-08-20T09:45:46Z</time>
      </trkpt>
      <trkpt lat="44.05022" lon="7.05697">
        <ele>1884</ele>
        <time>2015-08-20T09:45:49Z</time>
      </trkpt>
      <trkpt lat="44.05019" lon="7.05699">
        <ele>1884</ele>
        <time>2015-08-20T09:45:50Z</time>
      </trkpt>
      <trkpt lat="44.05018" lon="7.05701">
        <ele>1883</ele>
        <time>2015-08-20T09:45:52Z</time>
      </trkpt>
      <trkpt lat="44.05016" lon="7.05704">
        <ele>1883</ele>
        <time>2015-08-20T09:45:55Z</time>
      </trkpt>
      <trkpt lat="44.05015" lon="7.05706">
        <ele>1883</ele>
        <time>2015-08-20T09:45:56Z</time>
      </trkpt>
      <trkpt lat="44.05012" lon="7.0571">
        <ele>1882</ele>
        <time>2015-08-20T09:46:00Z</time>
      </trkpt>
      <trkpt lat="44.0501" lon="7.05713">
        <ele>1882</ele>
        <time>2015-08-20T09:46:01Z</time>
      </trkpt>
      <trkpt lat="44.05008" lon="7.05714">
        <ele>1881</ele>
        <time>2015-08-20T09:46:02Z</time>
      </trkpt>
      <trkpt lat="44.05006" lon="7.05716">
        <ele>1881</ele>
        <time>2015-08-20T09:46:05Z</time>
      </trkpt>
      <trkpt lat="44.05004" lon="7.05718">
        <ele>1881</ele>
        <time>2015-08-20T09:46:06Z</time>
      </trkpt>
      <trkpt lat="44.05003" lon="7.05719">
        <ele>1880</ele>
        <time>2015-08-20T09:46:07Z</time>
      </trkpt>
      <trkpt lat="44.04998" lon="7.05723">
        <ele>1880</ele>
        <time>2015-08-20T09:46:11Z</time>
      </trkpt>
      <trkpt lat="44.04997" lon="7.05724">
        <ele>1880</ele>
        <time>2015-08-20T09:46:12Z</time>
      </trkpt>
      <trkpt lat="44.04995" lon="7.05727">
        <ele>1879</ele>
        <time>2015-08-20T09:46:16Z</time>
      </trkpt>
      <trkpt lat="44.04991" lon="7.0573">
        <ele>1879</ele>
        <time>2015-08-20T09:46:16Z</time>
      </trkpt>
      <trkpt lat="44.0499" lon="7.05731">
        <ele>1878</ele>
        <time>2015-08-20T09:46:18Z</time>
      </trkpt>
      <trkpt lat="44.04987" lon="7.05732">
        <ele>1878</ele>
        <time>2015-08-20T09:46:21Z</time>
      </trkpt>
      <trkpt lat="44.04985" lon="7.05734">
        <ele>1877</ele>
        <time>2015-08-20T09:46:21Z</time>
      </trkpt>
      <trkpt lat="44.04984" lon="7.05735">
        <ele>1877</ele>
        <time>2015-08-20T09:46:23Z</time>
      </trkpt>
      <trkpt lat="44.04981" lon="7.05737">
        <ele>1876</ele>
        <time>2015-08-20T09:46:26Z</time>
      </trkpt>
      <trkpt lat="44.04979" lon="7.05739">
        <ele>1876</ele>
        <time>2015-08-20T09:46:27Z</time>
      </trkpt>
      <trkpt lat="44.04977" lon="7.0574">
        <ele>1876</ele>
        <time>2015-08-20T09:46:28Z</time>
      </trkpt>
      <trkpt lat="44.04975" lon="7.0574">
        <ele>1875</ele>
        <time>2015-08-20T09:46:31Z</time>
      </trkpt>
      <trkpt lat="44.04972" lon="7.05742">
        <ele>1875</ele>
        <time>2015-08-20T09:46:32Z</time>
      </trkpt>
      <trkpt lat="44.0497" lon="7.05743">
        <ele>1874</ele>
        <time>2015-08-20T09:46:34Z</time>
      </trkpt>
      <trkpt lat="44.04965" lon="7.05748">
        <ele>1873</ele>
        <time>2015-08-20T09:46:38Z</time>
      </trkpt>
      <trkpt lat="44.04962" lon="7.05751">
        <ele>1873</ele>
        <time>2015-08-20T09:46:43Z</time>
      </trkpt>
      <trkpt lat="44.04959" lon="7.05754">
        <ele>1872</ele>
        <time>2015-08-20T09:46:43Z</time>
      </trkpt>
      <trkpt lat="44.04958" lon="7.05755">
        <ele>1872</ele>
        <time>2015-08-20T09:46:45Z</time>
      </trkpt>
      <trkpt lat="44.04956" lon="7.05757">
        <ele>1871</ele>
        <time>2015-08-20T09:46:48Z</time>
      </trkpt>
      <trkpt lat="44.04953" lon="7.05758">
        <ele>1871</ele>
        <time>2015-08-20T09:46:48Z</time>
      </trkpt>
      <trkpt lat="44.04952" lon="7.05759">
        <ele>1871</ele>
        <time>2015-08-20T09:46:49Z</time>
      </trkpt>
      <trkpt lat="44.04949" lon="7.0576">
        <ele>1871</ele>
        <time>2015-08-20T09:46:53Z</time>
      </trkpt>
      <trkpt lat="44.04947" lon="7.05762">
        <ele>1871</ele>
        <time>2015-08-20T09:46:54Z</time>
      </trkpt>
      <trkpt lat="44.04945" lon="7.05763">
        <ele>1871</ele>
        <time>2015-08-20T09:46:55Z</time>
      </trkpt>
      <trkpt lat="44.04943" lon="7.05764">
        <ele>1871</ele>
        <time>2015-08-20T09:46:58Z</time>
      </trkpt>
      <trkpt lat="44.0494" lon="7.05765">
        <ele>1871</ele>
        <time>2015-08-20T09:46:59Z</time>
      </trkpt>
      <trkpt lat="44.04939" lon="7.05765">
        <ele>1871</ele>
        <time>2015-08-20T09:47:00Z</time>
      </trkpt>
      <trkpt lat="44.04937" lon="7.05765">
        <ele>1871</ele>
        <time>2015-08-20T09:47:01Z</time>
      </trkpt>
      <trkpt lat="44.04935" lon="7.05766">
        <ele>1871</ele>
        <time>2015-08-20T09:47:04Z</time>
      </trkpt>
      <trkpt lat="44.04932" lon="7.05766">
        <ele>1871</ele>
        <time>2015-08-20T09:47:04Z</time>
      </trkpt>
      <trkpt lat="44.04931" lon="7.05767">
        <ele>1871</ele>
        <time>2015-08-20T09:47:05Z</time>
      </trkpt>
      <trkpt lat="44.04926" lon="7.05767">
        <ele>1871</ele>
        <time>2015-08-20T09:47:10Z</time>
      </trkpt>
      <trkpt lat="44.04924" lon="7.05767">
        <ele>1871</ele>
        <time>2015-08-20T09:47:12Z</time>
      </trkpt>
      <trkpt lat="44.04921" lon="7.05768">
        <ele>1871</ele>
        <time>2015-08-20T09:47:16Z</time>
      </trkpt>
      <trkpt lat="44.04919" lon="7.05769">
        <ele>1871</ele>
        <time>2015-08-20T09:47:16Z</time>
      </trkpt>
      <trkpt lat="44.04918" lon="7.05769">
        <ele>1871</ele>
        <time>2015-08-20T09:47:18Z</time>
      </trkpt>
      <trkpt lat="44.04915" lon="7.0577">
        <ele>1871</ele>
        <time>2015-08-20T09:47:21Z</time>
      </trkpt>
      <trkpt lat="44.04913" lon="7.05772">
        <ele>1871</ele>
        <time>2015-08-20T09:47:22Z</time>
      </trkpt>
      <trkpt lat="44.04912" lon="7.05773">
        <ele>1871</ele>
        <time>2015-08-20T09:47:24Z</time>
      </trkpt>
      <trkpt lat="44.04911" lon="7.05773">
        <ele>1871</ele>
        <time>2015-08-20T09:47:36Z</time>
      </trkpt>
      <trkpt lat="44.04909" lon="7.05775">
        <ele>1871</ele>
        <time>2015-08-20T09:47:44Z</time>
      </trkpt>
      <trkpt lat="44.04906" lon="7.05778">
        <ele>1871</ele>
        <time>2015-08-20T09:47:47Z</time>
      </trkpt>
      <trkpt lat="44.04905" lon="7.0578">
        <ele>1871</ele>
        <time>2015-08-20T09:47:51Z</time>
      </trkpt>
      <trkpt lat="44.04901" lon="7.05782">
        <ele>1871</ele>
        <time>2015-08-20T09:47:52Z</time>
      </trkpt>
      <trkpt lat="44.049" lon="7.05782">
        <ele>1871</ele>
        <time>2015-08-20T09:47:53Z</time>
      </trkpt>
      <trkpt lat="44.04899" lon="7.05783">
        <ele>1871</ele>
        <time>2015-08-20T09:47:54Z</time>
      </trkpt>
      <trkpt lat="44.04897" lon="7.05785">
        <ele>1871</ele>
        <time>2015-08-20T09:47:58Z</time>
      </trkpt>
      <trkpt lat="44.04894" lon="7.05788">
        <ele>1871</ele>
        <time>2015-08-20T09:47:58Z</time>
      </trkpt>
      <trkpt lat="44.04892" lon="7.0579">
        <ele>1871</ele>
        <time>2015-08-20T09:48:02Z</time>
      </trkpt>
      <trkpt lat="44.0489" lon="7.05792">
        <ele>1871</ele>
        <time>2015-08-20T09:48:03Z</time>
      </trkpt>
      <trkpt lat="44.04888" lon="7.05795">
        <ele>1871</ele>
        <time>2015-08-20T09:48:07Z</time>
      </trkpt>
      <trkpt lat="44.04886" lon="7.05798">
        <ele>1871</ele>
        <time>2015-08-20T09:48:07Z</time>
      </trkpt>
      <trkpt lat="44.04885" lon="7.05799">
        <ele>1871</ele>
        <time>2015-08-20T09:48:09Z</time>
      </trkpt>
      <trkpt lat="44.04883" lon="7.05805">
        <ele>1871</ele>
        <time>2015-08-20T09:48:13Z</time>
      </trkpt>
      <trkpt lat="44.04882" lon="7.05806">
        <ele>1871</ele>
        <time>2015-08-20T09:48:13Z</time>
      </trkpt>
      <trkpt lat="44.04881" lon="7.05809">
        <ele>1871</ele>
        <time>2015-08-20T09:48:18Z</time>
      </trkpt>
      <trkpt lat="44.0488" lon="7.05814">
        <ele>1871</ele>
        <time>2015-08-20T09:48:18Z</time>
      </trkpt>
      <trkpt lat="44.04879" lon="7.05815">
        <ele>1871</ele>
        <time>2015-08-20T09:48:20Z</time>
      </trkpt>
      <trkpt lat="44.04877" lon="7.05818">
        <ele>1871</ele>
        <time>2015-08-20T09:48:23Z</time>
      </trkpt>
      <trkpt lat="44.04876" lon="7.05821">
        <ele>1871</ele>
        <time>2015-08-20T09:48:23Z</time>
      </trkpt>
      <trkpt lat="44.04875" lon="7.05824">
        <ele>1871</ele>
        <time>2015-08-20T09:48:26Z</time>
      </trkpt>
      <trkpt lat="44.04873" lon="7.05828">
        <ele>1871</ele>
        <time>2015-08-20T09:48:30Z</time>
      </trkpt>
      <trkpt lat="44.04871" lon="7.05831">
        <ele>1871</ele>
        <time>2015-08-20T09:48:31Z</time>
      </trkpt>
      <trkpt lat="44.04871" lon="7.05832">
        <ele>1871</ele>
        <time>2015-08-20T09:48:32Z</time>
      </trkpt>
      <trkpt lat="44.04869" lon="7.05835">
        <ele>1871</ele>
        <time>2015-08-20T09:48:35Z</time>
      </trkpt>
      <trkpt lat="44.04867" lon="7.05837">
        <ele>1871</ele>
        <time>2015-08-20T09:48:35Z</time>
      </trkpt>
      <trkpt lat="44.04866" lon="7.05839">
        <ele>1871</ele>
        <time>2015-08-20T09:48:37Z</time>
      </trkpt>
      <trkpt lat="44.04866" lon="7.0584">
        <ele>1871</ele>
        <time>2015-08-20T09:48:37Z</time>
      </trkpt>
      <trkpt lat="44.04864" lon="7.05842">
        <ele>1871</ele>
        <time>2015-08-20T09:48:41Z</time>
      </trkpt>
      <trkpt lat="44.04862" lon="7.05843">
        <ele>1871</ele>
        <time>2015-08-20T09:48:41Z</time>
      </trkpt>
      <trkpt lat="44.0486" lon="7.05845">
        <ele>1871</ele>
        <time>2015-08-20T09:48:46Z</time>
      </trkpt>
      <trkpt lat="44.04859" lon="7.05847">
        <ele>1871</ele>
        <time>2015-08-20T09:48:49Z</time>
      </trkpt>
      <trkpt lat="44.04857" lon="7.0585">
        <ele>1871</ele>
        <time>2015-08-20T09:48:54Z</time>
      </trkpt>
      <trkpt lat="44.04855" lon="7.05852">
        <ele>1871</ele>
        <time>2015-08-20T09:48:55Z</time>
      </trkpt>
      <trkpt lat="44.04852" lon="7.05855">
        <ele>1871</ele>
        <time>2015-08-20T09:48:59Z</time>
      </trkpt>
      <trkpt lat="44.0485" lon="7.05856">
        <ele>1871</ele>
        <time>2015-08-20T09:48:59Z</time>
      </trkpt>
      <trkpt lat="44.04848" lon="7.05858">
        <ele>1871</ele>
        <time>2015-08-20T09:49:02Z</time>
      </trkpt>
      <trkpt lat="44.04845" lon="7.05862">
        <ele>1870</ele>
        <time>2015-08-20T09:49:06Z</time>
      </trkpt>
      <trkpt lat="44.04843" lon="7.05864">
        <ele>1870</ele>
        <time>2015-08-20T09:49:06Z</time>
      </trkpt>
      <trkpt lat="44.04842" lon="7.05864">
        <ele>1870</ele>
        <time>2015-08-20T09:49:08Z</time>
      </trkpt>
      <trkpt lat="44.04839" lon="7.05865">
        <ele>1869</ele>
        <time>2015-08-20T09:49:10Z</time>
      </trkpt>
      <trkpt lat="44.04837" lon="7.05867">
        <ele>1869</ele>
        <time>2015-08-20T09:49:14Z</time>
      </trkpt>
      <trkpt lat="44.04834" lon="7.0587">
        <ele>1868</ele>
        <time>2015-08-20T09:49:14Z</time>
      </trkpt>
      <trkpt lat="44.04833" lon="7.0587">
        <ele>1868</ele>
        <time>2015-08-20T09:49:16Z</time>
      </trkpt>
      <trkpt lat="44.04832" lon="7.05871">
        <ele>1867</ele>
        <time>2015-08-20T09:49:17Z</time>
      </trkpt>
      <trkpt lat="44.04827" lon="7.05873">
        <ele>1867</ele>
        <time>2015-08-20T09:49:21Z</time>
      </trkpt>
      <trkpt lat="44.04826" lon="7.05874">
        <ele>1866</ele>
        <time>2015-08-20T09:49:21Z</time>
      </trkpt>
      <trkpt lat="44.04825" lon="7.05875">
        <ele>1866</ele>
        <time>2015-08-20T09:49:23Z</time>
      </trkpt>
      <trkpt lat="44.04823" lon="7.05877">
        <ele>1865</ele>
        <time>2015-08-20T09:49:26Z</time>
      </trkpt>
      <trkpt lat="44.04821" lon="7.05878">
        <ele>1864</ele>
        <time>2015-08-20T09:49:26Z</time>
      </trkpt>
      <trkpt lat="44.04818" lon="7.05879">
        <ele>1864</ele>
        <time>2015-08-20T09:49:29Z</time>
      </trkpt>
      <trkpt lat="44.04816" lon="7.05881">
        <ele>1863</ele>
        <time>2015-08-20T09:49:34Z</time>
      </trkpt>
      <trkpt lat="44.04812" lon="7.05883">
        <ele>1863</ele>
        <time>2015-08-20T09:49:34Z</time>
      </trkpt>
      <trkpt lat="44.0481" lon="7.05885">
        <ele>1862</ele>
        <time>2015-08-20T09:49:38Z</time>
      </trkpt>
      <trkpt lat="44.04807" lon="7.05886">
        <ele>1861</ele>
        <time>2015-08-20T09:49:38Z</time>
      </trkpt>
      <trkpt lat="44.04806" lon="7.05886">
        <ele>1861</ele>
        <time>2015-08-20T09:49:39Z</time>
      </trkpt>
      <trkpt lat="44.04805" lon="7.05887">
        <ele>1860</ele>
        <time>2015-08-20T09:49:41Z</time>
      </trkpt>
      <trkpt lat="44.04802" lon="7.05887">
        <ele>1860</ele>
        <time>2015-08-20T09:49:44Z</time>
      </trkpt>
      <trkpt lat="44.048" lon="7.05889">
        <ele>1859</ele>
        <time>2015-08-20T09:49:44Z</time>
      </trkpt>
      <trkpt lat="44.04798" lon="7.0589">
        <ele>1859</ele>
        <time>2015-08-20T09:49:47Z</time>
      </trkpt>
      <trkpt lat="44.04796" lon="7.0589">
        <ele>1858</ele>
        <time>2015-08-20T09:49:50Z</time>
      </trkpt>
      <trkpt lat="44.04794" lon="7.05892">
        <ele>1858</ele>
        <time>2015-08-20T09:49:50Z</time>
      </trkpt>
      <trkpt lat="44.04792" lon="7.05893">
        <ele>1857</ele>
        <time>2015-08-20T09:49:53Z</time>
      </trkpt>
      <trkpt lat="44.04789" lon="7.05894">
        <ele>1857</ele>
        <time>2015-08-20T09:49:56Z</time>
      </trkpt>
      <trkpt lat="44.04787" lon="7.05896">
        <ele>1856</ele>
        <time>2015-08-20T09:49:56Z</time>
      </trkpt>
      <trkpt lat="44.04784" lon="7.05899">
        <ele>1855</ele>
        <time>2015-08-20T09:50:01Z</time>
      </trkpt>
      <trkpt lat="44.04782" lon="7.059">
        <ele>1854</ele>
        <time>2015-08-20T09:50:01Z</time>
      </trkpt>
      <trkpt lat="44.04777" lon="7.05904">
        <ele>1854</ele>
        <time>2015-08-20T09:50:07Z</time>
      </trkpt>
      <trkpt lat="44.04776" lon="7.05906">
        <ele>1853</ele>
        <time>2015-08-20T09:50:08Z</time>
      </trkpt>
      <trkpt lat="44.04773" lon="7.05908">
        <ele>1852</ele>
        <time>2015-08-20T09:50:12Z</time>
      </trkpt>
      <trkpt lat="44.04771" lon="7.05909">
        <ele>1851</ele>
        <time>2015-08-20T09:50:12Z</time>
      </trkpt>
      <trkpt lat="44.0477" lon="7.0591">
        <ele>1850</ele>
        <time>2015-08-20T09:50:15Z</time>
      </trkpt>
      <trkpt lat="44.04767" lon="7.05914">
        <ele>1850</ele>
        <time>2015-08-20T09:50:20Z</time>
      </trkpt>
      <trkpt lat="44.04766" lon="7.05918">
        <ele>1849</ele>
        <time>2015-08-20T09:50:21Z</time>
      </trkpt>
      <trkpt lat="44.04765" lon="7.0592">
        <ele>1849</ele>
        <time>2015-08-20T09:50:21Z</time>
      </trkpt>
      <trkpt lat="44.04764" lon="7.05923">
        <ele>1848</ele>
        <time>2015-08-20T09:50:25Z</time>
      </trkpt>
      <trkpt lat="44.04763" lon="7.05926">
        <ele>1847</ele>
        <time>2015-08-20T09:50:25Z</time>
      </trkpt>
      <trkpt lat="44.04762" lon="7.05927">
        <ele>1847</ele>
        <time>2015-08-20T09:50:26Z</time>
      </trkpt>
      <trkpt lat="44.04758" lon="7.05931">
        <ele>1846</ele>
        <time>2015-08-20T09:50:31Z</time>
      </trkpt>
      <trkpt lat="44.04756" lon="7.05933">
        <ele>1845</ele>
        <time>2015-08-20T09:50:31Z</time>
      </trkpt>
      <trkpt lat="44.04753" lon="7.05936">
        <ele>1845</ele>
        <time>2015-08-20T09:50:36Z</time>
      </trkpt>
      <trkpt lat="44.0475" lon="7.05938">
        <ele>1844</ele>
        <time>2015-08-20T09:50:36Z</time>
      </trkpt>
      <trkpt lat="44.04749" lon="7.05939">
        <ele>1844</ele>
        <time>2015-08-20T09:50:37Z</time>
      </trkpt>
      <trkpt lat="44.04747" lon="7.05941">
        <ele>1843</ele>
        <time>2015-08-20T09:50:41Z</time>
      </trkpt>
      <trkpt lat="44.04745" lon="7.05944">
        <ele>1843</ele>
        <time>2015-08-20T09:50:41Z</time>
      </trkpt>
      <trkpt lat="44.04744" lon="7.05945">
        <ele>1842</ele>
        <time>2015-08-20T09:50:42Z</time>
      </trkpt>
      <trkpt lat="44.04739" lon="7.05949">
        <ele>1842</ele>
        <time>2015-08-20T09:50:47Z</time>
      </trkpt>
      <trkpt lat="44.04738" lon="7.0595">
        <ele>1841</ele>
        <time>2015-08-20T09:50:47Z</time>
      </trkpt>
      <trkpt lat="44.04736" lon="7.05954">
        <ele>1841</ele>
        <time>2015-08-20T09:50:52Z</time>
      </trkpt>
      <trkpt lat="44.04733" lon="7.05956">
        <ele>1840</ele>
        <time>2015-08-20T09:50:53Z</time>
      </trkpt>
      <trkpt lat="44.04732" lon="7.05957">
        <ele>1840</ele>
        <time>2015-08-20T09:50:53Z</time>
      </trkpt>
      <trkpt lat="44.04728" lon="7.05962">
        <ele>1840</ele>
        <time>2015-08-20T09:50:58Z</time>
      </trkpt>
      <trkpt lat="44.04727" lon="7.05964">
        <ele>1839</ele>
        <time>2015-08-20T09:50:58Z</time>
      </trkpt>
      <trkpt lat="44.04726" lon="7.05965">
        <ele>1839</ele>
        <time>2015-08-20T09:50:59Z</time>
      </trkpt>
      <trkpt lat="44.04724" lon="7.05967">
        <ele>1839</ele>
        <time>2015-08-20T09:51:03Z</time>
      </trkpt>
      <trkpt lat="44.04723" lon="7.0597">
        <ele>1838</ele>
        <time>2015-08-20T09:51:03Z</time>
      </trkpt>
      <trkpt lat="44.04722" lon="7.05972">
        <ele>1838</ele>
        <time>2015-08-20T09:51:05Z</time>
      </trkpt>
      <trkpt lat="44.04721" lon="7.05973">
        <ele>1838</ele>
        <time>2015-08-20T09:51:06Z</time>
      </trkpt>
      <trkpt lat="44.04718" lon="7.05977">
        <ele>1837</ele>
        <time>2015-08-20T09:51:10Z</time>
      </trkpt>
      <trkpt lat="44.04716" lon="7.0598">
        <ele>1837</ele>
        <time>2015-08-20T09:51:10Z</time>
      </trkpt>
      <trkpt lat="44.04715" lon="7.05984">
        <ele>1836</ele>
        <time>2015-08-20T09:51:15Z</time>
      </trkpt>
      <trkpt lat="44.04713" lon="7.05989">
        <ele>1836</ele>
        <time>2015-08-20T09:51:17Z</time>
      </trkpt>
      <trkpt lat="44.04713" lon="7.05991">
        <ele>1835</ele>
        <time>2015-08-20T09:51:18Z</time>
      </trkpt>
      <trkpt lat="44.04711" lon="7.05994">
        <ele>1835</ele>
        <time>2015-08-20T09:51:21Z</time>
      </trkpt>
      <trkpt lat="44.04709" lon="7.05999">
        <ele>1834</ele>
        <time>2015-08-20T09:51:23Z</time>
      </trkpt>
      <trkpt lat="44.04708" lon="7.06">
        <ele>1834</ele>
        <time>2015-08-20T09:51:24Z</time>
      </trkpt>
      <trkpt lat="44.04707" lon="7.06002">
        <ele>1833</ele>
        <time>2015-08-20T09:51:27Z</time>
      </trkpt>
      <trkpt lat="44.04705" lon="7.06005">
        <ele>1832</ele>
        <time>2015-08-20T09:51:28Z</time>
      </trkpt>
      <trkpt lat="44.04705" lon="7.06006">
        <ele>1832</ele>
        <time>2015-08-20T09:51:28Z</time>
      </trkpt>
      <trkpt lat="44.04703" lon="7.06009">
        <ele>1831</ele>
        <time>2015-08-20T09:51:32Z</time>
      </trkpt>
      <trkpt lat="44.04701" lon="7.06011">
        <ele>1831</ele>
        <time>2015-08-20T09:51:33Z</time>
      </trkpt>
      <trkpt lat="44.04697" lon="7.06018">
        <ele>1830</ele>
        <time>2015-08-20T09:51:38Z</time>
      </trkpt>
      <trkpt lat="44.04695" lon="7.06021">
        <ele>1829</ele>
        <time>2015-08-20T09:51:39Z</time>
      </trkpt>
      <trkpt lat="44.04694" lon="7.06023">
        <ele>1828</ele>
        <time>2015-08-20T09:51:43Z</time>
      </trkpt>
      <trkpt lat="44.04692" lon="7.06026">
        <ele>1828</ele>
        <time>2015-08-20T09:51:43Z</time>
      </trkpt>
      <trkpt lat="44.0469" lon="7.0603">
        <ele>1827</ele>
        <time>2015-08-20T09:51:48Z</time>
      </trkpt>
      <trkpt lat="44.04689" lon="7.06031">
        <ele>1826</ele>
        <time>2015-08-20T09:51:49Z</time>
      </trkpt>
      <trkpt lat="44.04688" lon="7.06034">
        <ele>1826</ele>
        <time>2015-08-20T09:51:53Z</time>
      </trkpt>
      <trkpt lat="44.04686" lon="7.06036">
        <ele>1825</ele>
        <time>2015-08-20T09:51:54Z</time>
      </trkpt>
      <trkpt lat="44.04684" lon="7.06038">
        <ele>1825</ele>
        <time>2015-08-20T09:51:56Z</time>
      </trkpt>
      <trkpt lat="44.04683" lon="7.0604">
        <ele>1825</ele>
        <time>2015-08-20T09:51:59Z</time>
      </trkpt>
      <trkpt lat="44.04681" lon="7.06043">
        <ele>1824</ele>
        <time>2015-08-20T09:51:59Z</time>
      </trkpt>
      <trkpt lat="44.04679" lon="7.06046">
        <ele>1824</ele>
        <time>2015-08-20T09:52:04Z</time>
      </trkpt>
      <trkpt lat="44.04678" lon="7.06048">
        <ele>1823</ele>
        <time>2015-08-20T09:52:04Z</time>
      </trkpt>
      <trkpt lat="44.04674" lon="7.06055">
        <ele>1822</ele>
        <time>2015-08-20T09:52:10Z</time>
      </trkpt>
      <trkpt lat="44.04671" lon="7.06058">
        <ele>1821</ele>
        <time>2015-08-20T09:52:15Z</time>
      </trkpt>
      <trkpt lat="44.04669" lon="7.06061">
        <ele>1820</ele>
        <time>2015-08-20T09:52:15Z</time>
      </trkpt>
      <trkpt lat="44.04667" lon="7.06065">
        <ele>1819</ele>
        <time>2015-08-20T09:52:20Z</time>
      </trkpt>
      <trkpt lat="44.04665" lon="7.06067">
        <ele>1819</ele>
        <time>2015-08-20T09:52:20Z</time>
      </trkpt>
      <trkpt lat="44.04663" lon="7.0607">
        <ele>1818</ele>
        <time>2015-08-20T09:52:25Z</time>
      </trkpt>
      <trkpt lat="44.04661" lon="7.06072">
        <ele>1817</ele>
        <time>2015-08-20T09:52:25Z</time>
      </trkpt>
      <trkpt lat="44.04657" lon="7.06077">
        <ele>1816</ele>
        <time>2015-08-20T09:52:30Z</time>
      </trkpt>
      <trkpt lat="44.04655" lon="7.0608">
        <ele>1815</ele>
        <time>2015-08-20T09:52:36Z</time>
      </trkpt>
      <trkpt lat="44.04652" lon="7.06083">
        <ele>1814</ele>
        <time>2015-08-20T09:52:36Z</time>
      </trkpt>
      <trkpt lat="44.0465" lon="7.06086">
        <ele>1813</ele>
        <time>2015-08-20T09:52:41Z</time>
      </trkpt>
      <trkpt lat="44.04648" lon="7.06088">
        <ele>1813</ele>
        <time>2015-08-20T09:52:41Z</time>
      </trkpt>
      <trkpt lat="44.04645" lon="7.0609">
        <ele>1812</ele>
        <time>2015-08-20T09:52:46Z</time>
      </trkpt>
      <trkpt lat="44.04643" lon="7.06093">
        <ele>1811</ele>
        <time>2015-08-20T09:52:46Z</time>
      </trkpt>
      <trkpt lat="44.04641" lon="7.06096">
        <ele>1810</ele>
        <time>2015-08-20T09:52:51Z</time>
      </trkpt>
      <trkpt lat="44.04639" lon="7.06097">
        <ele>1810</ele>
        <time>2015-08-20T09:52:52Z</time>
      </trkpt>
      <trkpt lat="44.04638" lon="7.06096">
        <ele>1808</ele>
        <time>2015-08-20T09:52:55Z</time>
      </trkpt>
      <trkpt lat="44.04636" lon="7.06098">
        <ele>1808</ele>
        <time>2015-08-20T09:52:59Z</time>
      </trkpt>
      <trkpt lat="44.04634" lon="7.06102">
        <ele>1807</ele>
        <time>2015-08-20T09:53:00Z</time>
      </trkpt>
      <trkpt lat="44.04632" lon="7.06103">
        <ele>1807</ele>
        <time>2015-08-20T09:53:02Z</time>
      </trkpt>
      <trkpt lat="44.0463" lon="7.06105">
        <ele>1806</ele>
        <time>2015-08-20T09:53:07Z</time>
      </trkpt>
      <trkpt lat="44.04627" lon="7.06109">
        <ele>1806</ele>
        <time>2015-08-20T09:53:07Z</time>
      </trkpt>
      <trkpt lat="44.04625" lon="7.06111">
        <ele>1805</ele>
        <time>2015-08-20T09:53:10Z</time>
      </trkpt>
      <trkpt lat="44.04624" lon="7.06113">
        <ele>1804</ele>
        <time>2015-08-20T09:53:14Z</time>
      </trkpt>
      <trkpt lat="44.04622" lon="7.06117">
        <ele>1804</ele>
        <time>2015-08-20T09:53:14Z</time>
      </trkpt>
      <trkpt lat="44.0462" lon="7.06119">
        <ele>1803</ele>
        <time>2015-08-20T09:53:16Z</time>
      </trkpt>
      <trkpt lat="44.04619" lon="7.06121">
        <ele>1802</ele>
        <time>2015-08-20T09:53:20Z</time>
      </trkpt>
      <trkpt lat="44.04617" lon="7.06124">
        <ele>1802</ele>
        <time>2015-08-20T09:53:20Z</time>
      </trkpt>
      <trkpt lat="44.04616" lon="7.06125">
        <ele>1801</ele>
        <time>2015-08-20T09:53:22Z</time>
      </trkpt>
      <trkpt lat="44.04614" lon="7.06127">
        <ele>1801</ele>
        <time>2015-08-20T09:53:26Z</time>
      </trkpt>
      <trkpt lat="44.04612" lon="7.06129">
        <ele>1800</ele>
        <time>2015-08-20T09:53:26Z</time>
      </trkpt>
      <trkpt lat="44.0461" lon="7.06132">
        <ele>1799</ele>
        <time>2015-08-20T09:53:31Z</time>
      </trkpt>
      <trkpt lat="44.04609" lon="7.06133">
        <ele>1799</ele>
        <time>2015-08-20T09:53:31Z</time>
      </trkpt>
      <trkpt lat="44.04607" lon="7.06135">
        <ele>1798</ele>
        <time>2015-08-20T09:53:33Z</time>
      </trkpt>
      <trkpt lat="44.04604" lon="7.06136">
        <ele>1797</ele>
        <time>2015-08-20T09:53:38Z</time>
      </trkpt>
      <trkpt lat="44.04602" lon="7.06138">
        <ele>1796</ele>
        <time>2015-08-20T09:53:38Z</time>
      </trkpt>
      <trkpt lat="44.046" lon="7.0614">
        <ele>1796</ele>
        <time>2015-08-20T09:53:43Z</time>
      </trkpt>
      <trkpt lat="44.04598" lon="7.06141">
        <ele>1795</ele>
        <time>2015-08-20T09:53:43Z</time>
      </trkpt>
      <trkpt lat="44.04596" lon="7.06142">
        <ele>1794</ele>
        <time>2015-08-20T09:53:45Z</time>
      </trkpt>
      <trkpt lat="44.04594" lon="7.06143">
        <ele>1794</ele>
        <time>2015-08-20T09:53:49Z</time>
      </trkpt>
      <trkpt lat="44.04592" lon="7.06144">
        <ele>1794</ele>
        <time>2015-08-20T09:53:50Z</time>
      </trkpt>
      <trkpt lat="44.04587" lon="7.06147">
        <ele>1793</ele>
        <time>2015-08-20T09:53:54Z</time>
      </trkpt>
      <trkpt lat="44.04584" lon="7.06149">
        <ele>1792</ele>
        <time>2015-08-20T09:54:00Z</time>
      </trkpt>
      <trkpt lat="44.04582" lon="7.06151">
        <ele>1791</ele>
        <time>2015-08-20T09:54:00Z</time>
      </trkpt>
      <trkpt lat="44.04578" lon="7.06153">
        <ele>1790</ele>
        <time>2015-08-20T09:54:05Z</time>
      </trkpt>
      <trkpt lat="44.04577" lon="7.06154">
        <ele>1790</ele>
        <time>2015-08-20T09:54:05Z</time>
      </trkpt>
      <trkpt lat="44.04574" lon="7.06156">
        <ele>1789</ele>
        <time>2015-08-20T09:54:10Z</time>
      </trkpt>
      <trkpt lat="44.04572" lon="7.06157">
        <ele>1788</ele>
        <time>2015-08-20T09:54:10Z</time>
      </trkpt>
      <trkpt lat="44.04567" lon="7.06159">
        <ele>1788</ele>
        <time>2015-08-20T09:54:16Z</time>
      </trkpt>
      <trkpt lat="44.04565" lon="7.06159">
        <ele>1787</ele>
        <time>2015-08-20T09:54:16Z</time>
      </trkpt>
      <trkpt lat="44.04564" lon="7.06159">
        <ele>1787</ele>
        <time>2015-08-20T09:54:17Z</time>
      </trkpt>
      <trkpt lat="44.04562" lon="7.0616">
        <ele>1786</ele>
        <time>2015-08-20T09:54:21Z</time>
      </trkpt>
      <trkpt lat="44.0456" lon="7.0616">
        <ele>1785</ele>
        <time>2015-08-20T09:54:22Z</time>
      </trkpt>
      <trkpt lat="44.04555" lon="7.06162">
        <ele>1785</ele>
        <time>2015-08-20T09:54:26Z</time>
      </trkpt>
      <trkpt lat="44.04551" lon="7.06163">
        <ele>1784</ele>
        <time>2015-08-20T09:54:32Z</time>
      </trkpt>
      <trkpt lat="44.04548" lon="7.06164">
        <ele>1783</ele>
        <time>2015-08-20T09:54:32Z</time>
      </trkpt>
      <trkpt lat="44.04545" lon="7.06166">
        <ele>1782</ele>
        <time>2015-08-20T09:54:38Z</time>
      </trkpt>
      <trkpt lat="44.04542" lon="7.06168">
        <ele>1781</ele>
        <time>2015-08-20T09:54:38Z</time>
      </trkpt>
      <trkpt lat="44.04541" lon="7.06168">
        <ele>1781</ele>
        <time>2015-08-20T09:54:39Z</time>
      </trkpt>
      <trkpt lat="44.04538" lon="7.06169">
        <ele>1780</ele>
        <time>2015-08-20T09:54:43Z</time>
      </trkpt>
      <trkpt lat="44.04536" lon="7.0617">
        <ele>1779</ele>
        <time>2015-08-20T09:54:44Z</time>
      </trkpt>
      <trkpt lat="44.04533" lon="7.06171">
        <ele>1778</ele>
        <time>2015-08-20T09:54:49Z</time>
      </trkpt>
      <trkpt lat="44.0453" lon="7.06173">
        <ele>1778</ele>
        <time>2015-08-20T09:54:49Z</time>
      </trkpt>
      <trkpt lat="44.04528" lon="7.06175">
        <ele>1777</ele>
        <time>2015-08-20T09:54:54Z</time>
      </trkpt>
      <trkpt lat="44.04526" lon="7.06176">
        <ele>1776</ele>
        <time>2015-08-20T09:54:55Z</time>
      </trkpt>
      <trkpt lat="44.04522" lon="7.06179">
        <ele>1775</ele>
        <time>2015-08-20T09:54:59Z</time>
      </trkpt>
      <trkpt lat="44.0452" lon="7.06181">
        <ele>1774</ele>
        <time>2015-08-20T09:55:02Z</time>
      </trkpt>
      <trkpt lat="44.04517" lon="7.06182">
        <ele>1774</ele>
        <time>2015-08-20T09:55:06Z</time>
      </trkpt>
      <trkpt lat="44.04514" lon="7.06182">
        <ele>1773</ele>
        <time>2015-08-20T09:55:07Z</time>
      </trkpt>
      <trkpt lat="44.04511" lon="7.06184">
        <ele>1772</ele>
        <time>2015-08-20T09:55:12Z</time>
      </trkpt>
      <trkpt lat="44.04509" lon="7.06186">
        <ele>1772</ele>
        <time>2015-08-20T09:55:13Z</time>
      </trkpt>
      <trkpt lat="44.04506" lon="7.06188">
        <ele>1771</ele>
        <time>2015-08-20T09:55:17Z</time>
      </trkpt>
      <trkpt lat="44.04505" lon="7.0619">
        <ele>1770</ele>
        <time>2015-08-20T09:55:17Z</time>
      </trkpt>
      <trkpt lat="44.04504" lon="7.06192">
        <ele>1769</ele>
        <time>2015-08-20T09:55:19Z</time>
      </trkpt>
      <trkpt lat="44.045" lon="7.06196">
        <ele>1769</ele>
        <time>2015-08-20T09:55:25Z</time>
      </trkpt>
      <trkpt lat="44.04498" lon="7.06197">
        <ele>1767</ele>
        <time>2015-08-20T09:55:26Z</time>
      </trkpt>
      <trkpt lat="44.04496" lon="7.06197">
        <ele>1767</ele>
        <time>2015-08-20T09:55:30Z</time>
      </trkpt>
      <trkpt lat="44.04494" lon="7.06198">
        <ele>1766</ele>
        <time>2015-08-20T09:55:30Z</time>
      </trkpt>
      <trkpt lat="44.04492" lon="7.06199">
        <ele>1764</ele>
        <time>2015-08-20T09:55:33Z</time>
      </trkpt>
      <trkpt lat="44.0449" lon="7.06201">
        <ele>1764</ele>
        <time>2015-08-20T09:55:36Z</time>
      </trkpt>
      <trkpt lat="44.04488" lon="7.06202">
        <ele>1763</ele>
        <time>2015-08-20T09:55:36Z</time>
      </trkpt>
      <trkpt lat="44.04485" lon="7.06204">
        <ele>1763</ele>
        <time>2015-08-20T09:55:42Z</time>
      </trkpt>
      <trkpt lat="44.04483" lon="7.06205">
        <ele>1762</ele>
        <time>2015-08-20T09:55:42Z</time>
      </trkpt>
      <trkpt lat="44.04481" lon="7.06207">
        <ele>1761</ele>
        <time>2015-08-20T09:55:47Z</time>
      </trkpt>
      <trkpt lat="44.04479" lon="7.06208">
        <ele>1761</ele>
        <time>2015-08-20T09:55:48Z</time>
      </trkpt>
      <trkpt lat="44.04475" lon="7.06211">
        <ele>1760</ele>
        <time>2015-08-20T09:55:52Z</time>
      </trkpt>
      <trkpt lat="44.04473" lon="7.06212">
        <ele>1759</ele>
        <time>2015-08-20T09:55:54Z</time>
      </trkpt>
      <trkpt lat="44.04471" lon="7.06213">
        <ele>1759</ele>
        <time>2015-08-20T09:55:58Z</time>
      </trkpt>
      <trkpt lat="44.04469" lon="7.06214">
        <ele>1758</ele>
        <time>2015-08-20T09:55:58Z</time>
      </trkpt>
      <trkpt lat="44.04466" lon="7.06215">
        <ele>1757</ele>
        <time>2015-08-20T09:56:03Z</time>
      </trkpt>
      <trkpt lat="44.04464" lon="7.06216">
        <ele>1757</ele>
        <time>2015-08-20T09:56:03Z</time>
      </trkpt>
      <trkpt lat="44.04459" lon="7.06218">
        <ele>1756</ele>
        <time>2015-08-20T09:56:09Z</time>
      </trkpt>
      <trkpt lat="44.04457" lon="7.06219">
        <ele>1755</ele>
        <time>2015-08-20T09:56:10Z</time>
      </trkpt>
      <trkpt lat="44.04456" lon="7.0622">
        <ele>1755</ele>
        <time>2015-08-20T09:56:15Z</time>
      </trkpt>
      <trkpt lat="44.04453" lon="7.06222">
        <ele>1754</ele>
        <time>2015-08-20T09:56:16Z</time>
      </trkpt>
      <trkpt lat="44.04451" lon="7.06223">
        <ele>1753</ele>
        <time>2015-08-20T09:56:18Z</time>
      </trkpt>
      <trkpt lat="44.04447" lon="7.06225">
        <ele>1753</ele>
        <time>2015-08-20T09:56:22Z</time>
      </trkpt>
      <trkpt lat="44.04446" lon="7.06225">
        <ele>1752</ele>
        <time>2015-08-20T09:56:22Z</time>
      </trkpt>
      <trkpt lat="44.04445" lon="7.06226">
        <ele>1752</ele>
        <time>2015-08-20T09:56:23Z</time>
      </trkpt>
      <trkpt lat="44.04443" lon="7.06228">
        <ele>1751</ele>
        <time>2015-08-20T09:56:27Z</time>
      </trkpt>
      <trkpt lat="44.04441" lon="7.06229">
        <ele>1751</ele>
        <time>2015-08-20T09:56:28Z</time>
      </trkpt>
      <trkpt lat="44.04439" lon="7.0623">
        <ele>1750</ele>
        <time>2015-08-20T09:56:28Z</time>
      </trkpt>
      <trkpt lat="44.04437" lon="7.06231">
        <ele>1750</ele>
        <time>2015-08-20T09:56:32Z</time>
      </trkpt>
      <trkpt lat="44.04435" lon="7.06233">
        <ele>1749</ele>
        <time>2015-08-20T09:56:32Z</time>
      </trkpt>
      <trkpt lat="44.04431" lon="7.06236">
        <ele>1748</ele>
        <time>2015-08-20T09:56:38Z</time>
      </trkpt>
      <trkpt lat="44.04429" lon="7.06238">
        <ele>1747</ele>
        <time>2015-08-20T09:56:43Z</time>
      </trkpt>
      <trkpt lat="44.04427" lon="7.06238">
        <ele>1747</ele>
        <time>2015-08-20T09:56:43Z</time>
      </trkpt>
      <trkpt lat="44.04424" lon="7.06239">
        <ele>1744</ele>
        <time>2015-08-20T09:57:34Z</time>
      </trkpt>
      <trkpt lat="44.04422" lon="7.06241">
        <ele>1744</ele>
        <time>2015-08-20T09:57:35Z</time>
      </trkpt>
      <trkpt lat="44.0442" lon="7.06242">
        <ele>1744</ele>
        <time>2015-08-20T09:57:39Z</time>
      </trkpt>
      <trkpt lat="44.04419" lon="7.06243">
        <ele>1743</ele>
        <time>2015-08-20T09:57:39Z</time>
      </trkpt>
      <trkpt lat="44.04416" lon="7.06244">
        <ele>1742</ele>
        <time>2015-08-20T09:57:44Z</time>
      </trkpt>
      <trkpt lat="44.04414" lon="7.06245">
        <ele>1742</ele>
        <time>2015-08-20T09:57:44Z</time>
      </trkpt>
      <trkpt lat="44.0441" lon="7.06249">
        <ele>1741</ele>
        <time>2015-08-20T09:57:50Z</time>
      </trkpt>
      <trkpt lat="44.04408" lon="7.0625">
        <ele>1740</ele>
        <time>2015-08-20T09:57:51Z</time>
      </trkpt>
      <trkpt lat="44.04406" lon="7.06251">
        <ele>1739</ele>
        <time>2015-08-20T09:57:55Z</time>
      </trkpt>
      <trkpt lat="44.04403" lon="7.06252">
        <ele>1739</ele>
        <time>2015-08-20T09:57:55Z</time>
      </trkpt>
      <trkpt lat="44.04401" lon="7.06253">
        <ele>1738</ele>
        <time>2015-08-20T09:58:00Z</time>
      </trkpt>
      <trkpt lat="44.04399" lon="7.06253">
        <ele>1738</ele>
        <time>2015-08-20T09:58:00Z</time>
      </trkpt>
      <trkpt lat="44.04398" lon="7.06254">
        <ele>1737</ele>
        <time>2015-08-20T09:58:01Z</time>
      </trkpt>
      <trkpt lat="44.04394" lon="7.06256">
        <ele>1737</ele>
        <time>2015-08-20T09:58:06Z</time>
      </trkpt>
      <trkpt lat="44.04392" lon="7.06257">
        <ele>1736</ele>
        <time>2015-08-20T09:58:07Z</time>
      </trkpt>
      <trkpt lat="44.04391" lon="7.06258">
        <ele>1736</ele>
        <time>2015-08-20T09:58:07Z</time>
      </trkpt>
      <trkpt lat="44.04388" lon="7.06258">
        <ele>1735</ele>
        <time>2015-08-20T09:58:11Z</time>
      </trkpt>
      <trkpt lat="44.04386" lon="7.0626">
        <ele>1735</ele>
        <time>2015-08-20T09:58:11Z</time>
      </trkpt>
      <trkpt lat="44.04385" lon="7.0626">
        <ele>1734</ele>
        <time>2015-08-20T09:58:12Z</time>
      </trkpt>
      <trkpt lat="44.04381" lon="7.06263">
        <ele>1734</ele>
        <time>2015-08-20T09:58:17Z</time>
      </trkpt>
      <trkpt lat="44.04379" lon="7.06264">
        <ele>1733</ele>
        <time>2015-08-20T09:58:18Z</time>
      </trkpt>
      <trkpt lat="44.04377" lon="7.06264">
        <ele>1732</ele>
        <time>2015-08-20T09:58:22Z</time>
      </trkpt>
      <trkpt lat="44.04375" lon="7.06265">
        <ele>1731</ele>
        <time>2015-08-20T09:58:22Z</time>
      </trkpt>
      <trkpt lat="44.04372" lon="7.06266">
        <ele>1730</ele>
        <time>2015-08-20T09:58:27Z</time>
      </trkpt>
      <trkpt lat="44.04369" lon="7.06266">
        <ele>1730</ele>
        <time>2015-08-20T09:58:29Z</time>
      </trkpt>
      <trkpt lat="44.04367" lon="7.06267">
        <ele>1729</ele>
        <time>2015-08-20T09:58:30Z</time>
      </trkpt>
      <trkpt lat="44.04366" lon="7.06267">
        <ele>1729</ele>
        <time>2015-08-20T09:58:31Z</time>
      </trkpt>
      <trkpt lat="44.04364" lon="7.06268">
        <ele>1728</ele>
        <time>2015-08-20T09:58:35Z</time>
      </trkpt>
      <trkpt lat="44.04361" lon="7.06269">
        <ele>1728</ele>
        <time>2015-08-20T09:58:35Z</time>
      </trkpt>
      <trkpt lat="44.04359" lon="7.0627">
        <ele>1727</ele>
        <time>2015-08-20T09:58:36Z</time>
      </trkpt>
      <trkpt lat="44.04357" lon="7.06271">
        <ele>1727</ele>
        <time>2015-08-20T09:58:40Z</time>
      </trkpt>
      <trkpt lat="44.04355" lon="7.06271">
        <ele>1726</ele>
        <time>2015-08-20T09:58:40Z</time>
      </trkpt>
      <trkpt lat="44.04354" lon="7.06272">
        <ele>1726</ele>
        <time>2015-08-20T09:58:41Z</time>
      </trkpt>
      <trkpt lat="44.04353" lon="7.06272">
        <ele>1725</ele>
        <time>2015-08-20T09:58:42Z</time>
      </trkpt>
      <trkpt lat="44.04351" lon="7.06273">
        <ele>1725</ele>
        <time>2015-08-20T09:58:43Z</time>
      </trkpt>
      <trkpt lat="44.04349" lon="7.06274">
        <ele>1725</ele>
        <time>2015-08-20T09:58:47Z</time>
      </trkpt>
      <trkpt lat="44.04347" lon="7.06274">
        <ele>1724</ele>
        <time>2015-08-20T09:58:48Z</time>
      </trkpt>
      <trkpt lat="44.04345" lon="7.06274">
        <ele>1724</ele>
        <time>2015-08-20T09:58:49Z</time>
      </trkpt>
      <trkpt lat="44.04344" lon="7.06275">
        <ele>1724</ele>
        <time>2015-08-20T09:58:49Z</time>
      </trkpt>
      <trkpt lat="44.04343" lon="7.06276">
        <ele>1723</ele>
        <time>2015-08-20T09:58:50Z</time>
      </trkpt>
      <trkpt lat="44.04341" lon="7.06276">
        <ele>1723</ele>
        <time>2015-08-20T09:58:54Z</time>
      </trkpt>
      <trkpt lat="44.04338" lon="7.06278">
        <ele>1723</ele>
        <time>2015-08-20T09:58:54Z</time>
      </trkpt>
      <trkpt lat="44.04337" lon="7.06279">
        <ele>1722</ele>
        <time>2015-08-20T09:58:57Z</time>
      </trkpt>
      <trkpt lat="44.04335" lon="7.0628">
        <ele>1721</ele>
        <time>2015-08-20T09:59:01Z</time>
      </trkpt>
      <trkpt lat="44.04331" lon="7.06282">
        <ele>1721</ele>
        <time>2015-08-20T09:59:01Z</time>
      </trkpt>
      <trkpt lat="44.0433" lon="7.06283">
        <ele>1720</ele>
        <time>2015-08-20T09:59:02Z</time>
      </trkpt>
      <trkpt lat="44.04327" lon="7.06283">
        <ele>1720</ele>
        <time>2015-08-20T09:59:06Z</time>
      </trkpt>
      <trkpt lat="44.04325" lon="7.06285">
        <ele>1719</ele>
        <time>2015-08-20T09:59:06Z</time>
      </trkpt>
      <trkpt lat="44.04322" lon="7.06286">
        <ele>1718</ele>
        <time>2015-08-20T09:59:11Z</time>
      </trkpt>
      <trkpt lat="44.0432" lon="7.06287">
        <ele>1717</ele>
        <time>2015-08-20T09:59:11Z</time>
      </trkpt>
      <trkpt lat="44.04319" lon="7.06288">
        <ele>1717</ele>
        <time>2015-08-20T09:59:12Z</time>
      </trkpt>
      <trkpt lat="44.04314" lon="7.0629">
        <ele>1717</ele>
        <time>2015-08-20T09:59:17Z</time>
      </trkpt>
      <trkpt lat="44.04312" lon="7.06291">
        <ele>1716</ele>
        <time>2015-08-20T09:59:18Z</time>
      </trkpt>
      <trkpt lat="44.04311" lon="7.06292">
        <ele>1715</ele>
        <time>2015-08-20T09:59:22Z</time>
      </trkpt>
      <trkpt lat="44.04309" lon="7.06294">
        <ele>1714</ele>
        <time>2015-08-20T09:59:22Z</time>
      </trkpt>
      <trkpt lat="44.04306" lon="7.06296">
        <ele>1713</ele>
        <time>2015-08-20T09:59:27Z</time>
      </trkpt>
      <trkpt lat="44.04303" lon="7.06297">
        <ele>1712</ele>
        <time>2015-08-20T09:59:27Z</time>
      </trkpt>
      <trkpt lat="44.04298" lon="7.063">
        <ele>1711</ele>
        <time>2015-08-20T09:59:33Z</time>
      </trkpt>
      <trkpt lat="44.04296" lon="7.06301">
        <ele>1710</ele>
        <time>2015-08-20T09:59:34Z</time>
      </trkpt>
      <trkpt lat="44.04294" lon="7.06301">
        <ele>1710</ele>
        <time>2015-08-20T09:59:38Z</time>
      </trkpt>
      <trkpt lat="44.04292" lon="7.06303">
        <ele>1709</ele>
        <time>2015-08-20T09:59:39Z</time>
      </trkpt>
      <trkpt lat="44.0429" lon="7.06304">
        <ele>1708</ele>
        <time>2015-08-20T09:59:41Z</time>
      </trkpt>
      <trkpt lat="44.04287" lon="7.06307">
        <ele>1708</ele>
        <time>2015-08-20T09:59:45Z</time>
      </trkpt>
      <trkpt lat="44.04284" lon="7.06309">
        <ele>1706</ele>
        <time>2015-08-20T09:59:50Z</time>
      </trkpt>
      <trkpt lat="44.0428" lon="7.06312">
        <ele>1706</ele>
        <time>2015-08-20T09:59:50Z</time>
      </trkpt>
      <trkpt lat="44.04279" lon="7.06313">
        <ele>1705</ele>
        <time>2015-08-20T09:59:51Z</time>
      </trkpt>
      <trkpt lat="44.04278" lon="7.06314">
        <ele>1704</ele>
        <time>2015-08-20T09:59:55Z</time>
      </trkpt>
      <trkpt lat="44.04276" lon="7.06316">
        <ele>1703</ele>
        <time>2015-08-20T09:59:55Z</time>
      </trkpt>
      <trkpt lat="44.04274" lon="7.06318">
        <ele>1702</ele>
        <time>2015-08-20T09:59:57Z</time>
      </trkpt>
      <trkpt lat="44.04271" lon="7.06319">
        <ele>1702</ele>
        <time>2015-08-20T10:00:04Z</time>
      </trkpt>
      <trkpt lat="44.04268" lon="7.06322">
        <ele>1701</ele>
        <time>2015-08-20T10:00:04Z</time>
      </trkpt>
      <trkpt lat="44.04267" lon="7.06323">
        <ele>1700</ele>
        <time>2015-08-20T10:00:08Z</time>
      </trkpt>
      <trkpt lat="44.04265" lon="7.06324">
        <ele>1700</ele>
        <time>2015-08-20T10:00:08Z</time>
      </trkpt>
      <trkpt lat="44.0426" lon="7.06329">
        <ele>1698</ele>
        <time>2015-08-20T10:00:13Z</time>
      </trkpt>
      <trkpt lat="44.04258" lon="7.06331">
        <ele>1697</ele>
        <time>2015-08-20T10:00:15Z</time>
      </trkpt>
      <trkpt lat="44.04257" lon="7.06334">
        <ele>1696</ele>
        <time>2015-08-20T10:00:19Z</time>
      </trkpt>
      <trkpt lat="44.04254" lon="7.06337">
        <ele>1696</ele>
        <time>2015-08-20T10:00:23Z</time>
      </trkpt>
      <trkpt lat="44.04252" lon="7.0634">
        <ele>1695</ele>
        <time>2015-08-20T10:00:23Z</time>
      </trkpt>
      <trkpt lat="44.0425" lon="7.06343">
        <ele>1694</ele>
        <time>2015-08-20T10:00:28Z</time>
      </trkpt>
      <trkpt lat="44.04248" lon="7.06345">
        <ele>1694</ele>
        <time>2015-08-20T10:00:28Z</time>
      </trkpt>
      <trkpt lat="44.04246" lon="7.06348">
        <ele>1693</ele>
        <time>2015-08-20T10:00:31Z</time>
      </trkpt>
      <trkpt lat="44.0424" lon="7.06352">
        <ele>1693</ele>
        <time>2015-08-20T10:00:35Z</time>
      </trkpt>
      <trkpt lat="44.04239" lon="7.06353">
        <ele>1693</ele>
        <time>2015-08-20T10:00:36Z</time>
      </trkpt>
      <trkpt lat="44.04236" lon="7.06356">
        <ele>1693</ele>
        <time>2015-08-20T10:00:41Z</time>
      </trkpt>
      <trkpt lat="44.04235" lon="7.06358">
        <ele>1693</ele>
        <time>2015-08-20T10:00:41Z</time>
      </trkpt>
      <trkpt lat="44.0423" lon="7.06363">
        <ele>1692</ele>
        <time>2015-08-20T10:00:46Z</time>
      </trkpt>
      <trkpt lat="44.04228" lon="7.06367">
        <ele>1692</ele>
        <time>2015-08-20T10:00:52Z</time>
      </trkpt>
      <trkpt lat="44.04226" lon="7.0637">
        <ele>1692</ele>
        <time>2015-08-20T10:00:53Z</time>
      </trkpt>
      <trkpt lat="44.04225" lon="7.06369">
        <ele>1691</ele>
        <time>2015-08-20T10:01:02Z</time>
      </trkpt>
      <trkpt lat="44.04225" lon="7.06368">
        <ele>1690</ele>
        <time>2015-08-20T10:01:24Z</time>
      </trkpt>
      <trkpt lat="44.04223" lon="7.06369">
        <ele>1690</ele>
        <time>2015-08-20T10:01:37Z</time>
      </trkpt>
      <trkpt lat="44.04221" lon="7.06372">
        <ele>1690</ele>
        <time>2015-08-20T10:01:38Z</time>
      </trkpt>
      <trkpt lat="44.04218" lon="7.06375">
        <ele>1690</ele>
        <time>2015-08-20T10:01:43Z</time>
      </trkpt>
      <trkpt lat="44.04214" lon="7.06379">
        <ele>1690</ele>
        <time>2015-08-20T10:01:43Z</time>
      </trkpt>
      <trkpt lat="44.04213" lon="7.06381">
        <ele>1689</ele>
        <time>2015-08-20T10:01:46Z</time>
      </trkpt>
      <trkpt lat="44.04211" lon="7.06384">
        <ele>1689</ele>
        <time>2015-08-20T10:01:49Z</time>
      </trkpt>
      <trkpt lat="44.04209" lon="7.06387">
        <ele>1688</ele>
        <time>2015-08-20T10:01:49Z</time>
      </trkpt>
      <trkpt lat="44.04208" lon="7.06388">
        <ele>1688</ele>
        <time>2015-08-20T10:01:50Z</time>
      </trkpt>
      <trkpt lat="44.04205" lon="7.06392">
        <ele>1688</ele>
        <time>2015-08-20T10:01:55Z</time>
      </trkpt>
      <trkpt lat="44.04203" lon="7.06394">
        <ele>1687</ele>
        <time>2015-08-20T10:01:56Z</time>
      </trkpt>
      <trkpt lat="44.04202" lon="7.06397">
        <ele>1686</ele>
        <time>2015-08-20T10:02:00Z</time>
      </trkpt>
      <trkpt lat="44.042" lon="7.064">
        <ele>1685</ele>
        <time>2015-08-20T10:02:01Z</time>
      </trkpt>
      <trkpt lat="44.04199" lon="7.06403">
        <ele>1684</ele>
        <time>2015-08-20T10:02:06Z</time>
      </trkpt>
      <trkpt lat="44.04197" lon="7.06407">
        <ele>1683</ele>
        <time>2015-08-20T10:02:06Z</time>
      </trkpt>
      <trkpt lat="44.04198" lon="7.06408">
        <ele>1683</ele>
        <time>2015-08-20T10:02:22Z</time>
      </trkpt>
      <trkpt lat="44.042" lon="7.06411">
        <ele>1683</ele>
        <time>2015-08-20T10:02:28Z</time>
      </trkpt>
      <trkpt lat="44.04202" lon="7.06412">
        <ele>1683</ele>
        <time>2015-08-20T10:02:29Z</time>
      </trkpt>
      <trkpt lat="44.04204" lon="7.06414">
        <ele>1683</ele>
        <time>2015-08-20T10:02:34Z</time>
      </trkpt>
      <trkpt lat="44.04208" lon="7.06417">
        <ele>1683</ele>
        <time>2015-08-20T10:02:34Z</time>
      </trkpt>
      <trkpt lat="44.04212" lon="7.06421">
        <ele>1683</ele>
        <time>2015-08-20T10:02:38Z</time>
      </trkpt>
      <trkpt lat="44.04213" lon="7.06422">
        <ele>1683</ele>
        <time>2015-08-20T10:02:39Z</time>
      </trkpt>
      <trkpt lat="44.04215" lon="7.06424">
        <ele>1682</ele>
        <time>2015-08-20T10:02:44Z</time>
      </trkpt>
      <trkpt lat="44.04218" lon="7.06426">
        <ele>1682</ele>
        <time>2015-08-20T10:02:44Z</time>
      </trkpt>
      <trkpt lat="44.04219" lon="7.06428">
        <ele>1682</ele>
        <time>2015-08-20T10:02:45Z</time>
      </trkpt>
      <trkpt lat="44.04222" lon="7.0643">
        <ele>1682</ele>
        <time>2015-08-20T10:02:49Z</time>
      </trkpt>
      <trkpt lat="44.04224" lon="7.06431">
        <ele>1682</ele>
        <time>2015-08-20T10:02:49Z</time>
      </trkpt>
      <trkpt lat="44.04229" lon="7.06437">
        <ele>1682</ele>
        <time>2015-08-20T10:02:54Z</time>
      </trkpt>
      <trkpt lat="44.04232" lon="7.0644">
        <ele>1681</ele>
        <time>2015-08-20T10:03:00Z</time>
      </trkpt>
      <trkpt lat="44.04236" lon="7.06444">
        <ele>1681</ele>
        <time>2015-08-20T10:03:00Z</time>
      </trkpt>
      <trkpt lat="44.04239" lon="7.06448">
        <ele>1681</ele>
        <time>2015-08-20T10:03:05Z</time>
      </trkpt>
      <trkpt lat="44.04241" lon="7.06451">
        <ele>1680</ele>
        <time>2015-08-20T10:03:05Z</time>
      </trkpt>
      <trkpt lat="44.04245" lon="7.06456">
        <ele>1680</ele>
        <time>2015-08-20T10:03:11Z</time>
      </trkpt>
      <trkpt lat="44.04247" lon="7.06457">
        <ele>1679</ele>
        <time>2015-08-20T10:03:12Z</time>
      </trkpt>
      <trkpt lat="44.04248" lon="7.06458">
        <ele>1679</ele>
        <time>2015-08-20T10:03:13Z</time>
      </trkpt>
      <trkpt lat="44.04251" lon="7.0646">
        <ele>1679</ele>
        <time>2015-08-20T10:03:18Z</time>
      </trkpt>
      <trkpt lat="44.04254" lon="7.06462">
        <ele>1679</ele>
        <time>2015-08-20T10:03:19Z</time>
      </trkpt>
      <trkpt lat="44.04255" lon="7.06463">
        <ele>1679</ele>
        <time>2015-08-20T10:03:20Z</time>
      </trkpt>
      <trkpt lat="44.04259" lon="7.06468">
        <ele>1679</ele>
        <time>2015-08-20T10:03:24Z</time>
      </trkpt>
      <trkpt lat="44.04261" lon="7.0647">
        <ele>1678</ele>
        <time>2015-08-20T10:03:25Z</time>
      </trkpt>
      <trkpt lat="44.04263" lon="7.06472">
        <ele>1678</ele>
        <time>2015-08-20T10:03:29Z</time>
      </trkpt>
      <trkpt lat="44.04265" lon="7.06475">
        <ele>1678</ele>
        <time>2015-08-20T10:03:29Z</time>
      </trkpt>
      <trkpt lat="44.04266" lon="7.06476">
        <ele>1677</ele>
        <time>2015-08-20T10:03:30Z</time>
      </trkpt>
      <trkpt lat="44.0427" lon="7.06479">
        <ele>1677</ele>
        <time>2015-08-20T10:03:34Z</time>
      </trkpt>
      <trkpt lat="44.04273" lon="7.06482">
        <ele>1677</ele>
        <time>2015-08-20T10:03:40Z</time>
      </trkpt>
      <trkpt lat="44.04276" lon="7.06485">
        <ele>1677</ele>
        <time>2015-08-20T10:03:40Z</time>
      </trkpt>
      <trkpt lat="44.04279" lon="7.06488">
        <ele>1676</ele>
        <time>2015-08-20T10:03:45Z</time>
      </trkpt>
      <trkpt lat="44.04281" lon="7.06491">
        <ele>1676</ele>
        <time>2015-08-20T10:03:45Z</time>
      </trkpt>
      <trkpt lat="44.04282" lon="7.06492">
        <ele>1676</ele>
        <time>2015-08-20T10:03:46Z</time>
      </trkpt>
      <trkpt lat="44.04285" lon="7.06497">
        <ele>1675</ele>
        <time>2015-08-20T10:03:50Z</time>
      </trkpt>
      <trkpt lat="44.04286" lon="7.06498">
        <ele>1675</ele>
        <time>2015-08-20T10:03:51Z</time>
      </trkpt>
      <trkpt lat="44.04288" lon="7.06501">
        <ele>1675</ele>
        <time>2015-08-20T10:03:56Z</time>
      </trkpt>
      <trkpt lat="44.04291" lon="7.06503">
        <ele>1675</ele>
        <time>2015-08-20T10:03:56Z</time>
      </trkpt>
      <trkpt lat="44.04294" lon="7.06506">
        <ele>1674</ele>
        <time>2015-08-20T10:04:01Z</time>
      </trkpt>
      <trkpt lat="44.04295" lon="7.06508">
        <ele>1674</ele>
        <time>2015-08-20T10:04:01Z</time>
      </trkpt>
      <trkpt lat="44.04296" lon="7.0651">
        <ele>1673</ele>
        <time>2015-08-20T10:04:03Z</time>
      </trkpt>
      <trkpt lat="44.04298" lon="7.06513">
        <ele>1673</ele>
        <time>2015-08-20T10:04:07Z</time>
      </trkpt>
      <trkpt lat="44.04299" lon="7.06516">
        <ele>1673</ele>
        <time>2015-08-20T10:04:07Z</time>
      </trkpt>
      <trkpt lat="44.04303" lon="7.06522">
        <ele>1672</ele>
        <time>2015-08-20T10:04:12Z</time>
      </trkpt>
      <trkpt lat="44.04304" lon="7.06524">
        <ele>1672</ele>
        <time>2015-08-20T10:04:14Z</time>
      </trkpt>
      <trkpt lat="44.04305" lon="7.06525">
        <ele>1672</ele>
        <time>2015-08-20T10:04:18Z</time>
      </trkpt>
      <trkpt lat="44.04306" lon="7.06528">
        <ele>1671</ele>
        <time>2015-08-20T10:04:18Z</time>
      </trkpt>
      <trkpt lat="44.04308" lon="7.06534">
        <ele>1671</ele>
        <time>2015-08-20T10:04:23Z</time>
      </trkpt>
      <trkpt lat="44.04309" lon="7.06537">
        <ele>1670</ele>
        <time>2015-08-20T10:04:29Z</time>
      </trkpt>
      <trkpt lat="44.0431" lon="7.06541">
        <ele>1669</ele>
        <time>2015-08-20T10:04:29Z</time>
      </trkpt>
      <trkpt lat="44.04311" lon="7.06546">
        <ele>1668</ele>
        <time>2015-08-20T10:04:34Z</time>
      </trkpt>
      <trkpt lat="44.04311" lon="7.06548">
        <ele>1667</ele>
        <time>2015-08-20T10:04:34Z</time>
      </trkpt>
      <trkpt lat="44.04314" lon="7.06555">
        <ele>1666</ele>
        <time>2015-08-20T10:04:39Z</time>
      </trkpt>
      <trkpt lat="44.04315" lon="7.06557">
        <ele>1665</ele>
        <time>2015-08-20T10:04:41Z</time>
      </trkpt>
      <trkpt lat="44.04315" lon="7.0656">
        <ele>1665</ele>
        <time>2015-08-20T10:04:45Z</time>
      </trkpt>
      <trkpt lat="44.04316" lon="7.06562">
        <ele>1664</ele>
        <time>2015-08-20T10:04:45Z</time>
      </trkpt>
      <trkpt lat="44.04316" lon="7.06564">
        <ele>1663</ele>
        <time>2015-08-20T10:04:48Z</time>
      </trkpt>
      <trkpt lat="44.04317" lon="7.06567">
        <ele>1663</ele>
        <time>2015-08-20T10:04:52Z</time>
      </trkpt>
      <trkpt lat="44.04317" lon="7.0657">
        <ele>1662</ele>
        <time>2015-08-20T10:04:53Z</time>
      </trkpt>
      <trkpt lat="44.04319" lon="7.06574">
        <ele>1661</ele>
        <time>2015-08-20T10:04:58Z</time>
      </trkpt>
      <trkpt lat="44.04319" lon="7.06577">
        <ele>1660</ele>
        <time>2015-08-20T10:04:58Z</time>
      </trkpt>
      <trkpt lat="44.0432" lon="7.06581">
        <ele>1659</ele>
        <time>2015-08-20T10:05:03Z</time>
      </trkpt>
      <trkpt lat="44.0432" lon="7.06583">
        <ele>1659</ele>
        <time>2015-08-20T10:05:03Z</time>
      </trkpt>
      <trkpt lat="44.0432" lon="7.06586">
        <ele>1658</ele>
        <time>2015-08-20T10:05:06Z</time>
      </trkpt>
      <trkpt lat="44.04321" lon="7.0659">
        <ele>1657</ele>
        <time>2015-08-20T10:05:10Z</time>
      </trkpt>
      <trkpt lat="44.04321" lon="7.06593">
        <ele>1656</ele>
        <time>2015-08-20T10:05:13Z</time>
      </trkpt>
      <trkpt lat="44.04322" lon="7.06598">
        <ele>1655</ele>
        <time>2015-08-20T10:05:16Z</time>
      </trkpt>
      <trkpt lat="44.04323" lon="7.06601">
        <ele>1653</ele>
        <time>2015-08-20T10:05:22Z</time>
      </trkpt>
      <trkpt lat="44.04324" lon="7.06604">
        <ele>1653</ele>
        <time>2015-08-20T10:05:22Z</time>
      </trkpt>
      <trkpt lat="44.04325" lon="7.06606">
        <ele>1651</ele>
        <time>2015-08-20T10:05:25Z</time>
      </trkpt>
      <trkpt lat="44.04326" lon="7.06612">
        <ele>1651</ele>
        <time>2015-08-20T10:05:29Z</time>
      </trkpt>
      <trkpt lat="44.04327" lon="7.06615">
        <ele>1649</ele>
        <time>2015-08-20T10:05:35Z</time>
      </trkpt>
      <trkpt lat="44.04328" lon="7.06619">
        <ele>1649</ele>
        <time>2015-08-20T10:05:35Z</time>
      </trkpt>
      <trkpt lat="44.0433" lon="7.06621">
        <ele>1647</ele>
        <time>2015-08-20T10:05:38Z</time>
      </trkpt>
      <trkpt lat="44.0433" lon="7.06623">
        <ele>1647</ele>
        <time>2015-08-20T10:05:42Z</time>
      </trkpt>
      <trkpt lat="44.0433" lon="7.06627">
        <ele>1646</ele>
        <time>2015-08-20T10:05:43Z</time>
      </trkpt>
      <trkpt lat="44.04331" lon="7.06629">
        <ele>1645</ele>
        <time>2015-08-20T10:05:45Z</time>
      </trkpt>
      <trkpt lat="44.04332" lon="7.06634">
        <ele>1644</ele>
        <time>2015-08-20T10:05:50Z</time>
      </trkpt>
      <trkpt lat="44.04333" lon="7.06637">
        <ele>1643</ele>
        <time>2015-08-20T10:06:08Z</time>
      </trkpt>
      <trkpt lat="44.04335" lon="7.06642">
        <ele>1643</ele>
        <time>2015-08-20T10:06:13Z</time>
      </trkpt>
      <trkpt lat="44.04336" lon="7.06645">
        <ele>1642</ele>
        <time>2015-08-20T10:06:18Z</time>
      </trkpt>
      <trkpt lat="44.04337" lon="7.06647">
        <ele>1641</ele>
        <time>2015-08-20T10:06:19Z</time>
      </trkpt>
      <trkpt lat="44.04337" lon="7.0665">
        <ele>1640</ele>
        <time>2015-08-20T10:06:21Z</time>
      </trkpt>
      <trkpt lat="44.04338" lon="7.06653">
        <ele>1639</ele>
        <time>2015-08-20T10:06:26Z</time>
      </trkpt>
      <trkpt lat="44.04339" lon="7.06658">
        <ele>1639</ele>
        <time>2015-08-20T10:06:27Z</time>
      </trkpt>
      <trkpt lat="44.04339" lon="7.0666">
        <ele>1637</ele>
        <time>2015-08-20T10:06:35Z</time>
      </trkpt>
      <trkpt lat="44.04339" lon="7.06663">
        <ele>1637</ele>
        <time>2015-08-20T10:06:40Z</time>
      </trkpt>
      <trkpt lat="44.04338" lon="7.06665">
        <ele>1637</ele>
        <time>2015-08-20T10:06:41Z</time>
      </trkpt>
      <trkpt lat="44.04335" lon="7.06671">
        <ele>1636</ele>
        <time>2015-08-20T10:06:46Z</time>
      </trkpt>
      <trkpt lat="44.04335" lon="7.06672">
        <ele>1636</ele>
        <time>2015-08-20T10:06:48Z</time>
      </trkpt>
      <trkpt lat="44.04334" lon="7.06677">
        <ele>1635</ele>
        <time>2015-08-20T10:06:52Z</time>
      </trkpt>
      <trkpt lat="44.04333" lon="7.06678">
        <ele>1634</ele>
        <time>2015-08-20T10:06:53Z</time>
      </trkpt>
      <trkpt lat="44.04332" lon="7.06682">
        <ele>1634</ele>
        <time>2015-08-20T10:06:58Z</time>
      </trkpt>
      <trkpt lat="44.04332" lon="7.06684">
        <ele>1633</ele>
        <time>2015-08-20T10:06:58Z</time>
      </trkpt>
      <trkpt lat="44.04331" lon="7.06686">
        <ele>1633</ele>
        <time>2015-08-20T10:07:03Z</time>
      </trkpt>
      <trkpt lat="44.04331" lon="7.06685">
        <ele>1630</ele>
        <time>2015-08-20T10:07:15Z</time>
      </trkpt>
      <trkpt lat="44.04331" lon="7.06686">
        <ele>1629</ele>
        <time>2015-08-20T10:07:21Z</time>
      </trkpt>
      <trkpt lat="44.0433" lon="7.06688">
        <ele>1629</ele>
        <time>2015-08-20T10:07:29Z</time>
      </trkpt>
      <trkpt lat="44.04329" lon="7.06692">
        <ele>1629</ele>
        <time>2015-08-20T10:07:34Z</time>
      </trkpt>
      <trkpt lat="44.04328" lon="7.06698">
        <ele>1629</ele>
        <time>2015-08-20T10:07:35Z</time>
      </trkpt>
      <trkpt lat="44.04327" lon="7.06699">
        <ele>1629</ele>
        <time>2015-08-20T10:07:35Z</time>
      </trkpt>
      <trkpt lat="44.04326" lon="7.06705">
        <ele>1629</ele>
        <time>2015-08-20T10:07:39Z</time>
      </trkpt>
      <trkpt lat="44.04326" lon="7.06707">
        <ele>1629</ele>
        <time>2015-08-20T10:07:40Z</time>
      </trkpt>
      <trkpt lat="44.04324" lon="7.06711">
        <ele>1629</ele>
        <time>2015-08-20T10:07:46Z</time>
      </trkpt>
      <trkpt lat="44.04321" lon="7.06715">
        <ele>1629</ele>
        <time>2015-08-20T10:07:46Z</time>
      </trkpt>
      <trkpt lat="44.0432" lon="7.06718">
        <ele>1629</ele>
        <time>2015-08-20T10:07:49Z</time>
      </trkpt>
      <trkpt lat="44.04316" lon="7.06719">
        <ele>1629</ele>
        <time>2015-08-20T10:07:53Z</time>
      </trkpt>
      <trkpt lat="44.04314" lon="7.06719">
        <ele>1629</ele>
        <time>2015-08-20T10:07:54Z</time>
      </trkpt>
      <trkpt lat="44.04313" lon="7.06719">
        <ele>1629</ele>
        <time>2015-08-20T10:07:54Z</time>
      </trkpt>
      <trkpt lat="44.04311" lon="7.06718">
        <ele>1629</ele>
        <time>2015-08-20T10:07:55Z</time>
      </trkpt>
      <trkpt lat="44.0431" lon="7.06717">
        <ele>1629</ele>
        <time>2015-08-20T10:07:56Z</time>
      </trkpt>
      <trkpt lat="44.04308" lon="7.06716">
        <ele>1628</ele>
        <time>2015-08-20T10:07:58Z</time>
      </trkpt>
      <trkpt lat="44.04303" lon="7.06715">
        <ele>1628</ele>
        <time>2015-08-20T10:08:01Z</time>
      </trkpt>
      <trkpt lat="44.04301" lon="7.06714">
        <ele>1627</ele>
        <time>2015-08-20T10:08:05Z</time>
      </trkpt>
      <trkpt lat="44.04298" lon="7.06713">
        <ele>1627</ele>
        <time>2015-08-20T10:08:05Z</time>
      </trkpt>
      <trkpt lat="44.04297" lon="7.06713">
        <ele>1626</ele>
        <time>2015-08-20T10:08:06Z</time>
      </trkpt>
      <trkpt lat="44.04294" lon="7.06712">
        <ele>1626</ele>
        <time>2015-08-20T10:08:11Z</time>
      </trkpt>
      <trkpt lat="44.0429" lon="7.0671">
        <ele>1625</ele>
        <time>2015-08-20T10:08:12Z</time>
      </trkpt>
      <trkpt lat="44.04289" lon="7.0671">
        <ele>1625</ele>
        <time>2015-08-20T10:08:12Z</time>
      </trkpt>
      <trkpt lat="44.04287" lon="7.0671">
        <ele>1625</ele>
        <time>2015-08-20T10:08:13Z</time>
      </trkpt>
      <trkpt lat="44.04284" lon="7.06709">
        <ele>1624</ele>
        <time>2015-08-20T10:08:17Z</time>
      </trkpt>
      <trkpt lat="44.04282" lon="7.06708">
        <ele>1624</ele>
        <time>2015-08-20T10:08:17Z</time>
      </trkpt>
      <trkpt lat="44.0428" lon="7.06707">
        <ele>1624</ele>
        <time>2015-08-20T10:08:18Z</time>
      </trkpt>
      <trkpt lat="44.04277" lon="7.06706">
        <ele>1623</ele>
        <time>2015-08-20T10:08:23Z</time>
      </trkpt>
      <trkpt lat="44.04273" lon="7.06705">
        <ele>1623</ele>
        <time>2015-08-20T10:08:23Z</time>
      </trkpt>
      <trkpt lat="44.04272" lon="7.06704">
        <ele>1622</ele>
        <time>2015-08-20T10:08:24Z</time>
      </trkpt>
      <trkpt lat="44.04269" lon="7.06704">
        <ele>1622</ele>
        <time>2015-08-20T10:08:28Z</time>
      </trkpt>
      <trkpt lat="44.04266" lon="7.06703">
        <ele>1621</ele>
        <time>2015-08-20T10:08:28Z</time>
      </trkpt>
      <trkpt lat="44.04264" lon="7.06703">
        <ele>1621</ele>
        <time>2015-08-20T10:08:29Z</time>
      </trkpt>
      <trkpt lat="44.04258" lon="7.06701">
        <ele>1621</ele>
        <time>2015-08-20T10:08:33Z</time>
      </trkpt>
      <trkpt lat="44.04257" lon="7.06701">
        <ele>1620</ele>
        <time>2015-08-20T10:08:34Z</time>
      </trkpt>
      <trkpt lat="44.04255" lon="7.067">
        <ele>1620</ele>
        <time>2015-08-20T10:08:35Z</time>
      </trkpt>
      <trkpt lat="44.04253" lon="7.067">
        <ele>1619</ele>
        <time>2015-08-20T10:08:39Z</time>
      </trkpt>
      <trkpt lat="44.04249" lon="7.067">
        <ele>1619</ele>
        <time>2015-08-20T10:08:39Z</time>
      </trkpt>
      <trkpt lat="44.04248" lon="7.067">
        <ele>1619</ele>
        <time>2015-08-20T10:08:40Z</time>
      </trkpt>
      <trkpt lat="44.04245" lon="7.067">
        <ele>1618</ele>
        <time>2015-08-20T10:08:44Z</time>
      </trkpt>
      <trkpt lat="44.04241" lon="7.067">
        <ele>1618</ele>
        <time>2015-08-20T10:08:45Z</time>
      </trkpt>
      <trkpt lat="44.04239" lon="7.067">
        <ele>1618</ele>
        <time>2015-08-20T10:08:46Z</time>
      </trkpt>
      <trkpt lat="44.04237" lon="7.067">
        <ele>1617</ele>
        <time>2015-08-20T10:08:50Z</time>
      </trkpt>
      <trkpt lat="44.04234" lon="7.067">
        <ele>1617</ele>
        <time>2015-08-20T10:08:50Z</time>
      </trkpt>
      <trkpt lat="44.04232" lon="7.067">
        <ele>1616</ele>
        <time>2015-08-20T10:08:51Z</time>
      </trkpt>
      <trkpt lat="44.04226" lon="7.067">
        <ele>1616</ele>
        <time>2015-08-20T10:08:55Z</time>
      </trkpt>
      <trkpt lat="44.04225" lon="7.06699">
        <ele>1616</ele>
        <time>2015-08-20T10:08:56Z</time>
      </trkpt>
      <trkpt lat="44.04224" lon="7.06699">
        <ele>1615</ele>
        <time>2015-08-20T10:08:57Z</time>
      </trkpt>
      <trkpt lat="44.04221" lon="7.06698">
        <ele>1615</ele>
        <time>2015-08-20T10:09:01Z</time>
      </trkpt>
      <trkpt lat="44.04218" lon="7.06698">
        <ele>1615</ele>
        <time>2015-08-20T10:09:01Z</time>
      </trkpt>
      <trkpt lat="44.04217" lon="7.06697">
        <ele>1614</ele>
        <time>2015-08-20T10:09:02Z</time>
      </trkpt>
      <trkpt lat="44.04214" lon="7.06697">
        <ele>1614</ele>
        <time>2015-08-20T10:09:06Z</time>
      </trkpt>
      <trkpt lat="44.0421" lon="7.06696">
        <ele>1614</ele>
        <time>2015-08-20T10:09:07Z</time>
      </trkpt>
      <trkpt lat="44.04208" lon="7.06696">
        <ele>1613</ele>
        <time>2015-08-20T10:09:08Z</time>
      </trkpt>
      <trkpt lat="44.04205" lon="7.06696">
        <ele>1613</ele>
        <time>2015-08-20T10:09:12Z</time>
      </trkpt>
      <trkpt lat="44.04202" lon="7.06696">
        <ele>1612</ele>
        <time>2015-08-20T10:09:12Z</time>
      </trkpt>
      <trkpt lat="44.04201" lon="7.06696">
        <ele>1612</ele>
        <time>2015-08-20T10:09:13Z</time>
      </trkpt>
      <trkpt lat="44.04198" lon="7.06696">
        <ele>1611</ele>
        <time>2015-08-20T10:09:17Z</time>
      </trkpt>
      <trkpt lat="44.04194" lon="7.06696">
        <ele>1611</ele>
        <time>2015-08-20T10:09:18Z</time>
      </trkpt>
      <trkpt lat="44.04192" lon="7.06696">
        <ele>1610</ele>
        <time>2015-08-20T10:09:19Z</time>
      </trkpt>
      <trkpt lat="44.0419" lon="7.06696">
        <ele>1610</ele>
        <time>2015-08-20T10:09:23Z</time>
      </trkpt>
      <trkpt lat="44.04187" lon="7.06696">
        <ele>1609</ele>
        <time>2015-08-20T10:09:23Z</time>
      </trkpt>
      <trkpt lat="44.04186" lon="7.06696">
        <ele>1609</ele>
        <time>2015-08-20T10:09:24Z</time>
      </trkpt>
      <trkpt lat="44.0418" lon="7.06695">
        <ele>1608</ele>
        <time>2015-08-20T10:09:28Z</time>
      </trkpt>
      <trkpt lat="44.04179" lon="7.06695">
        <ele>1608</ele>
        <time>2015-08-20T10:09:29Z</time>
      </trkpt>
      <trkpt lat="44.04177" lon="7.06695">
        <ele>1608</ele>
        <time>2015-08-20T10:09:30Z</time>
      </trkpt>
      <trkpt lat="44.04174" lon="7.06695">
        <ele>1607</ele>
        <time>2015-08-20T10:09:34Z</time>
      </trkpt>
      <trkpt lat="44.04172" lon="7.06695">
        <ele>1607</ele>
        <time>2015-08-20T10:09:34Z</time>
      </trkpt>
      <trkpt lat="44.0417" lon="7.06695">
        <ele>1606</ele>
        <time>2015-08-20T10:09:35Z</time>
      </trkpt>
      <trkpt lat="44.04167" lon="7.06695">
        <ele>1606</ele>
        <time>2015-08-20T10:09:39Z</time>
      </trkpt>
      <trkpt lat="44.04163" lon="7.06696">
        <ele>1606</ele>
        <time>2015-08-20T10:09:40Z</time>
      </trkpt>
      <trkpt lat="44.04162" lon="7.06697">
        <ele>1605</ele>
        <time>2015-08-20T10:09:41Z</time>
      </trkpt>
      <trkpt lat="44.0416" lon="7.06697">
        <ele>1605</ele>
        <time>2015-08-20T10:09:42Z</time>
      </trkpt>
      <trkpt lat="44.04157" lon="7.06698">
        <ele>1605</ele>
        <time>2015-08-20T10:09:46Z</time>
      </trkpt>
      <trkpt lat="44.04155" lon="7.067">
        <ele>1605</ele>
        <time>2015-08-20T10:09:46Z</time>
      </trkpt>
      <trkpt lat="44.04154" lon="7.067">
        <ele>1605</ele>
        <time>2015-08-20T10:10:02Z</time>
      </trkpt>
      <trkpt lat="44.04153" lon="7.067">
        <ele>1605</ele>
        <time>2015-08-20T10:10:04Z</time>
      </trkpt>
      <trkpt lat="44.0415" lon="7.06701">
        <ele>1605</ele>
        <time>2015-08-20T10:10:08Z</time>
      </trkpt>
      <trkpt lat="44.04147" lon="7.06703">
        <ele>1605</ele>
        <time>2015-08-20T10:10:09Z</time>
      </trkpt>
      <trkpt lat="44.04144" lon="7.06705">
        <ele>1604</ele>
        <time>2015-08-20T10:10:14Z</time>
      </trkpt>
      <trkpt lat="44.0414" lon="7.06707">
        <ele>1603</ele>
        <time>2015-08-20T10:10:14Z</time>
      </trkpt>
      <trkpt lat="44.04139" lon="7.06707">
        <ele>1602</ele>
        <time>2015-08-20T10:10:15Z</time>
      </trkpt>
      <trkpt lat="44.04137" lon="7.06709">
        <ele>1602</ele>
        <time>2015-08-20T10:10:19Z</time>
      </trkpt>
      <trkpt lat="44.04134" lon="7.0671">
        <ele>1601</ele>
        <time>2015-08-20T10:10:19Z</time>
      </trkpt>
      <trkpt lat="44.04133" lon="7.06711">
        <ele>1601</ele>
        <time>2015-08-20T10:10:20Z</time>
      </trkpt>
      <trkpt lat="44.04131" lon="7.06712">
        <ele>1600</ele>
        <time>2015-08-20T10:10:24Z</time>
      </trkpt>
      <trkpt lat="44.04126" lon="7.06714">
        <ele>1600</ele>
        <time>2015-08-20T10:10:25Z</time>
      </trkpt>
      <trkpt lat="44.04125" lon="7.06715">
        <ele>1599</ele>
        <time>2015-08-20T10:10:26Z</time>
      </trkpt>
      <trkpt lat="44.04122" lon="7.06717">
        <ele>1599</ele>
        <time>2015-08-20T10:10:30Z</time>
      </trkpt>
      <trkpt lat="44.0412" lon="7.06718">
        <ele>1599</ele>
        <time>2015-08-20T10:10:30Z</time>
      </trkpt>
      <trkpt lat="44.04118" lon="7.06719">
        <ele>1599</ele>
        <time>2015-08-20T10:10:31Z</time>
      </trkpt>
      <trkpt lat="44.04116" lon="7.0672">
        <ele>1598</ele>
        <time>2015-08-20T10:10:36Z</time>
      </trkpt>
      <trkpt lat="44.04112" lon="7.06724">
        <ele>1598</ele>
        <time>2015-08-20T10:10:36Z</time>
      </trkpt>
      <trkpt lat="44.04111" lon="7.06725">
        <ele>1598</ele>
        <time>2015-08-20T10:10:37Z</time>
      </trkpt>
      <trkpt lat="44.04109" lon="7.06725">
        <ele>1598</ele>
        <time>2015-08-20T10:10:42Z</time>
      </trkpt>
      <trkpt lat="44.04108" lon="7.06724">
        <ele>1598</ele>
        <time>2015-08-20T10:10:50Z</time>
      </trkpt>
      <trkpt lat="44.04107" lon="7.06724">
        <ele>1598</ele>
        <time>2015-08-20T10:11:04Z</time>
      </trkpt>
      <trkpt lat="44.04104" lon="7.06725">
        <ele>1598</ele>
        <time>2015-08-20T10:11:05Z</time>
      </trkpt>
      <trkpt lat="44.04102" lon="7.06726">
        <ele>1598</ele>
        <time>2015-08-20T10:11:07Z</time>
      </trkpt>
      <trkpt lat="44.041" lon="7.06727">
        <ele>1598</ele>
        <time>2015-08-20T10:11:12Z</time>
      </trkpt>
      <trkpt lat="44.04095" lon="7.06726">
        <ele>1598</ele>
        <time>2015-08-20T10:11:13Z</time>
      </trkpt>
      <trkpt lat="44.04094" lon="7.06726">
        <ele>1598</ele>
        <time>2015-08-20T10:11:13Z</time>
      </trkpt>
      <trkpt lat="44.04092" lon="7.06727">
        <ele>1598</ele>
        <time>2015-08-20T10:11:17Z</time>
      </trkpt>
      <trkpt lat="44.0409" lon="7.06729">
        <ele>1597</ele>
        <time>2015-08-20T10:11:17Z</time>
      </trkpt>
      <trkpt lat="44.04088" lon="7.06731">
        <ele>1596</ele>
        <time>2015-08-20T10:11:20Z</time>
      </trkpt>
      <trkpt lat="44.04086" lon="7.06733">
        <ele>1596</ele>
        <time>2015-08-20T10:11:24Z</time>
      </trkpt>
      <trkpt lat="44.04082" lon="7.06734">
        <ele>1596</ele>
        <time>2015-08-20T10:11:25Z</time>
      </trkpt>
      <trkpt lat="44.04081" lon="7.06735">
        <ele>1595</ele>
        <time>2015-08-20T10:11:26Z</time>
      </trkpt>
      <trkpt lat="44.04079" lon="7.06735">
        <ele>1595</ele>
        <time>2015-08-20T10:11:27Z</time>
      </trkpt>
      <trkpt lat="44.04078" lon="7.06736">
        <ele>1595</ele>
        <time>2015-08-20T10:11:28Z</time>
      </trkpt>
      <trkpt lat="44.04076" lon="7.06738">
        <ele>1595</ele>
        <time>2015-08-20T10:11:31Z</time>
      </trkpt>
      <trkpt lat="44.04073" lon="7.0674">
        <ele>1594</ele>
        <time>2015-08-20T10:11:31Z</time>
      </trkpt>
      <trkpt lat="44.0407" lon="7.06741">
        <ele>1594</ele>
        <time>2015-08-20T10:11:37Z</time>
      </trkpt>
      <trkpt lat="44.04066" lon="7.0674">
        <ele>1593</ele>
        <time>2015-08-20T10:11:37Z</time>
      </trkpt>
      <trkpt lat="44.04065" lon="7.0674">
        <ele>1593</ele>
        <time>2015-08-20T10:11:38Z</time>
      </trkpt>
      <trkpt lat="44.04062" lon="7.06738">
        <ele>1592</ele>
        <time>2015-08-20T10:11:43Z</time>
      </trkpt>
      <trkpt lat="44.0406" lon="7.06739">
        <ele>1591</ele>
        <time>2015-08-20T10:11:43Z</time>
      </trkpt>
      <trkpt lat="44.04058" lon="7.06741">
        <ele>1591</ele>
        <time>2015-08-20T10:11:45Z</time>
      </trkpt>
      <trkpt lat="44.04057" lon="7.06742">
        <ele>1591</ele>
        <time>2015-08-20T10:11:46Z</time>
      </trkpt>
      <trkpt lat="44.04055" lon="7.06743">
        <ele>1591</ele>
        <time>2015-08-20T10:11:47Z</time>
      </trkpt>
      <trkpt lat="44.04052" lon="7.06743">
        <ele>1591</ele>
        <time>2015-08-20T10:11:51Z</time>
      </trkpt>
      <trkpt lat="44.0405" lon="7.06743">
        <ele>1591</ele>
        <time>2015-08-20T10:11:52Z</time>
      </trkpt>
      <trkpt lat="44.04049" lon="7.06743">
        <ele>1591</ele>
        <time>2015-08-20T10:11:52Z</time>
      </trkpt>
      <trkpt lat="44.04047" lon="7.06742">
        <ele>1591</ele>
        <time>2015-08-20T10:11:53Z</time>
      </trkpt>
      <trkpt lat="44.04045" lon="7.06744">
        <ele>1591</ele>
        <time>2015-08-20T10:11:56Z</time>
      </trkpt>
      <trkpt lat="44.04043" lon="7.06745">
        <ele>1591</ele>
        <time>2015-08-20T10:12:00Z</time>
      </trkpt>
      <trkpt lat="44.04039" lon="7.06747">
        <ele>1591</ele>
        <time>2015-08-20T10:12:08Z</time>
      </trkpt>
      <trkpt lat="44.04029" lon="7.06751">
        <ele>1590</ele>
        <time>2015-08-20T10:12:15Z</time>
      </trkpt>
      <trkpt lat="44.04025" lon="7.06756">
        <ele>1590</ele>
        <time>2015-08-20T10:12:20Z</time>
      </trkpt>
      <trkpt lat="44.04024" lon="7.06757">
        <ele>1590</ele>
        <time>2015-08-20T10:12:22Z</time>
      </trkpt>
      <trkpt lat="44.04021" lon="7.06754">
        <ele>1590</ele>
        <time>2015-08-20T10:12:25Z</time>
      </trkpt>
      <trkpt lat="44.04018" lon="7.06752">
        <ele>1590</ele>
        <time>2015-08-20T10:12:29Z</time>
      </trkpt>
      <trkpt lat="44.04014" lon="7.06754">
        <ele>1590</ele>
        <time>2015-08-20T10:12:30Z</time>
      </trkpt>
      <trkpt lat="44.04013" lon="7.06754">
        <ele>1590</ele>
        <time>2015-08-20T10:12:31Z</time>
      </trkpt>
      <trkpt lat="44.0401" lon="7.06755">
        <ele>1590</ele>
        <time>2015-08-20T10:12:35Z</time>
      </trkpt>
      <trkpt lat="44.04005" lon="7.06758">
        <ele>1590</ele>
        <time>2015-08-20T10:12:35Z</time>
      </trkpt>
      <trkpt lat="44.04004" lon="7.06758">
        <ele>1590</ele>
        <time>2015-08-20T10:12:36Z</time>
      </trkpt>
      <trkpt lat="44.04001" lon="7.06759">
        <ele>1590</ele>
        <time>2015-08-20T10:12:40Z</time>
      </trkpt>
      <trkpt lat="44.03999" lon="7.0676">
        <ele>1590</ele>
        <time>2015-08-20T10:12:40Z</time>
      </trkpt>
      <trkpt lat="44.03995" lon="7.06758">
        <ele>1589</ele>
        <time>2015-08-20T10:12:46Z</time>
      </trkpt>
      <trkpt lat="44.03992" lon="7.06758">
        <ele>1588</ele>
        <time>2015-08-20T10:12:47Z</time>
      </trkpt>
      <trkpt lat="44.03991" lon="7.06759">
        <ele>1588</ele>
        <time>2015-08-20T10:12:48Z</time>
      </trkpt>
      <trkpt lat="44.03989" lon="7.0676">
        <ele>1587</ele>
        <time>2015-08-20T10:12:49Z</time>
      </trkpt>
      <trkpt lat="44.03987" lon="7.06761">
        <ele>1587</ele>
        <time>2015-08-20T10:12:53Z</time>
      </trkpt>
      <trkpt lat="44.03984" lon="7.06763">
        <ele>1586</ele>
        <time>2015-08-20T10:12:53Z</time>
      </trkpt>
      <trkpt lat="44.03982" lon="7.06763">
        <ele>1586</ele>
        <time>2015-08-20T10:12:54Z</time>
      </trkpt>
      <trkpt lat="44.0398" lon="7.06763">
        <ele>1586</ele>
        <time>2015-08-20T10:12:57Z</time>
      </trkpt>
      <trkpt lat="44.03978" lon="7.06764">
        <ele>1586</ele>
        <time>2015-08-20T10:13:01Z</time>
      </trkpt>
      <trkpt lat="44.03975" lon="7.06767">
        <ele>1585</ele>
        <time>2015-08-20T10:13:01Z</time>
      </trkpt>
      <trkpt lat="44.03973" lon="7.06768">
        <ele>1585</ele>
        <time>2015-08-20T10:13:02Z</time>
      </trkpt>
      <trkpt lat="44.0397" lon="7.06771">
        <ele>1584</ele>
        <time>2015-08-20T10:13:07Z</time>
      </trkpt>
      <trkpt lat="44.03967" lon="7.06773">
        <ele>1584</ele>
        <time>2015-08-20T10:13:08Z</time>
      </trkpt>
      <trkpt lat="44.03966" lon="7.06773">
        <ele>1584</ele>
        <time>2015-08-20T10:13:08Z</time>
      </trkpt>
      <trkpt lat="44.03963" lon="7.06775">
        <ele>1584</ele>
        <time>2015-08-20T10:13:13Z</time>
      </trkpt>
      <trkpt lat="44.03959" lon="7.06778">
        <ele>1584</ele>
        <time>2015-08-20T10:13:13Z</time>
      </trkpt>
      <trkpt lat="44.03958" lon="7.06779">
        <ele>1584</ele>
        <time>2015-08-20T10:13:14Z</time>
      </trkpt>
      <trkpt lat="44.03956" lon="7.06779">
        <ele>1584</ele>
        <time>2015-08-20T10:13:18Z</time>
      </trkpt>
      <trkpt lat="44.03954" lon="7.0678">
        <ele>1584</ele>
        <time>2015-08-20T10:13:19Z</time>
      </trkpt>
      <trkpt lat="44.03953" lon="7.0678">
        <ele>1584</ele>
        <time>2015-08-20T10:13:20Z</time>
      </trkpt>
      <trkpt lat="44.0395" lon="7.0678">
        <ele>1583</ele>
        <time>2015-08-20T10:13:24Z</time>
      </trkpt>
      <trkpt lat="44.03946" lon="7.0678">
        <ele>1582</ele>
        <time>2015-08-20T10:13:24Z</time>
      </trkpt>
      <trkpt lat="44.03945" lon="7.0678">
        <ele>1582</ele>
        <time>2015-08-20T10:13:25Z</time>
      </trkpt>
      <trkpt lat="44.03943" lon="7.0678">
        <ele>1581</ele>
        <time>2015-08-20T10:13:29Z</time>
      </trkpt>
      <trkpt lat="44.0394" lon="7.06781">
        <ele>1581</ele>
        <time>2015-08-20T10:13:29Z</time>
      </trkpt>
      <trkpt lat="44.03938" lon="7.06781">
        <ele>1581</ele>
        <time>2015-08-20T10:13:30Z</time>
      </trkpt>
      <trkpt lat="44.03936" lon="7.06782">
        <ele>1581</ele>
        <time>2015-08-20T10:13:35Z</time>
      </trkpt>
      <trkpt lat="44.03933" lon="7.06783">
        <ele>1580</ele>
        <time>2015-08-20T10:13:35Z</time>
      </trkpt>
      <trkpt lat="44.0393" lon="7.06782">
        <ele>1580</ele>
        <time>2015-08-20T10:13:38Z</time>
      </trkpt>
      <trkpt lat="44.03929" lon="7.06783">
        <ele>1579</ele>
        <time>2015-08-20T10:13:39Z</time>
      </trkpt>
      <trkpt lat="44.03927" lon="7.06784">
        <ele>1579</ele>
        <time>2015-08-20T10:13:43Z</time>
      </trkpt>
      <trkpt lat="44.03922" lon="7.06785">
        <ele>1578</ele>
        <time>2015-08-20T10:13:43Z</time>
      </trkpt>
      <trkpt lat="44.03921" lon="7.06786">
        <ele>1578</ele>
        <time>2015-08-20T10:13:44Z</time>
      </trkpt>
      <trkpt lat="44.03918" lon="7.06786">
        <ele>1578</ele>
        <time>2015-08-20T10:13:48Z</time>
      </trkpt>
      <trkpt lat="44.03915" lon="7.06787">
        <ele>1578</ele>
        <time>2015-08-20T10:13:48Z</time>
      </trkpt>
      <trkpt lat="44.03914" lon="7.06787">
        <ele>1578</ele>
        <time>2015-08-20T10:13:49Z</time>
      </trkpt>
      <trkpt lat="44.03912" lon="7.06788">
        <ele>1578</ele>
        <time>2015-08-20T10:13:54Z</time>
      </trkpt>
      <trkpt lat="44.03909" lon="7.06788">
        <ele>1578</ele>
        <time>2015-08-20T10:13:54Z</time>
      </trkpt>
      <trkpt lat="44.03907" lon="7.06789">
        <ele>1578</ele>
        <time>2015-08-20T10:13:57Z</time>
      </trkpt>
      <trkpt lat="44.03904" lon="7.06792">
        <ele>1578</ele>
        <time>2015-08-20T10:14:02Z</time>
      </trkpt>
      <trkpt lat="44.03903" lon="7.06793">
        <ele>1578</ele>
        <time>2015-08-20T10:14:06Z</time>
      </trkpt>
      <trkpt lat="44.03899" lon="7.06795">
        <ele>1577</ele>
        <time>2015-08-20T10:14:07Z</time>
      </trkpt>
      <trkpt lat="44.03897" lon="7.06795">
        <ele>1576</ele>
        <time>2015-08-20T10:14:07Z</time>
      </trkpt>
      <trkpt lat="44.03896" lon="7.06795">
        <ele>1576</ele>
        <time>2015-08-20T10:14:09Z</time>
      </trkpt>
      <trkpt lat="44.03893" lon="7.06796">
        <ele>1576</ele>
        <time>2015-08-20T10:14:13Z</time>
      </trkpt>
      <trkpt lat="44.03889" lon="7.06796">
        <ele>1575</ele>
        <time>2015-08-20T10:14:13Z</time>
      </trkpt>
      <trkpt lat="44.03888" lon="7.06795">
        <ele>1575</ele>
        <time>2015-08-20T10:14:14Z</time>
      </trkpt>
      <trkpt lat="44.03887" lon="7.06794">
        <ele>1574</ele>
        <time>2015-08-20T10:14:16Z</time>
      </trkpt>
      <trkpt lat="44.03884" lon="7.06794">
        <ele>1573</ele>
        <time>2015-08-20T10:14:20Z</time>
      </trkpt>
      <trkpt lat="44.0388" lon="7.06794">
        <ele>1572</ele>
        <time>2015-08-20T10:14:21Z</time>
      </trkpt>
      <trkpt lat="44.03878" lon="7.06794">
        <ele>1572</ele>
        <time>2015-08-20T10:14:21Z</time>
      </trkpt>
      <trkpt lat="44.03873" lon="7.06794">
        <ele>1571</ele>
        <time>2015-08-20T10:14:25Z</time>
      </trkpt>
      <trkpt lat="44.03872" lon="7.06794">
        <ele>1570</ele>
        <time>2015-08-20T10:14:26Z</time>
      </trkpt>
      <trkpt lat="44.0387" lon="7.06794">
        <ele>1570</ele>
        <time>2015-08-20T10:14:27Z</time>
      </trkpt>
      <trkpt lat="44.03868" lon="7.06794">
        <ele>1569</ele>
        <time>2015-08-20T10:14:31Z</time>
      </trkpt>
      <trkpt lat="44.03866" lon="7.06795">
        <ele>1569</ele>
        <time>2015-08-20T10:14:31Z</time>
      </trkpt>
      <trkpt lat="44.03865" lon="7.06795">
        <ele>1568</ele>
        <time>2015-08-20T10:14:32Z</time>
      </trkpt>
      <trkpt lat="44.03864" lon="7.06794">
        <ele>1568</ele>
        <time>2015-08-20T10:14:33Z</time>
      </trkpt>
      <trkpt lat="44.03861" lon="7.06795">
        <ele>1568</ele>
        <time>2015-08-20T10:14:37Z</time>
      </trkpt>
      <trkpt lat="44.03859" lon="7.06794">
        <ele>1567</ele>
        <time>2015-08-20T10:14:38Z</time>
      </trkpt>
      <trkpt lat="44.03857" lon="7.06794">
        <ele>1567</ele>
        <time>2015-08-20T10:14:38Z</time>
      </trkpt>
      <trkpt lat="44.03856" lon="7.06794">
        <ele>1567</ele>
        <time>2015-08-20T10:14:40Z</time>
      </trkpt>
      <trkpt lat="44.03855" lon="7.06793">
        <ele>1567</ele>
        <time>2015-08-20T10:14:41Z</time>
      </trkpt>
      <trkpt lat="44.03851" lon="7.06788">
        <ele>1566</ele>
        <time>2015-08-20T10:14:45Z</time>
      </trkpt>
      <trkpt lat="44.03851" lon="7.06785">
        <ele>1564</ele>
        <time>2015-08-20T10:14:53Z</time>
      </trkpt>
      <trkpt lat="44.0385" lon="7.06784">
        <ele>1561</ele>
        <time>2015-08-20T10:14:57Z</time>
      </trkpt>
      <trkpt lat="44.03846" lon="7.06779">
        <ele>1561</ele>
        <time>2015-08-20T10:15:01Z</time>
      </trkpt>
      <trkpt lat="44.03846" lon="7.06777">
        <ele>1560</ele>
        <time>2015-08-20T10:15:03Z</time>
      </trkpt>
      <trkpt lat="44.03846" lon="7.06774">
        <ele>1559</ele>
        <time>2015-08-20T10:15:08Z</time>
      </trkpt>
      <trkpt lat="44.03842" lon="7.06773">
        <ele>1558</ele>
        <time>2015-08-20T10:15:09Z</time>
      </trkpt>
      <trkpt lat="44.03841" lon="7.06773">
        <ele>1558</ele>
        <time>2015-08-20T10:15:10Z</time>
      </trkpt>
      <trkpt lat="44.03839" lon="7.06772">
        <ele>1558</ele>
        <time>2015-08-20T10:15:11Z</time>
      </trkpt>
      <trkpt lat="44.03833" lon="7.06771">
        <ele>1557</ele>
        <time>2015-08-20T10:15:15Z</time>
      </trkpt>
      <trkpt lat="44.03832" lon="7.06772">
        <ele>1556</ele>
        <time>2015-08-20T10:15:16Z</time>
      </trkpt>
      <trkpt lat="44.03831" lon="7.06771">
        <ele>1556</ele>
        <time>2015-08-20T10:15:17Z</time>
      </trkpt>
      <trkpt lat="44.03828" lon="7.06772">
        <ele>1555</ele>
        <time>2015-08-20T10:15:22Z</time>
      </trkpt>
      <trkpt lat="44.03825" lon="7.06771">
        <ele>1554</ele>
        <time>2015-08-20T10:15:22Z</time>
      </trkpt>
      <trkpt lat="44.03822" lon="7.06772">
        <ele>1553</ele>
        <time>2015-08-20T10:15:27Z</time>
      </trkpt>
      <trkpt lat="44.03818" lon="7.06774">
        <ele>1553</ele>
        <time>2015-08-20T10:15:27Z</time>
      </trkpt>
      <trkpt lat="44.03817" lon="7.06773">
        <ele>1552</ele>
        <time>2015-08-20T10:15:28Z</time>
      </trkpt>
      <trkpt lat="44.03815" lon="7.06773">
        <ele>1552</ele>
        <time>2015-08-20T10:15:29Z</time>
      </trkpt>
      <trkpt lat="44.03814" lon="7.06773">
        <ele>1552</ele>
        <time>2015-08-20T10:15:30Z</time>
      </trkpt>
      <trkpt lat="44.03812" lon="7.06773">
        <ele>1551</ele>
        <time>2015-08-20T10:15:34Z</time>
      </trkpt>
      <trkpt lat="44.0381" lon="7.06774">
        <ele>1551</ele>
        <time>2015-08-20T10:15:34Z</time>
      </trkpt>
      <trkpt lat="44.03808" lon="7.06774">
        <ele>1551</ele>
        <time>2015-08-20T10:15:35Z</time>
      </trkpt>
      <trkpt lat="44.03807" lon="7.06774">
        <ele>1551</ele>
        <time>2015-08-20T10:15:36Z</time>
      </trkpt>
      <trkpt lat="44.03805" lon="7.06773">
        <ele>1550</ele>
        <time>2015-08-20T10:15:38Z</time>
      </trkpt>
      <trkpt lat="44.03802" lon="7.06772">
        <ele>1550</ele>
        <time>2015-08-20T10:15:42Z</time>
      </trkpt>
      <trkpt lat="44.03798" lon="7.06767">
        <ele>1550</ele>
        <time>2015-08-20T10:15:43Z</time>
      </trkpt>
      <trkpt lat="44.03796" lon="7.06766">
        <ele>1549</ele>
        <time>2015-08-20T10:15:44Z</time>
      </trkpt>
      <trkpt lat="44.03794" lon="7.06764">
        <ele>1549</ele>
        <time>2015-08-20T10:15:48Z</time>
      </trkpt>
      <trkpt lat="44.03792" lon="7.06762">
        <ele>1548</ele>
        <time>2015-08-20T10:15:48Z</time>
      </trkpt>
      <trkpt lat="44.0379" lon="7.06759">
        <ele>1547</ele>
        <time>2015-08-20T10:15:54Z</time>
      </trkpt>
      <trkpt lat="44.03786" lon="7.06757">
        <ele>1547</ele>
        <time>2015-08-20T10:15:54Z</time>
      </trkpt>
      <trkpt lat="44.03785" lon="7.06756">
        <ele>1546</ele>
        <time>2015-08-20T10:15:56Z</time>
      </trkpt>
      <trkpt lat="44.03783" lon="7.06755">
        <ele>1545</ele>
        <time>2015-08-20T10:16:00Z</time>
      </trkpt>
      <trkpt lat="44.0378" lon="7.06754">
        <ele>1544</ele>
        <time>2015-08-20T10:16:00Z</time>
      </trkpt>
      <trkpt lat="44.03779" lon="7.06753">
        <ele>1544</ele>
        <time>2015-08-20T10:16:01Z</time>
      </trkpt>
      <trkpt lat="44.03777" lon="7.06753">
        <ele>1543</ele>
        <time>2015-08-20T10:16:06Z</time>
      </trkpt>
      <trkpt lat="44.03773" lon="7.06753">
        <ele>1543</ele>
        <time>2015-08-20T10:16:06Z</time>
      </trkpt>
      <trkpt lat="44.03772" lon="7.06754">
        <ele>1543</ele>
        <time>2015-08-20T10:16:08Z</time>
      </trkpt>
      <trkpt lat="44.0377" lon="7.06754">
        <ele>1543</ele>
        <time>2015-08-20T10:16:09Z</time>
      </trkpt>
      <trkpt lat="44.03769" lon="7.06754">
        <ele>1543</ele>
        <time>2015-08-20T10:16:10Z</time>
      </trkpt>
      <trkpt lat="44.03766" lon="7.06754">
        <ele>1543</ele>
        <time>2015-08-20T10:16:13Z</time>
      </trkpt>
      <trkpt lat="44.03763" lon="7.06752">
        <ele>1543</ele>
        <time>2015-08-20T10:16:14Z</time>
      </trkpt>
      <trkpt lat="44.03762" lon="7.06751">
        <ele>1543</ele>
        <time>2015-08-20T10:16:15Z</time>
      </trkpt>
      <trkpt lat="44.0376" lon="7.0675">
        <ele>1543</ele>
        <time>2015-08-20T10:16:19Z</time>
      </trkpt>
      <trkpt lat="44.03758" lon="7.06749">
        <ele>1543</ele>
        <time>2015-08-20T10:16:20Z</time>
      </trkpt>
      <trkpt lat="44.03756" lon="7.06747">
        <ele>1542</ele>
        <time>2015-08-20T10:16:25Z</time>
      </trkpt>
      <trkpt lat="44.03753" lon="7.06745">
        <ele>1541</ele>
        <time>2015-08-20T10:16:25Z</time>
      </trkpt>
      <trkpt lat="44.03752" lon="7.06744">
        <ele>1541</ele>
        <time>2015-08-20T10:16:26Z</time>
      </trkpt>
      <trkpt lat="44.0375" lon="7.06744">
        <ele>1540</ele>
        <time>2015-08-20T10:16:28Z</time>
      </trkpt>
      <trkpt lat="44.03744" lon="7.06741">
        <ele>1539</ele>
        <time>2015-08-20T10:16:31Z</time>
      </trkpt>
      <trkpt lat="44.03741" lon="7.06738">
        <ele>1538</ele>
        <time>2015-08-20T10:16:37Z</time>
      </trkpt>
      <trkpt lat="44.03738" lon="7.06735">
        <ele>1537</ele>
        <time>2015-08-20T10:16:37Z</time>
      </trkpt>
      <trkpt lat="44.03735" lon="7.06734">
        <ele>1537</ele>
        <time>2015-08-20T10:16:40Z</time>
      </trkpt>
      <trkpt lat="44.03734" lon="7.06733">
        <ele>1536</ele>
        <time>2015-08-20T10:16:41Z</time>
      </trkpt>
      <trkpt lat="44.03732" lon="7.06732">
        <ele>1536</ele>
        <time>2015-08-20T10:16:45Z</time>
      </trkpt>
      <trkpt lat="44.03728" lon="7.06732">
        <ele>1536</ele>
        <time>2015-08-20T10:16:45Z</time>
      </trkpt>
      <trkpt lat="44.03724" lon="7.0673">
        <ele>1536</ele>
        <time>2015-08-20T10:16:51Z</time>
      </trkpt>
      <trkpt lat="44.0372" lon="7.06728">
        <ele>1536</ele>
        <time>2015-08-20T10:16:52Z</time>
      </trkpt>
      <trkpt lat="44.03719" lon="7.06728">
        <ele>1536</ele>
        <time>2015-08-20T10:16:53Z</time>
      </trkpt>
      <trkpt lat="44.03717" lon="7.06728">
        <ele>1536</ele>
        <time>2015-08-20T10:16:53Z</time>
      </trkpt>
      <trkpt lat="44.03715" lon="7.06726">
        <ele>1536</ele>
        <time>2015-08-20T10:16:57Z</time>
      </trkpt>
      <trkpt lat="44.03712" lon="7.06725">
        <ele>1536</ele>
        <time>2015-08-20T10:16:57Z</time>
      </trkpt>
      <trkpt lat="44.0371" lon="7.06724">
        <ele>1536</ele>
        <time>2015-08-20T10:17:00Z</time>
      </trkpt>
      <trkpt lat="44.03708" lon="7.06723">
        <ele>1536</ele>
        <time>2015-08-20T10:17:01Z</time>
      </trkpt>
      <trkpt lat="44.03705" lon="7.06721">
        <ele>1536</ele>
        <time>2015-08-20T10:17:05Z</time>
      </trkpt>
      <trkpt lat="44.03702" lon="7.06718">
        <ele>1536</ele>
        <time>2015-08-20T10:17:05Z</time>
      </trkpt>
      <trkpt lat="44.03701" lon="7.06718">
        <ele>1536</ele>
        <time>2015-08-20T10:17:06Z</time>
      </trkpt>
      <trkpt lat="44.03697" lon="7.06718">
        <ele>1536</ele>
        <time>2015-08-20T10:17:10Z</time>
      </trkpt>
      <trkpt lat="44.03695" lon="7.06716">
        <ele>1536</ele>
        <time>2015-08-20T10:17:10Z</time>
      </trkpt>
      <trkpt lat="44.03693" lon="7.06715">
        <ele>1536</ele>
        <time>2015-08-20T10:17:12Z</time>
      </trkpt>
      <trkpt lat="44.03692" lon="7.06715">
        <ele>1536</ele>
        <time>2015-08-20T10:17:12Z</time>
      </trkpt>
      <trkpt lat="44.03687" lon="7.06714">
        <ele>1536</ele>
        <time>2015-08-20T10:17:16Z</time>
      </trkpt>
      <trkpt lat="44.03683" lon="7.06711">
        <ele>1535</ele>
        <time>2015-08-20T10:17:23Z</time>
      </trkpt>
      <trkpt lat="44.03678" lon="7.0671">
        <ele>1535</ele>
        <time>2015-08-20T10:17:24Z</time>
      </trkpt>
      <trkpt lat="44.03677" lon="7.06709">
        <ele>1535</ele>
        <time>2015-08-20T10:17:25Z</time>
      </trkpt>
      <trkpt lat="44.03675" lon="7.06709">
        <ele>1534</ele>
        <time>2015-08-20T10:17:25Z</time>
      </trkpt>
      <trkpt lat="44.03671" lon="7.06708">
        <ele>1534</ele>
        <time>2015-08-20T10:17:29Z</time>
      </trkpt>
      <trkpt lat="44.03667" lon="7.06709">
        <ele>1533</ele>
        <time>2015-08-20T10:17:35Z</time>
      </trkpt>
      <trkpt lat="44.03662" lon="7.06712">
        <ele>1533</ele>
        <time>2015-08-20T10:17:36Z</time>
      </trkpt>
      <trkpt lat="44.03661" lon="7.06712">
        <ele>1533</ele>
        <time>2015-08-20T10:17:37Z</time>
      </trkpt>
      <trkpt lat="44.0366" lon="7.06713">
        <ele>1533</ele>
        <time>2015-08-20T10:17:38Z</time>
      </trkpt>
      <trkpt lat="44.03659" lon="7.06714">
        <ele>1533</ele>
        <time>2015-08-20T10:17:39Z</time>
      </trkpt>
      <trkpt lat="44.03657" lon="7.06716">
        <ele>1533</ele>
        <time>2015-08-20T10:17:43Z</time>
      </trkpt>
      <trkpt lat="44.03653" lon="7.0672">
        <ele>1533</ele>
        <time>2015-08-20T10:17:44Z</time>
      </trkpt>
      <trkpt lat="44.0365" lon="7.0672">
        <ele>1533</ele>
        <time>2015-08-20T10:17:47Z</time>
      </trkpt>
      <trkpt lat="44.03647" lon="7.06718">
        <ele>1533</ele>
        <time>2015-08-20T10:17:51Z</time>
      </trkpt>
      <trkpt lat="44.03643" lon="7.06716">
        <ele>1533</ele>
        <time>2015-08-20T10:17:52Z</time>
      </trkpt>
      <trkpt lat="44.03642" lon="7.06715">
        <ele>1533</ele>
        <time>2015-08-20T10:17:53Z</time>
      </trkpt>
      <trkpt lat="44.03639" lon="7.06713">
        <ele>1532</ele>
        <time>2015-08-20T10:17:54Z</time>
      </trkpt>
      <trkpt lat="44.03636" lon="7.06711">
        <ele>1531</ele>
        <time>2015-08-20T10:17:59Z</time>
      </trkpt>
      <trkpt lat="44.03632" lon="7.06709">
        <ele>1531</ele>
        <time>2015-08-20T10:18:00Z</time>
      </trkpt>
      <trkpt lat="44.03629" lon="7.06709">
        <ele>1530</ele>
        <time>2015-08-20T10:18:04Z</time>
      </trkpt>
      <trkpt lat="44.03625" lon="7.06708">
        <ele>1529</ele>
        <time>2015-08-20T10:18:04Z</time>
      </trkpt>
      <trkpt lat="44.03623" lon="7.06708">
        <ele>1528</ele>
        <time>2015-08-20T10:18:07Z</time>
      </trkpt>
      <trkpt lat="44.03622" lon="7.06708">
        <ele>1528</ele>
        <time>2015-08-20T10:18:08Z</time>
      </trkpt>
      <trkpt lat="44.03618" lon="7.06709">
        <ele>1527</ele>
        <time>2015-08-20T10:18:11Z</time>
      </trkpt>
      <trkpt lat="44.03619" lon="7.06711">
        <ele>1525</ele>
        <time>2015-08-20T10:18:15Z</time>
      </trkpt>
      <trkpt lat="44.03617" lon="7.06714">
        <ele>1525</ele>
        <time>2015-08-20T10:18:20Z</time>
      </trkpt>
      <trkpt lat="44.03615" lon="7.0672">
        <ele>1524</ele>
        <time>2015-08-20T10:18:21Z</time>
      </trkpt>
      <trkpt lat="44.03614" lon="7.06722">
        <ele>1524</ele>
        <time>2015-08-20T10:18:22Z</time>
      </trkpt>
      <trkpt lat="44.03613" lon="7.06725">
        <ele>1523</ele>
        <time>2015-08-20T10:18:26Z</time>
      </trkpt>
      <trkpt lat="44.03613" lon="7.06728">
        <ele>1522</ele>
        <time>2015-08-20T10:18:26Z</time>
      </trkpt>
      <trkpt lat="44.03615" lon="7.06729">
        <ele>1520</ele>
        <time>2015-08-20T10:18:30Z</time>
      </trkpt>
      <trkpt lat="44.03615" lon="7.06732">
        <ele>1519</ele>
        <time>2015-08-20T10:18:35Z</time>
      </trkpt>
      <trkpt lat="44.03614" lon="7.06738">
        <ele>1518</ele>
        <time>2015-08-20T10:18:36Z</time>
      </trkpt>
      <trkpt lat="44.03613" lon="7.06739">
        <ele>1518</ele>
        <time>2015-08-20T10:18:37Z</time>
      </trkpt>
      <trkpt lat="44.03613" lon="7.06741">
        <ele>1517</ele>
        <time>2015-08-20T10:18:38Z</time>
      </trkpt>
      <trkpt lat="44.03613" lon="7.06746">
        <ele>1517</ele>
        <time>2015-08-20T10:18:41Z</time>
      </trkpt>
      <trkpt lat="44.03612" lon="7.06749">
        <ele>1515</ele>
        <time>2015-08-20T10:18:43Z</time>
      </trkpt>
      <trkpt lat="44.03611" lon="7.06751">
        <ele>1515</ele>
        <time>2015-08-20T10:18:44Z</time>
      </trkpt>
      <trkpt lat="44.03611" lon="7.06753">
        <ele>1514</ele>
        <time>2015-08-20T10:18:46Z</time>
      </trkpt>
      <trkpt lat="44.03608" lon="7.06759">
        <ele>1514</ele>
        <time>2015-08-20T10:18:49Z</time>
      </trkpt>
      <trkpt lat="44.03608" lon="7.06761">
        <ele>1513</ele>
        <time>2015-08-20T10:18:50Z</time>
      </trkpt>
      <trkpt lat="44.03604" lon="7.06764">
        <ele>1513</ele>
        <time>2015-08-20T10:18:57Z</time>
      </trkpt>
      <trkpt lat="44.03599" lon="7.06765">
        <ele>1513</ele>
        <time>2015-08-20T10:18:57Z</time>
      </trkpt>
      <trkpt lat="44.03598" lon="7.06765">
        <ele>1513</ele>
        <time>2015-08-20T10:18:58Z</time>
      </trkpt>
      <trkpt lat="44.03596" lon="7.06765">
        <ele>1513</ele>
        <time>2015-08-20T10:19:00Z</time>
      </trkpt>
      <trkpt lat="44.03592" lon="7.06768">
        <ele>1512</ele>
        <time>2015-08-20T10:19:03Z</time>
      </trkpt>
      <trkpt lat="44.0359" lon="7.06769">
        <ele>1512</ele>
        <time>2015-08-20T10:19:05Z</time>
      </trkpt>
      <trkpt lat="44.03589" lon="7.0677">
        <ele>1512</ele>
        <time>2015-08-20T10:19:06Z</time>
      </trkpt>
      <trkpt lat="44.03588" lon="7.0677">
        <ele>1512</ele>
        <time>2015-08-20T10:19:07Z</time>
      </trkpt>
      <trkpt lat="44.03583" lon="7.06773">
        <ele>1511</ele>
        <time>2015-08-20T10:19:10Z</time>
      </trkpt>
      <trkpt lat="44.03582" lon="7.06773">
        <ele>1510</ele>
        <time>2015-08-20T10:19:11Z</time>
      </trkpt>
      <trkpt lat="44.03579" lon="7.06773">
        <ele>1510</ele>
        <time>2015-08-20T10:19:16Z</time>
      </trkpt>
      <trkpt lat="44.03575" lon="7.06772">
        <ele>1509</ele>
        <time>2015-08-20T10:19:17Z</time>
      </trkpt>
      <trkpt lat="44.03573" lon="7.06771">
        <ele>1508</ele>
        <time>2015-08-20T10:19:19Z</time>
      </trkpt>
      <trkpt lat="44.0357" lon="7.06771">
        <ele>1507</ele>
        <time>2015-08-20T10:19:23Z</time>
      </trkpt>
      <trkpt lat="44.03566" lon="7.06771">
        <ele>1507</ele>
        <time>2015-08-20T10:19:24Z</time>
      </trkpt>
      <trkpt lat="44.03564" lon="7.0677">
        <ele>1507</ele>
        <time>2015-08-20T10:19:25Z</time>
      </trkpt>
      <trkpt lat="44.03562" lon="7.06768">
        <ele>1507</ele>
        <time>2015-08-20T10:19:27Z</time>
      </trkpt>
      <trkpt lat="44.03561" lon="7.06766">
        <ele>1507</ele>
        <time>2015-08-20T10:19:31Z</time>
      </trkpt>
      <trkpt lat="44.03556" lon="7.06762">
        <ele>1507</ele>
        <time>2015-08-20T10:19:31Z</time>
      </trkpt>
      <trkpt lat="44.03554" lon="7.0676">
        <ele>1507</ele>
        <time>2015-08-20T10:19:36Z</time>
      </trkpt>
      <trkpt lat="44.0355" lon="7.06757">
        <ele>1507</ele>
        <time>2015-08-20T10:19:36Z</time>
      </trkpt>
      <trkpt lat="44.03548" lon="7.06756">
        <ele>1507</ele>
        <time>2015-08-20T10:19:38Z</time>
      </trkpt>
      <trkpt lat="44.03547" lon="7.06755">
        <ele>1507</ele>
        <time>2015-08-20T10:19:39Z</time>
      </trkpt>
      <trkpt lat="44.03541" lon="7.06751">
        <ele>1507</ele>
        <time>2015-08-20T10:19:42Z</time>
      </trkpt>
      <trkpt lat="44.03538" lon="7.06747">
        <ele>1507</ele>
        <time>2015-08-20T10:19:48Z</time>
      </trkpt>
      <trkpt lat="44.03535" lon="7.06744">
        <ele>1507</ele>
        <time>2015-08-20T10:19:48Z</time>
      </trkpt>
      <trkpt lat="44.03534" lon="7.06743">
        <ele>1507</ele>
        <time>2015-08-20T10:19:49Z</time>
      </trkpt>
      <trkpt lat="44.03532" lon="7.06741">
        <ele>1507</ele>
        <time>2015-08-20T10:19:53Z</time>
      </trkpt>
      <trkpt lat="44.03529" lon="7.06738">
        <ele>1507</ele>
        <time>2015-08-20T10:19:54Z</time>
      </trkpt>
      <trkpt lat="44.03525" lon="7.06736">
        <ele>1507</ele>
        <time>2015-08-20T10:19:59Z</time>
      </trkpt>
      <trkpt lat="44.03523" lon="7.06735">
        <ele>1506</ele>
        <time>2015-08-20T10:19:59Z</time>
      </trkpt>
      <trkpt lat="44.0352" lon="7.06734">
        <ele>1505</ele>
        <time>2015-08-20T10:20:05Z</time>
      </trkpt>
      <trkpt lat="44.03516" lon="7.06735">
        <ele>1505</ele>
        <time>2015-08-20T10:20:06Z</time>
      </trkpt>
      <trkpt lat="44.03515" lon="7.06736">
        <ele>1504</ele>
        <time>2015-08-20T10:20:07Z</time>
      </trkpt>
      <trkpt lat="44.03514" lon="7.06737">
        <ele>1504</ele>
        <time>2015-08-20T10:20:08Z</time>
      </trkpt>
      <trkpt lat="44.03512" lon="7.06739">
        <ele>1503</ele>
        <time>2015-08-20T10:20:11Z</time>
      </trkpt>
      <trkpt lat="44.03508" lon="7.06743">
        <ele>1503</ele>
        <time>2015-08-20T10:20:12Z</time>
      </trkpt>
      <trkpt lat="44.03506" lon="7.06743">
        <ele>1503</ele>
        <time>2015-08-20T10:20:13Z</time>
      </trkpt>
      <trkpt lat="44.03505" lon="7.06744">
        <ele>1503</ele>
        <time>2015-08-20T10:20:14Z</time>
      </trkpt>
      <trkpt lat="44.03502" lon="7.06745">
        <ele>1503</ele>
        <time>2015-08-20T10:20:18Z</time>
      </trkpt>
      <trkpt lat="44.03499" lon="7.06746">
        <ele>1503</ele>
        <time>2015-08-20T10:20:18Z</time>
      </trkpt>
      <trkpt lat="44.03498" lon="7.06745">
        <ele>1503</ele>
        <time>2015-08-20T10:20:19Z</time>
      </trkpt>
      <trkpt lat="44.03496" lon="7.06744">
        <ele>1503</ele>
        <time>2015-08-20T10:20:22Z</time>
      </trkpt>
      <trkpt lat="44.03494" lon="7.06742">
        <ele>1503</ele>
        <time>2015-08-20T10:20:26Z</time>
      </trkpt>
      <trkpt lat="44.03493" lon="7.06736">
        <ele>1503</ele>
        <time>2015-08-20T10:20:27Z</time>
      </trkpt>
      <trkpt lat="44.03493" lon="7.06734">
        <ele>1503</ele>
        <time>2015-08-20T10:20:28Z</time>
      </trkpt>
      <trkpt lat="44.03492" lon="7.06733">
        <ele>1503</ele>
        <time>2015-08-20T10:20:29Z</time>
      </trkpt>
      <trkpt lat="44.03491" lon="7.06731">
        <ele>1503</ele>
        <time>2015-08-20T10:20:30Z</time>
      </trkpt>
      <trkpt lat="44.03485" lon="7.0673">
        <ele>1502</ele>
        <time>2015-08-20T10:20:34Z</time>
      </trkpt>
      <trkpt lat="44.03484" lon="7.0673">
        <ele>1502</ele>
        <time>2015-08-20T10:20:36Z</time>
      </trkpt>
      <trkpt lat="44.03482" lon="7.0673">
        <ele>1501</ele>
        <time>2015-08-20T10:20:37Z</time>
      </trkpt>
      <trkpt lat="44.0348" lon="7.0673">
        <ele>1501</ele>
        <time>2015-08-20T10:20:42Z</time>
      </trkpt>
      <trkpt lat="44.03473" lon="7.0673">
        <ele>1501</ele>
        <time>2015-08-20T10:20:43Z</time>
      </trkpt>
      <trkpt lat="44.03472" lon="7.06728">
        <ele>1501</ele>
        <time>2015-08-20T10:20:44Z</time>
      </trkpt>
      <trkpt lat="44.03471" lon="7.06726">
        <ele>1501</ele>
        <time>2015-08-20T10:20:44Z</time>
      </trkpt>
      <trkpt lat="44.03465" lon="7.06721">
        <ele>1501</ele>
        <time>2015-08-20T10:20:48Z</time>
      </trkpt>
      <trkpt lat="44.03464" lon="7.0672">
        <ele>1501</ele>
        <time>2015-08-20T10:20:49Z</time>
      </trkpt>
      <trkpt lat="44.03461" lon="7.06717">
        <ele>1501</ele>
        <time>2015-08-20T10:20:54Z</time>
      </trkpt>
      <trkpt lat="44.03458" lon="7.06713">
        <ele>1501</ele>
        <time>2015-08-20T10:20:54Z</time>
      </trkpt>
      <trkpt lat="44.03457" lon="7.06712">
        <ele>1501</ele>
        <time>2015-08-20T10:20:55Z</time>
      </trkpt>
      <trkpt lat="44.03455" lon="7.06711">
        <ele>1501</ele>
        <time>2015-08-20T10:20:56Z</time>
      </trkpt>
      <trkpt lat="44.03453" lon="7.06709">
        <ele>1501</ele>
        <time>2015-08-20T10:21:00Z</time>
      </trkpt>
      <trkpt lat="44.0345" lon="7.06709">
        <ele>1501</ele>
        <time>2015-08-20T10:21:00Z</time>
      </trkpt>
      <trkpt lat="44.03448" lon="7.06707">
        <ele>1501</ele>
        <time>2015-08-20T10:21:02Z</time>
      </trkpt>
      <trkpt lat="44.03446" lon="7.06706">
        <ele>1501</ele>
        <time>2015-08-20T10:21:06Z</time>
      </trkpt>
      <trkpt lat="44.03443" lon="7.06706">
        <ele>1501</ele>
        <time>2015-08-20T10:21:06Z</time>
      </trkpt>
      <trkpt lat="44.03442" lon="7.06705">
        <ele>1501</ele>
        <time>2015-08-20T10:21:07Z</time>
      </trkpt>
      <trkpt lat="44.03437" lon="7.06708">
        <ele>1501</ele>
        <time>2015-08-20T10:21:12Z</time>
      </trkpt>
      <trkpt lat="44.03431" lon="7.0671">
        <ele>1501</ele>
        <time>2015-08-20T10:21:12Z</time>
      </trkpt>
      <trkpt lat="44.03429" lon="7.06709">
        <ele>1502</ele>
        <time>2015-08-20T10:21:14Z</time>
      </trkpt>
      <trkpt lat="44.03426" lon="7.06706">
        <ele>1503</ele>
        <time>2015-08-20T10:21:19Z</time>
      </trkpt>
      <trkpt lat="44.03421" lon="7.06702">
        <ele>1504</ele>
        <time>2015-08-20T10:21:21Z</time>
      </trkpt>
      <trkpt lat="44.03418" lon="7.067">
        <ele>1505</ele>
        <time>2015-08-20T10:21:25Z</time>
      </trkpt>
      <trkpt lat="44.03413" lon="7.06698">
        <ele>1505</ele>
        <time>2015-08-20T10:21:25Z</time>
      </trkpt>
      <trkpt lat="44.03412" lon="7.06697">
        <ele>1505</ele>
        <time>2015-08-20T10:21:26Z</time>
      </trkpt>
      <trkpt lat="44.03406" lon="7.06694">
        <ele>1506</ele>
        <time>2015-08-20T10:21:30Z</time>
      </trkpt>
      <trkpt lat="44.03403" lon="7.06694">
        <ele>1506</ele>
        <time>2015-08-20T10:21:36Z</time>
      </trkpt>
      <trkpt lat="44.03399" lon="7.06697">
        <ele>1506</ele>
        <time>2015-08-20T10:21:36Z</time>
      </trkpt>
      <trkpt lat="44.03397" lon="7.06698">
        <ele>1506</ele>
        <time>2015-08-20T10:21:39Z</time>
      </trkpt>
      <trkpt lat="44.03393" lon="7.06704">
        <ele>1506</ele>
        <time>2015-08-20T10:21:42Z</time>
      </trkpt>
      <trkpt lat="44.03391" lon="7.06706">
        <ele>1506</ele>
        <time>2015-08-20T10:21:44Z</time>
      </trkpt>
      <trkpt lat="44.03389" lon="7.06708">
        <ele>1506</ele>
        <time>2015-08-20T10:21:49Z</time>
      </trkpt>
      <trkpt lat="44.03383" lon="7.06707">
        <ele>1506</ele>
        <time>2015-08-20T10:21:51Z</time>
      </trkpt>
      <trkpt lat="44.03381" lon="7.06707">
        <ele>1506</ele>
        <time>2015-08-20T10:21:51Z</time>
      </trkpt>
      <trkpt lat="44.03372" lon="7.06711">
        <ele>1505</ele>
        <time>2015-08-20T10:21:56Z</time>
      </trkpt>
      <trkpt lat="44.03371" lon="7.06712">
        <ele>1505</ele>
        <time>2015-08-20T10:21:57Z</time>
      </trkpt>
      <trkpt lat="44.03367" lon="7.06713">
        <ele>1505</ele>
        <time>2015-08-20T10:21:58Z</time>
      </trkpt>
      <trkpt lat="44.03364" lon="7.06713">
        <ele>1505</ele>
        <time>2015-08-20T10:21:59Z</time>
      </trkpt>
      <trkpt lat="44.03353" lon="7.06713">
        <ele>1505</ele>
        <time>2015-08-20T10:22:04Z</time>
      </trkpt>
      <trkpt lat="44.03351" lon="7.06713">
        <ele>1505</ele>
        <time>2015-08-20T10:22:05Z</time>
      </trkpt>
      <trkpt lat="44.03345" lon="7.06713">
        <ele>1505</ele>
        <time>2015-08-20T10:22:09Z</time>
      </trkpt>
      <trkpt lat="44.03344" lon="7.06712">
        <ele>1505</ele>
        <time>2015-08-20T10:22:10Z</time>
      </trkpt>
      <trkpt lat="44.03336" lon="7.06711">
        <ele>1505</ele>
        <time>2015-08-20T10:22:15Z</time>
      </trkpt>
      <trkpt lat="44.03335" lon="7.0671">
        <ele>1505</ele>
        <time>2015-08-20T10:22:16Z</time>
      </trkpt>
      <trkpt lat="44.03334" lon="7.06708">
        <ele>1505</ele>
        <time>2015-08-20T10:22:18Z</time>
      </trkpt>
      <trkpt lat="44.03333" lon="7.06706">
        <ele>1505</ele>
        <time>2015-08-20T10:22:19Z</time>
      </trkpt>
      <trkpt lat="44.03331" lon="7.06704">
        <ele>1505</ele>
        <time>2015-08-20T10:22:22Z</time>
      </trkpt>
      <trkpt lat="44.03328" lon="7.067">
        <ele>1505</ele>
        <time>2015-08-20T10:22:23Z</time>
      </trkpt>
      <trkpt lat="44.03326" lon="7.06698">
        <ele>1504</ele>
        <time>2015-08-20T10:22:29Z</time>
      </trkpt>
      <trkpt lat="44.03322" lon="7.06696">
        <ele>1503</ele>
        <time>2015-08-20T10:22:29Z</time>
      </trkpt>
      <trkpt lat="44.03321" lon="7.06695">
        <ele>1502</ele>
        <time>2015-08-20T10:22:30Z</time>
      </trkpt>
      <trkpt lat="44.03319" lon="7.06692">
        <ele>1501</ele>
        <time>2015-08-20T10:22:34Z</time>
      </trkpt>
      <trkpt lat="44.03316" lon="7.0669">
        <ele>1500</ele>
        <time>2015-08-20T10:22:34Z</time>
      </trkpt>
      <trkpt lat="44.03315" lon="7.06688">
        <ele>1499</ele>
        <time>2015-08-20T10:22:36Z</time>
      </trkpt>
      <trkpt lat="44.03312" lon="7.06686">
        <ele>1497</ele>
        <time>2015-08-20T10:22:41Z</time>
      </trkpt>
      <trkpt lat="44.03307" lon="7.06684">
        <ele>1496</ele>
        <time>2015-08-20T10:22:41Z</time>
      </trkpt>
      <trkpt lat="44.03305" lon="7.06682">
        <ele>1494</ele>
        <time>2015-08-20T10:22:44Z</time>
      </trkpt>
      <trkpt lat="44.03303" lon="7.06681">
        <ele>1493</ele>
        <time>2015-08-20T10:22:48Z</time>
      </trkpt>
      <trkpt lat="44.03299" lon="7.06681">
        <ele>1492</ele>
        <time>2015-08-20T10:22:49Z</time>
      </trkpt>
      <trkpt lat="44.03297" lon="7.0668">
        <ele>1491</ele>
        <time>2015-08-20T10:22:49Z</time>
      </trkpt>
      <trkpt lat="44.03296" lon="7.0668">
        <ele>1491</ele>
        <time>2015-08-20T10:22:51Z</time>
      </trkpt>
      <trkpt lat="44.03293" lon="7.06679">
        <ele>1490</ele>
        <time>2015-08-20T10:22:54Z</time>
      </trkpt>
      <trkpt lat="44.03289" lon="7.06679">
        <ele>1490</ele>
        <time>2015-08-20T10:22:55Z</time>
      </trkpt>
      <trkpt lat="44.03288" lon="7.06678">
        <ele>1489</ele>
        <time>2015-08-20T10:22:57Z</time>
      </trkpt>
      <trkpt lat="44.03285" lon="7.06678">
        <ele>1488</ele>
        <time>2015-08-20T10:23:01Z</time>
      </trkpt>
      <trkpt lat="44.03281" lon="7.06675">
        <ele>1487</ele>
        <time>2015-08-20T10:23:01Z</time>
      </trkpt>
      <trkpt lat="44.03279" lon="7.06674">
        <ele>1487</ele>
        <time>2015-08-20T10:23:02Z</time>
      </trkpt>
      <trkpt lat="44.03272" lon="7.06673">
        <ele>1486</ele>
        <time>2015-08-20T10:23:06Z</time>
      </trkpt>
      <trkpt lat="44.0327" lon="7.06673">
        <ele>1486</ele>
        <time>2015-08-20T10:23:08Z</time>
      </trkpt>
      <trkpt lat="44.03268" lon="7.06673">
        <ele>1485</ele>
        <time>2015-08-20T10:23:08Z</time>
      </trkpt>
      <trkpt lat="44.03264" lon="7.06674">
        <ele>1485</ele>
        <time>2015-08-20T10:23:13Z</time>
      </trkpt>
      <trkpt lat="44.0326" lon="7.06676">
        <ele>1485</ele>
        <time>2015-08-20T10:23:13Z</time>
      </trkpt>
      <trkpt lat="44.03258" lon="7.06677">
        <ele>1485</ele>
        <time>2015-08-20T10:23:15Z</time>
      </trkpt>
      <trkpt lat="44.03257" lon="7.06678">
        <ele>1485</ele>
        <time>2015-08-20T10:23:15Z</time>
      </trkpt>
      <trkpt lat="44.03255" lon="7.06681">
        <ele>1485</ele>
        <time>2015-08-20T10:23:19Z</time>
      </trkpt>
      <trkpt lat="44.03253" lon="7.06684">
        <ele>1485</ele>
        <time>2015-08-20T10:23:19Z</time>
      </trkpt>
      <trkpt lat="44.03252" lon="7.06685">
        <ele>1485</ele>
        <time>2015-08-20T10:23:20Z</time>
      </trkpt>
      <trkpt lat="44.03249" lon="7.0669">
        <ele>1485</ele>
        <time>2015-08-20T10:23:25Z</time>
      </trkpt>
      <trkpt lat="44.03248" lon="7.06695">
        <ele>1485</ele>
        <time>2015-08-20T10:23:25Z</time>
      </trkpt>
      <trkpt lat="44.03248" lon="7.06697">
        <ele>1485</ele>
        <time>2015-08-20T10:23:26Z</time>
      </trkpt>
      <trkpt lat="44.03248" lon="7.06699">
        <ele>1485</ele>
        <time>2015-08-20T10:23:27Z</time>
      </trkpt>
      <trkpt lat="44.03246" lon="7.06706">
        <ele>1485</ele>
        <time>2015-08-20T10:23:32Z</time>
      </trkpt>
      <trkpt lat="44.03244" lon="7.06706">
        <ele>1485</ele>
        <time>2015-08-20T10:23:34Z</time>
      </trkpt>
      <trkpt lat="44.03242" lon="7.06707">
        <ele>1485</ele>
        <time>2015-08-20T10:23:35Z</time>
      </trkpt>
      <trkpt lat="44.03241" lon="7.06707">
        <ele>1485</ele>
        <time>2015-08-20T10:23:36Z</time>
      </trkpt>
      <trkpt lat="44.03231" lon="7.06709">
        <ele>1485</ele>
        <time>2015-08-20T10:23:40Z</time>
      </trkpt>
      <trkpt lat="44.03226" lon="7.06711">
        <ele>1485</ele>
        <time>2015-08-20T10:23:45Z</time>
      </trkpt>
      <trkpt lat="44.03224" lon="7.0671">
        <ele>1486</ele>
        <time>2015-08-20T10:23:46Z</time>
      </trkpt>
      <trkpt lat="44.03222" lon="7.06709">
        <ele>1487</ele>
        <time>2015-08-20T10:23:47Z</time>
      </trkpt>
      <trkpt lat="44.0322" lon="7.06707">
        <ele>1488</ele>
        <time>2015-08-20T10:23:48Z</time>
      </trkpt>
      <trkpt lat="44.03216" lon="7.06704">
        <ele>1489</ele>
        <time>2015-08-20T10:23:52Z</time>
      </trkpt>
      <trkpt lat="44.03212" lon="7.06702">
        <ele>1490</ele>
        <time>2015-08-20T10:23:52Z</time>
      </trkpt>
      <trkpt lat="44.0321" lon="7.06702">
        <ele>1491</ele>
        <time>2015-08-20T10:23:53Z</time>
      </trkpt>
      <trkpt lat="44.03207" lon="7.067">
        <ele>1492</ele>
        <time>2015-08-20T10:23:54Z</time>
      </trkpt>
      <trkpt lat="44.03204" lon="7.06698">
        <ele>1493</ele>
        <time>2015-08-20T10:23:58Z</time>
      </trkpt>
      <trkpt lat="44.032" lon="7.06699">
        <ele>1494</ele>
        <time>2015-08-20T10:23:58Z</time>
      </trkpt>
      <trkpt lat="44.03198" lon="7.06699">
        <ele>1495</ele>
        <time>2015-08-20T10:24:00Z</time>
      </trkpt>
      <trkpt lat="44.03196" lon="7.067">
        <ele>1496</ele>
        <time>2015-08-20T10:24:01Z</time>
      </trkpt>
      <trkpt lat="44.03193" lon="7.067">
        <ele>1497</ele>
        <time>2015-08-20T10:24:05Z</time>
      </trkpt>
      <trkpt lat="44.03188" lon="7.06698">
        <ele>1497</ele>
        <time>2015-08-20T10:24:05Z</time>
      </trkpt>
      <trkpt lat="44.03187" lon="7.06698">
        <ele>1497</ele>
        <time>2015-08-20T10:24:06Z</time>
      </trkpt>
      <trkpt lat="44.03184" lon="7.06696">
        <ele>1497</ele>
        <time>2015-08-20T10:24:10Z</time>
      </trkpt>
      <trkpt lat="44.03181" lon="7.06695">
        <ele>1497</ele>
        <time>2015-08-20T10:24:11Z</time>
      </trkpt>
      <trkpt lat="44.03179" lon="7.06694">
        <ele>1496</ele>
        <time>2015-08-20T10:24:12Z</time>
      </trkpt>
      <trkpt lat="44.03176" lon="7.06694">
        <ele>1494</ele>
        <time>2015-08-20T10:24:18Z</time>
      </trkpt>
      <trkpt lat="44.03173" lon="7.06692">
        <ele>1493</ele>
        <time>2015-08-20T10:24:18Z</time>
      </trkpt>
      <trkpt lat="44.03172" lon="7.06693">
        <ele>1492</ele>
        <time>2015-08-20T10:24:23Z</time>
      </trkpt>
      <trkpt lat="44.03167" lon="7.06694">
        <ele>1491</ele>
        <time>2015-08-20T10:24:24Z</time>
      </trkpt>
      <trkpt lat="44.03166" lon="7.06695">
        <ele>1490</ele>
        <time>2015-08-20T10:24:24Z</time>
      </trkpt>
      <trkpt lat="44.03164" lon="7.06695">
        <ele>1488</ele>
        <time>2015-08-20T10:24:25Z</time>
      </trkpt>
      <trkpt lat="44.03158" lon="7.06697">
        <ele>1486</ele>
        <time>2015-08-20T10:24:29Z</time>
      </trkpt>
      <trkpt lat="44.03156" lon="7.06698">
        <ele>1485</ele>
        <time>2015-08-20T10:24:30Z</time>
      </trkpt>
      <trkpt lat="44.03153" lon="7.067">
        <ele>1484</ele>
        <time>2015-08-20T10:24:32Z</time>
      </trkpt>
      <trkpt lat="44.03152" lon="7.06701">
        <ele>1483</ele>
        <time>2015-08-20T10:24:36Z</time>
      </trkpt>
      <trkpt lat="44.03148" lon="7.06704">
        <ele>1482</ele>
        <time>2015-08-20T10:24:36Z</time>
      </trkpt>
      <trkpt lat="44.03147" lon="7.06706">
        <ele>1481</ele>
        <time>2015-08-20T10:24:38Z</time>
      </trkpt>
      <trkpt lat="44.03146" lon="7.06708">
        <ele>1480</ele>
        <time>2015-08-20T10:24:39Z</time>
      </trkpt>
      <trkpt lat="44.03144" lon="7.06712">
        <ele>1479</ele>
        <time>2015-08-20T10:24:44Z</time>
      </trkpt>
      <trkpt lat="44.03139" lon="7.0672">
        <ele>1478</ele>
        <time>2015-08-20T10:24:44Z</time>
      </trkpt>
      <trkpt lat="44.03138" lon="7.06721">
        <ele>1477</ele>
        <time>2015-08-20T10:24:46Z</time>
      </trkpt>
      <trkpt lat="44.03134" lon="7.06723">
        <ele>1477</ele>
        <time>2015-08-20T10:24:50Z</time>
      </trkpt>
      <trkpt lat="44.03127" lon="7.06724">
        <ele>1477</ele>
        <time>2015-08-20T10:24:50Z</time>
      </trkpt>
      <trkpt lat="44.03125" lon="7.06725">
        <ele>1477</ele>
        <time>2015-08-20T10:24:51Z</time>
      </trkpt>
      <trkpt lat="44.03121" lon="7.06724">
        <ele>1477</ele>
        <time>2015-08-20T10:24:55Z</time>
      </trkpt>
      <trkpt lat="44.03115" lon="7.06721">
        <ele>1477</ele>
        <time>2015-08-20T10:24:56Z</time>
      </trkpt>
      <trkpt lat="44.03113" lon="7.06719">
        <ele>1478</ele>
        <time>2015-08-20T10:24:57Z</time>
      </trkpt>
      <trkpt lat="44.03109" lon="7.06717">
        <ele>1479</ele>
        <time>2015-08-20T10:25:03Z</time>
      </trkpt>
      <trkpt lat="44.03102" lon="7.06716">
        <ele>1480</ele>
        <time>2015-08-20T10:25:03Z</time>
      </trkpt>
      <trkpt lat="44.03099" lon="7.06716">
        <ele>1481</ele>
        <time>2015-08-20T10:25:07Z</time>
      </trkpt>
      <trkpt lat="44.03093" lon="7.06715">
        <ele>1482</ele>
        <time>2015-08-20T10:25:08Z</time>
      </trkpt>
      <trkpt lat="44.03091" lon="7.06716">
        <ele>1483</ele>
        <time>2015-08-20T10:25:09Z</time>
      </trkpt>
      <trkpt lat="44.03085" lon="7.06714">
        <ele>1483</ele>
        <time>2015-08-20T10:25:13Z</time>
      </trkpt>
      <trkpt lat="44.03084" lon="7.06713">
        <ele>1483</ele>
        <time>2015-08-20T10:25:14Z</time>
      </trkpt>
      <trkpt lat="44.0308" lon="7.06711">
        <ele>1483</ele>
        <time>2015-08-20T10:25:19Z</time>
      </trkpt>
      <trkpt lat="44.03075" lon="7.0671">
        <ele>1483</ele>
        <time>2015-08-20T10:25:19Z</time>
      </trkpt>
      <trkpt lat="44.03074" lon="7.0671">
        <ele>1483</ele>
        <time>2015-08-20T10:25:20Z</time>
      </trkpt>
      <trkpt lat="44.0307" lon="7.06711">
        <ele>1482</ele>
        <time>2015-08-20T10:25:24Z</time>
      </trkpt>
      <trkpt lat="44.03066" lon="7.06714">
        <ele>1481</ele>
        <time>2015-08-20T10:25:25Z</time>
      </trkpt>
      <trkpt lat="44.03064" lon="7.06715">
        <ele>1480</ele>
        <time>2015-08-20T10:25:27Z</time>
      </trkpt>
      <trkpt lat="44.03063" lon="7.06716">
        <ele>1479</ele>
        <time>2015-08-20T10:25:28Z</time>
      </trkpt>
      <trkpt lat="44.03061" lon="7.06717">
        <ele>1478</ele>
        <time>2015-08-20T10:25:31Z</time>
      </trkpt>
      <trkpt lat="44.03055" lon="7.06717">
        <ele>1477</ele>
        <time>2015-08-20T10:25:32Z</time>
      </trkpt>
      <trkpt lat="44.03054" lon="7.06718">
        <ele>1476</ele>
        <time>2015-08-20T10:25:33Z</time>
      </trkpt>
      <trkpt lat="44.03051" lon="7.06719">
        <ele>1475</ele>
        <time>2015-08-20T10:25:37Z</time>
      </trkpt>
      <trkpt lat="44.03048" lon="7.06719">
        <ele>1474</ele>
        <time>2015-08-20T10:25:37Z</time>
      </trkpt>
      <trkpt lat="44.03046" lon="7.06719">
        <ele>1473</ele>
        <time>2015-08-20T10:25:39Z</time>
      </trkpt>
      <trkpt lat="44.03045" lon="7.0672">
        <ele>1472</ele>
        <time>2015-08-20T10:25:39Z</time>
      </trkpt>
      <trkpt lat="44.03043" lon="7.0672">
        <ele>1471</ele>
        <time>2015-08-20T10:25:40Z</time>
      </trkpt>
      <trkpt lat="44.03041" lon="7.06722">
        <ele>1470</ele>
        <time>2015-08-20T10:25:45Z</time>
      </trkpt>
      <trkpt lat="44.03036" lon="7.06724">
        <ele>1469</ele>
        <time>2015-08-20T10:25:45Z</time>
      </trkpt>
      <trkpt lat="44.03035" lon="7.06725">
        <ele>1468</ele>
        <time>2015-08-20T10:25:46Z</time>
      </trkpt>
      <trkpt lat="44.03032" lon="7.06727">
        <ele>1467</ele>
        <time>2015-08-20T10:25:50Z</time>
      </trkpt>
      <trkpt lat="44.03029" lon="7.06731">
        <ele>1466</ele>
        <time>2015-08-20T10:25:51Z</time>
      </trkpt>
      <trkpt lat="44.03028" lon="7.06733">
        <ele>1466</ele>
        <time>2015-08-20T10:25:51Z</time>
      </trkpt>
      <trkpt lat="44.03028" lon="7.06735">
        <ele>1466</ele>
        <time>2015-08-20T10:25:53Z</time>
      </trkpt>
      <trkpt lat="44.03025" lon="7.06738">
        <ele>1466</ele>
        <time>2015-08-20T10:25:57Z</time>
      </trkpt>
      <trkpt lat="44.03021" lon="7.0674">
        <ele>1466</ele>
        <time>2015-08-20T10:25:57Z</time>
      </trkpt>
      <trkpt lat="44.0302" lon="7.06741">
        <ele>1465</ele>
        <time>2015-08-20T10:25:59Z</time>
      </trkpt>
      <trkpt lat="44.03018" lon="7.06745">
        <ele>1464</ele>
        <time>2015-08-20T10:26:03Z</time>
      </trkpt>
      <trkpt lat="44.03014" lon="7.0675">
        <ele>1464</ele>
        <time>2015-08-20T10:26:03Z</time>
      </trkpt>
      <trkpt lat="44.03012" lon="7.06751">
        <ele>1463</ele>
        <time>2015-08-20T10:26:04Z</time>
      </trkpt>
      <trkpt lat="44.03009" lon="7.06754">
        <ele>1463</ele>
        <time>2015-08-20T10:26:08Z</time>
      </trkpt>
      <trkpt lat="44.03004" lon="7.06757">
        <ele>1463</ele>
        <time>2015-08-20T10:26:09Z</time>
      </trkpt>
      <trkpt lat="44.03002" lon="7.06758">
        <ele>1463</ele>
        <time>2015-08-20T10:26:10Z</time>
      </trkpt>
      <trkpt lat="44.02999" lon="7.06759">
        <ele>1463</ele>
        <time>2015-08-20T10:26:15Z</time>
      </trkpt>
      <trkpt lat="44.02996" lon="7.06761">
        <ele>1463</ele>
        <time>2015-08-20T10:26:16Z</time>
      </trkpt>
      <trkpt lat="44.02993" lon="7.06762">
        <ele>1463</ele>
        <time>2015-08-20T10:26:18Z</time>
      </trkpt>
      <trkpt lat="44.02989" lon="7.06762">
        <ele>1463</ele>
        <time>2015-08-20T10:26:22Z</time>
      </trkpt>
      <trkpt lat="44.02982" lon="7.06761">
        <ele>1463</ele>
        <time>2015-08-20T10:26:22Z</time>
      </trkpt>
      <trkpt lat="44.02979" lon="7.06761">
        <ele>1464</ele>
        <time>2015-08-20T10:26:24Z</time>
      </trkpt>
      <trkpt lat="44.02977" lon="7.0676">
        <ele>1465</ele>
        <time>2015-08-20T10:26:24Z</time>
      </trkpt>
      <trkpt lat="44.02971" lon="7.06754">
        <ele>1466</ele>
        <time>2015-08-20T10:26:28Z</time>
      </trkpt>
      <trkpt lat="44.02969" lon="7.06753">
        <ele>1467</ele>
        <time>2015-08-20T10:26:29Z</time>
      </trkpt>
      <trkpt lat="44.02967" lon="7.06752">
        <ele>1468</ele>
        <time>2015-08-20T10:26:30Z</time>
      </trkpt>
      <trkpt lat="44.0296" lon="7.06749">
        <ele>1469</ele>
        <time>2015-08-20T10:26:34Z</time>
      </trkpt>
      <trkpt lat="44.02958" lon="7.06749">
        <ele>1470</ele>
        <time>2015-08-20T10:26:35Z</time>
      </trkpt>
      <trkpt lat="44.02956" lon="7.06749">
        <ele>1471</ele>
        <time>2015-08-20T10:26:37Z</time>
      </trkpt>
      <trkpt lat="44.02953" lon="7.06748">
        <ele>1472</ele>
        <time>2015-08-20T10:26:41Z</time>
      </trkpt>
      <trkpt lat="44.02949" lon="7.06746">
        <ele>1472</ele>
        <time>2015-08-20T10:26:41Z</time>
      </trkpt>
      <trkpt lat="44.02947" lon="7.06747">
        <ele>1472</ele>
        <time>2015-08-20T10:26:43Z</time>
      </trkpt>
      <trkpt lat="44.02945" lon="7.06745">
        <ele>1472</ele>
        <time>2015-08-20T10:26:47Z</time>
      </trkpt>
      <trkpt lat="44.0294" lon="7.06742">
        <ele>1472</ele>
        <time>2015-08-20T10:26:48Z</time>
      </trkpt>
      <trkpt lat="44.02939" lon="7.06742">
        <ele>1472</ele>
        <time>2015-08-20T10:26:48Z</time>
      </trkpt>
      <trkpt lat="44.02937" lon="7.06741">
        <ele>1472</ele>
        <time>2015-08-20T10:26:49Z</time>
      </trkpt>
      <trkpt lat="44.02932" lon="7.06738">
        <ele>1472</ele>
        <time>2015-08-20T10:26:53Z</time>
      </trkpt>
      <trkpt lat="44.02931" lon="7.06737">
        <ele>1472</ele>
        <time>2015-08-20T10:26:54Z</time>
      </trkpt>
      <trkpt lat="44.02929" lon="7.06736">
        <ele>1472</ele>
        <time>2015-08-20T10:26:55Z</time>
      </trkpt>
      <trkpt lat="44.02927" lon="7.06737">
        <ele>1472</ele>
        <time>2015-08-20T10:26:56Z</time>
      </trkpt>
      <trkpt lat="44.02924" lon="7.06737">
        <ele>1472</ele>
        <time>2015-08-20T10:27:01Z</time>
      </trkpt>
      <trkpt lat="44.0292" lon="7.06736">
        <ele>1472</ele>
        <time>2015-08-20T10:27:01Z</time>
      </trkpt>
      <trkpt lat="44.02918" lon="7.06737">
        <ele>1472</ele>
        <time>2015-08-20T10:27:02Z</time>
      </trkpt>
      <trkpt lat="44.02913" lon="7.06737">
        <ele>1472</ele>
        <time>2015-08-20T10:27:06Z</time>
      </trkpt>
      <trkpt lat="44.02911" lon="7.06737">
        <ele>1472</ele>
        <time>2015-08-20T10:27:07Z</time>
      </trkpt>
      <trkpt lat="44.02906" lon="7.06735">
        <ele>1472</ele>
        <time>2015-08-20T10:27:12Z</time>
      </trkpt>
      <trkpt lat="44.02904" lon="7.06736">
        <ele>1471</ele>
        <time>2015-08-20T10:27:13Z</time>
      </trkpt>
      <trkpt lat="44.02902" lon="7.06736">
        <ele>1470</ele>
        <time>2015-08-20T10:27:14Z</time>
      </trkpt>
      <trkpt lat="44.02895" lon="7.06738">
        <ele>1470</ele>
        <time>2015-08-20T10:27:18Z</time>
      </trkpt>
      <trkpt lat="44.02893" lon="7.06738">
        <ele>1470</ele>
        <time>2015-08-20T10:27:20Z</time>
      </trkpt>
      <trkpt lat="44.02891" lon="7.06738">
        <ele>1470</ele>
        <time>2015-08-20T10:27:24Z</time>
      </trkpt>
      <trkpt lat="44.02887" lon="7.06741">
        <ele>1470</ele>
        <time>2015-08-20T10:27:25Z</time>
      </trkpt>
      <trkpt lat="44.02885" lon="7.06741">
        <ele>1469</ele>
        <time>2015-08-20T10:27:27Z</time>
      </trkpt>
      <trkpt lat="44.02884" lon="7.06741">
        <ele>1469</ele>
        <time>2015-08-20T10:27:27Z</time>
      </trkpt>
      <trkpt lat="44.02881" lon="7.06742">
        <ele>1469</ele>
        <time>2015-08-20T10:27:32Z</time>
      </trkpt>
      <trkpt lat="44.02877" lon="7.06743">
        <ele>1469</ele>
        <time>2015-08-20T10:27:32Z</time>
      </trkpt>
      <trkpt lat="44.0287" lon="7.06747">
        <ele>1468</ele>
        <time>2015-08-20T10:27:37Z</time>
      </trkpt>
      <trkpt lat="44.02868" lon="7.06747">
        <ele>1468</ele>
        <time>2015-08-20T10:27:39Z</time>
      </trkpt>
      <trkpt lat="44.02865" lon="7.06748">
        <ele>1468</ele>
        <time>2015-08-20T10:27:43Z</time>
      </trkpt>
      <trkpt lat="44.0286" lon="7.0675">
        <ele>1468</ele>
        <time>2015-08-20T10:27:44Z</time>
      </trkpt>
      <trkpt lat="44.02858" lon="7.06751">
        <ele>1468</ele>
        <time>2015-08-20T10:27:46Z</time>
      </trkpt>
      <trkpt lat="44.02855" lon="7.06754">
        <ele>1468</ele>
        <time>2015-08-20T10:27:51Z</time>
      </trkpt>
      <trkpt lat="44.02848" lon="7.06756">
        <ele>1468</ele>
        <time>2015-08-20T10:27:51Z</time>
      </trkpt>
      <trkpt lat="44.02847" lon="7.06756">
        <ele>1468</ele>
        <time>2015-08-20T10:27:52Z</time>
      </trkpt>
      <trkpt lat="44.02845" lon="7.06758">
        <ele>1468</ele>
        <time>2015-08-20T10:27:56Z</time>
      </trkpt>
      <trkpt lat="44.02841" lon="7.06762">
        <ele>1468</ele>
        <time>2015-08-20T10:27:58Z</time>
      </trkpt>
      <trkpt lat="44.0284" lon="7.06762">
        <ele>1468</ele>
        <time>2015-08-20T10:27:58Z</time>
      </trkpt>
      <trkpt lat="44.02838" lon="7.06764">
        <ele>1468</ele>
        <time>2015-08-20T10:27:59Z</time>
      </trkpt>
      <trkpt lat="44.02832" lon="7.06764">
        <ele>1468</ele>
        <time>2015-08-20T10:28:03Z</time>
      </trkpt>
      <trkpt lat="44.0283" lon="7.06764">
        <ele>1468</ele>
        <time>2015-08-20T10:28:04Z</time>
      </trkpt>
      <trkpt lat="44.02828" lon="7.06765">
        <ele>1468</ele>
        <time>2015-08-20T10:28:05Z</time>
      </trkpt>
      <trkpt lat="44.02825" lon="7.06768">
        <ele>1468</ele>
        <time>2015-08-20T10:28:11Z</time>
      </trkpt>
      <trkpt lat="44.02819" lon="7.06772">
        <ele>1468</ele>
        <time>2015-08-20T10:28:11Z</time>
      </trkpt>
      <trkpt lat="44.02815" lon="7.06775">
        <ele>1468</ele>
        <time>2015-08-20T10:28:15Z</time>
      </trkpt>
      <trkpt lat="44.0281" lon="7.06777">
        <ele>1468</ele>
        <time>2015-08-20T10:28:16Z</time>
      </trkpt>
      <trkpt lat="44.02808" lon="7.06778">
        <ele>1468</ele>
        <time>2015-08-20T10:28:17Z</time>
      </trkpt>
      <trkpt lat="44.02801" lon="7.06784">
        <ele>1468</ele>
        <time>2015-08-20T10:28:21Z</time>
      </trkpt>
      <trkpt lat="44.028" lon="7.06785">
        <ele>1468</ele>
        <time>2015-08-20T10:28:22Z</time>
      </trkpt>
      <trkpt lat="44.02797" lon="7.06785">
        <ele>1468</ele>
        <time>2015-08-20T10:28:27Z</time>
      </trkpt>
      <trkpt lat="44.02793" lon="7.06786">
        <ele>1468</ele>
        <time>2015-08-20T10:28:28Z</time>
      </trkpt>
      <trkpt lat="44.02792" lon="7.06787">
        <ele>1468</ele>
        <time>2015-08-20T10:28:28Z</time>
      </trkpt>
      <trkpt lat="44.0279" lon="7.06787">
        <ele>1468</ele>
        <time>2015-08-20T10:28:29Z</time>
      </trkpt>
      <trkpt lat="44.02789" lon="7.06788">
        <ele>1468</ele>
        <time>2015-08-20T10:28:35Z</time>
      </trkpt>
      <trkpt lat="44.02781" lon="7.06789">
        <ele>1468</ele>
        <time>2015-08-20T10:28:36Z</time>
      </trkpt>
      <trkpt lat="44.02778" lon="7.0679">
        <ele>1468</ele>
        <time>2015-08-20T10:28:40Z</time>
      </trkpt>
      <trkpt lat="44.02772" lon="7.06791">
        <ele>1468</ele>
        <time>2015-08-20T10:28:40Z</time>
      </trkpt>
      <trkpt lat="44.02769" lon="7.06791">
        <ele>1468</ele>
        <time>2015-08-20T10:28:41Z</time>
      </trkpt>
      <trkpt lat="44.02767" lon="7.06791">
        <ele>1468</ele>
        <time>2015-08-20T10:28:43Z</time>
      </trkpt>
      <trkpt lat="44.02763" lon="7.0679">
        <ele>1468</ele>
        <time>2015-08-20T10:28:48Z</time>
      </trkpt>
      <trkpt lat="44.02757" lon="7.06789">
        <ele>1468</ele>
        <time>2015-08-20T10:28:49Z</time>
      </trkpt>
      <trkpt lat="44.02754" lon="7.06789">
        <ele>1468</ele>
        <time>2015-08-20T10:28:53Z</time>
      </trkpt>
      <trkpt lat="44.0275" lon="7.06791">
        <ele>1468</ele>
        <time>2015-08-20T10:28:53Z</time>
      </trkpt>
      <trkpt lat="44.02747" lon="7.0679">
        <ele>1468</ele>
        <time>2015-08-20T10:28:54Z</time>
      </trkpt>
      <trkpt lat="44.02745" lon="7.0679">
        <ele>1468</ele>
        <time>2015-08-20T10:28:56Z</time>
      </trkpt>
      <trkpt lat="44.02742" lon="7.0679">
        <ele>1468</ele>
        <time>2015-08-20T10:29:00Z</time>
      </trkpt>
      <trkpt lat="44.02737" lon="7.06791">
        <ele>1468</ele>
        <time>2015-08-20T10:29:00Z</time>
      </trkpt>
      <trkpt lat="44.02735" lon="7.06791">
        <ele>1468</ele>
        <time>2015-08-20T10:29:01Z</time>
      </trkpt>
      <trkpt lat="44.02728" lon="7.0679">
        <ele>1468</ele>
        <time>2015-08-20T10:29:05Z</time>
      </trkpt>
      <trkpt lat="44.02727" lon="7.06791">
        <ele>1468</ele>
        <time>2015-08-20T10:29:06Z</time>
      </trkpt>
      <trkpt lat="44.02724" lon="7.06792">
        <ele>1468</ele>
        <time>2015-08-20T10:29:11Z</time>
      </trkpt>
      <trkpt lat="44.0272" lon="7.06793">
        <ele>1467</ele>
        <time>2015-08-20T10:29:11Z</time>
      </trkpt>
      <trkpt lat="44.02717" lon="7.06796">
        <ele>1465</ele>
        <time>2015-08-20T10:29:17Z</time>
      </trkpt>
      <trkpt lat="44.02713" lon="7.06795">
        <ele>1464</ele>
        <time>2015-08-20T10:29:18Z</time>
      </trkpt>
      <trkpt lat="44.02712" lon="7.06795">
        <ele>1463</ele>
        <time>2015-08-20T10:29:18Z</time>
      </trkpt>
      <trkpt lat="44.0271" lon="7.06796">
        <ele>1462</ele>
        <time>2015-08-20T10:29:23Z</time>
      </trkpt>
      <trkpt lat="44.02705" lon="7.06797">
        <ele>1461</ele>
        <time>2015-08-20T10:29:23Z</time>
      </trkpt>
      <trkpt lat="44.02704" lon="7.06797">
        <ele>1460</ele>
        <time>2015-08-20T10:29:24Z</time>
      </trkpt>
      <trkpt lat="44.02701" lon="7.06797">
        <ele>1459</ele>
        <time>2015-08-20T10:29:28Z</time>
      </trkpt>
      <trkpt lat="44.02696" lon="7.06799">
        <ele>1458</ele>
        <time>2015-08-20T10:29:29Z</time>
      </trkpt>
      <trkpt lat="44.02695" lon="7.06799">
        <ele>1457</ele>
        <time>2015-08-20T10:29:30Z</time>
      </trkpt>
      <trkpt lat="44.02688" lon="7.068">
        <ele>1456</ele>
        <time>2015-08-20T10:29:34Z</time>
      </trkpt>
      <trkpt lat="44.02686" lon="7.06801">
        <ele>1455</ele>
        <time>2015-08-20T10:29:35Z</time>
      </trkpt>
      <trkpt lat="44.02681" lon="7.06803">
        <ele>1454</ele>
        <time>2015-08-20T10:29:40Z</time>
      </trkpt>
      <trkpt lat="44.02676" lon="7.06804">
        <ele>1453</ele>
        <time>2015-08-20T10:29:41Z</time>
      </trkpt>
      <trkpt lat="44.02674" lon="7.06804">
        <ele>1452</ele>
        <time>2015-08-20T10:29:41Z</time>
      </trkpt>
      <trkpt lat="44.02672" lon="7.06805">
        <ele>1452</ele>
        <time>2015-08-20T10:29:42Z</time>
      </trkpt>
      <trkpt lat="44.02668" lon="7.06807">
        <ele>1452</ele>
        <time>2015-08-20T10:29:46Z</time>
      </trkpt>
      <trkpt lat="44.02663" lon="7.06808">
        <ele>1452</ele>
        <time>2015-08-20T10:29:47Z</time>
      </trkpt>
      <trkpt lat="44.02657" lon="7.06812">
        <ele>1452</ele>
        <time>2015-08-20T10:29:52Z</time>
      </trkpt>
      <trkpt lat="44.02656" lon="7.06813">
        <ele>1452</ele>
        <time>2015-08-20T10:29:53Z</time>
      </trkpt>
      <trkpt lat="44.02655" lon="7.06814">
        <ele>1452</ele>
        <time>2015-08-20T10:29:54Z</time>
      </trkpt>
      <trkpt lat="44.02653" lon="7.06816">
        <ele>1452</ele>
        <time>2015-08-20T10:30:00Z</time>
      </trkpt>
      <trkpt lat="44.02647" lon="7.06821">
        <ele>1452</ele>
        <time>2015-08-20T10:30:00Z</time>
      </trkpt>
      <trkpt lat="44.02643" lon="7.06823">
        <ele>1452</ele>
        <time>2015-08-20T10:30:05Z</time>
      </trkpt>
      <trkpt lat="44.02639" lon="7.06826">
        <ele>1452</ele>
        <time>2015-08-20T10:30:05Z</time>
      </trkpt>
      <trkpt lat="44.02637" lon="7.06828">
        <ele>1452</ele>
        <time>2015-08-20T10:30:06Z</time>
      </trkpt>
      <trkpt lat="44.02634" lon="7.06828">
        <ele>1452</ele>
        <time>2015-08-20T10:30:10Z</time>
      </trkpt>
      <trkpt lat="44.02629" lon="7.06828">
        <ele>1452</ele>
        <time>2015-08-20T10:30:12Z</time>
      </trkpt>
      <trkpt lat="44.02628" lon="7.06828">
        <ele>1452</ele>
        <time>2015-08-20T10:30:12Z</time>
      </trkpt>
      <trkpt lat="44.02626" lon="7.06828">
        <ele>1452</ele>
        <time>2015-08-20T10:30:14Z</time>
      </trkpt>
      <trkpt lat="44.02622" lon="7.06824">
        <ele>1452</ele>
        <time>2015-08-20T10:30:18Z</time>
      </trkpt>
      <trkpt lat="44.02621" lon="7.06823">
        <ele>1452</ele>
        <time>2015-08-20T10:30:19Z</time>
      </trkpt>
      <trkpt lat="44.0262" lon="7.06822">
        <ele>1452</ele>
        <time>2015-08-20T10:30:20Z</time>
      </trkpt>
      <trkpt lat="44.02614" lon="7.0682">
        <ele>1452</ele>
        <time>2015-08-20T10:30:24Z</time>
      </trkpt>
      <trkpt lat="44.02613" lon="7.0682">
        <ele>1452</ele>
        <time>2015-08-20T10:30:26Z</time>
      </trkpt>
      <trkpt lat="44.0261" lon="7.06817">
        <ele>1451</ele>
        <time>2015-08-20T10:30:32Z</time>
      </trkpt>
      <trkpt lat="44.02607" lon="7.06815">
        <ele>1450</ele>
        <time>2015-08-20T10:30:33Z</time>
      </trkpt>
      <trkpt lat="44.02606" lon="7.06815">
        <ele>1449</ele>
        <time>2015-08-20T10:30:35Z</time>
      </trkpt>
      <trkpt lat="44.02604" lon="7.06814">
        <ele>1447</ele>
        <time>2015-08-20T10:30:40Z</time>
      </trkpt>
      <trkpt lat="44.02602" lon="7.06812">
        <ele>1446</ele>
        <time>2015-08-20T10:30:41Z</time>
      </trkpt>
      <trkpt lat="44.026" lon="7.06813">
        <ele>1444</ele>
        <time>2015-08-20T10:30:43Z</time>
      </trkpt>
      <trkpt lat="44.02601" lon="7.06812">
        <ele>1443</ele>
        <time>2015-08-20T10:31:13Z</time>
      </trkpt>
      <trkpt lat="44.02602" lon="7.06812">
        <ele>1442</ele>
        <time>2015-08-20T10:31:24Z</time>
      </trkpt>
      <trkpt lat="44.02603" lon="7.06814">
        <ele>1442</ele>
        <time>2015-08-20T10:31:39Z</time>
      </trkpt>
      <trkpt lat="44.02602" lon="7.06814">
        <ele>1442</ele>
        <time>2015-08-20T10:31:43Z</time>
      </trkpt>
    </trkseg>
  </trk>
</gpx>